<?xml version="1.0" encoding="UTF-8" standalone="no" ?>
<gpx xmlns="http://www.topografix.com/GPX/1/1" xmlns:xsi="http://www.w3.org/2001/XMLSchema-instance" xsi:schemaLocation="http://www.topografix.com/GPX/1/1 http://www.topografix.com/GPX/1/1/gpx.xsd" version="1.1" creator="VisuGPX - https://www.visugpx.com">
  <metadata>
    <name>FRANCE - TOULOUSE - GRAN FONDO EN LAURAGAIS (ATLAS)</name>
    <desc><![CDATA[Trace cyclotourisme. Pour faire TLSE -> REVEL. Via petites routes. Retour via le Canal du midi.]]></desc>
  </metadata>
  <trk>
    <name><![CDATA[FRANCE - TOULOUSE - GRAN FONDO EN LAURAGAIS (ATLAS)]]></name>
    <trkseg>
      <trkpt lat="43.60504" lon="1.44786">
        <ele>151.63319</ele>
        <time>2020-12-03T09:40:33.083Z</time>
      </trkpt>
      <trkpt lat="43.6051" lon="1.44797">
        <ele>151.63319</ele>
        <time>2020-12-03T09:40:35.012Z</time>
      </trkpt>
      <trkpt lat="43.60546" lon="1.44851">
        <ele>151.63319</ele>
        <time>2020-12-03T09:40:45.846Z</time>
      </trkpt>
      <trkpt lat="43.60556" lon="1.44866">
        <ele>151.63319</ele>
        <time>2020-12-03T09:40:48.779Z</time>
      </trkpt>
      <trkpt lat="43.60562" lon="1.44875">
        <ele>151.63319</ele>
        <time>2020-12-03T09:40:50.460Z</time>
      </trkpt>
      <trkpt lat="43.60568" lon="1.44884">
        <ele>151.637804</ele>
        <time>2020-12-03T09:40:52.225Z</time>
      </trkpt>
      <trkpt lat="43.60573" lon="1.44894">
        <ele>151.64491</ele>
        <time>2020-12-03T09:40:54.000Z</time>
      </trkpt>
      <trkpt lat="43.60592" lon="1.44922">
        <ele>151.666974</ele>
        <time>2020-12-03T09:40:59.336Z</time>
      </trkpt>
      <trkpt lat="43.60595" lon="1.44926">
        <ele>151.670163</ele>
        <time>2020-12-03T09:41:00.166Z</time>
      </trkpt>
      <trkpt lat="43.60604" lon="1.4494">
        <ele>151.681105</ele>
        <time>2020-12-03T09:41:02.783Z</time>
      </trkpt>
      <trkpt lat="43.60617" lon="1.44958">
        <ele>151.695772</ele>
        <time>2020-12-03T09:41:06.439Z</time>
      </trkpt>
      <trkpt lat="43.60627" lon="1.44973">
        <ele>151.707257</ele>
        <time>2020-12-03T09:41:09.401Z</time>
      </trkpt>
      <trkpt lat="43.6063" lon="1.44985">
        <ele>151.71467</ele>
        <time>2020-12-03T09:41:11.382Z</time>
      </trkpt>
      <trkpt lat="43.60635" lon="1.44991">
        <ele>151.719643</ele>
        <time>2020-12-03T09:41:12.836Z</time>
      </trkpt>
      <trkpt lat="43.60665" lon="1.45037">
        <ele>151.755474</ele>
        <time>2020-12-03T09:41:25.093Z</time>
      </trkpt>
      <trkpt lat="43.60674" lon="1.4505">
        <ele>151.765863</ele>
        <time>2020-12-03T09:41:29.491Z</time>
      </trkpt>
      <trkpt lat="43.60676" lon="1.45047">
        <ele>151.768845</ele>
        <time>2020-12-03T09:41:32.129Z</time>
      </trkpt>
      <trkpt lat="43.60713" lon="1.45101">
        <ele>153.20769</ele>
        <time>2020-12-03T09:41:51.982Z</time>
      </trkpt>
      <trkpt lat="43.60729" lon="1.45124">
        <ele>153.94165</ele>
        <time>2020-12-03T09:42:01.575Z</time>
      </trkpt>
      <trkpt lat="43.60735" lon="1.45133">
        <ele>154.211148</ele>
        <time>2020-12-03T09:42:05.256Z</time>
      </trkpt>
      <trkpt lat="43.60739" lon="1.45138">
        <ele>154.388424</ele>
        <time>2020-12-03T09:42:07.760Z</time>
      </trkpt>
      <trkpt lat="43.60744" lon="1.45146">
        <ele>154.627549</ele>
        <time>2020-12-03T09:42:11.069Z</time>
      </trkpt>
      <trkpt lat="43.60773" lon="1.45188">
        <ele>155.944894</ele>
        <time>2020-12-03T09:42:29.207Z</time>
      </trkpt>
      <trkpt lat="43.60789" lon="1.45214">
        <ele>156.757387</ele>
        <time>2020-12-03T09:42:39.904Z</time>
      </trkpt>
      <trkpt lat="43.60803" lon="1.45236">
        <ele>157.429425</ele>
        <time>2020-12-03T09:42:47.087Z</time>
      </trkpt>
      <trkpt lat="43.60835" lon="1.45288">
        <ele>157.597566</ele>
        <time>2020-12-03T09:43:03.468Z</time>
      </trkpt>
      <trkpt lat="43.60845" lon="1.45302">
        <ele>157.627986</ele>
        <time>2020-12-03T09:43:06.480Z</time>
      </trkpt>
      <trkpt lat="43.60842" lon="1.45305">
        <ele>157.635358</ele>
        <time>2020-12-03T09:43:08.870Z</time>
      </trkpt>
      <trkpt lat="43.60865" lon="1.45336">
        <ele>157.704328</ele>
        <time>2020-12-03T09:43:18.108Z</time>
      </trkpt>
      <trkpt lat="43.60886" lon="1.45367">
        <ele>157.771897</ele>
        <time>2020-12-03T09:43:25.350Z</time>
      </trkpt>
      <trkpt lat="43.60889" lon="1.45372">
        <ele>157.780903</ele>
        <time>2020-12-03T09:43:26.160Z</time>
      </trkpt>
      <trkpt lat="43.60892" lon="1.45377">
        <ele>157.790597</ele>
        <time>2020-12-03T09:43:26.927Z</time>
      </trkpt>
      <trkpt lat="43.60905" lon="1.45396">
        <ele>157.83274</ele>
        <time>2020-12-03T09:43:32.148Z</time>
      </trkpt>
      <trkpt lat="43.60906" lon="1.45399">
        <ele>157.838329</ele>
        <time>2020-12-03T09:43:32.550Z</time>
      </trkpt>
      <trkpt lat="43.60908" lon="1.45403">
        <ele>157.845058</ele>
        <time>2020-12-03T09:43:33.162Z</time>
      </trkpt>
      <trkpt lat="43.60911" lon="1.4541">
        <ele>157.858502</ele>
        <time>2020-12-03T09:43:34.263Z</time>
      </trkpt>
      <trkpt lat="43.60921" lon="1.45399">
        <ele>157.884779</ele>
        <time>2020-12-03T09:43:36.438Z</time>
      </trkpt>
      <trkpt lat="43.60929" lon="1.45388">
        <ele>157.568104</ele>
        <time>2020-12-03T09:43:38.772Z</time>
      </trkpt>
      <trkpt lat="43.60933" lon="1.45383">
        <ele>157.39527</ele>
        <time>2020-12-03T09:43:39.712Z</time>
      </trkpt>
      <trkpt lat="43.6094" lon="1.45374">
        <ele>157.130574</ele>
        <time>2020-12-03T09:43:41.196Z</time>
      </trkpt>
      <trkpt lat="43.60955" lon="1.45356">
        <ele>156.57167</ele>
        <time>2020-12-03T09:43:44.719Z</time>
      </trkpt>
      <trkpt lat="43.60974" lon="1.45333">
        <ele>155.834464</ele>
        <time>2020-12-03T09:43:48.879Z</time>
      </trkpt>
      <trkpt lat="43.60974" lon="1.45332">
        <ele>155.828375</ele>
        <time>2020-12-03T09:43:48.899Z</time>
      </trkpt>
      <trkpt lat="43.61004" lon="1.4531">
        <ele>154.84504</ele>
        <time>2020-12-03T09:43:54.522Z</time>
      </trkpt>
      <trkpt lat="43.61036" lon="1.45291">
        <ele>153.855353</ele>
        <time>2020-12-03T09:44:00.451Z</time>
      </trkpt>
      <trkpt lat="43.61041" lon="1.45288">
        <ele>153.701057</ele>
        <time>2020-12-03T09:44:01.398Z</time>
      </trkpt>
      <trkpt lat="43.61087" lon="1.45264">
        <ele>152.575351</ele>
        <time>2020-12-03T09:44:10.643Z</time>
      </trkpt>
      <trkpt lat="43.61093" lon="1.45261">
        <ele>152.509927</ele>
        <time>2020-12-03T09:44:11.752Z</time>
      </trkpt>
      <trkpt lat="43.61122" lon="1.45245">
        <ele>152.189833</ele>
        <time>2020-12-03T09:44:17.796Z</time>
      </trkpt>
      <trkpt lat="43.61124" lon="1.45244">
        <ele>152.163114</ele>
        <time>2020-12-03T09:44:18.227Z</time>
      </trkpt>
      <trkpt lat="43.61138" lon="1.45237">
        <ele>152.006848</ele>
        <time>2020-12-03T09:44:21.173Z</time>
      </trkpt>
      <trkpt lat="43.6114" lon="1.45236">
        <ele>151.988462</ele>
        <time>2020-12-03T09:44:21.485Z</time>
      </trkpt>
      <trkpt lat="43.61147" lon="1.45232">
        <ele>151.90734</ele>
        <time>2020-12-03T09:44:23.030Z</time>
      </trkpt>
      <trkpt lat="43.61162" lon="1.45224">
        <ele>151.746284</ele>
        <time>2020-12-03T09:44:26.033Z</time>
      </trkpt>
      <trkpt lat="43.61228" lon="1.45185">
        <ele>151.002562</ele>
        <time>2020-12-03T09:44:40.865Z</time>
      </trkpt>
      <trkpt lat="43.61243" lon="1.45176">
        <ele>150.841692</ele>
        <time>2020-12-03T09:44:44.488Z</time>
      </trkpt>
      <trkpt lat="43.61252" lon="1.45171">
        <ele>150.762566</ele>
        <time>2020-12-03T09:44:47.003Z</time>
      </trkpt>
      <trkpt lat="43.61292" lon="1.45148">
        <ele>150.420684</ele>
        <time>2020-12-03T09:44:56.539Z</time>
      </trkpt>
      <trkpt lat="43.61308" lon="1.45137">
        <ele>150.277392</ele>
        <time>2020-12-03T09:45:00.391Z</time>
      </trkpt>
      <trkpt lat="43.61322" lon="1.45128">
        <ele>150.151183</ele>
        <time>2020-12-03T09:45:03.495Z</time>
      </trkpt>
      <trkpt lat="43.61349" lon="1.45095">
        <ele>149.866894</ele>
        <time>2020-12-03T09:45:10.667Z</time>
      </trkpt>
      <trkpt lat="43.61368" lon="1.45062">
        <ele>149.628395</ele>
        <time>2020-12-03T09:45:16.770Z</time>
      </trkpt>
      <trkpt lat="43.61375" lon="1.45051">
        <ele>149.538911</ele>
        <time>2020-12-03T09:45:18.837Z</time>
      </trkpt>
      <trkpt lat="43.61379" lon="1.45056">
        <ele>149.49685</ele>
        <time>2020-12-03T09:45:19.838Z</time>
      </trkpt>
      <trkpt lat="43.61383" lon="1.4505">
        <ele>149.4563</ele>
        <time>2020-12-03T09:45:20.884Z</time>
      </trkpt>
      <trkpt lat="43.61387" lon="1.45047">
        <ele>149.387625</ele>
        <time>2020-12-03T09:45:21.955Z</time>
      </trkpt>
      <trkpt lat="43.61389" lon="1.45049">
        <ele>149.352026</ele>
        <time>2020-12-03T09:45:22.413Z</time>
      </trkpt>
      <trkpt lat="43.6141" lon="1.45072">
        <ele>148.947056</ele>
        <time>2020-12-03T09:45:27.492Z</time>
      </trkpt>
      <trkpt lat="43.6141" lon="1.45093">
        <ele>148.710612</ele>
        <time>2020-12-03T09:45:30.588Z</time>
      </trkpt>
      <trkpt lat="43.61416" lon="1.45101">
        <ele>148.583303</ele>
        <time>2020-12-03T09:45:31.988Z</time>
      </trkpt>
      <trkpt lat="43.61472" lon="1.45165">
        <ele>147.4605</ele>
        <time>2020-12-03T09:45:45.716Z</time>
      </trkpt>
      <trkpt lat="43.615" lon="1.45197">
        <ele>146.902547</ele>
        <time>2020-12-03T09:45:52.519Z</time>
      </trkpt>
      <trkpt lat="43.61504" lon="1.45203">
        <ele>146.810671</ele>
        <time>2020-12-03T09:45:53.762Z</time>
      </trkpt>
      <trkpt lat="43.61544" lon="1.45251">
        <ele>146.370889</ele>
        <time>2020-12-03T09:46:04.071Z</time>
      </trkpt>
      <trkpt lat="43.61556" lon="1.45262">
        <ele>146.271859</ele>
        <time>2020-12-03T09:46:07.062Z</time>
      </trkpt>
      <trkpt lat="43.61595" lon="1.45306">
        <ele>145.936293</ele>
        <time>2020-12-03T09:46:17.337Z</time>
      </trkpt>
      <trkpt lat="43.616" lon="1.45312">
        <ele>145.890397</ele>
        <time>2020-12-03T09:46:18.707Z</time>
      </trkpt>
      <trkpt lat="43.61626" lon="1.45343">
        <ele>145.660722</ele>
        <time>2020-12-03T09:46:26.169Z</time>
      </trkpt>
      <trkpt lat="43.61629" lon="1.45346">
        <ele>145.633605</ele>
        <time>2020-12-03T09:46:26.954Z</time>
      </trkpt>
      <trkpt lat="43.6166" lon="1.45382">
        <ele>145.413762</ele>
        <time>2020-12-03T09:46:35.910Z</time>
      </trkpt>
      <trkpt lat="43.61677" lon="1.45398">
        <ele>145.357391</ele>
        <time>2020-12-03T09:46:40.420Z</time>
      </trkpt>
      <trkpt lat="43.61686" lon="1.45407">
        <ele>145.328674</ele>
        <time>2020-12-03T09:46:42.606Z</time>
      </trkpt>
      <trkpt lat="43.61707" lon="1.45431">
        <ele>145.251855</ele>
        <time>2020-12-03T09:46:48.567Z</time>
      </trkpt>
      <trkpt lat="43.61718" lon="1.45444">
        <ele>145.211535</ele>
        <time>2020-12-03T09:46:51.565Z</time>
      </trkpt>
      <trkpt lat="43.61735" lon="1.45462">
        <ele>145.153493</ele>
        <time>2020-12-03T09:46:55.996Z</time>
      </trkpt>
      <trkpt lat="43.61743" lon="1.4547">
        <ele>145.127254</ele>
        <time>2020-12-03T09:46:57.936Z</time>
      </trkpt>
      <trkpt lat="43.61746" lon="1.45461">
        <ele>145.106998</ele>
        <time>2020-12-03T09:46:59.448Z</time>
      </trkpt>
      <trkpt lat="43.61778" lon="1.45374">
        <ele>144.909272</ele>
        <time>2020-12-03T09:47:15.043Z</time>
      </trkpt>
      <trkpt lat="43.61813" lon="1.45278">
        <ele>144.677399</ele>
        <time>2020-12-03T09:47:32.473Z</time>
      </trkpt>
      <trkpt lat="43.61817" lon="1.45278">
        <ele>144.667017</ele>
        <time>2020-12-03T09:47:33.241Z</time>
      </trkpt>
      <trkpt lat="43.61853" lon="1.45278">
        <ele>144.560823</ele>
        <time>2020-12-03T09:47:40.885Z</time>
      </trkpt>
      <trkpt lat="43.61874" lon="1.45271">
        <ele>144.496892</ele>
        <time>2020-12-03T09:47:45.316Z</time>
      </trkpt>
      <trkpt lat="43.61891" lon="1.45264">
        <ele>144.443608</ele>
        <time>2020-12-03T09:47:49.024Z</time>
      </trkpt>
      <trkpt lat="43.61905" lon="1.45258">
        <ele>144.341108</ele>
        <time>2020-12-03T09:47:52.065Z</time>
      </trkpt>
      <trkpt lat="43.61914" lon="1.45254">
        <ele>144.245054</ele>
        <time>2020-12-03T09:47:53.951Z</time>
      </trkpt>
      <trkpt lat="43.61925" lon="1.45252">
        <ele>144.132208</ele>
        <time>2020-12-03T09:47:56.169Z</time>
      </trkpt>
      <trkpt lat="43.61937" lon="1.45254">
        <ele>144.010056</ele>
        <time>2020-12-03T09:47:58.600Z</time>
      </trkpt>
      <trkpt lat="43.61939" lon="1.45254">
        <ele>143.995685</ele>
        <time>2020-12-03T09:47:58.869Z</time>
      </trkpt>
      <trkpt lat="43.61944" lon="1.45255">
        <ele>143.943938</ele>
        <time>2020-12-03T09:47:59.858Z</time>
      </trkpt>
      <trkpt lat="43.61979" lon="1.45279">
        <ele>143.54733</ele>
        <time>2020-12-03T09:48:07.582Z</time>
      </trkpt>
      <trkpt lat="43.62003" lon="1.45293">
        <ele>143.286452</ele>
        <time>2020-12-03T09:48:12.636Z</time>
      </trkpt>
      <trkpt lat="43.62013" lon="1.45297">
        <ele>143.177095</ele>
        <time>2020-12-03T09:48:14.733Z</time>
      </trkpt>
      <trkpt lat="43.62046" lon="1.45313">
        <ele>142.822822</ele>
        <time>2020-12-03T09:48:21.601Z</time>
      </trkpt>
      <trkpt lat="43.62069" lon="1.45321">
        <ele>142.585328</ele>
        <time>2020-12-03T09:48:26.328Z</time>
      </trkpt>
      <trkpt lat="43.62074" lon="1.45323">
        <ele>142.545854</ele>
        <time>2020-12-03T09:48:27.402Z</time>
      </trkpt>
      <trkpt lat="43.6211" lon="1.45332">
        <ele>142.280048</ele>
        <time>2020-12-03T09:48:34.620Z</time>
      </trkpt>
      <trkpt lat="43.62133" lon="1.45339">
        <ele>142.112013</ele>
        <time>2020-12-03T09:48:39.188Z</time>
      </trkpt>
      <trkpt lat="43.62162" lon="1.45348">
        <ele>141.894018</ele>
        <time>2020-12-03T09:48:45.269Z</time>
      </trkpt>
      <trkpt lat="43.62191" lon="1.45355">
        <ele>141.681149</ele>
        <time>2020-12-03T09:48:51.277Z</time>
      </trkpt>
      <trkpt lat="43.622" lon="1.45357">
        <ele>141.619217</ele>
        <time>2020-12-03T09:48:53.054Z</time>
      </trkpt>
      <trkpt lat="43.62232" lon="1.45366">
        <ele>141.383712</ele>
        <time>2020-12-03T09:48:59.892Z</time>
      </trkpt>
      <trkpt lat="43.62253" lon="1.45372">
        <ele>141.30077</ele>
        <time>2020-12-03T09:49:04.680Z</time>
      </trkpt>
      <trkpt lat="43.62277" lon="1.45383">
        <ele>141.317664</ele>
        <time>2020-12-03T09:49:10.132Z</time>
      </trkpt>
      <trkpt lat="43.62313" lon="1.45408">
        <ele>141.345199</ele>
        <time>2020-12-03T09:49:19.177Z</time>
      </trkpt>
      <trkpt lat="43.62318" lon="1.45423">
        <ele>141.353621</ele>
        <time>2020-12-03T09:49:21.854Z</time>
      </trkpt>
      <trkpt lat="43.62327" lon="1.45432">
        <ele>141.361311</ele>
        <time>2020-12-03T09:49:24.362Z</time>
      </trkpt>
      <trkpt lat="43.62357" lon="1.45434">
        <ele>141.382</ele>
        <time>2020-12-03T09:49:31.235Z</time>
      </trkpt>
      <trkpt lat="43.62388" lon="1.45445">
        <ele>141.403934</ele>
        <time>2020-12-03T09:49:38.690Z</time>
      </trkpt>
      <trkpt lat="43.62401" lon="1.45451">
        <ele>141.413343</ele>
        <time>2020-12-03T09:49:42.020Z</time>
      </trkpt>
      <trkpt lat="43.62408" lon="1.45455">
        <ele>141.428174</ele>
        <time>2020-12-03T09:49:44.171Z</time>
      </trkpt>
      <trkpt lat="43.62446" lon="1.45474">
        <ele>141.628305</ele>
        <time>2020-12-03T09:49:53.639Z</time>
      </trkpt>
      <trkpt lat="43.62474" lon="1.45475">
        <ele>141.77527</ele>
        <time>2020-12-03T09:50:00.547Z</time>
      </trkpt>
      <trkpt lat="43.62484" lon="1.45475">
        <ele>141.825596</ele>
        <time>2020-12-03T09:50:03.071Z</time>
      </trkpt>
      <trkpt lat="43.62508" lon="1.45463">
        <ele>141.951484</ele>
        <time>2020-12-03T09:50:09.326Z</time>
      </trkpt>
      <trkpt lat="43.62512" lon="1.45459">
        <ele>141.979587</ele>
        <time>2020-12-03T09:50:11.004Z</time>
      </trkpt>
      <trkpt lat="43.62517" lon="1.45452">
        <ele>142.01528</ele>
        <time>2020-12-03T09:50:12.676Z</time>
      </trkpt>
      <trkpt lat="43.62521" lon="1.45444">
        <ele>142.048912</ele>
        <time>2020-12-03T09:50:14.239Z</time>
      </trkpt>
      <trkpt lat="43.62524" lon="1.45452">
        <ele>142.082952</ele>
        <time>2020-12-03T09:50:15.999Z</time>
      </trkpt>
      <trkpt lat="43.62534" lon="1.4547">
        <ele>142.166464</ele>
        <time>2020-12-03T09:50:20.488Z</time>
      </trkpt>
      <trkpt lat="43.62536" lon="1.455">
        <ele>142.277787</ele>
        <time>2020-12-03T09:50:25.814Z</time>
      </trkpt>
      <trkpt lat="43.62538" lon="1.45515">
        <ele>142.331767</ele>
        <time>2020-12-03T09:50:28.766Z</time>
      </trkpt>
      <trkpt lat="43.62542" lon="1.45524">
        <ele>142.336173</ele>
        <time>2020-12-03T09:50:30.465Z</time>
      </trkpt>
      <trkpt lat="43.62547" lon="1.45531">
        <ele>142.340777</ele>
        <time>2020-12-03T09:50:32.209Z</time>
      </trkpt>
      <trkpt lat="43.62553" lon="1.45537">
        <ele>142.345337</ele>
        <time>2020-12-03T09:50:34.054Z</time>
      </trkpt>
      <trkpt lat="43.6257" lon="1.45548">
        <ele>142.357417</ele>
        <time>2020-12-03T09:50:38.925Z</time>
      </trkpt>
      <trkpt lat="43.62609" lon="1.45569">
        <ele>142.383148</ele>
        <time>2020-12-03T09:50:48.464Z</time>
      </trkpt>
      <trkpt lat="43.62697" lon="1.45618">
        <ele>142.442445</ele>
        <time>2020-12-03T09:51:09.198Z</time>
      </trkpt>
      <trkpt lat="43.62725" lon="1.45634">
        <ele>142.31341</ele>
        <time>2020-12-03T09:51:15.633Z</time>
      </trkpt>
      <trkpt lat="43.62754" lon="1.4565">
        <ele>142.172948</ele>
        <time>2020-12-03T09:51:22.103Z</time>
      </trkpt>
      <trkpt lat="43.628" lon="1.45678">
        <ele>141.9483</ele>
        <time>2020-12-03T09:51:32.696Z</time>
      </trkpt>
      <trkpt lat="43.62829" lon="1.45695">
        <ele>141.809704</ele>
        <time>2020-12-03T09:51:39.185Z</time>
      </trkpt>
      <trkpt lat="43.62885" lon="1.45731">
        <ele>141.609986</ele>
        <time>2020-12-03T09:51:52.021Z</time>
      </trkpt>
      <trkpt lat="43.62896" lon="1.45752">
        <ele>141.588141</ele>
        <time>2020-12-03T09:51:56.265Z</time>
      </trkpt>
      <trkpt lat="43.6293" lon="1.45796">
        <ele>141.534766</ele>
        <time>2020-12-03T09:52:06.664Z</time>
      </trkpt>
      <trkpt lat="43.62963" lon="1.45843">
        <ele>141.480558</ele>
        <time>2020-12-03T09:52:17.546Z</time>
      </trkpt>
      <trkpt lat="43.62993" lon="1.45891">
        <ele>141.432376</ele>
        <time>2020-12-03T09:52:29.066Z</time>
      </trkpt>
      <trkpt lat="43.63029" lon="1.45942">
        <ele>141.477996</ele>
        <time>2020-12-03T09:52:41.788Z</time>
      </trkpt>
      <trkpt lat="43.63065" lon="1.46022">
        <ele>141.538571</ele>
        <time>2020-12-03T09:52:57.791Z</time>
      </trkpt>
      <trkpt lat="43.63082" lon="1.46066">
        <ele>141.570378</ele>
        <time>2020-12-03T09:53:06.384Z</time>
      </trkpt>
      <trkpt lat="43.63102" lon="1.46125">
        <ele>141.499743</ele>
        <time>2020-12-03T09:53:17.359Z</time>
      </trkpt>
      <trkpt lat="43.63158" lon="1.46245">
        <ele>141.13984</ele>
        <time>2020-12-03T09:53:40.339Z</time>
      </trkpt>
      <trkpt lat="43.63157" lon="1.46252">
        <ele>141.120652</ele>
        <time>2020-12-03T09:53:41.445Z</time>
      </trkpt>
      <trkpt lat="43.63187" lon="1.46273">
        <ele>141.002816</ele>
        <time>2020-12-03T09:53:48.460Z</time>
      </trkpt>
      <trkpt lat="43.63186" lon="1.46279">
        <ele>140.986272</ele>
        <time>2020-12-03T09:53:49.414Z</time>
      </trkpt>
      <trkpt lat="43.63188" lon="1.46298">
        <ele>140.934021</ele>
        <time>2020-12-03T09:53:52.518Z</time>
      </trkpt>
      <trkpt lat="43.63205" lon="1.46351">
        <ele>140.766276</ele>
        <time>2020-12-03T09:54:01.540Z</time>
      </trkpt>
      <trkpt lat="43.63227" lon="1.46403">
        <ele>140.590016</ele>
        <time>2020-12-03T09:54:10.996Z</time>
      </trkpt>
      <trkpt lat="43.63238" lon="1.46429">
        <ele>140.499493</ele>
        <time>2020-12-03T09:54:15.834Z</time>
      </trkpt>
      <trkpt lat="43.63243" lon="1.4644">
        <ele>140.46124</ele>
        <time>2020-12-03T09:54:18.061Z</time>
      </trkpt>
      <trkpt lat="43.63259" lon="1.46476">
        <ele>140.339498</ele>
        <time>2020-12-03T09:54:24.879Z</time>
      </trkpt>
      <trkpt lat="43.63275" lon="1.4651">
        <ele>140.232319</ele>
        <time>2020-12-03T09:54:31.566Z</time>
      </trkpt>
      <trkpt lat="43.63293" lon="1.46552">
        <ele>140.209231</ele>
        <time>2020-12-03T09:54:39.708Z</time>
      </trkpt>
      <trkpt lat="43.63309" lon="1.46587">
        <ele>140.189741</ele>
        <time>2020-12-03T09:54:46.653Z</time>
      </trkpt>
      <trkpt lat="43.63323" lon="1.4663">
        <ele>140.167311</ele>
        <time>2020-12-03T09:54:54.605Z</time>
      </trkpt>
      <trkpt lat="43.63334" lon="1.46664">
        <ele>140.149581</ele>
        <time>2020-12-03T09:55:00.829Z</time>
      </trkpt>
      <trkpt lat="43.63391" lon="1.46828">
        <ele>139.96994</ele>
        <time>2020-12-03T09:55:30.943Z</time>
      </trkpt>
      <trkpt lat="43.63415" lon="1.46866">
        <ele>139.9037</ele>
        <time>2020-12-03T09:55:38.811Z</time>
      </trkpt>
      <trkpt lat="43.6343" lon="1.46886">
        <ele>139.867128</ele>
        <time>2020-12-03T09:55:43.153Z</time>
      </trkpt>
      <trkpt lat="43.63445" lon="1.46892">
        <ele>139.839124</ele>
        <time>2020-12-03T09:55:46.500Z</time>
      </trkpt>
      <trkpt lat="43.63528" lon="1.46895">
        <ele>139.719728</ele>
        <time>2020-12-03T09:56:04.636Z</time>
      </trkpt>
      <trkpt lat="43.63576" lon="1.46974">
        <ele>139.626784</ele>
        <time>2020-12-03T09:56:20.969Z</time>
      </trkpt>
      <trkpt lat="43.63611" lon="1.47032">
        <ele>139.528888</ele>
        <time>2020-12-03T09:56:33.049Z</time>
      </trkpt>
      <trkpt lat="43.63617" lon="1.47044">
        <ele>139.466487</ele>
        <time>2020-12-03T09:56:35.606Z</time>
      </trkpt>
      <trkpt lat="43.63609" lon="1.47052">
        <ele>139.40729</ele>
        <time>2020-12-03T09:56:37.816Z</time>
      </trkpt>
      <trkpt lat="43.63565" lon="1.47096">
        <ele>139.091019</ele>
        <time>2020-12-03T09:56:49.455Z</time>
      </trkpt>
      <trkpt lat="43.63539" lon="1.47113">
        <ele>138.926892</ele>
        <time>2020-12-03T09:56:55.194Z</time>
      </trkpt>
      <trkpt lat="43.6349" lon="1.47143">
        <ele>138.617537</ele>
        <time>2020-12-03T09:57:05.725Z</time>
      </trkpt>
      <trkpt lat="43.63486" lon="1.4715">
        <ele>138.581248</ele>
        <time>2020-12-03T09:57:07.005Z</time>
      </trkpt>
      <trkpt lat="43.63484" lon="1.47148">
        <ele>138.567899</ele>
        <time>2020-12-03T09:57:07.492Z</time>
      </trkpt>
      <trkpt lat="43.63478" lon="1.47151">
        <ele>138.531115</ele>
        <time>2020-12-03T09:57:08.814Z</time>
      </trkpt>
      <trkpt lat="43.63478" lon="1.47155">
        <ele>138.518603</ele>
        <time>2020-12-03T09:57:09.322Z</time>
      </trkpt>
      <trkpt lat="43.63479" lon="1.47158">
        <ele>138.504337</ele>
        <time>2020-12-03T09:57:09.892Z</time>
      </trkpt>
      <trkpt lat="43.63482" lon="1.4716">
        <ele>138.489817</ele>
        <time>2020-12-03T09:57:10.470Z</time>
      </trkpt>
      <trkpt lat="43.63485" lon="1.47159">
        <ele>138.474989</ele>
        <time>2020-12-03T09:57:11.033Z</time>
      </trkpt>
      <trkpt lat="43.63485" lon="1.47163">
        <ele>138.459102</ele>
        <time>2020-12-03T09:57:11.534Z</time>
      </trkpt>
      <trkpt lat="43.63494" lon="1.47178">
        <ele>138.385037</ele>
        <time>2020-12-03T09:57:14.521Z</time>
      </trkpt>
      <trkpt lat="43.63537" lon="1.47239">
        <ele>138.066249</ele>
        <time>2020-12-03T09:57:27.235Z</time>
      </trkpt>
      <trkpt lat="43.6354" lon="1.47243">
        <ele>138.047068</ele>
        <time>2020-12-03T09:57:27.992Z</time>
      </trkpt>
      <trkpt lat="43.63544" lon="1.47256">
        <ele>137.990794</ele>
        <time>2020-12-03T09:57:30.553Z</time>
      </trkpt>
      <trkpt lat="43.63548" lon="1.47267">
        <ele>137.946722</ele>
        <time>2020-12-03T09:57:32.552Z</time>
      </trkpt>
      <trkpt lat="43.63549" lon="1.47273">
        <ele>137.920926</ele>
        <time>2020-12-03T09:57:33.583Z</time>
      </trkpt>
      <trkpt lat="43.63551" lon="1.47282">
        <ele>137.885847</ele>
        <time>2020-12-03T09:57:34.797Z</time>
      </trkpt>
      <trkpt lat="43.63554" lon="1.47295">
        <ele>137.836727</ele>
        <time>2020-12-03T09:57:36.825Z</time>
      </trkpt>
      <trkpt lat="43.63555" lon="1.473">
        <ele>137.817164</ele>
        <time>2020-12-03T09:57:37.745Z</time>
      </trkpt>
      <trkpt lat="43.63556" lon="1.47305">
        <ele>137.795138</ele>
        <time>2020-12-03T09:57:38.719Z</time>
      </trkpt>
      <trkpt lat="43.63567" lon="1.47301">
        <ele>137.733644</ele>
        <time>2020-12-03T09:57:41.302Z</time>
      </trkpt>
      <trkpt lat="43.63586" lon="1.47294">
        <ele>137.631681</ele>
        <time>2020-12-03T09:57:45.216Z</time>
      </trkpt>
      <trkpt lat="43.6359" lon="1.47305">
        <ele>137.588322</ele>
        <time>2020-12-03T09:57:47.307Z</time>
      </trkpt>
      <trkpt lat="43.63599" lon="1.47328">
        <ele>137.558272</ele>
        <time>2020-12-03T09:57:51.362Z</time>
      </trkpt>
      <trkpt lat="43.63604" lon="1.47334">
        <ele>137.548169</ele>
        <time>2020-12-03T09:57:52.893Z</time>
      </trkpt>
      <trkpt lat="43.63613" lon="1.47346">
        <ele>137.528891</ele>
        <time>2020-12-03T09:57:55.854Z</time>
      </trkpt>
      <trkpt lat="43.63615" lon="1.47349">
        <ele>137.524405</ele>
        <time>2020-12-03T09:57:56.493Z</time>
      </trkpt>
      <trkpt lat="43.63738" lon="1.47526">
        <ele>137.141843</ele>
        <time>2020-12-03T09:58:35.571Z</time>
      </trkpt>
      <trkpt lat="43.63807" lon="1.47628">
        <ele>136.713015</ele>
        <time>2020-12-03T09:58:56.494Z</time>
      </trkpt>
      <trkpt lat="43.63813" lon="1.47637">
        <ele>136.675319</ele>
        <time>2020-12-03T09:58:58.285Z</time>
      </trkpt>
      <trkpt lat="43.63868" lon="1.47718">
        <ele>136.419366</ele>
        <time>2020-12-03T09:59:15.236Z</time>
      </trkpt>
      <trkpt lat="43.63877" lon="1.47731">
        <ele>136.388304</ele>
        <time>2020-12-03T09:59:17.892Z</time>
      </trkpt>
      <trkpt lat="43.63883" lon="1.47744">
        <ele>136.358813</ele>
        <time>2020-12-03T09:59:20.449Z</time>
      </trkpt>
      <trkpt lat="43.63886" lon="1.47753">
        <ele>136.340548</ele>
        <time>2020-12-03T09:59:21.956Z</time>
      </trkpt>
      <trkpt lat="43.63888" lon="1.47757">
        <ele>136.331994</ele>
        <time>2020-12-03T09:59:22.696Z</time>
      </trkpt>
      <trkpt lat="43.63891" lon="1.47766">
        <ele>136.314831</ele>
        <time>2020-12-03T09:59:24.149Z</time>
      </trkpt>
      <trkpt lat="43.63894" lon="1.47783">
        <ele>136.281561</ele>
        <time>2020-12-03T09:59:27.187Z</time>
      </trkpt>
      <trkpt lat="43.63895" lon="1.47825">
        <ele>136.205897</ele>
        <time>2020-12-03T09:59:33.655Z</time>
      </trkpt>
      <trkpt lat="43.63889" lon="1.47856">
        <ele>136.14753</ele>
        <time>2020-12-03T09:59:38.794Z</time>
      </trkpt>
      <trkpt lat="43.63883" lon="1.47872">
        <ele>136.114293</ele>
        <time>2020-12-03T09:59:41.676Z</time>
      </trkpt>
      <trkpt lat="43.63848" lon="1.47962">
        <ele>136.112366</ele>
        <time>2020-12-03T09:59:58.060Z</time>
      </trkpt>
      <trkpt lat="43.63845" lon="1.47976">
        <ele>136.115525</ele>
        <time>2020-12-03T10:00:00.696Z</time>
      </trkpt>
      <trkpt lat="43.63843" lon="1.47981">
        <ele>136.116734</ele>
        <time>2020-12-03T10:00:01.578Z</time>
      </trkpt>
      <trkpt lat="43.6383" lon="1.48097">
        <ele>136.141353</ele>
        <time>2020-12-03T10:00:20.536Z</time>
      </trkpt>
      <trkpt lat="43.63832" lon="1.48179">
        <ele>136.280594</ele>
        <time>2020-12-03T10:00:34.233Z</time>
      </trkpt>
      <trkpt lat="43.63832" lon="1.48192">
        <ele>136.309427</ele>
        <time>2020-12-03T10:00:36.337Z</time>
      </trkpt>
      <trkpt lat="43.63829" lon="1.48194">
        <ele>136.321097</ele>
        <time>2020-12-03T10:00:37.256Z</time>
      </trkpt>
      <trkpt lat="43.63824" lon="1.48205">
        <ele>136.349609</ele>
        <time>2020-12-03T10:00:39.588Z</time>
      </trkpt>
      <trkpt lat="43.63824" lon="1.48208">
        <ele>136.356823</ele>
        <time>2020-12-03T10:00:40.198Z</time>
      </trkpt>
      <trkpt lat="43.63825" lon="1.48213">
        <ele>136.368138</ele>
        <time>2020-12-03T10:00:41.104Z</time>
      </trkpt>
      <trkpt lat="43.63831" lon="1.48218">
        <ele>136.386837</ele>
        <time>2020-12-03T10:00:42.542Z</time>
      </trkpt>
      <trkpt lat="43.63834" lon="1.48218">
        <ele>136.397708</ele>
        <time>2020-12-03T10:00:43.328Z</time>
      </trkpt>
      <trkpt lat="43.63834" lon="1.4823">
        <ele>136.42256</ele>
        <time>2020-12-03T10:00:45.229Z</time>
      </trkpt>
      <trkpt lat="43.6384" lon="1.48266">
        <ele>136.503019</ele>
        <time>2020-12-03T10:00:51.691Z</time>
      </trkpt>
      <trkpt lat="43.63849" lon="1.48328">
        <ele>136.640683</ele>
        <time>2020-12-03T10:01:02.758Z</time>
      </trkpt>
      <trkpt lat="43.6386" lon="1.48356">
        <ele>136.740189</ele>
        <time>2020-12-03T10:01:08.718Z</time>
      </trkpt>
      <trkpt lat="43.63874" lon="1.48367">
        <ele>136.844958</ele>
        <time>2020-12-03T10:01:12.500Z</time>
      </trkpt>
      <trkpt lat="43.6388" lon="1.48371">
        <ele>136.892714</ele>
        <time>2020-12-03T10:01:14.403Z</time>
      </trkpt>
      <trkpt lat="43.63886" lon="1.48372">
        <ele>136.928565</ele>
        <time>2020-12-03T10:01:15.916Z</time>
      </trkpt>
      <trkpt lat="43.6396" lon="1.48386">
        <ele>137.432567</ele>
        <time>2020-12-03T10:01:36.092Z</time>
      </trkpt>
      <trkpt lat="43.64032" lon="1.48417">
        <ele>137.95487</ele>
        <time>2020-12-03T10:01:56.181Z</time>
      </trkpt>
      <trkpt lat="43.64142" lon="1.48464">
        <ele>138.952175</ele>
        <time>2020-12-03T10:02:27.442Z</time>
      </trkpt>
      <trkpt lat="43.64156" lon="1.48477">
        <ele>139.104099</ele>
        <time>2020-12-03T10:02:32.411Z</time>
      </trkpt>
      <trkpt lat="43.64158" lon="1.48502">
        <ele>139.261227</ele>
        <time>2020-12-03T10:02:37.534Z</time>
      </trkpt>
      <trkpt lat="43.64138" lon="1.4869">
        <ele>140.456913</ele>
        <time>2020-12-03T10:03:15.961Z</time>
      </trkpt>
      <trkpt lat="43.64129" lon="1.48784">
        <ele>141.033234</ele>
        <time>2020-12-03T10:03:34.429Z</time>
      </trkpt>
      <trkpt lat="43.64134" lon="1.48818">
        <ele>141.077042</ele>
        <time>2020-12-03T10:03:40.660Z</time>
      </trkpt>
      <trkpt lat="43.64191" lon="1.48932">
        <ele>141.249437</ele>
        <time>2020-12-03T10:04:03.163Z</time>
      </trkpt>
      <trkpt lat="43.64193" lon="1.48935">
        <ele>141.254552</ele>
        <time>2020-12-03T10:04:03.793Z</time>
      </trkpt>
      <trkpt lat="43.64196" lon="1.48939">
        <ele>141.262091</ele>
        <time>2020-12-03T10:04:04.841Z</time>
      </trkpt>
      <trkpt lat="43.64197" lon="1.48942">
        <ele>141.26616</ele>
        <time>2020-12-03T10:04:05.492Z</time>
      </trkpt>
      <trkpt lat="43.64205" lon="1.48949">
        <ele>141.281973</ele>
        <time>2020-12-03T10:04:07.540Z</time>
      </trkpt>
      <trkpt lat="43.64254" lon="1.48971">
        <ele>141.333687</ele>
        <time>2020-12-03T10:04:18.820Z</time>
      </trkpt>
      <trkpt lat="43.64257" lon="1.48972">
        <ele>141.333012</ele>
        <time>2020-12-03T10:04:19.486Z</time>
      </trkpt>
      <trkpt lat="43.64262" lon="1.48974">
        <ele>141.331959</ele>
        <time>2020-12-03T10:04:20.786Z</time>
      </trkpt>
      <trkpt lat="43.64273" lon="1.48979">
        <ele>141.329765</ele>
        <time>2020-12-03T10:04:23.425Z</time>
      </trkpt>
      <trkpt lat="43.64318" lon="1.48998">
        <ele>141.320274</ele>
        <time>2020-12-03T10:04:33.705Z</time>
      </trkpt>
      <trkpt lat="43.64326" lon="1.49005">
        <ele>141.318356</ele>
        <time>2020-12-03T10:04:35.669Z</time>
      </trkpt>
      <trkpt lat="43.64334" lon="1.49023">
        <ele>141.315194</ele>
        <time>2020-12-03T10:04:39.444Z</time>
      </trkpt>
      <trkpt lat="43.64338" lon="1.49034">
        <ele>141.313474</ele>
        <time>2020-12-03T10:04:41.245Z</time>
      </trkpt>
      <trkpt lat="43.64335" lon="1.49037">
        <ele>141.312778</ele>
        <time>2020-12-03T10:04:41.998Z</time>
      </trkpt>
      <trkpt lat="43.64333" lon="1.49048">
        <ele>141.31113</ele>
        <time>2020-12-03T10:04:43.668Z</time>
      </trkpt>
      <trkpt lat="43.64335" lon="1.49053">
        <ele>141.310431</ele>
        <time>2020-12-03T10:04:44.442Z</time>
      </trkpt>
      <trkpt lat="43.64327" lon="1.49061">
        <ele>141.308431</ele>
        <time>2020-12-03T10:04:46.548Z</time>
      </trkpt>
      <trkpt lat="43.64317" lon="1.4907">
        <ele>141.306088</ele>
        <time>2020-12-03T10:04:49.054Z</time>
      </trkpt>
      <trkpt lat="43.6424" lon="1.4914">
        <ele>141.746938</ele>
        <time>2020-12-03T10:05:11.392Z</time>
      </trkpt>
      <trkpt lat="43.64179" lon="1.49195">
        <ele>142.21379</ele>
        <time>2020-12-03T10:05:30.404Z</time>
      </trkpt>
      <trkpt lat="43.64161" lon="1.49212">
        <ele>142.355043</ele>
        <time>2020-12-03T10:05:36.273Z</time>
      </trkpt>
      <trkpt lat="43.64159" lon="1.49214">
        <ele>142.372038</ele>
        <time>2020-12-03T10:05:36.944Z</time>
      </trkpt>
      <trkpt lat="43.64147" lon="1.49224">
        <ele>142.460197</ele>
        <time>2020-12-03T10:05:40.502Z</time>
      </trkpt>
      <trkpt lat="43.64133" lon="1.49238">
        <ele>142.678754</ele>
        <time>2020-12-03T10:05:45.446Z</time>
      </trkpt>
      <trkpt lat="43.64105" lon="1.4928">
        <ele>143.183287</ele>
        <time>2020-12-03T10:05:56.671Z</time>
      </trkpt>
      <trkpt lat="43.64034" lon="1.49471">
        <ele>145.014924</ele>
        <time>2020-12-03T10:06:42.124Z</time>
      </trkpt>
      <trkpt lat="43.64031" lon="1.49475">
        <ele>145.054408</ele>
        <time>2020-12-03T10:06:43.578Z</time>
      </trkpt>
      <trkpt lat="43.64027" lon="1.49478">
        <ele>145.098562</ele>
        <time>2020-12-03T10:06:44.837Z</time>
      </trkpt>
      <trkpt lat="43.64022" lon="1.49478">
        <ele>145.147117</ele>
        <time>2020-12-03T10:06:46.124Z</time>
      </trkpt>
      <trkpt lat="43.64017" lon="1.49475">
        <ele>145.204484</ele>
        <time>2020-12-03T10:06:47.671Z</time>
      </trkpt>
      <trkpt lat="43.63939" lon="1.49394">
        <ele>146.144694</ele>
        <time>2020-12-03T10:07:14.468Z</time>
      </trkpt>
      <trkpt lat="43.63909" lon="1.49453">
        <ele>146.560767</ele>
        <time>2020-12-03T10:07:27.593Z</time>
      </trkpt>
      <trkpt lat="43.63911" lon="1.49473">
        <ele>146.647353</ele>
        <time>2020-12-03T10:07:31.424Z</time>
      </trkpt>
      <trkpt lat="43.63994" lon="1.49559">
        <ele>147.23583</ele>
        <time>2020-12-03T10:07:57.081Z</time>
      </trkpt>
      <trkpt lat="43.63999" lon="1.49576">
        <ele>147.311792</ele>
        <time>2020-12-03T10:08:00.312Z</time>
      </trkpt>
      <trkpt lat="43.63998" lon="1.49582">
        <ele>147.339838</ele>
        <time>2020-12-03T10:08:01.485Z</time>
      </trkpt>
      <trkpt lat="43.63967" lon="1.49642">
        <ele>147.610096</ele>
        <time>2020-12-03T10:08:15.441Z</time>
      </trkpt>
      <trkpt lat="43.63951" lon="1.49673">
        <ele>147.736158</ele>
        <time>2020-12-03T10:08:22.349Z</time>
      </trkpt>
      <trkpt lat="43.63921" lon="1.49731">
        <ele>147.976304</ele>
        <time>2020-12-03T10:08:35.510Z</time>
      </trkpt>
      <trkpt lat="43.63915" lon="1.49744">
        <ele>148.028146</ele>
        <time>2020-12-03T10:08:37.968Z</time>
      </trkpt>
      <trkpt lat="43.63912" lon="1.49758">
        <ele>148.07653</ele>
        <time>2020-12-03T10:08:40.784Z</time>
      </trkpt>
      <trkpt lat="43.6391" lon="1.4977">
        <ele>148.12053</ele>
        <time>2020-12-03T10:08:43.207Z</time>
      </trkpt>
      <trkpt lat="43.63912" lon="1.49811">
        <ele>148.256361</ele>
        <time>2020-12-03T10:08:50.108Z</time>
      </trkpt>
      <trkpt lat="43.63931" lon="1.49893">
        <ele>148.303944</ele>
        <time>2020-12-03T10:09:03.709Z</time>
      </trkpt>
      <trkpt lat="43.63936" lon="1.49917">
        <ele>148.307597</ele>
        <time>2020-12-03T10:09:07.725Z</time>
      </trkpt>
      <trkpt lat="43.63935" lon="1.49932">
        <ele>148.309725</ele>
        <time>2020-12-03T10:09:10.030Z</time>
      </trkpt>
      <trkpt lat="43.63933" lon="1.49945">
        <ele>148.311736</ele>
        <time>2020-12-03T10:09:12.255Z</time>
      </trkpt>
      <trkpt lat="43.63923" lon="1.49976">
        <ele>148.316631</ele>
        <time>2020-12-03T10:09:17.691Z</time>
      </trkpt>
      <trkpt lat="43.63895" lon="1.50015">
        <ele>148.324551</ele>
        <time>2020-12-03T10:09:26.335Z</time>
      </trkpt>
      <trkpt lat="43.63883" lon="1.50032">
        <ele>148.328062</ele>
        <time>2020-12-03T10:09:30.390Z</time>
      </trkpt>
      <trkpt lat="43.63879" lon="1.50038">
        <ele>148.343115</ele>
        <time>2020-12-03T10:09:31.689Z</time>
      </trkpt>
      <trkpt lat="43.63867" lon="1.50051">
        <ele>148.55255</ele>
        <time>2020-12-03T10:09:35.393Z</time>
      </trkpt>
      <trkpt lat="43.63861" lon="1.50056">
        <ele>148.660057</ele>
        <time>2020-12-03T10:09:37.226Z</time>
      </trkpt>
      <trkpt lat="43.63848" lon="1.50066">
        <ele>148.862971</ele>
        <time>2020-12-03T10:09:40.525Z</time>
      </trkpt>
      <trkpt lat="43.63841" lon="1.50066">
        <ele>148.972346</ele>
        <time>2020-12-03T10:09:42.648Z</time>
      </trkpt>
      <trkpt lat="43.63835" lon="1.50069">
        <ele>149.064172</ele>
        <time>2020-12-03T10:09:44.199Z</time>
      </trkpt>
      <trkpt lat="43.6383" lon="1.50074">
        <ele>149.15545</ele>
        <time>2020-12-03T10:09:45.810Z</time>
      </trkpt>
      <trkpt lat="43.63826" lon="1.50082">
        <ele>149.248182</ele>
        <time>2020-12-03T10:09:47.586Z</time>
      </trkpt>
      <trkpt lat="43.63825" lon="1.50091">
        <ele>149.335053</ele>
        <time>2020-12-03T10:09:49.136Z</time>
      </trkpt>
      <trkpt lat="43.63826" lon="1.50099">
        <ele>149.423223</ele>
        <time>2020-12-03T10:09:50.850Z</time>
      </trkpt>
      <trkpt lat="43.63823" lon="1.50101">
        <ele>149.473032</ele>
        <time>2020-12-03T10:09:52.203Z</time>
      </trkpt>
      <trkpt lat="43.6381" lon="1.50117">
        <ele>149.719553</ele>
        <time>2020-12-03T10:09:57.292Z</time>
      </trkpt>
      <trkpt lat="43.63787" lon="1.5012">
        <ele>150.047</ele>
        <time>2020-12-03T10:10:04.468Z</time>
      </trkpt>
      <trkpt lat="43.63776" lon="1.50122">
        <ele>150.203079</ele>
        <time>2020-12-03T10:10:07.959Z</time>
      </trkpt>
      <trkpt lat="43.63762" lon="1.50118">
        <ele>150.412456</ele>
        <time>2020-12-03T10:10:12.540Z</time>
      </trkpt>
      <trkpt lat="43.63741" lon="1.50109">
        <ele>150.729254</ele>
        <time>2020-12-03T10:10:20.456Z</time>
      </trkpt>
      <trkpt lat="43.63724" lon="1.50102">
        <ele>151.102798</ele>
        <time>2020-12-03T10:10:26.370Z</time>
      </trkpt>
      <trkpt lat="43.63712" lon="1.50097">
        <ele>151.565426</ele>
        <time>2020-12-03T10:10:31.213Z</time>
      </trkpt>
      <trkpt lat="43.63699" lon="1.50093">
        <ele>152.001289</ele>
        <time>2020-12-03T10:10:35.731Z</time>
      </trkpt>
      <trkpt lat="43.63664" lon="1.50083">
        <ele>153.276908</ele>
        <time>2020-12-03T10:10:49.225Z</time>
      </trkpt>
      <trkpt lat="43.63544" lon="1.50053">
        <ele>157.611123</ele>
        <time>2020-12-03T10:11:39.988Z</time>
      </trkpt>
      <trkpt lat="43.635" lon="1.5005">
        <ele>159.494389</ele>
        <time>2020-12-03T10:12:00.076Z</time>
      </trkpt>
      <trkpt lat="43.63458" lon="1.50054">
        <ele>161.264252</ele>
        <time>2020-12-03T10:12:18.087Z</time>
      </trkpt>
      <trkpt lat="43.63438" lon="1.50057">
        <ele>162.100829</ele>
        <time>2020-12-03T10:12:27.297Z</time>
      </trkpt>
      <trkpt lat="43.63431" lon="1.50056">
        <ele>162.403258</ele>
        <time>2020-12-03T10:12:30.456Z</time>
      </trkpt>
      <trkpt lat="43.63425" lon="1.50055">
        <ele>162.667152</ele>
        <time>2020-12-03T10:12:32.878Z</time>
      </trkpt>
      <trkpt lat="43.63416" lon="1.50052">
        <ele>163.054227</ele>
        <time>2020-12-03T10:12:36.884Z</time>
      </trkpt>
      <trkpt lat="43.63413" lon="1.50048">
        <ele>163.240476</ele>
        <time>2020-12-03T10:12:38.894Z</time>
      </trkpt>
      <trkpt lat="43.6341" lon="1.50044">
        <ele>163.427025</ele>
        <time>2020-12-03T10:12:40.740Z</time>
      </trkpt>
      <trkpt lat="43.63406" lon="1.50041">
        <ele>163.603889</ele>
        <time>2020-12-03T10:12:42.773Z</time>
      </trkpt>
      <trkpt lat="43.63402" lon="1.5004">
        <ele>163.780127</ele>
        <time>2020-12-03T10:12:44.474Z</time>
      </trkpt>
      <trkpt lat="43.63398" lon="1.50041">
        <ele>163.953925</ele>
        <time>2020-12-03T10:12:46.373Z</time>
      </trkpt>
      <trkpt lat="43.63392" lon="1.50044">
        <ele>164.210005</ele>
        <time>2020-12-03T10:12:48.616Z</time>
      </trkpt>
      <trkpt lat="43.63389" lon="1.50047">
        <ele>164.399933</ele>
        <time>2020-12-03T10:12:50.528Z</time>
      </trkpt>
      <trkpt lat="43.63386" lon="1.50052">
        <ele>164.591205</ele>
        <time>2020-12-03T10:12:52.456Z</time>
      </trkpt>
      <trkpt lat="43.63384" lon="1.50058">
        <ele>164.781736</ele>
        <time>2020-12-03T10:12:54.460Z</time>
      </trkpt>
      <trkpt lat="43.63383" lon="1.50065">
        <ele>164.926809</ele>
        <time>2020-12-03T10:12:56.552Z</time>
      </trkpt>
      <trkpt lat="43.63384" lon="1.50072">
        <ele>165.067408</ele>
        <time>2020-12-03T10:12:58.844Z</time>
      </trkpt>
      <trkpt lat="43.63386" lon="1.50078">
        <ele>165.209208</ele>
        <time>2020-12-03T10:13:01.131Z</time>
      </trkpt>
      <trkpt lat="43.63384" lon="1.50091">
        <ele>165.468374</ele>
        <time>2020-12-03T10:13:05.120Z</time>
      </trkpt>
      <trkpt lat="43.63382" lon="1.50098">
        <ele>165.62682</ele>
        <time>2020-12-03T10:13:07.549Z</time>
      </trkpt>
      <trkpt lat="43.63377" lon="1.5011">
        <ele>165.91742</ele>
        <time>2020-12-03T10:13:11.968Z</time>
      </trkpt>
      <trkpt lat="43.63356" lon="1.50149">
        <ele>166.890108</ele>
        <time>2020-12-03T10:13:26.229Z</time>
      </trkpt>
      <trkpt lat="43.63348" lon="1.50166">
        <ele>167.300422</ele>
        <time>2020-12-03T10:13:32.224Z</time>
      </trkpt>
      <trkpt lat="43.63317" lon="1.50246">
        <ele>169.131719</ele>
        <time>2020-12-03T10:13:53.054Z</time>
      </trkpt>
      <trkpt lat="43.63313" lon="1.50261">
        <ele>169.456232</ele>
        <time>2020-12-03T10:13:56.690Z</time>
      </trkpt>
      <trkpt lat="43.6331" lon="1.50279">
        <ele>169.813299</ele>
        <time>2020-12-03T10:14:00.153Z</time>
      </trkpt>
      <trkpt lat="43.63308" lon="1.5029">
        <ele>169.88783</ele>
        <time>2020-12-03T10:14:02.744Z</time>
      </trkpt>
      <trkpt lat="43.63306" lon="1.50303">
        <ele>169.967079</ele>
        <time>2020-12-03T10:14:05.531Z</time>
      </trkpt>
      <trkpt lat="43.63294" lon="1.50447">
        <ele>170.871694</ele>
        <time>2020-12-03T10:14:33.476Z</time>
      </trkpt>
      <trkpt lat="43.63288" lon="1.50532">
        <ele>171.37046</ele>
        <time>2020-12-03T10:14:48.567Z</time>
      </trkpt>
      <trkpt lat="43.63286" lon="1.50557">
        <ele>171.416915</ele>
        <time>2020-12-03T10:14:53.222Z</time>
      </trkpt>
      <trkpt lat="43.63283" lon="1.50595">
        <ele>171.48509</ele>
        <time>2020-12-03T10:15:00.063Z</time>
      </trkpt>
      <trkpt lat="43.6328" lon="1.50623">
        <ele>171.535295</ele>
        <time>2020-12-03T10:15:04.963Z</time>
      </trkpt>
      <trkpt lat="43.63279" lon="1.50648">
        <ele>171.579064</ele>
        <time>2020-12-03T10:15:09.766Z</time>
      </trkpt>
      <trkpt lat="43.63277" lon="1.50663">
        <ele>171.606308</ele>
        <time>2020-12-03T10:15:12.438Z</time>
      </trkpt>
      <trkpt lat="43.63277" lon="1.50676">
        <ele>171.629541</ele>
        <time>2020-12-03T10:15:14.436Z</time>
      </trkpt>
      <trkpt lat="43.63276" lon="1.50687">
        <ele>171.648852</ele>
        <time>2020-12-03T10:15:16.512Z</time>
      </trkpt>
      <trkpt lat="43.63279" lon="1.50733">
        <ele>171.731549</ele>
        <time>2020-12-03T10:15:24.215Z</time>
      </trkpt>
      <trkpt lat="43.63305" lon="1.50817">
        <ele>171.397705</ele>
        <time>2020-12-03T10:15:38.534Z</time>
      </trkpt>
      <trkpt lat="43.6331" lon="1.50832">
        <ele>171.263058</ele>
        <time>2020-12-03T10:15:41.302Z</time>
      </trkpt>
      <trkpt lat="43.63316" lon="1.50851">
        <ele>171.103608</ele>
        <time>2020-12-03T10:15:44.362Z</time>
      </trkpt>
      <trkpt lat="43.6332" lon="1.50869">
        <ele>170.963598</ele>
        <time>2020-12-03T10:15:46.925Z</time>
      </trkpt>
      <trkpt lat="43.63327" lon="1.50966">
        <ele>170.20151</ele>
        <time>2020-12-03T10:16:00.706Z</time>
      </trkpt>
      <trkpt lat="43.63328" lon="1.51007">
        <ele>169.886319</ele>
        <time>2020-12-03T10:16:06.213Z</time>
      </trkpt>
      <trkpt lat="43.63328" lon="1.51048">
        <ele>169.092592</ele>
        <time>2020-12-03T10:16:11.680Z</time>
      </trkpt>
      <trkpt lat="43.63321" lon="1.51202">
        <ele>166.022827</ele>
        <time>2020-12-03T10:16:31.179Z</time>
      </trkpt>
      <trkpt lat="43.63302" lon="1.51377">
        <ele>161.740817</ele>
        <time>2020-12-03T10:16:52.980Z</time>
      </trkpt>
      <trkpt lat="43.63262" lon="1.51644">
        <ele>154.677027</ele>
        <time>2020-12-03T10:17:25.804Z</time>
      </trkpt>
      <trkpt lat="43.63252" lon="1.51719">
        <ele>152.741037</ele>
        <time>2020-12-03T10:17:35.052Z</time>
      </trkpt>
      <trkpt lat="43.63251" lon="1.51804">
        <ele>151.322934</ele>
        <time>2020-12-03T10:17:46.014Z</time>
      </trkpt>
      <trkpt lat="43.63254" lon="1.51823">
        <ele>151.072424</ele>
        <time>2020-12-03T10:17:48.478Z</time>
      </trkpt>
      <trkpt lat="43.63264" lon="1.5188">
        <ele>150.326362</ele>
        <time>2020-12-03T10:17:56.393Z</time>
      </trkpt>
      <trkpt lat="43.63272" lon="1.51922">
        <ele>149.7756</ele>
        <time>2020-12-03T10:18:02.382Z</time>
      </trkpt>
      <trkpt lat="43.63277" lon="1.51955">
        <ele>149.35076</ele>
        <time>2020-12-03T10:18:07.420Z</time>
      </trkpt>
      <trkpt lat="43.63284" lon="1.51999">
        <ele>148.939882</ele>
        <time>2020-12-03T10:18:14.178Z</time>
      </trkpt>
      <trkpt lat="43.63284" lon="1.52011">
        <ele>148.963034</ele>
        <time>2020-12-03T10:18:15.841Z</time>
      </trkpt>
      <trkpt lat="43.63285" lon="1.52022">
        <ele>148.985146</ele>
        <time>2020-12-03T10:18:17.481Z</time>
      </trkpt>
      <trkpt lat="43.63278" lon="1.52083">
        <ele>149.10457</ele>
        <time>2020-12-03T10:18:27.421Z</time>
      </trkpt>
      <trkpt lat="43.63271" lon="1.52114">
        <ele>149.168526</ele>
        <time>2020-12-03T10:18:33.131Z</time>
      </trkpt>
      <trkpt lat="43.63256" lon="1.52156">
        <ele>149.25941</ele>
        <time>2020-12-03T10:18:41.401Z</time>
      </trkpt>
      <trkpt lat="43.63242" lon="1.52197">
        <ele>149.348384</ele>
        <time>2020-12-03T10:18:49.870Z</time>
      </trkpt>
      <trkpt lat="43.63238" lon="1.52211">
        <ele>149.377839</ele>
        <time>2020-12-03T10:18:52.528Z</time>
      </trkpt>
      <trkpt lat="43.6323" lon="1.52244">
        <ele>149.855457</ele>
        <time>2020-12-03T10:18:59.616Z</time>
      </trkpt>
      <trkpt lat="43.63228" lon="1.52257">
        <ele>150.126265</ele>
        <time>2020-12-03T10:19:02.153Z</time>
      </trkpt>
      <trkpt lat="43.63226" lon="1.52268">
        <ele>150.356973</ele>
        <time>2020-12-03T10:19:04.372Z</time>
      </trkpt>
      <trkpt lat="43.63226" lon="1.52279">
        <ele>150.597481</ele>
        <time>2020-12-03T10:19:06.657Z</time>
      </trkpt>
      <trkpt lat="43.63225" lon="1.52291">
        <ele>150.831175</ele>
        <time>2020-12-03T10:19:09.321Z</time>
      </trkpt>
      <trkpt lat="43.63229" lon="1.52346">
        <ele>151.98467</ele>
        <time>2020-12-03T10:19:23.157Z</time>
      </trkpt>
      <trkpt lat="43.63258" lon="1.52502">
        <ele>155.968393</ele>
        <time>2020-12-03T10:20:13.045Z</time>
      </trkpt>
      <trkpt lat="43.63259" lon="1.52526">
        <ele>156.886044</ele>
        <time>2020-12-03T10:20:20.050Z</time>
      </trkpt>
      <trkpt lat="43.63257" lon="1.52536">
        <ele>157.278454</ele>
        <time>2020-12-03T10:20:24.671Z</time>
      </trkpt>
      <trkpt lat="43.63255" lon="1.52547">
        <ele>157.729346</ele>
        <time>2020-12-03T10:20:29.130Z</time>
      </trkpt>
      <trkpt lat="43.63251" lon="1.52558">
        <ele>158.196751</ele>
        <time>2020-12-03T10:20:32.707Z</time>
      </trkpt>
      <trkpt lat="43.63226" lon="1.52613">
        <ele>160.661369</ele>
        <time>2020-12-03T10:20:54.960Z</time>
      </trkpt>
      <trkpt lat="43.63199" lon="1.52675">
        <ele>163.41976</ele>
        <time>2020-12-03T10:21:23.628Z</time>
      </trkpt>
      <trkpt lat="43.63155" lon="1.52782">
        <ele>168.749013</ele>
        <time>2020-12-03T10:22:09.886Z</time>
      </trkpt>
      <trkpt lat="43.63095" lon="1.53012">
        <ele>179.530409</ele>
        <time>2020-12-03T10:23:44.058Z</time>
      </trkpt>
      <trkpt lat="43.63079" lon="1.53096">
        <ele>183.340018</ele>
        <time>2020-12-03T10:24:19.203Z</time>
      </trkpt>
      <trkpt lat="43.63057" lon="1.53158">
        <ele>186.111308</ele>
        <time>2020-12-03T10:24:44.470Z</time>
      </trkpt>
      <trkpt lat="43.63043" lon="1.5321">
        <ele>187.034161</ele>
        <time>2020-12-03T10:25:02.829Z</time>
      </trkpt>
      <trkpt lat="43.63034" lon="1.53244">
        <ele>187.636857</ele>
        <time>2020-12-03T10:25:13.546Z</time>
      </trkpt>
      <trkpt lat="43.63023" lon="1.5328">
        <ele>188.280009</ele>
        <time>2020-12-03T10:25:23.807Z</time>
      </trkpt>
      <trkpt lat="43.63018" lon="1.53293">
        <ele>188.528271</ele>
        <time>2020-12-03T10:25:27.177Z</time>
      </trkpt>
      <trkpt lat="43.62998" lon="1.53351">
        <ele>189.600534</ele>
        <time>2020-12-03T10:25:39.653Z</time>
      </trkpt>
      <trkpt lat="43.62994" lon="1.53365">
        <ele>189.861058</ele>
        <time>2020-12-03T10:25:41.777Z</time>
      </trkpt>
      <trkpt lat="43.62992" lon="1.53378">
        <ele>190.076527</ele>
        <time>2020-12-03T10:25:43.545Z</time>
      </trkpt>
      <trkpt lat="43.62987" lon="1.53429">
        <ele>189.31424</ele>
        <time>2020-12-03T10:25:50.434Z</time>
      </trkpt>
      <trkpt lat="43.62987" lon="1.53444">
        <ele>189.088281</ele>
        <time>2020-12-03T10:25:52.418Z</time>
      </trkpt>
      <trkpt lat="43.62988" lon="1.53513">
        <ele>188.044907</ele>
        <time>2020-12-03T10:26:01.058Z</time>
      </trkpt>
      <trkpt lat="43.62988" lon="1.53525">
        <ele>187.852642</ele>
        <time>2020-12-03T10:26:02.611Z</time>
      </trkpt>
      <trkpt lat="43.62986" lon="1.53535">
        <ele>187.691476</ele>
        <time>2020-12-03T10:26:03.931Z</time>
      </trkpt>
      <trkpt lat="43.62982" lon="1.53548">
        <ele>187.484064</ele>
        <time>2020-12-03T10:26:05.897Z</time>
      </trkpt>
      <trkpt lat="43.62978" lon="1.53552">
        <ele>187.390007</ele>
        <time>2020-12-03T10:26:06.630Z</time>
      </trkpt>
      <trkpt lat="43.62975" lon="1.53553">
        <ele>187.324051</ele>
        <time>2020-12-03T10:26:07.169Z</time>
      </trkpt>
      <trkpt lat="43.62973" lon="1.53555">
        <ele>187.258766</ele>
        <time>2020-12-03T10:26:07.702Z</time>
      </trkpt>
      <trkpt lat="43.6297" lon="1.53559">
        <ele>187.183358</ele>
        <time>2020-12-03T10:26:08.313Z</time>
      </trkpt>
      <trkpt lat="43.6297" lon="1.53563">
        <ele>187.106751</ele>
        <time>2020-12-03T10:26:08.925Z</time>
      </trkpt>
      <trkpt lat="43.6297" lon="1.53567">
        <ele>187.046346</ele>
        <time>2020-12-03T10:26:09.436Z</time>
      </trkpt>
      <trkpt lat="43.62974" lon="1.53573">
        <ele>186.928823</ele>
        <time>2020-12-03T10:26:10.401Z</time>
      </trkpt>
      <trkpt lat="43.62976" lon="1.53575">
        <ele>186.870027</ele>
        <time>2020-12-03T10:26:11.014Z</time>
      </trkpt>
      <trkpt lat="43.62979" lon="1.53579">
        <ele>186.777839</ele>
        <time>2020-12-03T10:26:11.899Z</time>
      </trkpt>
      <trkpt lat="43.62984" lon="1.53594">
        <ele>186.523713</ele>
        <time>2020-12-03T10:26:13.983Z</time>
      </trkpt>
      <trkpt lat="43.62985" lon="1.53601">
        <ele>186.420753</ele>
        <time>2020-12-03T10:26:14.847Z</time>
      </trkpt>
      <trkpt lat="43.62985" lon="1.53615">
        <ele>186.316225</ele>
        <time>2020-12-03T10:26:16.689Z</time>
      </trkpt>
      <trkpt lat="43.6299" lon="1.53732">
        <ele>186.542791</ele>
        <time>2020-12-03T10:26:33.339Z</time>
      </trkpt>
      <trkpt lat="43.62988" lon="1.53774">
        <ele>186.623686</ele>
        <time>2020-12-03T10:26:40.668Z</time>
      </trkpt>
      <trkpt lat="43.62944" lon="1.53997">
        <ele>190.3768</ele>
        <time>2020-12-03T10:27:41.821Z</time>
      </trkpt>
      <trkpt lat="43.62939" lon="1.54031">
        <ele>191.216923</ele>
        <time>2020-12-03T10:27:52.635Z</time>
      </trkpt>
      <trkpt lat="43.62927" lon="1.54099">
        <ele>192.947867</ele>
        <time>2020-12-03T10:28:13.526Z</time>
      </trkpt>
      <trkpt lat="43.62918" lon="1.54142">
        <ele>194.411746</ele>
        <time>2020-12-03T10:28:28.246Z</time>
      </trkpt>
      <trkpt lat="43.62907" lon="1.54177">
        <ele>195.643348</ele>
        <time>2020-12-03T10:28:41.303Z</time>
      </trkpt>
      <trkpt lat="43.62875" lon="1.54303">
        <ele>199.961707</ele>
        <time>2020-12-03T10:29:25.635Z</time>
      </trkpt>
      <trkpt lat="43.6287" lon="1.54327">
        <ele>200.750189</ele>
        <time>2020-12-03T10:29:33.569Z</time>
      </trkpt>
      <trkpt lat="43.62857" lon="1.54389">
        <ele>202.413806</ele>
        <time>2020-12-03T10:29:52.571Z</time>
      </trkpt>
      <trkpt lat="43.62848" lon="1.54428">
        <ele>203.465448</ele>
        <time>2020-12-03T10:30:04.311Z</time>
      </trkpt>
      <trkpt lat="43.6282" lon="1.54515">
        <ele>205.88458</ele>
        <time>2020-12-03T10:30:31.534Z</time>
      </trkpt>
      <trkpt lat="43.6281" lon="1.54537">
        <ele>206.569616</ele>
        <time>2020-12-03T10:30:39.042Z</time>
      </trkpt>
      <trkpt lat="43.62795" lon="1.54567">
        <ele>207.449846</ele>
        <time>2020-12-03T10:30:48.884Z</time>
      </trkpt>
      <trkpt lat="43.62765" lon="1.54628">
        <ele>209.105854</ele>
        <time>2020-12-03T10:31:08.492Z</time>
      </trkpt>
      <trkpt lat="43.62736" lon="1.54686">
        <ele>210.666105</ele>
        <time>2020-12-03T10:31:27.784Z</time>
      </trkpt>
      <trkpt lat="43.6273" lon="1.547">
        <ele>211.026894</ele>
        <time>2020-12-03T10:31:32.227Z</time>
      </trkpt>
      <trkpt lat="43.62709" lon="1.54739">
        <ele>212.114289</ele>
        <time>2020-12-03T10:31:45.574Z</time>
      </trkpt>
      <trkpt lat="43.62689" lon="1.54779">
        <ele>213.039576</ele>
        <time>2020-12-03T10:31:58.638Z</time>
      </trkpt>
      <trkpt lat="43.62673" lon="1.54812">
        <ele>213.651156</ele>
        <time>2020-12-03T10:32:09.641Z</time>
      </trkpt>
      <trkpt lat="43.62652" lon="1.54855">
        <ele>214.446712</ele>
        <time>2020-12-03T10:32:23.694Z</time>
      </trkpt>
      <trkpt lat="43.62634" lon="1.54879">
        <ele>214.982869</ele>
        <time>2020-12-03T10:32:32.602Z</time>
      </trkpt>
      <trkpt lat="43.62603" lon="1.54891">
        <ele>215.664308</ele>
        <time>2020-12-03T10:32:43.116Z</time>
      </trkpt>
      <trkpt lat="43.62502" lon="1.54904">
        <ele>216.304127</ele>
        <time>2020-12-03T10:33:07.378Z</time>
      </trkpt>
      <trkpt lat="43.62479" lon="1.54908">
        <ele>216.221926</ele>
        <time>2020-12-03T10:33:12.035Z</time>
      </trkpt>
      <trkpt lat="43.62464" lon="1.54911">
        <ele>216.165889</ele>
        <time>2020-12-03T10:33:15.366Z</time>
      </trkpt>
      <trkpt lat="43.62435" lon="1.54921">
        <ele>216.057331</ele>
        <time>2020-12-03T10:33:21.415Z</time>
      </trkpt>
      <trkpt lat="43.62413" lon="1.54929">
        <ele>215.978095</ele>
        <time>2020-12-03T10:33:25.751Z</time>
      </trkpt>
      <trkpt lat="43.624" lon="1.54933">
        <ele>215.927127</ele>
        <time>2020-12-03T10:33:28.574Z</time>
      </trkpt>
      <trkpt lat="43.62364" lon="1.54947">
        <ele>215.838855</ele>
        <time>2020-12-03T10:33:35.799Z</time>
      </trkpt>
      <trkpt lat="43.62343" lon="1.54964">
        <ele>215.799081</ele>
        <time>2020-12-03T10:33:40.515Z</time>
      </trkpt>
      <trkpt lat="43.62327" lon="1.54986">
        <ele>215.762927</ele>
        <time>2020-12-03T10:33:45.005Z</time>
      </trkpt>
      <trkpt lat="43.62296" lon="1.55048">
        <ele>215.674219</ele>
        <time>2020-12-03T10:33:56.181Z</time>
      </trkpt>
      <trkpt lat="43.62284" lon="1.55077">
        <ele>215.6353</ele>
        <time>2020-12-03T10:34:02.246Z</time>
      </trkpt>
      <trkpt lat="43.6228" lon="1.55088">
        <ele>215.620374</ele>
        <time>2020-12-03T10:34:04.716Z</time>
      </trkpt>
      <trkpt lat="43.62272" lon="1.55112">
        <ele>215.589082</ele>
        <time>2020-12-03T10:34:10.426Z</time>
      </trkpt>
      <trkpt lat="43.62248" lon="1.55194">
        <ele>217.432186</ele>
        <time>2020-12-03T10:34:31.515Z</time>
      </trkpt>
      <trkpt lat="43.62245" lon="1.55232">
        <ele>218.289158</ele>
        <time>2020-12-03T10:34:41.759Z</time>
      </trkpt>
      <trkpt lat="43.62247" lon="1.55249">
        <ele>218.667845</ele>
        <time>2020-12-03T10:34:46.421Z</time>
      </trkpt>
      <trkpt lat="43.62255" lon="1.55335">
        <ele>220.608763</ele>
        <time>2020-12-03T10:35:11.975Z</time>
      </trkpt>
      <trkpt lat="43.62262" lon="1.55497">
        <ele>224.930214</ele>
        <time>2020-12-03T10:36:07.034Z</time>
      </trkpt>
      <trkpt lat="43.62268" lon="1.55537">
        <ele>226.06078</ele>
        <time>2020-12-03T10:36:19.238Z</time>
      </trkpt>
      <trkpt lat="43.62273" lon="1.55552">
        <ele>226.514893</ele>
        <time>2020-12-03T10:36:24.762Z</time>
      </trkpt>
      <trkpt lat="43.6228" lon="1.55569">
        <ele>227.073272</ele>
        <time>2020-12-03T10:36:29.758Z</time>
      </trkpt>
      <trkpt lat="43.62296" lon="1.55615">
        <ele>227.890921</ele>
        <time>2020-12-03T10:36:41.537Z</time>
      </trkpt>
      <trkpt lat="43.623" lon="1.55718">
        <ele>227.603007</ele>
        <time>2020-12-03T10:37:00.662Z</time>
      </trkpt>
      <trkpt lat="43.62303" lon="1.55757">
        <ele>227.494146</ele>
        <time>2020-12-03T10:37:06.502Z</time>
      </trkpt>
      <trkpt lat="43.62312" lon="1.55816">
        <ele>227.326231</ele>
        <time>2020-12-03T10:37:14.266Z</time>
      </trkpt>
      <trkpt lat="43.6232" lon="1.55878">
        <ele>226.622221</ele>
        <time>2020-12-03T10:37:22.393Z</time>
      </trkpt>
      <trkpt lat="43.62326" lon="1.55919">
        <ele>225.896509</ele>
        <time>2020-12-03T10:37:27.680Z</time>
      </trkpt>
      <trkpt lat="43.62332" lon="1.55964">
        <ele>225.104867</ele>
        <time>2020-12-03T10:37:33.463Z</time>
      </trkpt>
      <trkpt lat="43.62333" lon="1.56093">
        <ele>222.876013</ele>
        <time>2020-12-03T10:37:50.360Z</time>
      </trkpt>
      <trkpt lat="43.62326" lon="1.56191">
        <ele>221.6376</ele>
        <time>2020-12-03T10:38:03.561Z</time>
      </trkpt>
      <trkpt lat="43.62321" lon="1.56278">
        <ele>220.544157</ele>
        <time>2020-12-03T10:38:15.376Z</time>
      </trkpt>
      <trkpt lat="43.62301" lon="1.56488">
        <ele>219.561918</ele>
        <time>2020-12-03T10:38:45.382Z</time>
      </trkpt>
      <trkpt lat="43.62293" lon="1.56576">
        <ele>219.422575</ele>
        <time>2020-12-03T10:39:03.355Z</time>
      </trkpt>
      <trkpt lat="43.62215" lon="1.56552">
        <ele>219.430454</ele>
        <time>2020-12-03T10:39:29.056Z</time>
      </trkpt>
      <trkpt lat="43.6217" lon="1.56543">
        <ele>219.442367</ele>
        <time>2020-12-03T10:39:40.190Z</time>
      </trkpt>
      <trkpt lat="43.62131" lon="1.56543">
        <ele>219.452247</ele>
        <time>2020-12-03T10:39:48.967Z</time>
      </trkpt>
      <trkpt lat="43.62108" lon="1.56542">
        <ele>219.320486</ele>
        <time>2020-12-03T10:39:53.466Z</time>
      </trkpt>
      <trkpt lat="43.6207" lon="1.56541">
        <ele>217.021747</ele>
        <time>2020-12-03T10:40:00.151Z</time>
      </trkpt>
      <trkpt lat="43.62048" lon="1.5654">
        <ele>215.737797</ele>
        <time>2020-12-03T10:40:03.550Z</time>
      </trkpt>
      <trkpt lat="43.61989" lon="1.56547">
        <ele>212.214605</ele>
        <time>2020-12-03T10:40:13.087Z</time>
      </trkpt>
      <trkpt lat="43.6195" lon="1.56552">
        <ele>209.854871</ele>
        <time>2020-12-03T10:40:19.092Z</time>
      </trkpt>
      <trkpt lat="43.61945" lon="1.56552">
        <ele>209.549315</ele>
        <time>2020-12-03T10:40:19.821Z</time>
      </trkpt>
      <trkpt lat="43.61912" lon="1.56548">
        <ele>207.492119</ele>
        <time>2020-12-03T10:40:24.936Z</time>
      </trkpt>
      <trkpt lat="43.61838" lon="1.56504">
        <ele>202.432566</ele>
        <time>2020-12-03T10:40:37.277Z</time>
      </trkpt>
      <trkpt lat="43.6183" lon="1.56486">
        <ele>201.441087</ele>
        <time>2020-12-03T10:40:39.778Z</time>
      </trkpt>
      <trkpt lat="43.61829" lon="1.56426">
        <ele>198.703232</ele>
        <time>2020-12-03T10:40:46.780Z</time>
      </trkpt>
      <trkpt lat="43.61823" lon="1.5641">
        <ele>197.854179</ele>
        <time>2020-12-03T10:40:49.027Z</time>
      </trkpt>
      <trkpt lat="43.61748" lon="1.56337">
        <ele>197.89325</ele>
        <time>2020-12-03T10:41:07.828Z</time>
      </trkpt>
      <trkpt lat="43.6173" lon="1.56326">
        <ele>198.023219</ele>
        <time>2020-12-03T10:41:12.678Z</time>
      </trkpt>
      <trkpt lat="43.61724" lon="1.56322">
        <ele>198.071802</ele>
        <time>2020-12-03T10:41:15.861Z</time>
      </trkpt>
      <trkpt lat="43.61675" lon="1.5631">
        <ele>198.420604</ele>
        <time>2020-12-03T10:41:34.669Z</time>
      </trkpt>
      <trkpt lat="43.61625" lon="1.56297">
        <ele>199.855592</ele>
        <time>2020-12-03T10:41:56.755Z</time>
      </trkpt>
      <trkpt lat="43.61577" lon="1.56286">
        <ele>201.985393</ele>
        <time>2020-12-03T10:42:21.957Z</time>
      </trkpt>
      <trkpt lat="43.61573" lon="1.56285">
        <ele>202.165303</ele>
        <time>2020-12-03T10:42:24.102Z</time>
      </trkpt>
      <trkpt lat="43.61568" lon="1.56284">
        <ele>202.376702</ele>
        <time>2020-12-03T10:42:26.404Z</time>
      </trkpt>
      <trkpt lat="43.61467" lon="1.56259">
        <ele>206.538881</ele>
        <time>2020-12-03T10:43:11.928Z</time>
      </trkpt>
      <trkpt lat="43.61463" lon="1.56289">
        <ele>206.854444</ele>
        <time>2020-12-03T10:43:19.338Z</time>
      </trkpt>
      <trkpt lat="43.61432" lon="1.56476">
        <ele>208.787398</ele>
        <time>2020-12-03T10:43:55.157Z</time>
      </trkpt>
      <trkpt lat="43.61402" lon="1.56605">
        <ele>209.920417</ele>
        <time>2020-12-03T10:44:20.659Z</time>
      </trkpt>
      <trkpt lat="43.61391" lon="1.56673">
        <ele>210.492813</ele>
        <time>2020-12-03T10:44:34.886Z</time>
      </trkpt>
      <trkpt lat="43.61385" lon="1.56685">
        <ele>210.613338</ele>
        <time>2020-12-03T10:44:38.200Z</time>
      </trkpt>
      <trkpt lat="43.61375" lon="1.56731">
        <ele>211.055539</ele>
        <time>2020-12-03T10:44:48.583Z</time>
      </trkpt>
      <trkpt lat="43.61374" lon="1.56744">
        <ele>211.262751</ele>
        <time>2020-12-03T10:44:52.124Z</time>
      </trkpt>
      <trkpt lat="43.6137" lon="1.56765">
        <ele>211.586827</ele>
        <time>2020-12-03T10:44:56.600Z</time>
      </trkpt>
      <trkpt lat="43.61365" lon="1.56784">
        <ele>211.8925</ele>
        <time>2020-12-03T10:45:01.371Z</time>
      </trkpt>
      <trkpt lat="43.61361" lon="1.56795">
        <ele>212.07249</ele>
        <time>2020-12-03T10:45:04.564Z</time>
      </trkpt>
      <trkpt lat="43.61357" lon="1.56831">
        <ele>212.615629</ele>
        <time>2020-12-03T10:45:12.728Z</time>
      </trkpt>
      <trkpt lat="43.61355" lon="1.56837">
        <ele>212.714003</ele>
        <time>2020-12-03T10:45:14.503Z</time>
      </trkpt>
      <trkpt lat="43.61354" lon="1.56843">
        <ele>212.814474</ele>
        <time>2020-12-03T10:45:16.409Z</time>
      </trkpt>
      <trkpt lat="43.61322" lon="1.5692">
        <ele>214.147184</ele>
        <time>2020-12-03T10:45:37.498Z</time>
      </trkpt>
      <trkpt lat="43.61295" lon="1.56984">
        <ele>215.194011</ele>
        <time>2020-12-03T10:45:55.927Z</time>
      </trkpt>
      <trkpt lat="43.61293" lon="1.56988">
        <ele>215.265387</ele>
        <time>2020-12-03T10:45:57.257Z</time>
      </trkpt>
      <trkpt lat="43.61286" lon="1.57007">
        <ele>215.55115</ele>
        <time>2020-12-03T10:46:02.073Z</time>
      </trkpt>
      <trkpt lat="43.61282" lon="1.57016">
        <ele>215.698338</ele>
        <time>2020-12-03T10:46:05.014Z</time>
      </trkpt>
      <trkpt lat="43.61228" lon="1.57143">
        <ele>217.677756</ele>
        <time>2020-12-03T10:46:38.618Z</time>
      </trkpt>
      <trkpt lat="43.61222" lon="1.57151">
        <ele>217.836622</ele>
        <time>2020-12-03T10:46:41.163Z</time>
      </trkpt>
      <trkpt lat="43.61211" lon="1.57165">
        <ele>218.005118</ele>
        <time>2020-12-03T10:46:45.301Z</time>
      </trkpt>
      <trkpt lat="43.61209" lon="1.57172">
        <ele>217.971582</ele>
        <time>2020-12-03T10:46:46.859Z</time>
      </trkpt>
      <trkpt lat="43.61205" lon="1.5718">
        <ele>217.929873</ele>
        <time>2020-12-03T10:46:48.778Z</time>
      </trkpt>
      <trkpt lat="43.61202" lon="1.572">
        <ele>217.837266</ele>
        <time>2020-12-03T10:46:52.970Z</time>
      </trkpt>
      <trkpt lat="43.61198" lon="1.57209">
        <ele>217.794843</ele>
        <time>2020-12-03T10:46:54.732Z</time>
      </trkpt>
      <trkpt lat="43.61193" lon="1.57216">
        <ele>217.749492</ele>
        <time>2020-12-03T10:46:56.731Z</time>
      </trkpt>
      <trkpt lat="43.61187" lon="1.57233">
        <ele>217.663088</ele>
        <time>2020-12-03T10:46:59.893Z</time>
      </trkpt>
      <trkpt lat="43.61182" lon="1.57245">
        <ele>217.606508</ele>
        <time>2020-12-03T10:47:01.740Z</time>
      </trkpt>
      <trkpt lat="43.61178" lon="1.57253">
        <ele>217.563133</ele>
        <time>2020-12-03T10:47:03.285Z</time>
      </trkpt>
      <trkpt lat="43.61173" lon="1.57264">
        <ele>217.504623</ele>
        <time>2020-12-03T10:47:06.022Z</time>
      </trkpt>
      <trkpt lat="43.61171" lon="1.57277">
        <ele>217.445267</ele>
        <time>2020-12-03T10:47:08.377Z</time>
      </trkpt>
      <trkpt lat="43.61165" lon="1.57293">
        <ele>217.365026</ele>
        <time>2020-12-03T10:47:10.704Z</time>
      </trkpt>
      <trkpt lat="43.61136" lon="1.57347">
        <ele>217.069013</ele>
        <time>2020-12-03T10:47:19.872Z</time>
      </trkpt>
      <trkpt lat="43.6111" lon="1.57394">
        <ele>216.353115</ele>
        <time>2020-12-03T10:47:27.752Z</time>
      </trkpt>
      <trkpt lat="43.61107" lon="1.57404">
        <ele>216.145687</ele>
        <time>2020-12-03T10:47:28.960Z</time>
      </trkpt>
      <trkpt lat="43.61106" lon="1.57408">
        <ele>216.052774</ele>
        <time>2020-12-03T10:47:29.508Z</time>
      </trkpt>
      <trkpt lat="43.61106" lon="1.57415">
        <ele>215.901984</ele>
        <time>2020-12-03T10:47:30.420Z</time>
      </trkpt>
      <trkpt lat="43.61107" lon="1.57422">
        <ele>215.758618</ele>
        <time>2020-12-03T10:47:31.266Z</time>
      </trkpt>
      <trkpt lat="43.61109" lon="1.57428">
        <ele>215.631401</ele>
        <time>2020-12-03T10:47:32.125Z</time>
      </trkpt>
      <trkpt lat="43.61112" lon="1.57435">
        <ele>215.469408</ele>
        <time>2020-12-03T10:47:33.162Z</time>
      </trkpt>
      <trkpt lat="43.61118" lon="1.5744">
        <ele>215.262061</ele>
        <time>2020-12-03T10:47:34.537Z</time>
      </trkpt>
      <trkpt lat="43.6114" lon="1.57455">
        <ele>214.570059</ele>
        <time>2020-12-03T10:47:38.535Z</time>
      </trkpt>
      <trkpt lat="43.61202" lon="1.57494">
        <ele>212.655615</ele>
        <time>2020-12-03T10:47:50.178Z</time>
      </trkpt>
      <trkpt lat="43.61221" lon="1.57512">
        <ele>212.022349</ele>
        <time>2020-12-03T10:47:54.190Z</time>
      </trkpt>
      <trkpt lat="43.61263" lon="1.57571">
        <ele>210.928836</ele>
        <time>2020-12-03T10:48:05.187Z</time>
      </trkpt>
      <trkpt lat="43.61277" lon="1.57589">
        <ele>210.593484</ele>
        <time>2020-12-03T10:48:08.782Z</time>
      </trkpt>
      <trkpt lat="43.61286" lon="1.576">
        <ele>210.391128</ele>
        <time>2020-12-03T10:48:11.019Z</time>
      </trkpt>
      <trkpt lat="43.61327" lon="1.57635">
        <ele>209.563157</ele>
        <time>2020-12-03T10:48:19.884Z</time>
      </trkpt>
      <trkpt lat="43.61343" lon="1.57651">
        <ele>209.225431</ele>
        <time>2020-12-03T10:48:23.786Z</time>
      </trkpt>
      <trkpt lat="43.61364" lon="1.57685">
        <ele>208.723046</ele>
        <time>2020-12-03T10:48:30.011Z</time>
      </trkpt>
      <trkpt lat="43.61369" lon="1.57699">
        <ele>208.622081</ele>
        <time>2020-12-03T10:48:32.328Z</time>
      </trkpt>
      <trkpt lat="43.61372" lon="1.57716">
        <ele>208.509204</ele>
        <time>2020-12-03T10:48:35.062Z</time>
      </trkpt>
      <trkpt lat="43.61372" lon="1.57795">
        <ele>208.015808</ele>
        <time>2020-12-03T10:48:48.119Z</time>
      </trkpt>
      <trkpt lat="43.61372" lon="1.57799">
        <ele>207.988455</ele>
        <time>2020-12-03T10:48:48.604Z</time>
      </trkpt>
      <trkpt lat="43.61373" lon="1.57804">
        <ele>207.954834</ele>
        <time>2020-12-03T10:48:49.545Z</time>
      </trkpt>
      <trkpt lat="43.61381" lon="1.57838">
        <ele>207.728071</ele>
        <time>2020-12-03T10:48:55.317Z</time>
      </trkpt>
      <trkpt lat="43.61398" lon="1.57875">
        <ele>207.454182</ele>
        <time>2020-12-03T10:49:01.378Z</time>
      </trkpt>
      <trkpt lat="43.6141" lon="1.57904">
        <ele>207.24311</ele>
        <time>2020-12-03T10:49:05.977Z</time>
      </trkpt>
      <trkpt lat="43.6142" lon="1.57929">
        <ele>206.754936</ele>
        <time>2020-12-03T10:49:09.770Z</time>
      </trkpt>
      <trkpt lat="43.61449" lon="1.58043">
        <ele>204.34367</ele>
        <time>2020-12-03T10:49:26.100Z</time>
      </trkpt>
      <trkpt lat="43.61453" lon="1.58053">
        <ele>204.131405</ele>
        <time>2020-12-03T10:49:27.522Z</time>
      </trkpt>
      <trkpt lat="43.61451" lon="1.58057">
        <ele>204.03797</ele>
        <time>2020-12-03T10:49:28.031Z</time>
      </trkpt>
      <trkpt lat="43.61417" lon="1.58133">
        <ele>202.273471</ele>
        <time>2020-12-03T10:49:38.955Z</time>
      </trkpt>
      <trkpt lat="43.61329" lon="1.58235">
        <ele>195.960347</ele>
        <time>2020-12-03T10:49:56.856Z</time>
      </trkpt>
      <trkpt lat="43.61291" lon="1.5831">
        <ele>192.329439</ele>
        <time>2020-12-03T10:50:07.076Z</time>
      </trkpt>
      <trkpt lat="43.61229" lon="1.58409">
        <ele>188.413592</ele>
        <time>2020-12-03T10:50:21.871Z</time>
      </trkpt>
      <trkpt lat="43.61126" lon="1.58552">
        <ele>185.285384</ele>
        <time>2020-12-03T10:50:48.229Z</time>
      </trkpt>
      <trkpt lat="43.6112" lon="1.58556">
        <ele>185.317904</ele>
        <time>2020-12-03T10:50:49.453Z</time>
      </trkpt>
      <trkpt lat="43.61109" lon="1.58559">
        <ele>185.370256</ele>
        <time>2020-12-03T10:50:53.735Z</time>
      </trkpt>
      <trkpt lat="43.61017" lon="1.58547">
        <ele>185.809819</ele>
        <time>2020-12-03T10:51:21.657Z</time>
      </trkpt>
      <trkpt lat="43.60988" lon="1.58551">
        <ele>186.699883</ele>
        <time>2020-12-03T10:51:32.977Z</time>
      </trkpt>
      <trkpt lat="43.60892" lon="1.58579">
        <ele>190.504286</ele>
        <time>2020-12-03T10:52:13.489Z</time>
      </trkpt>
      <trkpt lat="43.60814" lon="1.58615">
        <ele>194.015622</ele>
        <time>2020-12-03T10:52:51.205Z</time>
      </trkpt>
      <trkpt lat="43.6077" lon="1.58636">
        <ele>196.391248</ele>
        <time>2020-12-03T10:53:13.734Z</time>
      </trkpt>
      <trkpt lat="43.60662" lon="1.58685">
        <ele>202.142537</ele>
        <time>2020-12-03T10:54:08.621Z</time>
      </trkpt>
      <trkpt lat="43.60618" lon="1.58706">
        <ele>204.221429</ele>
        <time>2020-12-03T10:54:30.840Z</time>
      </trkpt>
      <trkpt lat="43.60588" lon="1.58722">
        <ele>205.654957</ele>
        <time>2020-12-03T10:54:46.574Z</time>
      </trkpt>
      <trkpt lat="43.60565" lon="1.58747">
        <ele>206.954147</ele>
        <time>2020-12-03T10:54:59.636Z</time>
      </trkpt>
      <trkpt lat="43.60507" lon="1.58863">
        <ele>210.912886</ele>
        <time>2020-12-03T10:55:40.680Z</time>
      </trkpt>
      <trkpt lat="43.60504" lon="1.58871">
        <ele>211.104504</ele>
        <time>2020-12-03T10:55:43.930Z</time>
      </trkpt>
      <trkpt lat="43.60501" lon="1.58878">
        <ele>211.262295</ele>
        <time>2020-12-03T10:55:46.273Z</time>
      </trkpt>
      <trkpt lat="43.60434" lon="1.59021">
        <ele>214.594105</ele>
        <time>2020-12-03T10:56:29.497Z</time>
      </trkpt>
      <trkpt lat="43.60324" lon="1.59186">
        <ele>216.527609</ele>
        <time>2020-12-03T10:57:16.189Z</time>
      </trkpt>
      <trkpt lat="43.60281" lon="1.5931">
        <ele>216.70497</ele>
        <time>2020-12-03T10:57:37.920Z</time>
      </trkpt>
      <trkpt lat="43.60257" lon="1.59335">
        <ele>216.651972</ele>
        <time>2020-12-03T10:57:44.493Z</time>
      </trkpt>
      <trkpt lat="43.6025" lon="1.5934">
        <ele>216.63755</ele>
        <time>2020-12-03T10:57:46.036Z</time>
      </trkpt>
      <trkpt lat="43.60243" lon="1.59347">
        <ele>216.623181</ele>
        <time>2020-12-03T10:57:47.663Z</time>
      </trkpt>
      <trkpt lat="43.60226" lon="1.59377">
        <ele>216.57514</ele>
        <time>2020-12-03T10:57:53.466Z</time>
      </trkpt>
      <trkpt lat="43.60204" lon="1.59443">
        <ele>216.456913</ele>
        <time>2020-12-03T10:58:05.121Z</time>
      </trkpt>
      <trkpt lat="43.60157" lon="1.59553">
        <ele>216.15674</ele>
        <time>2020-12-03T10:58:25.342Z</time>
      </trkpt>
      <trkpt lat="43.6015" lon="1.59566">
        <ele>216.120562</ele>
        <time>2020-12-03T10:58:28.493Z</time>
      </trkpt>
      <trkpt lat="43.60142" lon="1.59579">
        <ele>216.08174</ele>
        <time>2020-12-03T10:58:31.170Z</time>
      </trkpt>
      <trkpt lat="43.60071" lon="1.5965">
        <ele>214.986756</ele>
        <time>2020-12-03T10:58:49.106Z</time>
      </trkpt>
      <trkpt lat="43.60018" lon="1.59711">
        <ele>213.469509</ele>
        <time>2020-12-03T10:59:02.076Z</time>
      </trkpt>
      <trkpt lat="43.6" lon="1.59734">
        <ele>212.938316</ele>
        <time>2020-12-03T10:59:06.228Z</time>
      </trkpt>
      <trkpt lat="43.59977" lon="1.59776">
        <ele>212.084314</ele>
        <time>2020-12-03T10:59:12.642Z</time>
      </trkpt>
      <trkpt lat="43.59933" lon="1.59903">
        <ele>208.62538</ele>
        <time>2020-12-03T10:59:29.284Z</time>
      </trkpt>
      <trkpt lat="43.59926" lon="1.59917">
        <ele>208.19733</ele>
        <time>2020-12-03T10:59:31.273Z</time>
      </trkpt>
      <trkpt lat="43.5992" lon="1.59928">
        <ele>207.850365</ele>
        <time>2020-12-03T10:59:33.007Z</time>
      </trkpt>
      <trkpt lat="43.59912" lon="1.5994">
        <ele>207.429843</ele>
        <time>2020-12-03T10:59:35.165Z</time>
      </trkpt>
      <trkpt lat="43.59909" lon="1.59945">
        <ele>207.270163</ele>
        <time>2020-12-03T10:59:35.896Z</time>
      </trkpt>
      <trkpt lat="43.5989" lon="1.59973">
        <ele>206.309244</ele>
        <time>2020-12-03T10:59:40.719Z</time>
      </trkpt>
      <trkpt lat="43.59881" lon="1.59983">
        <ele>205.910126</ele>
        <time>2020-12-03T10:59:42.641Z</time>
      </trkpt>
      <trkpt lat="43.59872" lon="1.59993">
        <ele>205.730942</ele>
        <time>2020-12-03T10:59:44.895Z</time>
      </trkpt>
      <trkpt lat="43.59834" lon="1.60033">
        <ele>205.743493</ele>
        <time>2020-12-03T10:59:54.006Z</time>
      </trkpt>
      <trkpt lat="43.59814" lon="1.60052">
        <ele>205.749744</ele>
        <time>2020-12-03T10:59:58.621Z</time>
      </trkpt>
      <trkpt lat="43.59763" lon="1.60101">
        <ele>205.766137</ele>
        <time>2020-12-03T11:00:14.233Z</time>
      </trkpt>
      <trkpt lat="43.5977" lon="1.60113">
        <ele>205.768835</ele>
        <time>2020-12-03T11:00:18.100Z</time>
      </trkpt>
      <trkpt lat="43.59773" lon="1.60123">
        <ele>205.771064</ele>
        <time>2020-12-03T11:00:20.884Z</time>
      </trkpt>
      <trkpt lat="43.59785" lon="1.60156">
        <ele>205.823381</ele>
        <time>2020-12-03T11:00:31.535Z</time>
      </trkpt>
      <trkpt lat="43.59797" lon="1.60226">
        <ele>206.252629</ele>
        <time>2020-12-03T11:00:48.196Z</time>
      </trkpt>
      <trkpt lat="43.59795" lon="1.60289">
        <ele>206.624391</ele>
        <time>2020-12-03T11:01:00.862Z</time>
      </trkpt>
      <trkpt lat="43.59787" lon="1.60329">
        <ele>206.874965</ele>
        <time>2020-12-03T11:01:07.509Z</time>
      </trkpt>
      <trkpt lat="43.59786" lon="1.60337">
        <ele>206.922725</ele>
        <time>2020-12-03T11:01:09.976Z</time>
      </trkpt>
      <trkpt lat="43.59783" lon="1.60337">
        <ele>206.949046</ele>
        <time>2020-12-03T11:01:10.564Z</time>
      </trkpt>
      <trkpt lat="43.59778" lon="1.60341">
        <ele>206.999722</ele>
        <time>2020-12-03T11:01:11.740Z</time>
      </trkpt>
      <trkpt lat="43.59776" lon="1.60345">
        <ele>207.025774</ele>
        <time>2020-12-03T11:01:12.355Z</time>
      </trkpt>
      <trkpt lat="43.59758" lon="1.60325">
        <ele>207.218433</ele>
        <time>2020-12-03T11:01:17.713Z</time>
      </trkpt>
      <trkpt lat="43.59737" lon="1.60303">
        <ele>206.894443</ele>
        <time>2020-12-03T11:01:22.906Z</time>
      </trkpt>
      <trkpt lat="43.59725" lon="1.60293">
        <ele>206.663188</ele>
        <time>2020-12-03T11:01:26.150Z</time>
      </trkpt>
      <trkpt lat="43.59698" lon="1.60265">
        <ele>206.109481</ele>
        <time>2020-12-03T11:01:32.967Z</time>
      </trkpt>
      <trkpt lat="43.59689" lon="1.60255">
        <ele>205.913889</ele>
        <time>2020-12-03T11:01:35.147Z</time>
      </trkpt>
      <trkpt lat="43.59685" lon="1.60261">
        <ele>205.815377</ele>
        <time>2020-12-03T11:01:36.270Z</time>
      </trkpt>
      <trkpt lat="43.59685" lon="1.60276">
        <ele>205.624665</ele>
        <time>2020-12-03T11:01:38.414Z</time>
      </trkpt>
      <trkpt lat="43.59681" lon="1.60292">
        <ele>205.424084</ele>
        <time>2020-12-03T11:01:41.080Z</time>
      </trkpt>
      <trkpt lat="43.5968" lon="1.60298">
        <ele>205.347922</ele>
        <time>2020-12-03T11:01:41.913Z</time>
      </trkpt>
      <trkpt lat="43.59677" lon="1.60303">
        <ele>205.273396</ele>
        <time>2020-12-03T11:01:42.750Z</time>
      </trkpt>
      <trkpt lat="43.5967" lon="1.6031">
        <ele>205.128014</ele>
        <time>2020-12-03T11:01:44.336Z</time>
      </trkpt>
      <trkpt lat="43.59621" lon="1.60351">
        <ele>204.156096</ele>
        <time>2020-12-03T11:01:54.811Z</time>
      </trkpt>
      <trkpt lat="43.59596" lon="1.60386">
        <ele>203.371989</ele>
        <time>2020-12-03T11:02:01.899Z</time>
      </trkpt>
      <trkpt lat="43.59492" lon="1.60675">
        <ele>196.253273</ele>
        <time>2020-12-03T11:02:46.350Z</time>
      </trkpt>
      <trkpt lat="43.59483" lon="1.60702">
        <ele>195.341417</ele>
        <time>2020-12-03T11:02:49.757Z</time>
      </trkpt>
      <trkpt lat="43.59479" lon="1.607">
        <ele>195.196783</ele>
        <time>2020-12-03T11:02:50.334Z</time>
      </trkpt>
      <trkpt lat="43.59476" lon="1.60701">
        <ele>195.054327</ele>
        <time>2020-12-03T11:02:50.937Z</time>
      </trkpt>
      <trkpt lat="43.59473" lon="1.60703">
        <ele>194.911191</ele>
        <time>2020-12-03T11:02:51.514Z</time>
      </trkpt>
      <trkpt lat="43.59471" lon="1.60707">
        <ele>194.783137</ele>
        <time>2020-12-03T11:02:52.004Z</time>
      </trkpt>
      <trkpt lat="43.59471" lon="1.60715">
        <ele>194.528066</ele>
        <time>2020-12-03T11:02:53.029Z</time>
      </trkpt>
      <trkpt lat="43.59472" lon="1.60718">
        <ele>194.398669</ele>
        <time>2020-12-03T11:02:53.499Z</time>
      </trkpt>
      <trkpt lat="43.59465" lon="1.6073">
        <ele>193.928573</ele>
        <time>2020-12-03T11:02:55.149Z</time>
      </trkpt>
      <trkpt lat="43.59443" lon="1.60752">
        <ele>192.766281</ele>
        <time>2020-12-03T11:02:59.479Z</time>
      </trkpt>
      <trkpt lat="43.59348" lon="1.60795">
        <ele>187.3484</ele>
        <time>2020-12-03T11:03:15.090Z</time>
      </trkpt>
      <trkpt lat="43.59297" lon="1.60812">
        <ele>184.461856</ele>
        <time>2020-12-03T11:03:23.728Z</time>
      </trkpt>
      <trkpt lat="43.59271" lon="1.6082">
        <ele>182.980731</ele>
        <time>2020-12-03T11:03:28.647Z</time>
      </trkpt>
      <trkpt lat="43.59253" lon="1.6083">
        <ele>182.738706</ele>
        <time>2020-12-03T11:03:32.251Z</time>
      </trkpt>
      <trkpt lat="43.59242" lon="1.60843">
        <ele>182.73277</ele>
        <time>2020-12-03T11:03:35.030Z</time>
      </trkpt>
      <trkpt lat="43.59148" lon="1.61025">
        <ele>182.956172</ele>
        <time>2020-12-03T11:04:17.838Z</time>
      </trkpt>
      <trkpt lat="43.59106" lon="1.61094">
        <ele>184.57607</ele>
        <time>2020-12-03T11:04:41.385Z</time>
      </trkpt>
      <trkpt lat="43.59071" lon="1.61138">
        <ele>185.74666</ele>
        <time>2020-12-03T11:04:58.966Z</time>
      </trkpt>
      <trkpt lat="43.59009" lon="1.61194">
        <ele>187.43993</ele>
        <time>2020-12-03T11:05:27.115Z</time>
      </trkpt>
      <trkpt lat="43.58989" lon="1.61222">
        <ele>187.92236</ele>
        <time>2020-12-03T11:05:38.179Z</time>
      </trkpt>
      <trkpt lat="43.58975" lon="1.61253">
        <ele>188.361888</ele>
        <time>2020-12-03T11:05:48.279Z</time>
      </trkpt>
      <trkpt lat="43.58951" lon="1.61339">
        <ele>189.473759</ele>
        <time>2020-12-03T11:06:09.566Z</time>
      </trkpt>
      <trkpt lat="43.58912" lon="1.61433">
        <ele>189.181004</ele>
        <time>2020-12-03T11:06:27.436Z</time>
      </trkpt>
      <trkpt lat="43.58908" lon="1.61446">
        <ele>188.93678</ele>
        <time>2020-12-03T11:06:30.627Z</time>
      </trkpt>
      <trkpt lat="43.58898" lon="1.61447">
        <ele>188.701158</ele>
        <time>2020-12-03T11:06:32.193Z</time>
      </trkpt>
      <trkpt lat="43.58797" lon="1.61504">
        <ele>186.029771</ele>
        <time>2020-12-03T11:06:51.727Z</time>
      </trkpt>
      <trkpt lat="43.58756" lon="1.61544">
        <ele>184.268634</ele>
        <time>2020-12-03T11:07:00.341Z</time>
      </trkpt>
      <trkpt lat="43.5872" lon="1.61608">
        <ele>182.071701</ele>
        <time>2020-12-03T11:07:10.235Z</time>
      </trkpt>
      <trkpt lat="43.58602" lon="1.6187">
        <ele>175.027377</ele>
        <time>2020-12-03T11:07:50.399Z</time>
      </trkpt>
      <trkpt lat="43.58594" lon="1.61876">
        <ele>174.783311</ele>
        <time>2020-12-03T11:07:51.971Z</time>
      </trkpt>
      <trkpt lat="43.58585" lon="1.61862">
        <ele>174.407394</ele>
        <time>2020-12-03T11:07:54.518Z</time>
      </trkpt>
      <trkpt lat="43.58516" lon="1.61719">
        <ele>173.663532</ele>
        <time>2020-12-03T11:08:19.210Z</time>
      </trkpt>
      <trkpt lat="43.58497" lon="1.61666">
        <ele>173.554037</ele>
        <time>2020-12-03T11:08:30.514Z</time>
      </trkpt>
      <trkpt lat="43.58494" lon="1.61657">
        <ele>173.535421</ele>
        <time>2020-12-03T11:08:32.950Z</time>
      </trkpt>
      <trkpt lat="43.58491" lon="1.61653">
        <ele>173.525013</ele>
        <time>2020-12-03T11:08:34.051Z</time>
      </trkpt>
      <trkpt lat="43.58487" lon="1.61647">
        <ele>173.510202</ele>
        <time>2020-12-03T11:08:35.604Z</time>
      </trkpt>
      <trkpt lat="43.58482" lon="1.61644">
        <ele>173.496167</ele>
        <time>2020-12-03T11:08:37.100Z</time>
      </trkpt>
      <trkpt lat="43.58473" lon="1.61638">
        <ele>173.552125</ele>
        <time>2020-12-03T11:08:39.783Z</time>
      </trkpt>
      <trkpt lat="43.58447" lon="1.61639">
        <ele>174.138429</ele>
        <time>2020-12-03T11:08:47.951Z</time>
      </trkpt>
      <trkpt lat="43.58436" lon="1.61638">
        <ele>174.397527</ele>
        <time>2020-12-03T11:08:51.326Z</time>
      </trkpt>
      <trkpt lat="43.58426" lon="1.61638">
        <ele>174.615651</ele>
        <time>2020-12-03T11:08:54.985Z</time>
      </trkpt>
      <trkpt lat="43.58325" lon="1.61591">
        <ele>177.049692</ele>
        <time>2020-12-03T11:09:32.517Z</time>
      </trkpt>
      <trkpt lat="43.58308" lon="1.61592">
        <ele>177.438301</ele>
        <time>2020-12-03T11:09:38.501Z</time>
      </trkpt>
      <trkpt lat="43.58239" lon="1.61659">
        <ele>179.359214</ele>
        <time>2020-12-03T11:10:08.259Z</time>
      </trkpt>
      <trkpt lat="43.58154" lon="1.6173">
        <ele>181.629527</ele>
        <time>2020-12-03T11:10:40.548Z</time>
      </trkpt>
      <trkpt lat="43.58129" lon="1.61806">
        <ele>182.939935</ele>
        <time>2020-12-03T11:10:59.734Z</time>
      </trkpt>
      <trkpt lat="43.58087" lon="1.61895">
        <ele>184.599773</ele>
        <time>2020-12-03T11:11:24.350Z</time>
      </trkpt>
      <trkpt lat="43.58064" lon="1.62095">
        <ele>188.67807</ele>
        <time>2020-12-03T11:12:17.098Z</time>
      </trkpt>
      <trkpt lat="43.58063" lon="1.62143">
        <ele>189.756093</ele>
        <time>2020-12-03T11:12:31.522Z</time>
      </trkpt>
      <trkpt lat="43.58052" lon="1.6217">
        <ele>190.440575</ele>
        <time>2020-12-03T11:12:40.289Z</time>
      </trkpt>
      <trkpt lat="43.58026" lon="1.62221">
        <ele>191.876671</ele>
        <time>2020-12-03T11:12:58.344Z</time>
      </trkpt>
      <trkpt lat="43.57981" lon="1.62306">
        <ele>194.353463</ele>
        <time>2020-12-03T11:13:27.206Z</time>
      </trkpt>
      <trkpt lat="43.57882" lon="1.62496">
        <ele>200.668116</ele>
        <time>2020-12-03T11:14:31.942Z</time>
      </trkpt>
      <trkpt lat="43.57667" lon="1.62278">
        <ele>213.227711</ele>
        <time>2020-12-03T11:16:40.337Z</time>
      </trkpt>
      <trkpt lat="43.57651" lon="1.62275">
        <ele>213.593932</ele>
        <time>2020-12-03T11:16:46.643Z</time>
      </trkpt>
      <trkpt lat="43.57646" lon="1.62279">
        <ele>213.708434</ele>
        <time>2020-12-03T11:16:50.005Z</time>
      </trkpt>
      <trkpt lat="43.57606" lon="1.62334">
        <ele>214.891525</ele>
        <time>2020-12-03T11:17:12.407Z</time>
      </trkpt>
      <trkpt lat="43.57235" lon="1.62801">
        <ele>223.561077</ele>
        <time>2020-12-03T11:19:42.395Z</time>
      </trkpt>
      <trkpt lat="43.57216" lon="1.62813">
        <ele>223.626723</ele>
        <time>2020-12-03T11:19:47.475Z</time>
      </trkpt>
      <trkpt lat="43.57182" lon="1.62813">
        <ele>223.73277</ele>
        <time>2020-12-03T11:19:55.850Z</time>
      </trkpt>
      <trkpt lat="43.57153" lon="1.62854">
        <ele>223.862355</ele>
        <time>2020-12-03T11:20:05.277Z</time>
      </trkpt>
      <trkpt lat="43.57146" lon="1.62858">
        <ele>223.888512</ele>
        <time>2020-12-03T11:20:07.604Z</time>
      </trkpt>
      <trkpt lat="43.57156" lon="1.62859">
        <ele>223.920438</ele>
        <time>2020-12-03T11:20:09.650Z</time>
      </trkpt>
      <trkpt lat="43.57221" lon="1.62908">
        <ele>222.999124</ele>
        <time>2020-12-03T11:20:25.363Z</time>
      </trkpt>
      <trkpt lat="43.57285" lon="1.62975">
        <ele>221.341469</ele>
        <time>2020-12-03T11:20:40.680Z</time>
      </trkpt>
      <trkpt lat="43.57364" lon="1.63008">
        <ele>218.886415</ele>
        <time>2020-12-03T11:20:55.406Z</time>
      </trkpt>
      <trkpt lat="43.57401" lon="1.63012">
        <ele>217.218843</ele>
        <time>2020-12-03T11:21:01.797Z</time>
      </trkpt>
      <trkpt lat="43.57476" lon="1.63">
        <ele>213.782523</ele>
        <time>2020-12-03T11:21:14.602Z</time>
      </trkpt>
      <trkpt lat="43.57495" lon="1.62992">
        <ele>212.917167</ele>
        <time>2020-12-03T11:21:17.750Z</time>
      </trkpt>
      <trkpt lat="43.57513" lon="1.62974">
        <ele>211.796712</ele>
        <time>2020-12-03T11:21:21.432Z</time>
      </trkpt>
      <trkpt lat="43.57531" lon="1.62973">
        <ele>210.690772</ele>
        <time>2020-12-03T11:21:24.283Z</time>
      </trkpt>
      <trkpt lat="43.5755" lon="1.63001">
        <ele>208.942872</ele>
        <time>2020-12-03T11:21:28.800Z</time>
      </trkpt>
      <trkpt lat="43.5764" lon="1.63098">
        <ele>201.757592</ele>
        <time>2020-12-03T11:21:47.062Z</time>
      </trkpt>
      <trkpt lat="43.57699" lon="1.63131">
        <ele>198.669489</ele>
        <time>2020-12-03T11:21:56.946Z</time>
      </trkpt>
      <trkpt lat="43.57732" lon="1.63159">
        <ele>196.896296</ele>
        <time>2020-12-03T11:22:03.295Z</time>
      </trkpt>
      <trkpt lat="43.57742" lon="1.63172">
        <ele>196.295415</ele>
        <time>2020-12-03T11:22:05.615Z</time>
      </trkpt>
      <trkpt lat="43.57746" lon="1.63182">
        <ele>195.907892</ele>
        <time>2020-12-03T11:22:06.988Z</time>
      </trkpt>
      <trkpt lat="43.57755" lon="1.63217">
        <ele>194.694266</ele>
        <time>2020-12-03T11:22:11.929Z</time>
      </trkpt>
      <trkpt lat="43.5776" lon="1.63232">
        <ele>194.153208</ele>
        <time>2020-12-03T11:22:13.969Z</time>
      </trkpt>
      <trkpt lat="43.57768" lon="1.63245">
        <ele>193.605101</ele>
        <time>2020-12-03T11:22:16.387Z</time>
      </trkpt>
      <trkpt lat="43.57813" lon="1.633">
        <ele>193.71141</ele>
        <time>2020-12-03T11:22:28.498Z</time>
      </trkpt>
      <trkpt lat="43.57815" lon="1.63308">
        <ele>193.848336</ele>
        <time>2020-12-03T11:22:29.739Z</time>
      </trkpt>
      <trkpt lat="43.57801" lon="1.63315">
        <ele>194.187301</ele>
        <time>2020-12-03T11:22:34.653Z</time>
      </trkpt>
      <trkpt lat="43.57769" lon="1.63334">
        <ele>194.999585</ele>
        <time>2020-12-03T11:22:46.508Z</time>
      </trkpt>
      <trkpt lat="43.57743" lon="1.63359">
        <ele>195.72379</ele>
        <time>2020-12-03T11:22:59.933Z</time>
      </trkpt>
      <trkpt lat="43.57678" lon="1.63455">
        <ele>199.020784</ele>
        <time>2020-12-03T11:23:48.795Z</time>
      </trkpt>
      <trkpt lat="43.57657" lon="1.63489">
        <ele>200.584787</ele>
        <time>2020-12-03T11:24:04.885Z</time>
      </trkpt>
      <trkpt lat="43.57642" lon="1.63515">
        <ele>201.738984</ele>
        <time>2020-12-03T11:24:16.528Z</time>
      </trkpt>
      <trkpt lat="43.57612" lon="1.63572">
        <ele>204.212683</ele>
        <time>2020-12-03T11:24:39.828Z</time>
      </trkpt>
      <trkpt lat="43.57564" lon="1.63638">
        <ele>206.818652</ele>
        <time>2020-12-03T11:25:09.149Z</time>
      </trkpt>
      <trkpt lat="43.5745" lon="1.63735">
        <ele>211.141576</ele>
        <time>2020-12-03T11:25:59.285Z</time>
      </trkpt>
      <trkpt lat="43.57411" lon="1.63768">
        <ele>212.534636</ele>
        <time>2020-12-03T11:26:16.642Z</time>
      </trkpt>
      <trkpt lat="43.57259" lon="1.63933">
        <ele>218.010122</ele>
        <time>2020-12-03T11:27:31.547Z</time>
      </trkpt>
      <trkpt lat="43.57191" lon="1.64021">
        <ele>220.121756</ele>
        <time>2020-12-03T11:28:02.592Z</time>
      </trkpt>
      <trkpt lat="43.5718" lon="1.64034">
        <ele>220.454953</ele>
        <time>2020-12-03T11:28:08.000Z</time>
      </trkpt>
      <trkpt lat="43.57171" lon="1.64043">
        <ele>220.706011</ele>
        <time>2020-12-03T11:28:11.002Z</time>
      </trkpt>
      <trkpt lat="43.57093" lon="1.64094">
        <ele>222.203736</ele>
        <time>2020-12-03T11:28:37.643Z</time>
      </trkpt>
      <trkpt lat="43.5706" lon="1.64139">
        <ele>222.999301</ele>
        <time>2020-12-03T11:28:53.035Z</time>
      </trkpt>
      <trkpt lat="43.57035" lon="1.64183">
        <ele>223.691249</ele>
        <time>2020-12-03T11:29:05.198Z</time>
      </trkpt>
      <trkpt lat="43.57016" lon="1.64217">
        <ele>224.317476</ele>
        <time>2020-12-03T11:29:14.924Z</time>
      </trkpt>
      <trkpt lat="43.56994" lon="1.64254">
        <ele>225.099491</ele>
        <time>2020-12-03T11:29:26.122Z</time>
      </trkpt>
      <trkpt lat="43.56985" lon="1.6427">
        <ele>225.426098</ele>
        <time>2020-12-03T11:29:31.255Z</time>
      </trkpt>
      <trkpt lat="43.56912" lon="1.64405">
        <ele>228.22882</ele>
        <time>2020-12-03T11:30:14.517Z</time>
      </trkpt>
      <trkpt lat="43.56709" lon="1.64882">
        <ele>239.835431</ele>
        <time>2020-12-03T11:32:46.799Z</time>
      </trkpt>
      <trkpt lat="43.56696" lon="1.64916">
        <ele>240.583401</ele>
        <time>2020-12-03T11:32:57.428Z</time>
      </trkpt>
      <trkpt lat="43.56691" lon="1.64924">
        <ele>240.783799</ele>
        <time>2020-12-03T11:33:00.081Z</time>
      </trkpt>
      <trkpt lat="43.56683" lon="1.64939">
        <ele>241.13644</ele>
        <time>2020-12-03T11:33:04.986Z</time>
      </trkpt>
      <trkpt lat="43.56674" lon="1.64956">
        <ele>241.556183</ele>
        <time>2020-12-03T11:33:10.896Z</time>
      </trkpt>
      <trkpt lat="43.56656" lon="1.64982">
        <ele>242.236368</ele>
        <time>2020-12-03T11:33:20.070Z</time>
      </trkpt>
      <trkpt lat="43.56507" lon="1.65142">
        <ele>246.450515</ele>
        <time>2020-12-03T11:34:25.233Z</time>
      </trkpt>
      <trkpt lat="43.56484" lon="1.65161">
        <ele>247.016717</ele>
        <time>2020-12-03T11:34:34.335Z</time>
      </trkpt>
      <trkpt lat="43.56424" lon="1.65195">
        <ele>247.168748</ele>
        <time>2020-12-03T11:34:53.306Z</time>
      </trkpt>
      <trkpt lat="43.56407" lon="1.65231">
        <ele>247.191756</ele>
        <time>2020-12-03T11:35:00.953Z</time>
      </trkpt>
      <trkpt lat="43.56403" lon="1.65247">
        <ele>247.200276</ele>
        <time>2020-12-03T11:35:04.158Z</time>
      </trkpt>
      <trkpt lat="43.56403" lon="1.65269">
        <ele>247.212488</ele>
        <time>2020-12-03T11:35:07.789Z</time>
      </trkpt>
      <trkpt lat="43.56349" lon="1.65263">
        <ele>247.252552</ele>
        <time>2020-12-03T11:35:18.956Z</time>
      </trkpt>
      <trkpt lat="43.56345" lon="1.65262">
        <ele>247.255368</ele>
        <time>2020-12-03T11:35:19.696Z</time>
      </trkpt>
      <trkpt lat="43.5631" lon="1.65258">
        <ele>245.89072</ele>
        <time>2020-12-03T11:35:26.185Z</time>
      </trkpt>
      <trkpt lat="43.56268" lon="1.65268">
        <ele>244.151598</ele>
        <time>2020-12-03T11:35:33.236Z</time>
      </trkpt>
      <trkpt lat="43.56225" lon="1.65313">
        <ele>241.93044</ele>
        <time>2020-12-03T11:35:42.013Z</time>
      </trkpt>
      <trkpt lat="43.56219" lon="1.65315">
        <ele>241.682671</ele>
        <time>2020-12-03T11:35:42.914Z</time>
      </trkpt>
      <trkpt lat="43.56219" lon="1.65312">
        <ele>241.590224</ele>
        <time>2020-12-03T11:35:43.257Z</time>
      </trkpt>
      <trkpt lat="43.56216" lon="1.65304">
        <ele>241.319214</ele>
        <time>2020-12-03T11:35:44.337Z</time>
      </trkpt>
      <trkpt lat="43.56214" lon="1.65302">
        <ele>241.224169</ele>
        <time>2020-12-03T11:35:44.680Z</time>
      </trkpt>
      <trkpt lat="43.56211" lon="1.65301">
        <ele>241.081243</ele>
        <time>2020-12-03T11:35:45.246Z</time>
      </trkpt>
      <trkpt lat="43.56205" lon="1.65305">
        <ele>240.804843</ele>
        <time>2020-12-03T11:35:46.360Z</time>
      </trkpt>
      <trkpt lat="43.56203" lon="1.65309">
        <ele>240.664112</ele>
        <time>2020-12-03T11:35:46.937Z</time>
      </trkpt>
      <trkpt lat="43.56198" lon="1.65301">
        <ele>240.325494</ele>
        <time>2020-12-03T11:35:48.213Z</time>
      </trkpt>
      <trkpt lat="43.56175" lon="1.65257">
        <ele>237.53285</ele>
        <time>2020-12-03T11:35:54.161Z</time>
      </trkpt>
      <trkpt lat="43.56163" lon="1.65239">
        <ele>236.027621</ele>
        <time>2020-12-03T11:35:56.731Z</time>
      </trkpt>
      <trkpt lat="43.56147" lon="1.65231">
        <ele>234.598247</ele>
        <time>2020-12-03T11:35:59.316Z</time>
      </trkpt>
      <trkpt lat="43.5613" lon="1.65231">
        <ele>233.107904</ele>
        <time>2020-12-03T11:36:01.744Z</time>
      </trkpt>
      <trkpt lat="43.56089" lon="1.65247">
        <ele>229.500681</ele>
        <time>2020-12-03T11:36:07.830Z</time>
      </trkpt>
      <trkpt lat="43.56067" lon="1.65235">
        <ele>227.540188</ele>
        <time>2020-12-03T11:36:11.325Z</time>
      </trkpt>
      <trkpt lat="43.56062" lon="1.6523">
        <ele>227.007226</ele>
        <time>2020-12-03T11:36:12.147Z</time>
      </trkpt>
      <trkpt lat="43.56057" lon="1.65224">
        <ele>226.489767</ele>
        <time>2020-12-03T11:36:13.005Z</time>
      </trkpt>
      <trkpt lat="43.56044" lon="1.652">
        <ele>224.610048</ele>
        <time>2020-12-03T11:36:16.445Z</time>
      </trkpt>
      <trkpt lat="43.56041" lon="1.65196">
        <ele>224.262992</ele>
        <time>2020-12-03T11:36:17.039Z</time>
      </trkpt>
      <trkpt lat="43.56036" lon="1.6519">
        <ele>223.768669</ele>
        <time>2020-12-03T11:36:17.895Z</time>
      </trkpt>
      <trkpt lat="43.56021" lon="1.6518">
        <ele>222.50532</ele>
        <time>2020-12-03T11:36:20.527Z</time>
      </trkpt>
      <trkpt lat="43.56015" lon="1.65178">
        <ele>222.046925</ele>
        <time>2020-12-03T11:36:21.379Z</time>
      </trkpt>
      <trkpt lat="43.56009" lon="1.65177">
        <ele>221.595707</ele>
        <time>2020-12-03T11:36:22.209Z</time>
      </trkpt>
      <trkpt lat="43.56005" lon="1.65177">
        <ele>221.245613</ele>
        <time>2020-12-03T11:36:22.799Z</time>
      </trkpt>
      <trkpt lat="43.55963" lon="1.65188">
        <ele>217.95481</ele>
        <time>2020-12-03T11:36:28.926Z</time>
      </trkpt>
      <trkpt lat="43.55921" lon="1.65211">
        <ele>214.428633</ele>
        <time>2020-12-03T11:36:35.671Z</time>
      </trkpt>
      <trkpt lat="43.55918" lon="1.65212">
        <ele>214.196428</ele>
        <time>2020-12-03T11:36:36.194Z</time>
      </trkpt>
      <trkpt lat="43.55863" lon="1.65241">
        <ele>210.371804</ele>
        <time>2020-12-03T11:36:45.025Z</time>
      </trkpt>
      <trkpt lat="43.55708" lon="1.65325">
        <ele>206.093859</ele>
        <time>2020-12-03T11:37:15.514Z</time>
      </trkpt>
      <trkpt lat="43.557" lon="1.65328">
        <ele>206.09527</ele>
        <time>2020-12-03T11:37:17.382Z</time>
      </trkpt>
      <trkpt lat="43.55695" lon="1.6533">
        <ele>206.096017</ele>
        <time>2020-12-03T11:37:18.491Z</time>
      </trkpt>
      <trkpt lat="43.55689" lon="1.65332">
        <ele>206.09694</ele>
        <time>2020-12-03T11:37:19.835Z</time>
      </trkpt>
      <trkpt lat="43.55684" lon="1.65333">
        <ele>206.097847</ele>
        <time>2020-12-03T11:37:21.494Z</time>
      </trkpt>
      <trkpt lat="43.55667" lon="1.65333">
        <ele>206.10051</ele>
        <time>2020-12-03T11:37:25.026Z</time>
      </trkpt>
      <trkpt lat="43.55641" lon="1.65323">
        <ele>206.104889</ele>
        <time>2020-12-03T11:37:31.574Z</time>
      </trkpt>
      <trkpt lat="43.55631" lon="1.65316">
        <ele>206.106651</ele>
        <time>2020-12-03T11:37:34.155Z</time>
      </trkpt>
      <trkpt lat="43.55621" lon="1.65304">
        <ele>206.108807</ele>
        <time>2020-12-03T11:37:37.734Z</time>
      </trkpt>
      <trkpt lat="43.55573" lon="1.65208">
        <ele>206.122198</ele>
        <time>2020-12-03T11:37:57.174Z</time>
      </trkpt>
      <trkpt lat="43.5553" lon="1.65159">
        <ele>206.831709</ele>
        <time>2020-12-03T11:38:11.212Z</time>
      </trkpt>
      <trkpt lat="43.55508" lon="1.65142">
        <ele>207.165475</ele>
        <time>2020-12-03T11:38:18.166Z</time>
      </trkpt>
      <trkpt lat="43.55446" lon="1.651">
        <ele>208.081928</ele>
        <time>2020-12-03T11:38:38.274Z</time>
      </trkpt>
      <trkpt lat="43.55433" lon="1.6509">
        <ele>208.275827</ele>
        <time>2020-12-03T11:38:42.433Z</time>
      </trkpt>
      <trkpt lat="43.55428" lon="1.65102">
        <ele>208.410989</ele>
        <time>2020-12-03T11:38:46.917Z</time>
      </trkpt>
      <trkpt lat="43.55396" lon="1.65219">
        <ele>212.300919</ele>
        <time>2020-12-03T11:39:21.446Z</time>
      </trkpt>
      <trkpt lat="43.55343" lon="1.65373">
        <ele>218.243024</ele>
        <time>2020-12-03T11:40:27.669Z</time>
      </trkpt>
      <trkpt lat="43.55321" lon="1.6543">
        <ele>221.004649</ele>
        <time>2020-12-03T11:40:52.927Z</time>
      </trkpt>
      <trkpt lat="43.55308" lon="1.65463">
        <ele>222.559932</ele>
        <time>2020-12-03T11:41:07.422Z</time>
      </trkpt>
      <trkpt lat="43.5526" lon="1.65558">
        <ele>227.369637</ele>
        <time>2020-12-03T11:41:52.416Z</time>
      </trkpt>
      <trkpt lat="43.55168" lon="1.65718">
        <ele>232.972391</ele>
        <time>2020-12-03T11:42:56.846Z</time>
      </trkpt>
      <trkpt lat="43.55089" lon="1.65877">
        <ele>234.647757</ele>
        <time>2020-12-03T11:43:38.753Z</time>
      </trkpt>
      <trkpt lat="43.54947" lon="1.66083">
        <ele>233.898263</ele>
        <time>2020-12-03T11:44:21.370Z</time>
      </trkpt>
      <trkpt lat="43.54938" lon="1.66096">
        <ele>233.793486</ele>
        <time>2020-12-03T11:44:23.872Z</time>
      </trkpt>
      <trkpt lat="43.54957" lon="1.66129">
        <ele>233.629345</ele>
        <time>2020-12-03T11:44:30.720Z</time>
      </trkpt>
      <trkpt lat="43.55015" lon="1.66225">
        <ele>234.771942</ele>
        <time>2020-12-03T11:44:53.390Z</time>
      </trkpt>
      <trkpt lat="43.55115" lon="1.66344">
        <ele>236.516239</ele>
        <time>2020-12-03T11:45:40.607Z</time>
      </trkpt>
      <trkpt lat="43.55125" lon="1.66364">
        <ele>236.751812</ele>
        <time>2020-12-03T11:45:47.456Z</time>
      </trkpt>
      <trkpt lat="43.55127" lon="1.66382">
        <ele>236.944063</ele>
        <time>2020-12-03T11:45:53.120Z</time>
      </trkpt>
      <trkpt lat="43.55123" lon="1.66403">
        <ele>237.157351</ele>
        <time>2020-12-03T11:45:58.425Z</time>
      </trkpt>
      <trkpt lat="43.55078" lon="1.66541">
        <ele>237.590039</ele>
        <time>2020-12-03T11:46:25.495Z</time>
      </trkpt>
      <trkpt lat="43.5507" lon="1.66571">
        <ele>236.797983</ele>
        <time>2020-12-03T11:46:30.271Z</time>
      </trkpt>
      <trkpt lat="43.55032" lon="1.66573">
        <ele>235.519708</ele>
        <time>2020-12-03T11:46:37.279Z</time>
      </trkpt>
      <trkpt lat="43.54952" lon="1.66576">
        <ele>232.835894</ele>
        <time>2020-12-03T11:46:50.829Z</time>
      </trkpt>
      <trkpt lat="43.54937" lon="1.66581">
        <ele>232.34362</ele>
        <time>2020-12-03T11:46:53.205Z</time>
      </trkpt>
      <trkpt lat="43.54923" lon="1.66594">
        <ele>231.185625</ele>
        <time>2020-12-03T11:46:55.984Z</time>
      </trkpt>
      <trkpt lat="43.5491" lon="1.6663">
        <ele>229.282184</ele>
        <time>2020-12-03T11:47:00.502Z</time>
      </trkpt>
      <trkpt lat="43.54871" lon="1.66815">
        <ele>220.016519</ele>
        <time>2020-12-03T11:47:22.654Z</time>
      </trkpt>
      <trkpt lat="43.54855" lon="1.66874">
        <ele>216.824171</ele>
        <time>2020-12-03T11:47:29.851Z</time>
      </trkpt>
      <trkpt lat="43.54838" lon="1.66904">
        <ele>214.93294</ele>
        <time>2020-12-03T11:47:34.097Z</time>
      </trkpt>
      <trkpt lat="43.54823" lon="1.66913">
        <ele>213.753657</ele>
        <time>2020-12-03T11:47:36.739Z</time>
      </trkpt>
      <trkpt lat="43.54804" lon="1.66915">
        <ele>212.403821</ele>
        <time>2020-12-03T11:47:39.771Z</time>
      </trkpt>
      <trkpt lat="43.54748" lon="1.669">
        <ele>208.486717</ele>
        <time>2020-12-03T11:47:48.572Z</time>
      </trkpt>
      <trkpt lat="43.54731" lon="1.66901">
        <ele>207.539239</ele>
        <time>2020-12-03T11:47:51.271Z</time>
      </trkpt>
      <trkpt lat="43.54656" lon="1.66957">
        <ele>203.97976</ele>
        <time>2020-12-03T11:48:05.219Z</time>
      </trkpt>
      <trkpt lat="43.54583" lon="1.66975">
        <ele>200.905646</ele>
        <time>2020-12-03T11:48:18.551Z</time>
      </trkpt>
      <trkpt lat="43.54559" lon="1.66992">
        <ele>200.712369</ele>
        <time>2020-12-03T11:48:24.417Z</time>
      </trkpt>
      <trkpt lat="43.54537" lon="1.67018">
        <ele>201.234671</ele>
        <time>2020-12-03T11:48:32.430Z</time>
      </trkpt>
      <trkpt lat="43.54531" lon="1.67024">
        <ele>201.370932</ele>
        <time>2020-12-03T11:48:34.404Z</time>
      </trkpt>
      <trkpt lat="43.54484" lon="1.67076">
        <ele>202.441594</ele>
        <time>2020-12-03T11:48:55.781Z</time>
      </trkpt>
      <trkpt lat="43.54468" lon="1.67086">
        <ele>202.750597</ele>
        <time>2020-12-03T11:49:01.104Z</time>
      </trkpt>
      <trkpt lat="43.54462" lon="1.67089">
        <ele>202.864634</ele>
        <time>2020-12-03T11:49:03.889Z</time>
      </trkpt>
      <trkpt lat="43.54457" lon="1.6709">
        <ele>202.954013</ele>
        <time>2020-12-03T11:49:06.991Z</time>
      </trkpt>
      <trkpt lat="43.5442" lon="1.67086">
        <ele>203.623753</ele>
        <time>2020-12-03T11:49:21.618Z</time>
      </trkpt>
      <trkpt lat="43.54386" lon="1.67076">
        <ele>204.488957</ele>
        <time>2020-12-03T11:49:35.776Z</time>
      </trkpt>
      <trkpt lat="43.54309" lon="1.67052">
        <ele>206.533636</ele>
        <time>2020-12-03T11:50:07.035Z</time>
      </trkpt>
      <trkpt lat="43.53822" lon="1.66891">
        <ele>213.45303</ele>
        <time>2020-12-03T11:52:36.364Z</time>
      </trkpt>
      <trkpt lat="43.53735" lon="1.66863">
        <ele>213.867957</ele>
        <time>2020-12-03T11:52:57.584Z</time>
      </trkpt>
      <trkpt lat="43.53668" lon="1.66841">
        <ele>214.098136</ele>
        <time>2020-12-03T11:53:12.000Z</time>
      </trkpt>
      <trkpt lat="43.5357" lon="1.66808">
        <ele>214.394516</ele>
        <time>2020-12-03T11:53:36.541Z</time>
      </trkpt>
      <trkpt lat="43.53564" lon="1.66806">
        <ele>214.412573</ele>
        <time>2020-12-03T11:53:37.837Z</time>
      </trkpt>
      <trkpt lat="43.53555" lon="1.66806">
        <ele>214.439194</ele>
        <time>2020-12-03T11:53:39.732Z</time>
      </trkpt>
      <trkpt lat="43.53586" lon="1.66878">
        <ele>215.715982</ele>
        <time>2020-12-03T11:54:01.677Z</time>
      </trkpt>
      <trkpt lat="43.5364" lon="1.67003">
        <ele>218.380451</ele>
        <time>2020-12-03T11:54:41.250Z</time>
      </trkpt>
      <trkpt lat="43.5365" lon="1.67025">
        <ele>218.870707</ele>
        <time>2020-12-03T11:54:49.848Z</time>
      </trkpt>
      <trkpt lat="43.53654" lon="1.67035">
        <ele>219.056187</ele>
        <time>2020-12-03T11:54:52.554Z</time>
      </trkpt>
      <trkpt lat="43.53698" lon="1.67228">
        <ele>220.539394</ele>
        <time>2020-12-03T11:55:33.878Z</time>
      </trkpt>
      <trkpt lat="43.53713" lon="1.67269">
        <ele>220.862482</ele>
        <time>2020-12-03T11:55:40.325Z</time>
      </trkpt>
      <trkpt lat="43.53786" lon="1.67432">
        <ele>220.736515</ele>
        <time>2020-12-03T11:56:09.947Z</time>
      </trkpt>
      <trkpt lat="43.53794" lon="1.67454">
        <ele>220.720483</ele>
        <time>2020-12-03T11:56:15.144Z</time>
      </trkpt>
      <trkpt lat="43.53822" lon="1.67561">
        <ele>220.879001</ele>
        <time>2020-12-03T11:56:35.383Z</time>
      </trkpt>
      <trkpt lat="43.53833" lon="1.67634">
        <ele>221.037104</ele>
        <time>2020-12-03T11:56:48.898Z</time>
      </trkpt>
      <trkpt lat="43.53833" lon="1.67644">
        <ele>221.0597</ele>
        <time>2020-12-03T11:56:51.500Z</time>
      </trkpt>
      <trkpt lat="43.53833" lon="1.67663">
        <ele>221.099909</ele>
        <time>2020-12-03T11:56:54.446Z</time>
      </trkpt>
      <trkpt lat="43.53825" lon="1.67737">
        <ele>221.15501</ele>
        <time>2020-12-03T11:57:06.325Z</time>
      </trkpt>
      <trkpt lat="43.53807" lon="1.67793">
        <ele>220.838025</ele>
        <time>2020-12-03T11:57:15.470Z</time>
      </trkpt>
      <trkpt lat="43.53787" lon="1.67836">
        <ele>220.572041</ele>
        <time>2020-12-03T11:57:22.917Z</time>
      </trkpt>
      <trkpt lat="43.53714" lon="1.67959">
        <ele>219.93474</ele>
        <time>2020-12-03T11:57:45.860Z</time>
      </trkpt>
      <trkpt lat="43.53603" lon="1.68096">
        <ele>219.927302</ele>
        <time>2020-12-03T11:58:19.240Z</time>
      </trkpt>
      <trkpt lat="43.53597" lon="1.68124">
        <ele>219.879586</ele>
        <time>2020-12-03T11:58:25.788Z</time>
      </trkpt>
      <trkpt lat="43.53579" lon="1.68279">
        <ele>219.564078</ele>
        <time>2020-12-03T11:58:57.587Z</time>
      </trkpt>
      <trkpt lat="43.53574" lon="1.68295">
        <ele>219.528939</ele>
        <time>2020-12-03T11:58:59.555Z</time>
      </trkpt>
      <trkpt lat="43.5357" lon="1.683">
        <ele>219.514191</ele>
        <time>2020-12-03T11:59:00.665Z</time>
      </trkpt>
      <trkpt lat="43.53579" lon="1.6832">
        <ele>219.467118</ele>
        <time>2020-12-03T11:59:05.400Z</time>
      </trkpt>
      <trkpt lat="43.53593" lon="1.6835">
        <ele>218.683147</ele>
        <time>2020-12-03T11:59:09.627Z</time>
      </trkpt>
      <trkpt lat="43.53618" lon="1.68384">
        <ele>216.497519</ele>
        <time>2020-12-03T11:59:15.466Z</time>
      </trkpt>
      <trkpt lat="43.53628" lon="1.6839">
        <ele>215.827919</ele>
        <time>2020-12-03T11:59:17.642Z</time>
      </trkpt>
      <trkpt lat="43.53627" lon="1.68409">
        <ele>214.998631</ele>
        <time>2020-12-03T11:59:19.655Z</time>
      </trkpt>
      <trkpt lat="43.53628" lon="1.68467">
        <ele>212.411201</ele>
        <time>2020-12-03T11:59:26.396Z</time>
      </trkpt>
      <trkpt lat="43.53608" lon="1.68548">
        <ele>208.55337</ele>
        <time>2020-12-03T11:59:36.021Z</time>
      </trkpt>
      <trkpt lat="43.53621" lon="1.68672">
        <ele>202.107293</ele>
        <time>2020-12-03T11:59:49.684Z</time>
      </trkpt>
      <trkpt lat="43.53568" lon="1.68791">
        <ele>195.401889</ele>
        <time>2020-12-03T12:00:06.042Z</time>
      </trkpt>
      <trkpt lat="43.53563" lon="1.68798">
        <ele>195.313765</ele>
        <time>2020-12-03T12:00:07.204Z</time>
      </trkpt>
      <trkpt lat="43.53558" lon="1.68802">
        <ele>195.244352</ele>
        <time>2020-12-03T12:00:08.239Z</time>
      </trkpt>
      <trkpt lat="43.53411" lon="1.68834">
        <ele>193.457369</ele>
        <time>2020-12-03T12:00:39.670Z</time>
      </trkpt>
      <trkpt lat="43.53398" lon="1.68855">
        <ele>193.563542</ele>
        <time>2020-12-03T12:00:46.908Z</time>
      </trkpt>
      <trkpt lat="43.53288" lon="1.69107">
        <ele>197.64396</ele>
        <time>2020-12-03T12:02:03.792Z</time>
      </trkpt>
      <trkpt lat="43.53235" lon="1.69226">
        <ele>198.516194</ele>
        <time>2020-12-03T12:02:31.463Z</time>
      </trkpt>
      <trkpt lat="43.53249" lon="1.69236">
        <ele>198.654099</ele>
        <time>2020-12-03T12:02:34.852Z</time>
      </trkpt>
      <trkpt lat="43.53266" lon="1.69243">
        <ele>198.804901</ele>
        <time>2020-12-03T12:02:38.833Z</time>
      </trkpt>
      <trkpt lat="43.53325" lon="1.69245">
        <ele>197.992614</ele>
        <time>2020-12-03T12:02:50.877Z</time>
      </trkpt>
      <trkpt lat="43.53408" lon="1.6928">
        <ele>196.774364</ele>
        <time>2020-12-03T12:03:07.300Z</time>
      </trkpt>
      <trkpt lat="43.5352" lon="1.69294">
        <ele>196.068684</ele>
        <time>2020-12-03T12:03:30.369Z</time>
      </trkpt>
      <trkpt lat="43.53544" lon="1.69305">
        <ele>196.001095</ele>
        <time>2020-12-03T12:03:36.328Z</time>
      </trkpt>
      <trkpt lat="43.53557" lon="1.69318">
        <ele>195.959713</ele>
        <time>2020-12-03T12:03:39.703Z</time>
      </trkpt>
      <trkpt lat="43.53569" lon="1.69332">
        <ele>195.918351</ele>
        <time>2020-12-03T12:03:44.076Z</time>
      </trkpt>
      <trkpt lat="43.53643" lon="1.69413">
        <ele>196.894408</ele>
        <time>2020-12-03T12:04:09.813Z</time>
      </trkpt>
      <trkpt lat="43.53729" lon="1.69494">
        <ele>199.199709</ele>
        <time>2020-12-03T12:04:47.090Z</time>
      </trkpt>
      <trkpt lat="43.53733" lon="1.69497">
        <ele>199.301511</ele>
        <time>2020-12-03T12:04:48.782Z</time>
      </trkpt>
      <trkpt lat="43.53712" lon="1.69539">
        <ele>200.395064</ele>
        <time>2020-12-03T12:05:03.017Z</time>
      </trkpt>
      <trkpt lat="43.53515" lon="1.69911">
        <ele>214.663682</ele>
        <time>2020-12-03T12:07:33.397Z</time>
      </trkpt>
      <trkpt lat="43.5349" lon="1.69943">
        <ele>216.228357</ele>
        <time>2020-12-03T12:07:49.749Z</time>
      </trkpt>
      <trkpt lat="43.5347" lon="1.69964">
        <ele>217.36261</ele>
        <time>2020-12-03T12:08:01.583Z</time>
      </trkpt>
      <trkpt lat="43.53459" lon="1.69976">
        <ele>218.037185</ele>
        <time>2020-12-03T12:08:08.615Z</time>
      </trkpt>
      <trkpt lat="43.53394" lon="1.70058">
        <ele>222.067775</ele>
        <time>2020-12-03T12:08:49.862Z</time>
      </trkpt>
      <trkpt lat="43.53244" lon="1.70497">
        <ele>236.431856</ele>
        <time>2020-12-03T12:11:22.329Z</time>
      </trkpt>
      <trkpt lat="43.5324" lon="1.70501">
        <ele>236.621868</ele>
        <time>2020-12-03T12:11:24.832Z</time>
      </trkpt>
      <trkpt lat="43.53241" lon="1.70508">
        <ele>236.842459</ele>
        <time>2020-12-03T12:11:28.069Z</time>
      </trkpt>
      <trkpt lat="43.53199" lon="1.70665">
        <ele>239.99109</ele>
        <time>2020-12-03T12:12:16.466Z</time>
      </trkpt>
      <trkpt lat="43.53193" lon="1.70699">
        <ele>240.557837</ele>
        <time>2020-12-03T12:12:25.891Z</time>
      </trkpt>
      <trkpt lat="43.53191" lon="1.70712">
        <ele>240.768229</ele>
        <time>2020-12-03T12:12:28.507Z</time>
      </trkpt>
      <trkpt lat="43.53184" lon="1.70841">
        <ele>241.140701</ele>
        <time>2020-12-03T12:12:51.460Z</time>
      </trkpt>
      <trkpt lat="43.53167" lon="1.70991">
        <ele>239.196597</ele>
        <time>2020-12-03T12:13:12.488Z</time>
      </trkpt>
      <trkpt lat="43.53175" lon="1.71101">
        <ele>236.407643</ele>
        <time>2020-12-03T12:13:26.573Z</time>
      </trkpt>
      <trkpt lat="43.53183" lon="1.71128">
        <ele>235.458615</ele>
        <time>2020-12-03T12:13:30.272Z</time>
      </trkpt>
      <trkpt lat="43.53194" lon="1.71145">
        <ele>234.735776</ele>
        <time>2020-12-03T12:13:33.194Z</time>
      </trkpt>
      <trkpt lat="43.53213" lon="1.71168">
        <ele>233.638653</ele>
        <time>2020-12-03T12:13:37.389Z</time>
      </trkpt>
      <trkpt lat="43.53201" lon="1.71183">
        <ele>232.933979</ele>
        <time>2020-12-03T12:13:40.239Z</time>
      </trkpt>
      <trkpt lat="43.53103" lon="1.71306">
        <ele>225.471334</ele>
        <time>2020-12-03T12:14:01.793Z</time>
      </trkpt>
      <trkpt lat="43.53083" lon="1.71339">
        <ele>223.487332</ele>
        <time>2020-12-03T12:14:06.807Z</time>
      </trkpt>
      <trkpt lat="43.53064" lon="1.71382">
        <ele>221.139129</ele>
        <time>2020-12-03T12:14:12.636Z</time>
      </trkpt>
      <trkpt lat="43.53029" lon="1.71505">
        <ele>215.500262</ele>
        <time>2020-12-03T12:14:27.648Z</time>
      </trkpt>
      <trkpt lat="43.53012" lon="1.71541">
        <ele>213.721551</ele>
        <time>2020-12-03T12:14:32.601Z</time>
      </trkpt>
      <trkpt lat="43.52983" lon="1.7158">
        <ele>211.414441</ele>
        <time>2020-12-03T12:14:39.154Z</time>
      </trkpt>
      <trkpt lat="43.52906" lon="1.71649">
        <ele>208.800034</ele>
        <time>2020-12-03T12:14:55.558Z</time>
      </trkpt>
      <trkpt lat="43.52856" lon="1.71709">
        <ele>208.37611</ele>
        <time>2020-12-03T12:15:09.846Z</time>
      </trkpt>
      <trkpt lat="43.52708" lon="1.71936">
        <ele>211.25913</ele>
        <time>2020-12-03T12:16:23.021Z</time>
      </trkpt>
      <trkpt lat="43.52675" lon="1.71984">
        <ele>212.374506</ele>
        <time>2020-12-03T12:16:40.568Z</time>
      </trkpt>
      <trkpt lat="43.52689" lon="1.72018">
        <ele>213.07347</ele>
        <time>2020-12-03T12:16:50.479Z</time>
      </trkpt>
      <trkpt lat="43.52886" lon="1.72483">
        <ele>223.159529</ele>
        <time>2020-12-03T12:19:11.055Z</time>
      </trkpt>
      <trkpt lat="43.52902" lon="1.72549">
        <ele>224.541978</ele>
        <time>2020-12-03T12:19:30.023Z</time>
      </trkpt>
      <trkpt lat="43.52898" lon="1.72615">
        <ele>225.873782</ele>
        <time>2020-12-03T12:19:48.322Z</time>
      </trkpt>
      <trkpt lat="43.52816" lon="1.73012">
        <ele>234.264652</ele>
        <time>2020-12-03T12:21:40.025Z</time>
      </trkpt>
      <trkpt lat="43.52793" lon="1.7309">
        <ele>235.952521</ele>
        <time>2020-12-03T12:22:02.418Z</time>
      </trkpt>
      <trkpt lat="43.52733" lon="1.73246">
        <ele>239.368827</ele>
        <time>2020-12-03T12:22:48.913Z</time>
      </trkpt>
      <trkpt lat="43.52727" lon="1.73275">
        <ele>239.958647</ele>
        <time>2020-12-03T12:22:56.831Z</time>
      </trkpt>
      <trkpt lat="43.52732" lon="1.73306">
        <ele>240.5739</ele>
        <time>2020-12-03T12:23:05.054Z</time>
      </trkpt>
      <trkpt lat="43.52801" lon="1.73523">
        <ele>245.742883</ele>
        <time>2020-12-03T12:24:10.691Z</time>
      </trkpt>
      <trkpt lat="43.52802" lon="1.73547">
        <ele>246.29741</ele>
        <time>2020-12-03T12:24:17.653Z</time>
      </trkpt>
      <trkpt lat="43.52785" lon="1.73647">
        <ele>248.885027</ele>
        <time>2020-12-03T12:24:48.120Z</time>
      </trkpt>
      <trkpt lat="43.52797" lon="1.73818">
        <ele>253.225597</ele>
        <time>2020-12-03T12:25:39.674Z</time>
      </trkpt>
      <trkpt lat="43.52809" lon="1.73882">
        <ele>254.858812</ele>
        <time>2020-12-03T12:25:58.455Z</time>
      </trkpt>
      <trkpt lat="43.52855" lon="1.74055">
        <ele>259.019315</ele>
        <time>2020-12-03T12:26:52.762Z</time>
      </trkpt>
      <trkpt lat="43.52865" lon="1.7409">
        <ele>259.575108</ele>
        <time>2020-12-03T12:27:02.948Z</time>
      </trkpt>
      <trkpt lat="43.52872" lon="1.74121">
        <ele>260.059662</ele>
        <time>2020-12-03T12:27:11.631Z</time>
      </trkpt>
      <trkpt lat="43.52891" lon="1.74169">
        <ele>260.859082</ele>
        <time>2020-12-03T12:27:24.532Z</time>
      </trkpt>
      <trkpt lat="43.52964" lon="1.74229">
        <ele>261.902525</ele>
        <time>2020-12-03T12:27:48.966Z</time>
      </trkpt>
      <trkpt lat="43.53055" lon="1.74381">
        <ele>260.868672</ele>
        <time>2020-12-03T12:28:18.864Z</time>
      </trkpt>
      <trkpt lat="43.53102" lon="1.74438">
        <ele>259.282355</ele>
        <time>2020-12-03T12:28:30.714Z</time>
      </trkpt>
      <trkpt lat="43.53134" lon="1.7446">
        <ele>258.198074</ele>
        <time>2020-12-03T12:28:37.378Z</time>
      </trkpt>
      <trkpt lat="43.53141" lon="1.74463">
        <ele>258.000072</ele>
        <time>2020-12-03T12:28:38.687Z</time>
      </trkpt>
      <trkpt lat="43.53147" lon="1.74565">
        <ele>255.779281</ele>
        <time>2020-12-03T12:28:51.915Z</time>
      </trkpt>
      <trkpt lat="43.53148" lon="1.74571">
        <ele>255.64641</ele>
        <time>2020-12-03T12:28:52.742Z</time>
      </trkpt>
      <trkpt lat="43.53149" lon="1.74586">
        <ele>255.232031</ele>
        <time>2020-12-03T12:28:54.545Z</time>
      </trkpt>
      <trkpt lat="43.53146" lon="1.74616">
        <ele>254.000174</ele>
        <time>2020-12-03T12:28:58.436Z</time>
      </trkpt>
      <trkpt lat="43.53017" lon="1.74735">
        <ele>245.306775</ele>
        <time>2020-12-03T12:29:23.307Z</time>
      </trkpt>
      <trkpt lat="43.53008" lon="1.74736">
        <ele>245.14754</ele>
        <time>2020-12-03T12:29:24.672Z</time>
      </trkpt>
      <trkpt lat="43.53004" lon="1.74749">
        <ele>244.964283</ele>
        <time>2020-12-03T12:29:26.419Z</time>
      </trkpt>
      <trkpt lat="43.52991" lon="1.74781">
        <ele>244.495841</ele>
        <time>2020-12-03T12:29:30.954Z</time>
      </trkpt>
      <trkpt lat="43.52984" lon="1.74786">
        <ele>244.358648</ele>
        <time>2020-12-03T12:29:32.323Z</time>
      </trkpt>
      <trkpt lat="43.52966" lon="1.74784">
        <ele>244.029221</ele>
        <time>2020-12-03T12:29:36.887Z</time>
      </trkpt>
      <trkpt lat="43.52959" lon="1.74788">
        <ele>243.912055</ele>
        <time>2020-12-03T12:29:37.935Z</time>
      </trkpt>
      <trkpt lat="43.52958" lon="1.74797">
        <ele>243.80029</ele>
        <time>2020-12-03T12:29:39.050Z</time>
      </trkpt>
      <trkpt lat="43.52963" lon="1.74806">
        <ele>243.653462</ele>
        <time>2020-12-03T12:29:40.705Z</time>
      </trkpt>
      <trkpt lat="43.53021" lon="1.74831">
        <ele>242.585307</ele>
        <time>2020-12-03T12:29:53.720Z</time>
      </trkpt>
      <trkpt lat="43.53028" lon="1.74848">
        <ele>242.332588</ele>
        <time>2020-12-03T12:29:57.526Z</time>
      </trkpt>
      <trkpt lat="43.53033" lon="1.74877">
        <ele>242.772253</ele>
        <time>2020-12-03T12:30:06.184Z</time>
      </trkpt>
      <trkpt lat="43.53039" lon="1.74897">
        <ele>243.550956</ele>
        <time>2020-12-03T12:30:12.379Z</time>
      </trkpt>
      <trkpt lat="43.5304" lon="1.749">
        <ele>243.697054</ele>
        <time>2020-12-03T12:30:15.953Z</time>
      </trkpt>
      <trkpt lat="43.53052" lon="1.74959">
        <ele>245.911441</ele>
        <time>2020-12-03T12:30:36.449Z</time>
      </trkpt>
      <trkpt lat="43.53083" lon="1.7505">
        <ele>249.611975</ele>
        <time>2020-12-03T12:31:15.546Z</time>
      </trkpt>
      <trkpt lat="43.53081" lon="1.75077">
        <ele>250.607147</ele>
        <time>2020-12-03T12:31:24.778Z</time>
      </trkpt>
      <trkpt lat="43.53076" lon="1.75087">
        <ele>251.041959</ele>
        <time>2020-12-03T12:31:32.668Z</time>
      </trkpt>
      <trkpt lat="43.53061" lon="1.75094">
        <ele>251.961973</ele>
        <time>2020-12-03T12:31:40.402Z</time>
      </trkpt>
      <trkpt lat="43.53006" lon="1.75119">
        <ele>255.41423</ele>
        <time>2020-12-03T12:32:11.235Z</time>
      </trkpt>
      <trkpt lat="43.52993" lon="1.75136">
        <ele>256.490175</ele>
        <time>2020-12-03T12:32:19.622Z</time>
      </trkpt>
      <trkpt lat="43.52986" lon="1.75161">
        <ele>257.615224</ele>
        <time>2020-12-03T12:32:30.734Z</time>
      </trkpt>
      <trkpt lat="43.52963" lon="1.7524">
        <ele>261.300944</ele>
        <time>2020-12-03T12:33:03.530Z</time>
      </trkpt>
      <trkpt lat="43.5294" lon="1.75338">
        <ele>265.36824</ele>
        <time>2020-12-03T12:33:41.751Z</time>
      </trkpt>
      <trkpt lat="43.5293" lon="1.75381">
        <ele>267.14047</ele>
        <time>2020-12-03T12:33:57.905Z</time>
      </trkpt>
      <trkpt lat="43.52926" lon="1.75417">
        <ele>268.590753</ele>
        <time>2020-12-03T12:34:12.676Z</time>
      </trkpt>
      <trkpt lat="43.52931" lon="1.75451">
        <ele>269.929793</ele>
        <time>2020-12-03T12:34:23.812Z</time>
      </trkpt>
      <trkpt lat="43.52978" lon="1.75549">
        <ele>273.248113</ele>
        <time>2020-12-03T12:35:05.522Z</time>
      </trkpt>
      <trkpt lat="43.52987" lon="1.75582">
        <ele>274.023365</ele>
        <time>2020-12-03T12:35:14.142Z</time>
      </trkpt>
      <trkpt lat="43.5299" lon="1.75595">
        <ele>274.313975</ele>
        <time>2020-12-03T12:35:19.867Z</time>
      </trkpt>
      <trkpt lat="43.52983" lon="1.75598">
        <ele>274.547142</ele>
        <time>2020-12-03T12:35:21.605Z</time>
      </trkpt>
      <trkpt lat="43.52968" lon="1.7561">
        <ele>275.064921</ele>
        <time>2020-12-03T12:35:26.810Z</time>
      </trkpt>
      <trkpt lat="43.52873" lon="1.75734">
        <ele>277.2909</ele>
        <time>2020-12-03T12:36:06.664Z</time>
      </trkpt>
      <trkpt lat="43.52855" lon="1.75775">
        <ele>277.429654</ele>
        <time>2020-12-03T12:36:14.881Z</time>
      </trkpt>
      <trkpt lat="43.52842" lon="1.75819">
        <ele>277.569611</ele>
        <time>2020-12-03T12:36:22.387Z</time>
      </trkpt>
      <trkpt lat="43.52862" lon="1.75827">
        <ele>277.652555</ele>
        <time>2020-12-03T12:36:27.127Z</time>
      </trkpt>
      <trkpt lat="43.52876" lon="1.75832">
        <ele>277.710288</ele>
        <time>2020-12-03T12:36:29.945Z</time>
      </trkpt>
      <trkpt lat="43.52877" lon="1.75832">
        <ele>277.714104</ele>
        <time>2020-12-03T12:36:30.124Z</time>
      </trkpt>
      <trkpt lat="43.52889" lon="1.75833">
        <ele>277.714826</ele>
        <time>2020-12-03T12:36:32.912Z</time>
      </trkpt>
      <trkpt lat="43.529" lon="1.75833">
        <ele>277.58658</ele>
        <time>2020-12-03T12:36:35.151Z</time>
      </trkpt>
      <trkpt lat="43.52905" lon="1.7584">
        <ele>277.492988</ele>
        <time>2020-12-03T12:36:36.624Z</time>
      </trkpt>
      <trkpt lat="43.52911" lon="1.75845">
        <ele>277.40485</ele>
        <time>2020-12-03T12:36:37.993Z</time>
      </trkpt>
      <trkpt lat="43.52915" lon="1.75843">
        <ele>277.354624</ele>
        <time>2020-12-03T12:36:38.997Z</time>
      </trkpt>
      <trkpt lat="43.52938" lon="1.75854">
        <ele>277.063659</ele>
        <time>2020-12-03T12:36:44.017Z</time>
      </trkpt>
      <trkpt lat="43.52949" lon="1.75875">
        <ele>276.830678</ele>
        <time>2020-12-03T12:36:48.050Z</time>
      </trkpt>
      <trkpt lat="43.52959" lon="1.7589">
        <ele>276.655651</ele>
        <time>2020-12-03T12:36:51.143Z</time>
      </trkpt>
      <trkpt lat="43.52966" lon="1.75898">
        <ele>276.541479</ele>
        <time>2020-12-03T12:36:53.043Z</time>
      </trkpt>
      <trkpt lat="43.52978" lon="1.75919">
        <ele>276.298658</ele>
        <time>2020-12-03T12:36:58.317Z</time>
      </trkpt>
      <trkpt lat="43.52992" lon="1.75934">
        <ele>276.086425</ele>
        <time>2020-12-03T12:37:02.156Z</time>
      </trkpt>
      <trkpt lat="43.53002" lon="1.75941">
        <ele>275.954242</ele>
        <time>2020-12-03T12:37:05.117Z</time>
      </trkpt>
      <trkpt lat="43.53001" lon="1.75944">
        <ele>275.921276</ele>
        <time>2020-12-03T12:37:05.694Z</time>
      </trkpt>
      <trkpt lat="43.52983" lon="1.76">
        <ele>274.934501</ele>
        <time>2020-12-03T12:37:13.293Z</time>
      </trkpt>
      <trkpt lat="43.5299" lon="1.75999">
        <ele>274.596433</ele>
        <time>2020-12-03T12:37:14.586Z</time>
      </trkpt>
      <trkpt lat="43.53014" lon="1.75956">
        <ele>272.83921</ele>
        <time>2020-12-03T12:37:21.107Z</time>
      </trkpt>
      <trkpt lat="43.5302" lon="1.75945">
        <ele>272.38997</ele>
        <time>2020-12-03T12:37:22.812Z</time>
      </trkpt>
      <trkpt lat="43.53025" lon="1.75936">
        <ele>272.001578</ele>
        <time>2020-12-03T12:37:24.313Z</time>
      </trkpt>
      <trkpt lat="43.53053" lon="1.75901">
        <ele>270.312211</ele>
        <time>2020-12-03T12:37:30.546Z</time>
      </trkpt>
      <trkpt lat="43.53061" lon="1.75904">
        <ele>269.915718</ele>
        <time>2020-12-03T12:37:31.896Z</time>
      </trkpt>
      <trkpt lat="43.53098" lon="1.7595">
        <ele>267.663214</ele>
        <time>2020-12-03T12:37:40.378Z</time>
      </trkpt>
      <trkpt lat="43.53129" lon="1.75984">
        <ele>265.779816</ele>
        <time>2020-12-03T12:37:46.866Z</time>
      </trkpt>
      <trkpt lat="43.53134" lon="1.76007">
        <ele>264.943771</ele>
        <time>2020-12-03T12:37:49.651Z</time>
      </trkpt>
      <trkpt lat="43.53144" lon="1.7603">
        <ele>263.996485</ele>
        <time>2020-12-03T12:37:52.825Z</time>
      </trkpt>
      <trkpt lat="43.53159" lon="1.76076">
        <ele>262.175045</ele>
        <time>2020-12-03T12:37:58.818Z</time>
      </trkpt>
      <trkpt lat="43.53176" lon="1.76107">
        <ele>260.836677</ele>
        <time>2020-12-03T12:38:03.410Z</time>
      </trkpt>
      <trkpt lat="43.53208" lon="1.76147">
        <ele>258.718409</ele>
        <time>2020-12-03T12:38:10.895Z</time>
      </trkpt>
      <trkpt lat="43.53226" lon="1.7617">
        <ele>258.219204</ele>
        <time>2020-12-03T12:38:15.502Z</time>
      </trkpt>
      <trkpt lat="43.53272" lon="1.76215">
        <ele>257.116046</ele>
        <time>2020-12-03T12:38:26.403Z</time>
      </trkpt>
      <trkpt lat="43.53303" lon="1.76253">
        <ele>256.287699</ele>
        <time>2020-12-03T12:38:34.688Z</time>
      </trkpt>
      <trkpt lat="43.53321" lon="1.76256">
        <ele>255.926664</ele>
        <time>2020-12-03T12:38:38.154Z</time>
      </trkpt>
      <trkpt lat="43.53403" lon="1.7629">
        <ele>254.456209</ele>
        <time>2020-12-03T12:38:54.761Z</time>
      </trkpt>
      <trkpt lat="43.53419" lon="1.76299">
        <ele>254.198885</ele>
        <time>2020-12-03T12:38:58.022Z</time>
      </trkpt>
      <trkpt lat="43.53451" lon="1.76318">
        <ele>253.691397</ele>
        <time>2020-12-03T12:39:04.435Z</time>
      </trkpt>
      <trkpt lat="43.53507" lon="1.7635">
        <ele>252.785327</ele>
        <time>2020-12-03T12:39:16.071Z</time>
      </trkpt>
      <trkpt lat="43.53543" lon="1.76363">
        <ele>252.30153</ele>
        <time>2020-12-03T12:39:23.058Z</time>
      </trkpt>
      <trkpt lat="43.53551" lon="1.76365">
        <ele>252.204438</ele>
        <time>2020-12-03T12:39:24.710Z</time>
      </trkpt>
      <trkpt lat="43.5356" lon="1.76365">
        <ele>252.111323</ele>
        <time>2020-12-03T12:39:26.434Z</time>
      </trkpt>
      <trkpt lat="43.53568" lon="1.76365">
        <ele>252.023685</ele>
        <time>2020-12-03T12:39:28.031Z</time>
      </trkpt>
      <trkpt lat="43.53569" lon="1.7637">
        <ele>251.983456</ele>
        <time>2020-12-03T12:39:28.616Z</time>
      </trkpt>
      <trkpt lat="43.53684" lon="1.76506">
        <ele>250.531674</ele>
        <time>2020-12-03T12:39:58.820Z</time>
      </trkpt>
      <trkpt lat="43.53686" lon="1.76512">
        <ele>250.533831</ele>
        <time>2020-12-03T12:40:00.287Z</time>
      </trkpt>
      <trkpt lat="43.53688" lon="1.76518">
        <ele>250.535867</ele>
        <time>2020-12-03T12:40:01.230Z</time>
      </trkpt>
      <trkpt lat="43.53687" lon="1.76553">
        <ele>250.547</ele>
        <time>2020-12-03T12:40:06.810Z</time>
      </trkpt>
      <trkpt lat="43.53663" lon="1.76656">
        <ele>250.581365</ele>
        <time>2020-12-03T12:40:25.450Z</time>
      </trkpt>
      <trkpt lat="43.53649" lon="1.76751">
        <ele>250.583201</ele>
        <time>2020-12-03T12:40:42.488Z</time>
      </trkpt>
      <trkpt lat="43.53624" lon="1.76834">
        <ele>250.520544</ele>
        <time>2020-12-03T12:40:58.040Z</time>
      </trkpt>
      <trkpt lat="43.53629" lon="1.76863">
        <ele>250.499649</ele>
        <time>2020-12-03T12:41:02.924Z</time>
      </trkpt>
      <trkpt lat="43.53668" lon="1.76954">
        <ele>250.378682</ele>
        <time>2020-12-03T12:41:18.859Z</time>
      </trkpt>
      <trkpt lat="43.53683" lon="1.76989">
        <ele>250.043285</ele>
        <time>2020-12-03T12:41:25.021Z</time>
      </trkpt>
      <trkpt lat="43.53681" lon="1.76994">
        <ele>249.997609</ele>
        <time>2020-12-03T12:41:25.653Z</time>
      </trkpt>
      <trkpt lat="43.53699" lon="1.77103">
        <ele>249.059068</ele>
        <time>2020-12-03T12:41:41.607Z</time>
      </trkpt>
      <trkpt lat="43.537" lon="1.77132">
        <ele>248.81249</ele>
        <time>2020-12-03T12:41:45.869Z</time>
      </trkpt>
      <trkpt lat="43.53692" lon="1.77179">
        <ele>248.410531</ele>
        <time>2020-12-03T12:41:52.441Z</time>
      </trkpt>
      <trkpt lat="43.53662" lon="1.77273">
        <ele>247.052646</ele>
        <time>2020-12-03T12:42:06.641Z</time>
      </trkpt>
      <trkpt lat="43.5364" lon="1.77502">
        <ele>242.405196</ele>
        <time>2020-12-03T12:42:37.404Z</time>
      </trkpt>
      <trkpt lat="43.53638" lon="1.77575">
        <ele>240.024842</ele>
        <time>2020-12-03T12:42:46.029Z</time>
      </trkpt>
      <trkpt lat="43.53652" lon="1.7789">
        <ele>226.46605</ele>
        <time>2020-12-03T12:43:20.652Z</time>
      </trkpt>
      <trkpt lat="43.53648" lon="1.77916">
        <ele>225.194915</ele>
        <time>2020-12-03T12:43:23.625Z</time>
      </trkpt>
      <trkpt lat="43.5362" lon="1.78001">
        <ele>222.239812</ele>
        <time>2020-12-03T12:43:34.152Z</time>
      </trkpt>
      <trkpt lat="43.5362" lon="1.78026">
        <ele>221.441588</ele>
        <time>2020-12-03T12:43:37.114Z</time>
      </trkpt>
      <trkpt lat="43.53733" lon="1.78351">
        <ele>211.957828</ele>
        <time>2020-12-03T12:44:22.102Z</time>
      </trkpt>
      <trkpt lat="43.53739" lon="1.78384">
        <ele>211.08805</ele>
        <time>2020-12-03T12:44:26.214Z</time>
      </trkpt>
      <trkpt lat="43.53736" lon="1.78448">
        <ele>209.208041</ele>
        <time>2020-12-03T12:44:33.922Z</time>
      </trkpt>
      <trkpt lat="43.53745" lon="1.78491">
        <ele>207.883047</ele>
        <time>2020-12-03T12:44:39.300Z</time>
      </trkpt>
      <trkpt lat="43.53756" lon="1.78515">
        <ele>207.04889</ele>
        <time>2020-12-03T12:44:42.650Z</time>
      </trkpt>
      <trkpt lat="43.53822" lon="1.78618">
        <ele>203.200098</ele>
        <time>2020-12-03T12:44:58.778Z</time>
      </trkpt>
      <trkpt lat="43.53849" lon="1.78637">
        <ele>202.144633</ele>
        <time>2020-12-03T12:45:03.753Z</time>
      </trkpt>
      <trkpt lat="43.53912" lon="1.78655">
        <ele>199.95836</ele>
        <time>2020-12-03T12:45:14.362Z</time>
      </trkpt>
      <trkpt lat="43.53942" lon="1.78699">
        <ele>198.434319</ele>
        <time>2020-12-03T12:45:22.195Z</time>
      </trkpt>
      <trkpt lat="43.53972" lon="1.78716">
        <ele>198.060131</ele>
        <time>2020-12-03T12:45:28.289Z</time>
      </trkpt>
      <trkpt lat="43.54014" lon="1.78717">
        <ele>198.097624</ele>
        <time>2020-12-03T12:45:36.473Z</time>
      </trkpt>
      <trkpt lat="43.54119" lon="1.78664">
        <ele>198.19911</ele>
        <time>2020-12-03T12:46:05.126Z</time>
      </trkpt>
      <trkpt lat="43.54143" lon="1.78669">
        <ele>198.835593</ele>
        <time>2020-12-03T12:46:13.348Z</time>
      </trkpt>
      <trkpt lat="43.54157" lon="1.78684">
        <ele>199.396759</ele>
        <time>2020-12-03T12:46:19.565Z</time>
      </trkpt>
      <trkpt lat="43.54162" lon="1.7871">
        <ele>200.025493</ele>
        <time>2020-12-03T12:46:26.853Z</time>
      </trkpt>
      <trkpt lat="43.54152" lon="1.78755">
        <ele>201.122144</ele>
        <time>2020-12-03T12:46:40.057Z</time>
      </trkpt>
      <trkpt lat="43.54056" lon="1.78954">
        <ele>207.987409</ele>
        <time>2020-12-03T12:47:53.431Z</time>
      </trkpt>
      <trkpt lat="43.54042" lon="1.79003">
        <ele>209.779513</ele>
        <time>2020-12-03T12:48:12.085Z</time>
      </trkpt>
      <trkpt lat="43.54038" lon="1.79091">
        <ele>212.842413</ele>
        <time>2020-12-03T12:48:43.968Z</time>
      </trkpt>
      <trkpt lat="43.54043" lon="1.79129">
        <ele>214.265632</ele>
        <time>2020-12-03T12:48:57.513Z</time>
      </trkpt>
      <trkpt lat="43.54053" lon="1.79157">
        <ele>215.412136</ele>
        <time>2020-12-03T12:49:07.137Z</time>
      </trkpt>
      <trkpt lat="43.54057" lon="1.79167">
        <ele>215.843154</ele>
        <time>2020-12-03T12:49:11.794Z</time>
      </trkpt>
      <trkpt lat="43.5406" lon="1.79177">
        <ele>216.259078</ele>
        <time>2020-12-03T12:49:16.576Z</time>
      </trkpt>
      <trkpt lat="43.54079" lon="1.79284">
        <ele>220.36275</ele>
        <time>2020-12-03T12:49:54.483Z</time>
      </trkpt>
      <trkpt lat="43.54102" lon="1.79371">
        <ele>222.96012</ele>
        <time>2020-12-03T12:50:26.722Z</time>
      </trkpt>
      <trkpt lat="43.54115" lon="1.79463">
        <ele>224.963217</ele>
        <time>2020-12-03T12:50:53.242Z</time>
      </trkpt>
      <trkpt lat="43.54143" lon="1.79603">
        <ele>226.344318</ele>
        <time>2020-12-03T12:51:24.895Z</time>
      </trkpt>
      <trkpt lat="43.54143" lon="1.79609">
        <ele>226.246238</ele>
        <time>2020-12-03T12:51:26.424Z</time>
      </trkpt>
      <trkpt lat="43.54142" lon="1.79614">
        <ele>226.162743</ele>
        <time>2020-12-03T12:51:27.208Z</time>
      </trkpt>
      <trkpt lat="43.54123" lon="1.79636">
        <ele>225.58229</ele>
        <time>2020-12-03T12:51:32.215Z</time>
      </trkpt>
      <trkpt lat="43.54119" lon="1.79641">
        <ele>225.45975</ele>
        <time>2020-12-03T12:51:33.637Z</time>
      </trkpt>
      <trkpt lat="43.5409" lon="1.79672">
        <ele>224.608607</ele>
        <time>2020-12-03T12:51:39.873Z</time>
      </trkpt>
      <trkpt lat="43.54063" lon="1.79688">
        <ele>223.927559</ele>
        <time>2020-12-03T12:51:44.590Z</time>
      </trkpt>
      <trkpt lat="43.54052" lon="1.79695">
        <ele>223.647125</ele>
        <time>2020-12-03T12:51:46.782Z</time>
      </trkpt>
      <trkpt lat="43.5405" lon="1.79703">
        <ele>223.489833</ele>
        <time>2020-12-03T12:51:47.946Z</time>
      </trkpt>
      <trkpt lat="43.54051" lon="1.79715">
        <ele>223.297379</ele>
        <time>2020-12-03T12:51:49.171Z</time>
      </trkpt>
      <trkpt lat="43.54088" lon="1.79781">
        <ele>219.56084</ele>
        <time>2020-12-03T12:51:58.635Z</time>
      </trkpt>
      <trkpt lat="43.54101" lon="1.79789">
        <ele>218.489173</ele>
        <time>2020-12-03T12:52:00.740Z</time>
      </trkpt>
      <trkpt lat="43.54107" lon="1.79795">
        <ele>217.978027</ele>
        <time>2020-12-03T12:52:01.684Z</time>
      </trkpt>
      <trkpt lat="43.54134" lon="1.79803">
        <ele>215.883458</ele>
        <time>2020-12-03T12:52:05.933Z</time>
      </trkpt>
      <trkpt lat="43.54217" lon="1.79802">
        <ele>209.696913</ele>
        <time>2020-12-03T12:52:17.898Z</time>
      </trkpt>
      <trkpt lat="43.54265" lon="1.7979">
        <ele>205.828501</ele>
        <time>2020-12-03T12:52:24.915Z</time>
      </trkpt>
      <trkpt lat="43.54303" lon="1.79762">
        <ele>202.30566</ele>
        <time>2020-12-03T12:52:31.414Z</time>
      </trkpt>
      <trkpt lat="43.54344" lon="1.79745">
        <ele>198.937649</ele>
        <time>2020-12-03T12:52:37.598Z</time>
      </trkpt>
      <trkpt lat="43.54369" lon="1.7975">
        <ele>196.856776</ele>
        <time>2020-12-03T12:52:41.411Z</time>
      </trkpt>
      <trkpt lat="43.54453" lon="1.79792">
        <ele>191.289306</ele>
        <time>2020-12-03T12:52:54.567Z</time>
      </trkpt>
      <trkpt lat="43.54494" lon="1.79821">
        <ele>188.692078</ele>
        <time>2020-12-03T12:53:01.659Z</time>
      </trkpt>
      <trkpt lat="43.54544" lon="1.79862">
        <ele>185.390154</ele>
        <time>2020-12-03T12:53:11.043Z</time>
      </trkpt>
      <trkpt lat="43.54615" lon="1.7992">
        <ele>185.308873</ele>
        <time>2020-12-03T12:53:26.282Z</time>
      </trkpt>
      <trkpt lat="43.54622" lon="1.7993">
        <ele>185.371333</ele>
        <time>2020-12-03T12:53:28.710Z</time>
      </trkpt>
      <trkpt lat="43.54625" lon="1.79942">
        <ele>185.425347</ele>
        <time>2020-12-03T12:53:30.971Z</time>
      </trkpt>
      <trkpt lat="43.54627" lon="1.79951">
        <ele>185.465589</ele>
        <time>2020-12-03T12:53:32.523Z</time>
      </trkpt>
      <trkpt lat="43.54646" lon="1.79974">
        <ele>185.614288</ele>
        <time>2020-12-03T12:53:40.588Z</time>
      </trkpt>
      <trkpt lat="43.54671" lon="1.8">
        <ele>185.803267</ele>
        <time>2020-12-03T12:53:52.705Z</time>
      </trkpt>
      <trkpt lat="43.54676" lon="1.80009">
        <ele>185.849161</ele>
        <time>2020-12-03T12:53:56.126Z</time>
      </trkpt>
      <trkpt lat="43.54683" lon="1.80003">
        <ele>185.8976</ele>
        <time>2020-12-03T12:53:59.437Z</time>
      </trkpt>
      <trkpt lat="43.54705" lon="1.80057">
        <ele>188.202473</ele>
        <time>2020-12-03T12:54:20.897Z</time>
      </trkpt>
      <trkpt lat="43.5473" lon="1.80114">
        <ele>191.12434</ele>
        <time>2020-12-03T12:54:46.582Z</time>
      </trkpt>
      <trkpt lat="43.54747" lon="1.80143">
        <ele>192.757176</ele>
        <time>2020-12-03T12:55:02.111Z</time>
      </trkpt>
      <trkpt lat="43.54879" lon="1.80242">
        <ele>201.915809</ele>
        <time>2020-12-03T12:56:29.446Z</time>
      </trkpt>
      <trkpt lat="43.54909" lon="1.80255">
        <ele>203.862839</ele>
        <time>2020-12-03T12:56:46.163Z</time>
      </trkpt>
      <trkpt lat="43.54981" lon="1.80324">
        <ele>208.957063</ele>
        <time>2020-12-03T12:57:29.960Z</time>
      </trkpt>
      <trkpt lat="43.55082" lon="1.80389">
        <ele>214.194301</ele>
        <time>2020-12-03T12:58:21.748Z</time>
      </trkpt>
      <trkpt lat="43.55094" lon="1.80398">
        <ele>214.849429</ele>
        <time>2020-12-03T12:58:28.309Z</time>
      </trkpt>
      <trkpt lat="43.55093" lon="1.80402">
        <ele>214.991782</ele>
        <time>2020-12-03T12:58:29.518Z</time>
      </trkpt>
      <trkpt lat="43.55081" lon="1.80431">
        <ele>216.147847</ele>
        <time>2020-12-03T12:58:40.336Z</time>
      </trkpt>
      <trkpt lat="43.55037" lon="1.8052">
        <ele>219.340832</ele>
        <time>2020-12-03T12:59:14.841Z</time>
      </trkpt>
      <trkpt lat="43.54829" lon="1.80896">
        <ele>232.500155</ele>
        <time>2020-12-03T13:01:41.404Z</time>
      </trkpt>
      <trkpt lat="43.54778" lon="1.81021">
        <ele>235.883451</ele>
        <time>2020-12-03T13:02:22.380Z</time>
      </trkpt>
      <trkpt lat="43.54754" lon="1.81096">
        <ele>237.28015</ele>
        <time>2020-12-03T13:02:42.794Z</time>
      </trkpt>
      <trkpt lat="43.54738" lon="1.81132">
        <ele>237.88116</ele>
        <time>2020-12-03T13:02:53.043Z</time>
      </trkpt>
      <trkpt lat="43.54672" lon="1.81239">
        <ele>239.835374</ele>
        <time>2020-12-03T13:03:24.179Z</time>
      </trkpt>
      <trkpt lat="43.54651" lon="1.81504">
        <ele>244.076156</ele>
        <time>2020-12-03T13:04:29.811Z</time>
      </trkpt>
      <trkpt lat="43.54656" lon="1.81516">
        <ele>244.374817</ele>
        <time>2020-12-03T13:04:33.748Z</time>
      </trkpt>
      <trkpt lat="43.5471" lon="1.81587">
        <ele>246.595906</ele>
        <time>2020-12-03T13:05:03.059Z</time>
      </trkpt>
      <trkpt lat="43.54723" lon="1.81624">
        <ele>247.469305</ele>
        <time>2020-12-03T13:05:14.750Z</time>
      </trkpt>
      <trkpt lat="43.54725" lon="1.8165">
        <ele>248.042504</ele>
        <time>2020-12-03T13:05:22.505Z</time>
      </trkpt>
      <trkpt lat="43.5468" lon="1.81881">
        <ele>252.220243</ele>
        <time>2020-12-03T13:06:26.257Z</time>
      </trkpt>
      <trkpt lat="43.54592" lon="1.82102">
        <ele>254.529618</ele>
        <time>2020-12-03T13:07:17.878Z</time>
      </trkpt>
      <trkpt lat="43.54563" lon="1.82228">
        <ele>255.249518</ele>
        <time>2020-12-03T13:07:42.854Z</time>
      </trkpt>
      <trkpt lat="43.54561" lon="1.82245">
        <ele>255.326078</ele>
        <time>2020-12-03T13:07:45.905Z</time>
      </trkpt>
      <trkpt lat="43.54549" lon="1.82292">
        <ele>255.542085</ele>
        <time>2020-12-03T13:07:55.285Z</time>
      </trkpt>
      <trkpt lat="43.54534" lon="1.82405">
        <ele>256.040496</ele>
        <time>2020-12-03T13:08:17.381Z</time>
      </trkpt>
      <trkpt lat="43.54523" lon="1.82447">
        <ele>256.238351</ele>
        <time>2020-12-03T13:08:26.156Z</time>
      </trkpt>
      <trkpt lat="43.54321" lon="1.82675">
        <ele>256.542578</ele>
        <time>2020-12-03T13:09:34.300Z</time>
      </trkpt>
      <trkpt lat="43.54285" lon="1.82723">
        <ele>256.296385</ele>
        <time>2020-12-03T13:09:44.082Z</time>
      </trkpt>
      <trkpt lat="43.54212" lon="1.82826">
        <ele>252.158905</ele>
        <time>2020-12-03T13:10:02.659Z</time>
      </trkpt>
      <trkpt lat="43.54202" lon="1.82822">
        <ele>251.675264</ele>
        <time>2020-12-03T13:10:04.360Z</time>
      </trkpt>
      <trkpt lat="43.54187" lon="1.82806">
        <ele>250.857295</ele>
        <time>2020-12-03T13:10:07.512Z</time>
      </trkpt>
      <trkpt lat="43.54182" lon="1.82792">
        <ele>250.344241</ele>
        <time>2020-12-03T13:10:09.392Z</time>
      </trkpt>
      <trkpt lat="43.54163" lon="1.82646">
        <ele>245.421282</ele>
        <time>2020-12-03T13:10:26.682Z</time>
      </trkpt>
      <trkpt lat="43.54153" lon="1.82615">
        <ele>244.278274</ele>
        <time>2020-12-03T13:10:30.542Z</time>
      </trkpt>
      <trkpt lat="43.54121" lon="1.82568">
        <ele>242.071609</ele>
        <time>2020-12-03T13:10:38.611Z</time>
      </trkpt>
      <trkpt lat="43.54066" lon="1.82507">
        <ele>239.976806</ele>
        <time>2020-12-03T13:10:51.554Z</time>
      </trkpt>
      <trkpt lat="43.54049" lon="1.82486">
        <ele>240.138882</ele>
        <time>2020-12-03T13:10:56.007Z</time>
      </trkpt>
      <trkpt lat="43.54044" lon="1.8248">
        <ele>240.179307</ele>
        <time>2020-12-03T13:10:58.663Z</time>
      </trkpt>
      <trkpt lat="43.53968" lon="1.82358">
        <ele>240.985446</ele>
        <time>2020-12-03T13:11:35.238Z</time>
      </trkpt>
      <trkpt lat="43.53755" lon="1.82134">
        <ele>246.789368</ele>
        <time>2020-12-03T13:13:20.496Z</time>
      </trkpt>
      <trkpt lat="43.53747" lon="1.82131">
        <ele>246.809854</ele>
        <time>2020-12-03T13:13:23.089Z</time>
      </trkpt>
      <trkpt lat="43.53731" lon="1.82134">
        <ele>246.846013</ele>
        <time>2020-12-03T13:13:27.047Z</time>
      </trkpt>
      <trkpt lat="43.53722" lon="1.82146">
        <ele>246.874987</ele>
        <time>2020-12-03T13:13:29.790Z</time>
      </trkpt>
      <trkpt lat="43.53616" lon="1.82385">
        <ele>241.32959</ele>
        <time>2020-12-03T13:14:06.343Z</time>
      </trkpt>
      <trkpt lat="43.53605" lon="1.82401">
        <ele>240.680569</ele>
        <time>2020-12-03T13:14:08.867Z</time>
      </trkpt>
      <trkpt lat="43.53581" lon="1.8241">
        <ele>239.672123</ele>
        <time>2020-12-03T13:14:12.728Z</time>
      </trkpt>
      <trkpt lat="43.53469" lon="1.8242">
        <ele>232.176536</ele>
        <time>2020-12-03T13:14:30.216Z</time>
      </trkpt>
      <trkpt lat="43.53436" lon="1.82432">
        <ele>229.86847</ele>
        <time>2020-12-03T13:14:35.529Z</time>
      </trkpt>
      <trkpt lat="43.53377" lon="1.82471">
        <ele>226.682054</ele>
        <time>2020-12-03T13:14:46.161Z</time>
      </trkpt>
      <trkpt lat="43.53341" lon="1.82509">
        <ele>225.589431</ele>
        <time>2020-12-03T13:14:53.884Z</time>
      </trkpt>
      <trkpt lat="43.5331" lon="1.82522">
        <ele>224.809378</ele>
        <time>2020-12-03T13:14:59.727Z</time>
      </trkpt>
      <trkpt lat="43.53147" lon="1.82519">
        <ele>222.90956</ele>
        <time>2020-12-03T13:15:43.044Z</time>
      </trkpt>
      <trkpt lat="43.5306" lon="1.82477">
        <ele>222.703286</ele>
        <time>2020-12-03T13:16:03.307Z</time>
      </trkpt>
      <trkpt lat="43.5301" lon="1.82458">
        <ele>220.50459</ele>
        <time>2020-12-03T13:16:13.244Z</time>
      </trkpt>
      <trkpt lat="43.52989" lon="1.8245">
        <ele>219.564327</ele>
        <time>2020-12-03T13:16:16.978Z</time>
      </trkpt>
      <trkpt lat="43.52959" lon="1.82449">
        <ele>218.303374</ele>
        <time>2020-12-03T13:16:22.050Z</time>
      </trkpt>
      <trkpt lat="43.52921" lon="1.82465">
        <ele>216.594595</ele>
        <time>2020-12-03T13:16:28.589Z</time>
      </trkpt>
      <trkpt lat="43.52785" lon="1.82575">
        <ele>207.119897</ele>
        <time>2020-12-03T13:16:53.358Z</time>
      </trkpt>
      <trkpt lat="43.52745" lon="1.82619">
        <ele>203.809794</ele>
        <time>2020-12-03T13:17:01.657Z</time>
      </trkpt>
      <trkpt lat="43.52704" lon="1.82673">
        <ele>201.198057</ele>
        <time>2020-12-03T13:17:11.050Z</time>
      </trkpt>
      <trkpt lat="43.52682" lon="1.82713">
        <ele>199.606063</ele>
        <time>2020-12-03T13:17:17.124Z</time>
      </trkpt>
      <trkpt lat="43.52635" lon="1.82779">
        <ele>196.689928</ele>
        <time>2020-12-03T13:17:28.559Z</time>
      </trkpt>
      <trkpt lat="43.52623" lon="1.82791">
        <ele>196.031821</ele>
        <time>2020-12-03T13:17:31.184Z</time>
      </trkpt>
      <trkpt lat="43.52583" lon="1.82694">
        <ele>194.582166</ele>
        <time>2020-12-03T13:17:45.835Z</time>
      </trkpt>
      <trkpt lat="43.52579" lon="1.82703">
        <ele>194.47206</ele>
        <time>2020-12-03T13:17:47.410Z</time>
      </trkpt>
      <trkpt lat="43.52519" lon="1.82787">
        <ele>193.278996</ele>
        <time>2020-12-03T13:18:04.956Z</time>
      </trkpt>
      <trkpt lat="43.52513" lon="1.82808">
        <ele>193.052807</ele>
        <time>2020-12-03T13:18:09.105Z</time>
      </trkpt>
      <trkpt lat="43.52454" lon="1.82913">
        <ele>194.033687</ele>
        <time>2020-12-03T13:18:36.068Z</time>
      </trkpt>
      <trkpt lat="43.5243" lon="1.82941">
        <ele>194.35642</ele>
        <time>2020-12-03T13:18:45.333Z</time>
      </trkpt>
      <trkpt lat="43.52395" lon="1.82974">
        <ele>194.796821</ele>
        <time>2020-12-03T13:18:58.717Z</time>
      </trkpt>
      <trkpt lat="43.52355" lon="1.83016">
        <ele>195.576618</ele>
        <time>2020-12-03T13:19:13.856Z</time>
      </trkpt>
      <trkpt lat="43.52342" lon="1.83028">
        <ele>195.83736</ele>
        <time>2020-12-03T13:19:18.639Z</time>
      </trkpt>
      <trkpt lat="43.52327" lon="1.83047">
        <ele>196.183739</ele>
        <time>2020-12-03T13:19:24.979Z</time>
      </trkpt>
      <trkpt lat="43.52267" lon="1.83149">
        <ele>197.802203</ele>
        <time>2020-12-03T13:19:55.537Z</time>
      </trkpt>
      <trkpt lat="43.52243" lon="1.8319">
        <ele>198.535703</ele>
        <time>2020-12-03T13:20:08.134Z</time>
      </trkpt>
      <trkpt lat="43.52224" lon="1.83209">
        <ele>199.011388</ele>
        <time>2020-12-03T13:20:16.194Z</time>
      </trkpt>
      <trkpt lat="43.52199" lon="1.83221">
        <ele>199.544232</ele>
        <time>2020-12-03T13:20:25.369Z</time>
      </trkpt>
      <trkpt lat="43.521" lon="1.83221">
        <ele>201.53351</ele>
        <time>2020-12-03T13:20:58.722Z</time>
      </trkpt>
      <trkpt lat="43.52007" lon="1.83274">
        <ele>202.321552</ele>
        <time>2020-12-03T13:21:29.089Z</time>
      </trkpt>
      <trkpt lat="43.51964" lon="1.83311">
        <ele>202.706614</ele>
        <time>2020-12-03T13:21:41.293Z</time>
      </trkpt>
      <trkpt lat="43.51919" lon="1.83355">
        <ele>202.646652</ele>
        <time>2020-12-03T13:21:53.636Z</time>
      </trkpt>
      <trkpt lat="43.51836" lon="1.83436">
        <ele>201.498705</ele>
        <time>2020-12-03T13:22:14.334Z</time>
      </trkpt>
      <trkpt lat="43.51731" lon="1.83544">
        <ele>199.879784</ele>
        <time>2020-12-03T13:22:40.263Z</time>
      </trkpt>
      <trkpt lat="43.51537" lon="1.83773">
        <ele>197.272771</ele>
        <time>2020-12-03T13:23:33.059Z</time>
      </trkpt>
      <trkpt lat="43.51518" lon="1.83799">
        <ele>197.050372</ele>
        <time>2020-12-03T13:23:39.069Z</time>
      </trkpt>
      <trkpt lat="43.51505" lon="1.83828">
        <ele>197.128431</ele>
        <time>2020-12-03T13:23:44.734Z</time>
      </trkpt>
      <trkpt lat="43.51485" lon="1.83881">
        <ele>197.266615</ele>
        <time>2020-12-03T13:23:55.090Z</time>
      </trkpt>
      <trkpt lat="43.5148" lon="1.83893">
        <ele>197.297458</ele>
        <time>2020-12-03T13:23:57.887Z</time>
      </trkpt>
      <trkpt lat="43.51434" lon="1.84018">
        <ele>197.619991</ele>
        <time>2020-12-03T13:24:24.436Z</time>
      </trkpt>
      <trkpt lat="43.5135" lon="1.84208">
        <ele>198.570217</ele>
        <time>2020-12-03T13:25:07.311Z</time>
      </trkpt>
      <trkpt lat="43.51294" lon="1.84298">
        <ele>198.787624</ele>
        <time>2020-12-03T13:25:28.206Z</time>
      </trkpt>
      <trkpt lat="43.51202" lon="1.84426">
        <ele>198.968149</ele>
        <time>2020-12-03T13:25:59.018Z</time>
      </trkpt>
      <trkpt lat="43.51164" lon="1.84474">
        <ele>198.952711</ele>
        <time>2020-12-03T13:26:10.914Z</time>
      </trkpt>
      <trkpt lat="43.51078" lon="1.84561">
        <ele>198.920569</ele>
        <time>2020-12-03T13:26:35.405Z</time>
      </trkpt>
      <trkpt lat="43.5101" lon="1.84627">
        <ele>198.93761</ele>
        <time>2020-12-03T13:26:54.572Z</time>
      </trkpt>
      <trkpt lat="43.50998" lon="1.84638">
        <ele>198.940968</ele>
        <time>2020-12-03T13:26:57.953Z</time>
      </trkpt>
      <trkpt lat="43.50968" lon="1.84676">
        <ele>198.950179</ele>
        <time>2020-12-03T13:27:07.325Z</time>
      </trkpt>
      <trkpt lat="43.50858" lon="1.8485">
        <ele>199.19444</ele>
        <time>2020-12-03T13:27:47.254Z</time>
      </trkpt>
      <trkpt lat="43.50817" lon="1.84927">
        <ele>199.362654</ele>
        <time>2020-12-03T13:28:04.574Z</time>
      </trkpt>
      <trkpt lat="43.50733" lon="1.85119">
        <ele>200.133851</ele>
        <time>2020-12-03T13:28:46.042Z</time>
      </trkpt>
      <trkpt lat="43.50681" lon="1.85328">
        <ele>201.196892</ele>
        <time>2020-12-03T13:29:28.222Z</time>
      </trkpt>
      <trkpt lat="43.50619" lon="1.85395">
        <ele>201.9448</ele>
        <time>2020-12-03T13:29:50.369Z</time>
      </trkpt>
      <trkpt lat="43.50571" lon="1.85458">
        <ele>202.657827</ele>
        <time>2020-12-03T13:30:09.335Z</time>
      </trkpt>
      <trkpt lat="43.50551" lon="1.85486">
        <ele>202.969153</ele>
        <time>2020-12-03T13:30:17.709Z</time>
      </trkpt>
      <trkpt lat="43.50523" lon="1.85525">
        <ele>203.392201</ele>
        <time>2020-12-03T13:30:29.200Z</time>
      </trkpt>
      <trkpt lat="43.50481" lon="1.85577">
        <ele>204.012368</ele>
        <time>2020-12-03T13:30:45.954Z</time>
      </trkpt>
      <trkpt lat="43.50385" lon="1.85677">
        <ele>205.286649</ele>
        <time>2020-12-03T13:31:20.289Z</time>
      </trkpt>
      <trkpt lat="43.50369" lon="1.85709">
        <ele>205.425593</ele>
        <time>2020-12-03T13:31:27.978Z</time>
      </trkpt>
      <trkpt lat="43.50335" lon="1.85856">
        <ele>205.976538</ele>
        <time>2020-12-03T13:31:57.097Z</time>
      </trkpt>
      <trkpt lat="43.50328" lon="1.85878">
        <ele>206.063887</ele>
        <time>2020-12-03T13:32:01.212Z</time>
      </trkpt>
      <trkpt lat="43.50311" lon="1.85899">
        <ele>206.113725</ele>
        <time>2020-12-03T13:32:06.290Z</time>
      </trkpt>
      <trkpt lat="43.50273" lon="1.8595">
        <ele>205.770674</ele>
        <time>2020-12-03T13:32:18.218Z</time>
      </trkpt>
      <trkpt lat="43.5026" lon="1.85973">
        <ele>205.635188</ele>
        <time>2020-12-03T13:32:22.846Z</time>
      </trkpt>
      <trkpt lat="43.50237" lon="1.86011">
        <ele>205.403486</ele>
        <time>2020-12-03T13:32:30.640Z</time>
      </trkpt>
      <trkpt lat="43.50152" lon="1.86125">
        <ele>204.427996</ele>
        <time>2020-12-03T13:32:55.089Z</time>
      </trkpt>
      <trkpt lat="43.50114" lon="1.86154">
        <ele>203.986617</ele>
        <time>2020-12-03T13:33:03.870Z</time>
      </trkpt>
      <trkpt lat="43.5011" lon="1.86156">
        <ele>203.940353</ele>
        <time>2020-12-03T13:33:04.750Z</time>
      </trkpt>
      <trkpt lat="43.50061" lon="1.86176">
        <ele>203.407608</ele>
        <time>2020-12-03T13:33:15.556Z</time>
      </trkpt>
      <trkpt lat="43.4999" lon="1.86224">
        <ele>202.901498</ele>
        <time>2020-12-03T13:33:32.217Z</time>
      </trkpt>
      <trkpt lat="43.49914" lon="1.86288">
        <ele>202.497955</ele>
        <time>2020-12-03T13:33:51.696Z</time>
      </trkpt>
      <trkpt lat="43.49581" lon="1.86768">
        <ele>202.283937</ele>
        <time>2020-12-03T13:35:43.193Z</time>
      </trkpt>
      <trkpt lat="43.49564" lon="1.86786">
        <ele>202.300873</ele>
        <time>2020-12-03T13:35:48.206Z</time>
      </trkpt>
      <trkpt lat="43.49467" lon="1.86852">
        <ele>202.484287</ele>
        <time>2020-12-03T13:36:14.053Z</time>
      </trkpt>
      <trkpt lat="43.49308" lon="1.86928">
        <ele>203.125926</ele>
        <time>2020-12-03T13:36:56.584Z</time>
      </trkpt>
      <trkpt lat="43.49258" lon="1.86943">
        <ele>203.351327</ele>
        <time>2020-12-03T13:37:09.865Z</time>
      </trkpt>
      <trkpt lat="43.49229" lon="1.86976">
        <ele>203.516774</ele>
        <time>2020-12-03T13:37:19.607Z</time>
      </trkpt>
      <trkpt lat="43.49148" lon="1.8711">
        <ele>203.939742</ele>
        <time>2020-12-03T13:37:51.107Z</time>
      </trkpt>
      <trkpt lat="43.49133" lon="1.8713">
        <ele>203.983689</ele>
        <time>2020-12-03T13:37:56.117Z</time>
      </trkpt>
      <trkpt lat="43.4909" lon="1.87161">
        <ele>204.085907</ele>
        <time>2020-12-03T13:38:07.564Z</time>
      </trkpt>
      <trkpt lat="43.49068" lon="1.87185">
        <ele>204.145102</ele>
        <time>2020-12-03T13:38:14.262Z</time>
      </trkpt>
      <trkpt lat="43.49055" lon="1.87202">
        <ele>204.183105</ele>
        <time>2020-12-03T13:38:18.496Z</time>
      </trkpt>
      <trkpt lat="43.49057" lon="1.87243">
        <ele>204.276874</ele>
        <time>2020-12-03T13:38:25.622Z</time>
      </trkpt>
      <trkpt lat="43.49057" lon="1.87332">
        <ele>204.503879</ele>
        <time>2020-12-03T13:38:41.397Z</time>
      </trkpt>
      <trkpt lat="43.4905" lon="1.87365">
        <ele>204.590836</ele>
        <time>2020-12-03T13:38:47.514Z</time>
      </trkpt>
      <trkpt lat="43.48867" lon="1.87646">
        <ele>206.014972</ele>
        <time>2020-12-03T13:39:59.335Z</time>
      </trkpt>
      <trkpt lat="43.48813" lon="1.8771">
        <ele>206.285144</ele>
        <time>2020-12-03T13:40:17.378Z</time>
      </trkpt>
      <trkpt lat="43.48784" lon="1.87796">
        <ele>206.547923</ele>
        <time>2020-12-03T13:40:34.384Z</time>
      </trkpt>
      <trkpt lat="43.48763" lon="1.87842">
        <ele>206.646963</ele>
        <time>2020-12-03T13:40:43.691Z</time>
      </trkpt>
      <trkpt lat="43.48732" lon="1.8785">
        <ele>206.705654</ele>
        <time>2020-12-03T13:40:51.031Z</time>
      </trkpt>
      <trkpt lat="43.48692" lon="1.87844">
        <ele>206.781652</ele>
        <time>2020-12-03T13:41:00.402Z</time>
      </trkpt>
      <trkpt lat="43.48681" lon="1.87847">
        <ele>206.80313</ele>
        <time>2020-12-03T13:41:03.024Z</time>
      </trkpt>
      <trkpt lat="43.48596" lon="1.87942">
        <ele>207.265356</ele>
        <time>2020-12-03T13:41:29.785Z</time>
      </trkpt>
      <trkpt lat="43.48542" lon="1.8799">
        <ele>207.829996</ele>
        <time>2020-12-03T13:41:47.612Z</time>
      </trkpt>
      <trkpt lat="43.48523" lon="1.88004">
        <ele>208.018725</ele>
        <time>2020-12-03T13:41:53.760Z</time>
      </trkpt>
      <trkpt lat="43.48527" lon="1.8802">
        <ele>208.123475</ele>
        <time>2020-12-03T13:41:57.200Z</time>
      </trkpt>
      <trkpt lat="43.48544" lon="1.8809">
        <ele>208.650032</ele>
        <time>2020-12-03T13:42:12.561Z</time>
      </trkpt>
      <trkpt lat="43.48554" lon="1.88114">
        <ele>208.938452</ele>
        <time>2020-12-03T13:42:18.379Z</time>
      </trkpt>
      <trkpt lat="43.48552" lon="1.88136">
        <ele>209.165544</ele>
        <time>2020-12-03T13:42:23.180Z</time>
      </trkpt>
      <trkpt lat="43.48522" lon="1.88315">
        <ele>211.078323</ele>
        <time>2020-12-03T13:43:04.366Z</time>
      </trkpt>
      <trkpt lat="43.48515" lon="1.8835">
        <ele>211.471828</ele>
        <time>2020-12-03T13:43:12.380Z</time>
      </trkpt>
      <trkpt lat="43.48503" lon="1.88377">
        <ele>211.824269</ele>
        <time>2020-12-03T13:43:19.315Z</time>
      </trkpt>
      <trkpt lat="43.48483" lon="1.8841">
        <ele>212.285171</ele>
        <time>2020-12-03T13:43:28.492Z</time>
      </trkpt>
      <trkpt lat="43.4847" lon="1.88445">
        <ele>212.712157</ele>
        <time>2020-12-03T13:43:37.154Z</time>
      </trkpt>
      <trkpt lat="43.48426" lon="1.88586">
        <ele>214.549451</ele>
        <time>2020-12-03T13:44:11.910Z</time>
      </trkpt>
      <trkpt lat="43.48433" lon="1.88619">
        <ele>215.045528</ele>
        <time>2020-12-03T13:44:20.192Z</time>
      </trkpt>
      <trkpt lat="43.48456" lon="1.88665">
        <ele>215.822961</ele>
        <time>2020-12-03T13:44:33.135Z</time>
      </trkpt>
      <trkpt lat="43.48456" lon="1.8868">
        <ele>216.036158</ele>
        <time>2020-12-03T13:44:36.677Z</time>
      </trkpt>
      <trkpt lat="43.48358" lon="1.8902">
        <ele>221.994845</ele>
        <time>2020-12-03T13:46:08.463Z</time>
      </trkpt>
      <trkpt lat="43.48358" lon="1.89049">
        <ele>222.527316</ele>
        <time>2020-12-03T13:46:15.909Z</time>
      </trkpt>
      <trkpt lat="43.48372" lon="1.89101">
        <ele>223.577771</ele>
        <time>2020-12-03T13:46:30.634Z</time>
      </trkpt>
      <trkpt lat="43.48375" lon="1.89143">
        <ele>224.363927</ele>
        <time>2020-12-03T13:46:41.766Z</time>
      </trkpt>
      <trkpt lat="43.4837" lon="1.89202">
        <ele>225.476762</ele>
        <time>2020-12-03T13:46:57.600Z</time>
      </trkpt>
      <trkpt lat="43.4834" lon="1.8939">
        <ele>229.254566</ele>
        <time>2020-12-03T13:47:49.231Z</time>
      </trkpt>
      <trkpt lat="43.48281" lon="1.89524">
        <ele>232.42691</ele>
        <time>2020-12-03T13:48:30.918Z</time>
      </trkpt>
      <trkpt lat="43.48194" lon="1.89716">
        <ele>236.892444</ele>
        <time>2020-12-03T13:49:33.199Z</time>
      </trkpt>
      <trkpt lat="43.48154" lon="1.8969">
        <ele>237.864164</ele>
        <time>2020-12-03T13:49:49.116Z</time>
      </trkpt>
      <trkpt lat="43.48058" lon="1.89647">
        <ele>240.05553</ele>
        <time>2020-12-03T13:50:21.558Z</time>
      </trkpt>
      <trkpt lat="43.48044" lon="1.89643">
        <ele>240.096641</ele>
        <time>2020-12-03T13:50:25.699Z</time>
      </trkpt>
      <trkpt lat="43.48045" lon="1.89656">
        <ele>240.12387</ele>
        <time>2020-12-03T13:50:28.719Z</time>
      </trkpt>
      <trkpt lat="43.47966" lon="1.89821">
        <ele>240.535542</ele>
        <time>2020-12-03T13:51:02.476Z</time>
      </trkpt>
      <trkpt lat="43.47948" lon="1.89845">
        <ele>240.503044</ele>
        <time>2020-12-03T13:51:07.934Z</time>
      </trkpt>
      <trkpt lat="43.4779" lon="1.8998">
        <ele>239.691017</ele>
        <time>2020-12-03T13:51:47.668Z</time>
      </trkpt>
      <trkpt lat="43.47719" lon="1.90124">
        <ele>240.346043</ele>
        <time>2020-12-03T13:52:19.626Z</time>
      </trkpt>
      <trkpt lat="43.47674" lon="1.9019">
        <ele>241.119841</ele>
        <time>2020-12-03T13:52:39.654Z</time>
      </trkpt>
      <trkpt lat="43.47543" lon="1.90383">
        <ele>244.79991</ele>
        <time>2020-12-03T13:53:44.283Z</time>
      </trkpt>
      <trkpt lat="43.47657" lon="1.90494">
        <ele>247.491315</ele>
        <time>2020-12-03T13:54:30.357Z</time>
      </trkpt>
      <trkpt lat="43.47757" lon="1.90588">
        <ele>249.140069</ele>
        <time>2020-12-03T13:55:07.356Z</time>
      </trkpt>
      <trkpt lat="43.4789" lon="1.90819">
        <ele>250.923141</ele>
        <time>2020-12-03T13:56:06.978Z</time>
      </trkpt>
      <trkpt lat="43.479" lon="1.9083">
        <ele>251.005009</ele>
        <time>2020-12-03T13:56:10.592Z</time>
      </trkpt>
      <trkpt lat="43.47908" lon="1.90832">
        <ele>251.053614</ele>
        <time>2020-12-03T13:56:12.187Z</time>
      </trkpt>
      <trkpt lat="43.48003" lon="1.90828">
        <ele>249.629003</ele>
        <time>2020-12-03T13:56:32.078Z</time>
      </trkpt>
      <trkpt lat="43.48025" lon="1.90834">
        <ele>249.285069</ele>
        <time>2020-12-03T13:56:36.366Z</time>
      </trkpt>
      <trkpt lat="43.48061" lon="1.90854">
        <ele>248.683778</ele>
        <time>2020-12-03T13:56:43.795Z</time>
      </trkpt>
      <trkpt lat="43.48071" lon="1.90862">
        <ele>248.509447</ele>
        <time>2020-12-03T13:56:45.855Z</time>
      </trkpt>
      <trkpt lat="43.48081" lon="1.90869">
        <ele>248.34078</ele>
        <time>2020-12-03T13:56:47.819Z</time>
      </trkpt>
      <trkpt lat="43.48199" lon="1.91052">
        <ele>242.907451</ele>
        <time>2020-12-03T13:57:19.820Z</time>
      </trkpt>
      <trkpt lat="43.48203" lon="1.91073">
        <ele>242.531024</ele>
        <time>2020-12-03T13:57:22.624Z</time>
      </trkpt>
      <trkpt lat="43.48199" lon="1.91121">
        <ele>241.766723</ele>
        <time>2020-12-03T13:57:29.177Z</time>
      </trkpt>
      <trkpt lat="43.48199" lon="1.91122">
        <ele>241.753934</ele>
        <time>2020-12-03T13:57:29.252Z</time>
      </trkpt>
      <trkpt lat="43.48165" lon="1.91259">
        <ele>239.475506</ele>
        <time>2020-12-03T13:57:49.271Z</time>
      </trkpt>
      <trkpt lat="43.48104" lon="1.91401">
        <ele>238.04216</ele>
        <time>2020-12-03T13:58:13.831Z</time>
      </trkpt>
      <trkpt lat="43.48098" lon="1.91437">
        <ele>237.799012</ele>
        <time>2020-12-03T13:58:19.633Z</time>
      </trkpt>
      <trkpt lat="43.48102" lon="1.9152">
        <ele>237.250214</ele>
        <time>2020-12-03T13:58:32.811Z</time>
      </trkpt>
      <trkpt lat="43.4809" lon="1.91546">
        <ele>237.119934</ele>
        <time>2020-12-03T13:58:37.904Z</time>
      </trkpt>
      <trkpt lat="43.48079" lon="1.91591">
        <ele>236.924615</ele>
        <time>2020-12-03T13:58:45.475Z</time>
      </trkpt>
      <trkpt lat="43.48073" lon="1.91607">
        <ele>236.849996</ele>
        <time>2020-12-03T13:58:48.286Z</time>
      </trkpt>
      <trkpt lat="43.48084" lon="1.91612">
        <ele>236.782394</ele>
        <time>2020-12-03T13:58:50.968Z</time>
      </trkpt>
      <trkpt lat="43.4809" lon="1.91617">
        <ele>236.744897</ele>
        <time>2020-12-03T13:58:52.466Z</time>
      </trkpt>
      <trkpt lat="43.48096" lon="1.91624">
        <ele>236.699143</ele>
        <time>2020-12-03T13:58:54.320Z</time>
      </trkpt>
      <trkpt lat="43.48095" lon="1.91631">
        <ele>236.670491</ele>
        <time>2020-12-03T13:58:55.318Z</time>
      </trkpt>
      <trkpt lat="43.48095" lon="1.91637">
        <ele>236.646549</ele>
        <time>2020-12-03T13:58:56.126Z</time>
      </trkpt>
      <trkpt lat="43.48098" lon="1.91643">
        <ele>236.615485</ele>
        <time>2020-12-03T13:58:57.311Z</time>
      </trkpt>
      <trkpt lat="43.481" lon="1.91645">
        <ele>236.602826</ele>
        <time>2020-12-03T13:58:57.732Z</time>
      </trkpt>
      <trkpt lat="43.48104" lon="1.91647">
        <ele>236.577659</ele>
        <time>2020-12-03T13:58:58.757Z</time>
      </trkpt>
      <trkpt lat="43.48114" lon="1.91641">
        <ele>236.513806</ele>
        <time>2020-12-03T13:59:01.163Z</time>
      </trkpt>
      <trkpt lat="43.48116" lon="1.91636">
        <ele>236.492472</ele>
        <time>2020-12-03T13:59:01.995Z</time>
      </trkpt>
      <trkpt lat="43.48124" lon="1.9164">
        <ele>236.443855</ele>
        <time>2020-12-03T13:59:03.711Z</time>
      </trkpt>
      <trkpt lat="43.48135" lon="1.91648">
        <ele>236.375491</ele>
        <time>2020-12-03T13:59:06.339Z</time>
      </trkpt>
      <trkpt lat="43.48224" lon="1.91714">
        <ele>235.599637</ele>
        <time>2020-12-03T13:59:27.602Z</time>
      </trkpt>
      <trkpt lat="43.48338" lon="1.91745">
        <ele>234.603796</ele>
        <time>2020-12-03T13:59:52.318Z</time>
      </trkpt>
      <trkpt lat="43.48374" lon="1.91763">
        <ele>234.250125</ele>
        <time>2020-12-03T14:00:00.320Z</time>
      </trkpt>
      <trkpt lat="43.48426" lon="1.9179">
        <ele>233.728711</ele>
        <time>2020-12-03T14:00:12.076Z</time>
      </trkpt>
      <trkpt lat="43.48505" lon="1.91831">
        <ele>232.919163</ele>
        <time>2020-12-03T14:00:29.363Z</time>
      </trkpt>
      <trkpt lat="43.48538" lon="1.91865">
        <ele>232.428916</ele>
        <time>2020-12-03T14:00:37.695Z</time>
      </trkpt>
      <trkpt lat="43.48548" lon="1.91871">
        <ele>232.291242</ele>
        <time>2020-12-03T14:00:39.984Z</time>
      </trkpt>
      <trkpt lat="43.48731" lon="1.91854">
        <ele>231.250194</ele>
        <time>2020-12-03T14:01:17.453Z</time>
      </trkpt>
      <trkpt lat="43.4886" lon="1.91939">
        <ele>232.34615</ele>
        <time>2020-12-03T14:02:01.269Z</time>
      </trkpt>
      <trkpt lat="43.48889" lon="1.91956">
        <ele>232.89256</ele>
        <time>2020-12-03T14:02:12.740Z</time>
      </trkpt>
      <trkpt lat="43.49064" lon="1.9219">
        <ele>236.995997</ele>
        <time>2020-12-03T14:03:26.436Z</time>
      </trkpt>
      <trkpt lat="43.49082" lon="1.92214">
        <ele>237.40868</ele>
        <time>2020-12-03T14:03:33.572Z</time>
      </trkpt>
      <trkpt lat="43.49208" lon="1.92311">
        <ele>240.176668</ele>
        <time>2020-12-03T14:04:19.923Z</time>
      </trkpt>
      <trkpt lat="43.49268" lon="1.92364">
        <ele>241.519254</ele>
        <time>2020-12-03T14:04:44.033Z</time>
      </trkpt>
      <trkpt lat="43.49343" lon="1.92432">
        <ele>242.253161</ele>
        <time>2020-12-03T14:05:11.524Z</time>
      </trkpt>
      <trkpt lat="43.49377" lon="1.92461">
        <ele>242.580773</ele>
        <time>2020-12-03T14:05:22.262Z</time>
      </trkpt>
      <trkpt lat="43.49388" lon="1.92478">
        <ele>242.714556</ele>
        <time>2020-12-03T14:05:26.292Z</time>
      </trkpt>
      <trkpt lat="43.49386" lon="1.925">
        <ele>242.843609</ele>
        <time>2020-12-03T14:05:30.164Z</time>
      </trkpt>
      <trkpt lat="43.49328" lon="1.92685">
        <ele>238.588534</ele>
        <time>2020-12-03T14:05:56.305Z</time>
      </trkpt>
      <trkpt lat="43.49316" lon="1.92744">
        <ele>237.125225</ele>
        <time>2020-12-03T14:06:03.329Z</time>
      </trkpt>
      <trkpt lat="43.49308" lon="1.9277">
        <ele>235.631671</ele>
        <time>2020-12-03T14:06:06.362Z</time>
      </trkpt>
      <trkpt lat="43.49302" lon="1.9279">
        <ele>234.401355</ele>
        <time>2020-12-03T14:06:08.860Z</time>
      </trkpt>
      <trkpt lat="43.493" lon="1.92796">
        <ele>234.041667</ele>
        <time>2020-12-03T14:06:09.577Z</time>
      </trkpt>
      <trkpt lat="43.49292" lon="1.92809">
        <ele>233.054364</ele>
        <time>2020-12-03T14:06:11.460Z</time>
      </trkpt>
      <trkpt lat="43.49241" lon="1.92923">
        <ele>225.498848</ele>
        <time>2020-12-03T14:06:26.303Z</time>
      </trkpt>
      <trkpt lat="43.49216" lon="1.93009">
        <ele>220.639112</ele>
        <time>2020-12-03T14:06:36.598Z</time>
      </trkpt>
      <trkpt lat="43.49216" lon="1.93011">
        <ele>220.572342</ele>
        <time>2020-12-03T14:06:36.743Z</time>
      </trkpt>
      <trkpt lat="43.49171" lon="1.93083">
        <ele>215.977179</ele>
        <time>2020-12-03T14:06:47.659Z</time>
      </trkpt>
      <trkpt lat="43.49157" lon="1.93119">
        <ele>213.971945</ele>
        <time>2020-12-03T14:06:52.457Z</time>
      </trkpt>
      <trkpt lat="43.49138" lon="1.93212">
        <ele>210.135933</ele>
        <time>2020-12-03T14:07:04.024Z</time>
      </trkpt>
      <trkpt lat="43.49111" lon="1.93304">
        <ele>207.678472</ele>
        <time>2020-12-03T14:07:16.127Z</time>
      </trkpt>
      <trkpt lat="43.49013" lon="1.93495">
        <ele>203.145627</ele>
        <time>2020-12-03T14:07:46.728Z</time>
      </trkpt>
      <trkpt lat="43.49014" lon="1.93508">
        <ele>202.965695</ele>
        <time>2020-12-03T14:07:48.455Z</time>
      </trkpt>
      <trkpt lat="43.49054" lon="1.93576">
        <ele>201.714654</ele>
        <time>2020-12-03T14:08:00.478Z</time>
      </trkpt>
      <trkpt lat="43.49056" lon="1.93592">
        <ele>201.478394</ele>
        <time>2020-12-03T14:08:02.767Z</time>
      </trkpt>
      <trkpt lat="43.49052" lon="1.93605">
        <ele>201.309182</ele>
        <time>2020-12-03T14:08:04.471Z</time>
      </trkpt>
      <trkpt lat="43.48949" lon="1.93726">
        <ele>199.628148</ele>
        <time>2020-12-03T14:08:30.648Z</time>
      </trkpt>
      <trkpt lat="43.48946" lon="1.93734">
        <ele>199.541094</ele>
        <time>2020-12-03T14:08:31.936Z</time>
      </trkpt>
      <trkpt lat="43.48946" lon="1.93754">
        <ele>199.359802</ele>
        <time>2020-12-03T14:08:34.938Z</time>
      </trkpt>
      <trkpt lat="43.48953" lon="1.93844">
        <ele>198.929622</ele>
        <time>2020-12-03T14:08:48.304Z</time>
      </trkpt>
      <trkpt lat="43.48946" lon="1.93906">
        <ele>198.747082</ele>
        <time>2020-12-03T14:08:57.984Z</time>
      </trkpt>
      <trkpt lat="43.49019" lon="1.94114">
        <ele>198.158052</ele>
        <time>2020-12-03T14:09:34.713Z</time>
      </trkpt>
      <trkpt lat="43.49045" lon="1.94211">
        <ele>197.931908</ele>
        <time>2020-12-03T14:09:50.878Z</time>
      </trkpt>
      <trkpt lat="43.49015" lon="1.94374">
        <ele>197.042381</ele>
        <time>2020-12-03T14:10:15.796Z</time>
      </trkpt>
      <trkpt lat="43.49005" lon="1.94404">
        <ele>196.839232</ele>
        <time>2020-12-03T14:10:20.599Z</time>
      </trkpt>
      <trkpt lat="43.48976" lon="1.94452">
        <ele>196.456579</ele>
        <time>2020-12-03T14:10:29.622Z</time>
      </trkpt>
      <trkpt lat="43.48974" lon="1.94463">
        <ele>196.38565</ele>
        <time>2020-12-03T14:10:31.221Z</time>
      </trkpt>
      <trkpt lat="43.48966" lon="1.94503">
        <ele>196.087641</ele>
        <time>2020-12-03T14:10:37.288Z</time>
      </trkpt>
      <trkpt lat="43.48938" lon="1.94589">
        <ele>195.391159</ele>
        <time>2020-12-03T14:10:50.797Z</time>
      </trkpt>
      <trkpt lat="43.48914" lon="1.94619">
        <ele>195.057992</ele>
        <time>2020-12-03T14:10:57.219Z</time>
      </trkpt>
      <trkpt lat="43.48772" lon="1.94724">
        <ele>193.389017</ele>
        <time>2020-12-03T14:11:29.248Z</time>
      </trkpt>
      <trkpt lat="43.48673" lon="1.94863">
        <ele>191.942979</ele>
        <time>2020-12-03T14:11:56.992Z</time>
      </trkpt>
      <trkpt lat="43.48668" lon="1.94875">
        <ele>191.843426</ele>
        <time>2020-12-03T14:11:58.914Z</time>
      </trkpt>
      <trkpt lat="43.48651" lon="1.94912">
        <ele>191.527697</ele>
        <time>2020-12-03T14:12:05.293Z</time>
      </trkpt>
      <trkpt lat="43.48618" lon="1.9505">
        <ele>190.69519</ele>
        <time>2020-12-03T14:12:26.661Z</time>
      </trkpt>
      <trkpt lat="43.48617" lon="1.95068">
        <ele>190.644664</ele>
        <time>2020-12-03T14:12:29.296Z</time>
      </trkpt>
      <trkpt lat="43.48654" lon="1.9515">
        <ele>190.381327</ele>
        <time>2020-12-03T14:12:44.163Z</time>
      </trkpt>
      <trkpt lat="43.48659" lon="1.95169">
        <ele>190.32528</ele>
        <time>2020-12-03T14:12:47.370Z</time>
      </trkpt>
      <trkpt lat="43.4866" lon="1.95179">
        <ele>190.296479</ele>
        <time>2020-12-03T14:12:49.113Z</time>
      </trkpt>
      <trkpt lat="43.48661" lon="1.95181">
        <ele>190.289733</ele>
        <time>2020-12-03T14:12:49.508Z</time>
      </trkpt>
      <trkpt lat="43.48663" lon="1.95191">
        <ele>190.262896</ele>
        <time>2020-12-03T14:12:51.024Z</time>
      </trkpt>
      <trkpt lat="43.48662" lon="1.95212">
        <ele>190.20493</ele>
        <time>2020-12-03T14:12:54.372Z</time>
      </trkpt>
      <trkpt lat="43.48655" lon="1.9524">
        <ele>190.143291</ele>
        <time>2020-12-03T14:12:59.246Z</time>
      </trkpt>
      <trkpt lat="43.48642" lon="1.95254">
        <ele>190.151123</ele>
        <time>2020-12-03T14:13:02.761Z</time>
      </trkpt>
      <trkpt lat="43.48657" lon="1.95285">
        <ele>190.164269</ele>
        <time>2020-12-03T14:13:09.029Z</time>
      </trkpt>
      <trkpt lat="43.48849" lon="1.95614">
        <ele>190.397365</ele>
        <time>2020-12-03T14:14:21.599Z</time>
      </trkpt>
      <trkpt lat="43.48927" lon="1.9573">
        <ele>190.461143</ele>
        <time>2020-12-03T14:14:48.556Z</time>
      </trkpt>
      <trkpt lat="43.4893" lon="1.95735">
        <ele>190.463672</ele>
        <time>2020-12-03T14:14:49.572Z</time>
      </trkpt>
      <trkpt lat="43.48928" lon="1.95742">
        <ele>190.466536</ele>
        <time>2020-12-03T14:14:51.139Z</time>
      </trkpt>
      <trkpt lat="43.489" lon="1.9583">
        <ele>190.494985</ele>
        <time>2020-12-03T14:15:07.272Z</time>
      </trkpt>
      <trkpt lat="43.48837" lon="1.95967">
        <ele>190.438302</ele>
        <time>2020-12-03T14:15:34.442Z</time>
      </trkpt>
      <trkpt lat="43.48821" lon="1.96014">
        <ele>190.42008</ele>
        <time>2020-12-03T14:15:43.168Z</time>
      </trkpt>
      <trkpt lat="43.48809" lon="1.96045">
        <ele>190.4004</ele>
        <time>2020-12-03T14:15:48.984Z</time>
      </trkpt>
      <trkpt lat="43.48759" lon="1.9616">
        <ele>190.284218</ele>
        <time>2020-12-03T14:16:11.142Z</time>
      </trkpt>
      <trkpt lat="43.48691" lon="1.96326">
        <ele>190.263603</ele>
        <time>2020-12-03T14:16:42.877Z</time>
      </trkpt>
      <trkpt lat="43.48676" lon="1.96356">
        <ele>190.290051</ele>
        <time>2020-12-03T14:16:48.957Z</time>
      </trkpt>
      <trkpt lat="43.4866" lon="1.96387">
        <ele>190.317746</ele>
        <time>2020-12-03T14:16:55.538Z</time>
      </trkpt>
      <trkpt lat="43.486" lon="1.96502">
        <ele>190.584968</ele>
        <time>2020-12-03T14:17:20.930Z</time>
      </trkpt>
      <trkpt lat="43.48579" lon="1.96532">
        <ele>190.729731</ele>
        <time>2020-12-03T14:17:28.609Z</time>
      </trkpt>
      <trkpt lat="43.48545" lon="1.96578">
        <ele>190.957124</ele>
        <time>2020-12-03T14:17:40.802Z</time>
      </trkpt>
      <trkpt lat="43.4839" lon="1.96801">
        <ele>192.282519</ele>
        <time>2020-12-03T14:18:39.694Z</time>
      </trkpt>
      <trkpt lat="43.48327" lon="1.96894">
        <ele>192.978936</ele>
        <time>2020-12-03T14:19:04.747Z</time>
      </trkpt>
      <trkpt lat="43.48315" lon="1.96913">
        <ele>193.124783</ele>
        <time>2020-12-03T14:19:10.104Z</time>
      </trkpt>
      <trkpt lat="43.4827" lon="1.96986">
        <ele>193.666816</ele>
        <time>2020-12-03T14:19:29.145Z</time>
      </trkpt>
      <trkpt lat="43.48178" lon="1.97107">
        <ele>194.198389</ele>
        <time>2020-12-03T14:20:01.555Z</time>
      </trkpt>
      <trkpt lat="43.4817" lon="1.97117">
        <ele>194.235416</ele>
        <time>2020-12-03T14:20:03.901Z</time>
      </trkpt>
      <trkpt lat="43.48117" lon="1.97183">
        <ele>194.497592</ele>
        <time>2020-12-03T14:20:21.344Z</time>
      </trkpt>
      <trkpt lat="43.48097" lon="1.97207">
        <ele>194.589368</ele>
        <time>2020-12-03T14:20:27.773Z</time>
      </trkpt>
      <trkpt lat="43.47909" lon="1.97415">
        <ele>195.628196</ele>
        <time>2020-12-03T14:21:28.643Z</time>
      </trkpt>
      <trkpt lat="43.4788" lon="1.97465">
        <ele>195.878531</ele>
        <time>2020-12-03T14:21:40.899Z</time>
      </trkpt>
      <trkpt lat="43.47853" lon="1.97566">
        <ele>196.365111</ele>
        <time>2020-12-03T14:22:01.772Z</time>
      </trkpt>
      <trkpt lat="43.47791" lon="1.97651">
        <ele>196.955596</ele>
        <time>2020-12-03T14:22:25.188Z</time>
      </trkpt>
      <trkpt lat="43.47714" lon="1.97806">
        <ele>197.771886</ele>
        <time>2020-12-03T14:23:00.992Z</time>
      </trkpt>
      <trkpt lat="43.4757" lon="1.9793">
        <ele>198.666673</ele>
        <time>2020-12-03T14:23:44.659Z</time>
      </trkpt>
      <trkpt lat="43.47435" lon="1.98167">
        <ele>199.628045</ele>
        <time>2020-12-03T14:24:40.381Z</time>
      </trkpt>
      <trkpt lat="43.4742" lon="1.98267">
        <ele>199.918744</ele>
        <time>2020-12-03T14:24:58.470Z</time>
      </trkpt>
      <trkpt lat="43.4739" lon="1.98476">
        <ele>200.504777</ele>
        <time>2020-12-03T14:25:37.150Z</time>
      </trkpt>
      <trkpt lat="43.47389" lon="1.98481">
        <ele>200.518339</ele>
        <time>2020-12-03T14:25:38.066Z</time>
      </trkpt>
      <trkpt lat="43.47367" lon="1.98601">
        <ele>201.121168</ele>
        <time>2020-12-03T14:26:01.719Z</time>
      </trkpt>
      <trkpt lat="43.47324" lon="1.98773">
        <ele>202.046166</ele>
        <time>2020-12-03T14:26:37.638Z</time>
      </trkpt>
      <trkpt lat="43.47302" lon="1.9891">
        <ele>202.776424</ele>
        <time>2020-12-03T14:27:04.986Z</time>
      </trkpt>
      <trkpt lat="43.47225" lon="1.99111">
        <ele>203.907589</ele>
        <time>2020-12-03T14:27:48.817Z</time>
      </trkpt>
      <trkpt lat="43.47199" lon="1.99222">
        <ele>204.514055</ele>
        <time>2020-12-03T14:28:11.216Z</time>
      </trkpt>
      <trkpt lat="43.47195" lon="1.9923">
        <ele>204.570972</ele>
        <time>2020-12-03T14:28:13.183Z</time>
      </trkpt>
      <trkpt lat="43.47194" lon="1.99229">
        <ele>204.580374</ele>
        <time>2020-12-03T14:28:13.522Z</time>
      </trkpt>
      <trkpt lat="43.4719" lon="1.99235">
        <ele>204.624249</ele>
        <time>2020-12-03T14:28:14.968Z</time>
      </trkpt>
      <trkpt lat="43.47191" lon="1.99236">
        <ele>204.633834</ele>
        <time>2020-12-03T14:28:15.311Z</time>
      </trkpt>
      <trkpt lat="43.47192" lon="1.99237">
        <ele>204.642167</ele>
        <time>2020-12-03T14:28:15.565Z</time>
      </trkpt>
      <trkpt lat="43.47193" lon="1.99238">
        <ele>204.651724</ele>
        <time>2020-12-03T14:28:15.842Z</time>
      </trkpt>
      <trkpt lat="43.47185" lon="1.99264">
        <ele>204.82134</ele>
        <time>2020-12-03T14:28:21.590Z</time>
      </trkpt>
      <trkpt lat="43.47141" lon="1.99402">
        <ele>205.720023</ele>
        <time>2020-12-03T14:28:51.672Z</time>
      </trkpt>
      <trkpt lat="43.47138" lon="1.99418">
        <ele>205.806983</ele>
        <time>2020-12-03T14:28:55.071Z</time>
      </trkpt>
      <trkpt lat="43.47132" lon="1.99445">
        <ele>205.914579</ele>
        <time>2020-12-03T14:29:00.578Z</time>
      </trkpt>
      <trkpt lat="43.47122" lon="1.99494">
        <ele>206.104759</ele>
        <time>2020-12-03T14:29:09.930Z</time>
      </trkpt>
      <trkpt lat="43.47091" lon="1.99583">
        <ele>206.479134</ele>
        <time>2020-12-03T14:29:28.401Z</time>
      </trkpt>
      <trkpt lat="43.47051" lon="1.99621">
        <ele>206.729959</ele>
        <time>2020-12-03T14:29:40.620Z</time>
      </trkpt>
      <trkpt lat="43.47019" lon="1.99657">
        <ele>206.937202</ele>
        <time>2020-12-03T14:29:50.442Z</time>
      </trkpt>
      <trkpt lat="43.46987" lon="1.9971">
        <ele>207.192702</ele>
        <time>2020-12-03T14:30:03.090Z</time>
      </trkpt>
      <trkpt lat="43.46962" lon="1.9977">
        <ele>207.447084</ele>
        <time>2020-12-03T14:30:16.137Z</time>
      </trkpt>
      <trkpt lat="43.46933" lon="1.99826">
        <ele>207.750056</ele>
        <time>2020-12-03T14:30:29.536Z</time>
      </trkpt>
      <trkpt lat="43.46842" lon="2.00075">
        <ele>209.46773</ele>
        <time>2020-12-03T14:31:26.234Z</time>
      </trkpt>
      <trkpt lat="43.46822" lon="2.00126">
        <ele>209.731649</ele>
        <time>2020-12-03T14:31:37.526Z</time>
      </trkpt>
      <trkpt lat="43.46755" lon="2.00303">
        <ele>210.545468</ele>
        <time>2020-12-03T14:32:14.421Z</time>
      </trkpt>
      <trkpt lat="43.46741" lon="2.00341">
        <ele>210.671414</ele>
        <time>2020-12-03T14:32:21.948Z</time>
      </trkpt>
      <trkpt lat="43.46737" lon="2.00354">
        <ele>210.714167</ele>
        <time>2020-12-03T14:32:24.478Z</time>
      </trkpt>
      <trkpt lat="43.46732" lon="2.00368">
        <ele>210.759362</ele>
        <time>2020-12-03T14:32:27.183Z</time>
      </trkpt>
      <trkpt lat="43.46723" lon="2.00392">
        <ele>210.840483</ele>
        <time>2020-12-03T14:32:32.004Z</time>
      </trkpt>
      <trkpt lat="43.46633" lon="2.00632">
        <ele>212.050244</ele>
        <time>2020-12-03T14:33:23.081Z</time>
      </trkpt>
      <trkpt lat="43.46632" lon="2.00635">
        <ele>212.068204</ele>
        <time>2020-12-03T14:33:23.800Z</time>
      </trkpt>
      <trkpt lat="43.46543" lon="2.00874">
        <ele>213.721728</ele>
        <time>2020-12-03T14:34:18.947Z</time>
      </trkpt>
      <trkpt lat="43.46575" lon="2.00896">
        <ele>214.019595</ele>
        <time>2020-12-03T14:34:28.260Z</time>
      </trkpt>
      <trkpt lat="43.4664" lon="2.00943">
        <ele>214.34859</ele>
        <time>2020-12-03T14:34:46.103Z</time>
      </trkpt>
      <trkpt lat="43.46632" lon="2.00968">
        <ele>214.43911</ele>
        <time>2020-12-03T14:34:50.961Z</time>
      </trkpt>
      <trkpt lat="43.46624" lon="2.00991">
        <ele>214.519795</ele>
        <time>2020-12-03T14:34:55.277Z</time>
      </trkpt>
      <trkpt lat="43.466" lon="2.01143">
        <ele>215.146619</ele>
        <time>2020-12-03T14:35:23.707Z</time>
      </trkpt>
      <trkpt lat="43.46608" lon="2.01212">
        <ele>215.499768</ele>
        <time>2020-12-03T14:35:37.888Z</time>
      </trkpt>
      <trkpt lat="43.46606" lon="2.01233">
        <ele>215.606767</ele>
        <time>2020-12-03T14:35:42.199Z</time>
      </trkpt>
      <trkpt lat="43.46543" lon="2.01426">
        <ele>216.521059</ele>
        <time>2020-12-03T14:36:23.698Z</time>
      </trkpt>
      <trkpt lat="43.4654" lon="2.01434">
        <ele>216.558087</ele>
        <time>2020-12-03T14:36:25.360Z</time>
      </trkpt>
      <trkpt lat="43.46425" lon="2.01786">
        <ele>218.018865</ele>
        <time>2020-12-03T14:37:35.258Z</time>
      </trkpt>
      <trkpt lat="43.46422" lon="2.01794">
        <ele>218.096105</ele>
        <time>2020-12-03T14:37:37.036Z</time>
      </trkpt>
      <trkpt lat="43.46366" lon="2.0196">
        <ele>219.807196</ele>
        <time>2020-12-03T14:38:17.645Z</time>
      </trkpt>
      <trkpt lat="43.46314" lon="2.02113">
        <ele>221.418091</ele>
        <time>2020-12-03T14:38:56.041Z</time>
      </trkpt>
      <trkpt lat="43.46287" lon="2.02192">
        <ele>222.254578</ele>
        <time>2020-12-03T14:39:14.322Z</time>
      </trkpt>
      <trkpt lat="43.46277" lon="2.02217">
        <ele>222.497587</ele>
        <time>2020-12-03T14:39:19.914Z</time>
      </trkpt>
      <trkpt lat="43.46273" lon="2.0223">
        <ele>222.555796</ele>
        <time>2020-12-03T14:39:22.782Z</time>
      </trkpt>
      <trkpt lat="43.46207" lon="2.02405">
        <ele>223.372931</ele>
        <time>2020-12-03T14:40:00.246Z</time>
      </trkpt>
      <trkpt lat="43.46117" lon="2.02711">
        <ele>224.29227</ele>
        <time>2020-12-03T14:40:58.316Z</time>
      </trkpt>
      <trkpt lat="43.46037" lon="2.0283">
        <ele>225.31393</ele>
        <time>2020-12-03T14:41:30.147Z</time>
      </trkpt>
      <trkpt lat="43.45861" lon="2.03101">
        <ele>229.181285</ele>
        <time>2020-12-03T14:42:54.240Z</time>
      </trkpt>
      <trkpt lat="43.45845" lon="2.03128">
        <ele>229.472075</ele>
        <time>2020-12-03T14:43:01.764Z</time>
      </trkpt>
      <trkpt lat="43.45753" lon="2.03289">
        <ele>230.8583</ele>
        <time>2020-12-03T14:43:41.958Z</time>
      </trkpt>
      <trkpt lat="43.45718" lon="2.03336">
        <ele>231.109246</ele>
        <time>2020-12-03T14:43:53.939Z</time>
      </trkpt>
      <trkpt lat="43.45692" lon="2.03382">
        <ele>231.32612</ele>
        <time>2020-12-03T14:44:04.536Z</time>
      </trkpt>
      <trkpt lat="43.45641" lon="2.0354">
        <ele>232.144164</ele>
        <time>2020-12-03T14:44:37.207Z</time>
      </trkpt>
      <trkpt lat="43.4562" lon="2.03645">
        <ele>232.708172</ele>
        <time>2020-12-03T14:44:58.921Z</time>
      </trkpt>
      <trkpt lat="43.45587" lon="2.03706">
        <ele>233.285073</ele>
        <time>2020-12-03T14:45:14.480Z</time>
      </trkpt>
      <trkpt lat="43.45578" lon="2.03749">
        <ele>233.656067</ele>
        <time>2020-12-03T14:45:23.926Z</time>
      </trkpt>
      <trkpt lat="43.45554" lon="2.03785">
        <ele>234.059615</ele>
        <time>2020-12-03T14:45:34.262Z</time>
      </trkpt>
      <trkpt lat="43.45515" lon="2.03822">
        <ele>234.593179</ele>
        <time>2020-12-03T14:45:47.984Z</time>
      </trkpt>
      <trkpt lat="43.45508" lon="2.03837">
        <ele>234.743001</ele>
        <time>2020-12-03T14:45:51.843Z</time>
      </trkpt>
      <trkpt lat="43.45503" lon="2.03918">
        <ele>235.336067</ele>
        <time>2020-12-03T14:46:09.303Z</time>
      </trkpt>
      <trkpt lat="43.45429" lon="2.04022">
        <ele>236.363254</ele>
        <time>2020-12-03T14:46:39.091Z</time>
      </trkpt>
      <trkpt lat="43.45423" lon="2.04025">
        <ele>236.428151</ele>
        <time>2020-12-03T14:46:40.887Z</time>
      </trkpt>
      <trkpt lat="43.45411" lon="2.04018">
        <ele>236.556758</ele>
        <time>2020-12-03T14:46:44.376Z</time>
      </trkpt>
      <trkpt lat="43.45353" lon="2.03938">
        <ele>236.95541</ele>
        <time>2020-12-03T14:47:05.210Z</time>
      </trkpt>
      <trkpt lat="43.4534" lon="2.0392">
        <ele>237.041741</ele>
        <time>2020-12-03T14:47:09.970Z</time>
      </trkpt>
      <trkpt lat="43.45337" lon="2.03915">
        <ele>237.063121</ele>
        <time>2020-12-03T14:47:11.091Z</time>
      </trkpt>
      <trkpt lat="43.45297" lon="2.03859">
        <ele>237.332285</ele>
        <time>2020-12-03T14:47:25.436Z</time>
      </trkpt>
      <trkpt lat="43.4529" lon="2.03842">
        <ele>237.396033</ele>
        <time>2020-12-03T14:47:28.944Z</time>
      </trkpt>
      <trkpt lat="43.45288" lon="2.0383">
        <ele>237.445104</ele>
        <time>2020-12-03T14:47:31.263Z</time>
      </trkpt>
      <trkpt lat="43.45286" lon="2.03812">
        <ele>237.538298</ele>
        <time>2020-12-03T14:47:34.594Z</time>
      </trkpt>
      <trkpt lat="43.45282" lon="2.03803">
        <ele>237.592458</ele>
        <time>2020-12-03T14:47:36.598Z</time>
      </trkpt>
      <trkpt lat="43.4526" lon="2.03772">
        <ele>237.819</ele>
        <time>2020-12-03T14:47:44.795Z</time>
      </trkpt>
      <trkpt lat="43.45258" lon="2.03769">
        <ele>237.840563</ele>
        <time>2020-12-03T14:47:45.608Z</time>
      </trkpt>
      <trkpt lat="43.45231" lon="2.03731">
        <ele>238.117916</ele>
        <time>2020-12-03T14:47:55.717Z</time>
      </trkpt>
      <trkpt lat="43.45223" lon="2.03721">
        <ele>238.19422</ele>
        <time>2020-12-03T14:47:58.598Z</time>
      </trkpt>
      <trkpt lat="43.45187" lon="2.03783">
        <ele>238.599399</ele>
        <time>2020-12-03T14:48:13.752Z</time>
      </trkpt>
      <trkpt lat="43.45153" lon="2.03844">
        <ele>239.224062</ele>
        <time>2020-12-03T14:48:29.372Z</time>
      </trkpt>
      <trkpt lat="43.45147" lon="2.03885">
        <ele>239.601374</ele>
        <time>2020-12-03T14:48:37.871Z</time>
      </trkpt>
      <trkpt lat="43.45152" lon="2.04023">
        <ele>240.860746</ele>
        <time>2020-12-03T14:49:06.726Z</time>
      </trkpt>
      <trkpt lat="43.45183" lon="2.04322">
        <ele>244.047457</ele>
        <time>2020-12-03T14:50:12.126Z</time>
      </trkpt>
      <trkpt lat="43.45181" lon="2.04464">
        <ele>245.471254</ele>
        <time>2020-12-03T14:50:42.032Z</time>
      </trkpt>
      <trkpt lat="43.45168" lon="2.04544">
        <ele>246.520038</ele>
        <time>2020-12-03T14:50:58.792Z</time>
      </trkpt>
      <trkpt lat="43.45161" lon="2.04564">
        <ele>247.008066</ele>
        <time>2020-12-03T14:51:03.627Z</time>
      </trkpt>
      <trkpt lat="43.45153" lon="2.04578">
        <ele>247.383815</ele>
        <time>2020-12-03T14:51:07.440Z</time>
      </trkpt>
      <trkpt lat="43.45139" lon="2.04584">
        <ele>247.803538</ele>
        <time>2020-12-03T14:51:11.997Z</time>
      </trkpt>
      <trkpt lat="43.45119" lon="2.04618">
        <ele>248.743519</ele>
        <time>2020-12-03T14:51:22.449Z</time>
      </trkpt>
      <trkpt lat="43.45109" lon="2.04645">
        <ele>249.42459</ele>
        <time>2020-12-03T14:51:30.254Z</time>
      </trkpt>
      <trkpt lat="43.45107" lon="2.04644">
        <ele>249.492434</ele>
        <time>2020-12-03T14:51:31.108Z</time>
      </trkpt>
      <trkpt lat="43.45098" lon="2.04637">
        <ele>249.798831</ele>
        <time>2020-12-03T14:51:34.959Z</time>
      </trkpt>
      <trkpt lat="43.45083" lon="2.04631">
        <ele>250.257994</ele>
        <time>2020-12-03T14:51:40.591Z</time>
      </trkpt>
      <trkpt lat="43.45075" lon="2.04627">
        <ele>250.507422</ele>
        <time>2020-12-03T14:51:43.687Z</time>
      </trkpt>
      <trkpt lat="43.44805" lon="2.04528">
        <ele>266.988121</ele>
        <time>2020-12-03T14:54:11.316Z</time>
      </trkpt>
      <trkpt lat="43.44779" lon="2.04518">
        <ele>268.872555</ele>
        <time>2020-12-03T14:54:27.861Z</time>
      </trkpt>
      <trkpt lat="43.44766" lon="2.04495">
        <ele>270.392558</ele>
        <time>2020-12-03T14:54:41.847Z</time>
      </trkpt>
      <trkpt lat="43.44765" lon="2.04422">
        <ele>274.179891</ele>
        <time>2020-12-03T14:55:14.309Z</time>
      </trkpt>
      <trkpt lat="43.44719" lon="2.04263">
        <ele>282.323372</ele>
        <time>2020-12-03T14:56:25.841Z</time>
      </trkpt>
      <trkpt lat="43.44701" lon="2.04233">
        <ele>284.153647</ele>
        <time>2020-12-03T14:56:39.756Z</time>
      </trkpt>
      <trkpt lat="43.44691" lon="2.04225">
        <ele>284.908207</ele>
        <time>2020-12-03T14:56:45.437Z</time>
      </trkpt>
      <trkpt lat="43.44672" lon="2.04225">
        <ele>286.122871</ele>
        <time>2020-12-03T14:56:54.837Z</time>
      </trkpt>
      <trkpt lat="43.44652" lon="2.0424">
        <ele>287.344575</ele>
        <time>2020-12-03T14:57:05.904Z</time>
      </trkpt>
      <trkpt lat="43.44635" lon="2.04243">
        <ele>288.172342</ele>
        <time>2020-12-03T14:57:14.493Z</time>
      </trkpt>
      <trkpt lat="43.44621" lon="2.04234">
        <ele>288.94015</ele>
        <time>2020-12-03T14:57:22.117Z</time>
      </trkpt>
      <trkpt lat="43.44609" lon="2.04218">
        <ele>289.731039</ele>
        <time>2020-12-03T14:57:30.126Z</time>
      </trkpt>
      <trkpt lat="43.44604" lon="2.04202">
        <ele>290.323174</ele>
        <time>2020-12-03T14:57:35.902Z</time>
      </trkpt>
      <trkpt lat="43.44606" lon="2.04168">
        <ele>291.502043</ele>
        <time>2020-12-03T14:57:47.378Z</time>
      </trkpt>
      <trkpt lat="43.44619" lon="2.04126">
        <ele>293.102528</ele>
        <time>2020-12-03T14:58:02.418Z</time>
      </trkpt>
      <trkpt lat="43.44622" lon="2.04059">
        <ele>295.387653</ele>
        <time>2020-12-03T14:58:24.061Z</time>
      </trkpt>
      <trkpt lat="43.44605" lon="2.03918">
        <ele>298.998038</ele>
        <time>2020-12-03T14:59:06.008Z</time>
      </trkpt>
      <trkpt lat="43.44595" lon="2.03856">
        <ele>300.625843</ele>
        <time>2020-12-03T14:59:23.144Z</time>
      </trkpt>
      <trkpt lat="43.4459" lon="2.03826">
        <ele>301.389252</ele>
        <time>2020-12-03T14:59:30.473Z</time>
      </trkpt>
      <trkpt lat="43.44583" lon="2.03807">
        <ele>301.981816</ele>
        <time>2020-12-03T14:59:36.262Z</time>
      </trkpt>
      <trkpt lat="43.44561" lon="2.03795">
        <ele>302.894468</ele>
        <time>2020-12-03T14:59:46.467Z</time>
      </trkpt>
      <trkpt lat="43.44541" lon="2.038">
        <ele>303.667987</ele>
        <time>2020-12-03T14:59:54.229Z</time>
      </trkpt>
      <trkpt lat="43.44449" lon="2.03849">
        <ele>307.448044</ele>
        <time>2020-12-03T15:00:34.154Z</time>
      </trkpt>
      <trkpt lat="43.44432" lon="2.03854">
        <ele>308.120182</ele>
        <time>2020-12-03T15:00:42.136Z</time>
      </trkpt>
      <trkpt lat="43.44427" lon="2.03855">
        <ele>308.32898</ele>
        <time>2020-12-03T15:00:45.156Z</time>
      </trkpt>
      <trkpt lat="43.44391" lon="2.03858">
        <ele>310.404488</ele>
        <time>2020-12-03T15:01:01.934Z</time>
      </trkpt>
      <trkpt lat="43.4437" lon="2.03866">
        <ele>311.70772</ele>
        <time>2020-12-03T15:01:13.268Z</time>
      </trkpt>
      <trkpt lat="43.44354" lon="2.03885">
        <ele>312.958304</ele>
        <time>2020-12-03T15:01:24.222Z</time>
      </trkpt>
      <trkpt lat="43.44348" lon="2.03907">
        <ele>313.977167</ele>
        <time>2020-12-03T15:01:33.654Z</time>
      </trkpt>
      <trkpt lat="43.44339" lon="2.0394">
        <ele>315.500556</ele>
        <time>2020-12-03T15:01:47.574Z</time>
      </trkpt>
      <trkpt lat="43.4432" lon="2.04008">
        <ele>318.663103</ele>
        <time>2020-12-03T15:02:16.542Z</time>
      </trkpt>
      <trkpt lat="43.44311" lon="2.04027">
        <ele>319.670185</ele>
        <time>2020-12-03T15:02:24.855Z</time>
      </trkpt>
      <trkpt lat="43.44307" lon="2.04036">
        <ele>320.197475</ele>
        <time>2020-12-03T15:02:29.881Z</time>
      </trkpt>
      <trkpt lat="43.4427" lon="2.04091">
        <ele>323.856407</ele>
        <time>2020-12-03T15:02:59.655Z</time>
      </trkpt>
      <trkpt lat="43.44197" lon="2.0418">
        <ele>330.357584</ele>
        <time>2020-12-03T15:03:55.771Z</time>
      </trkpt>
      <trkpt lat="43.44129" lon="2.04246">
        <ele>335.584059</ele>
        <time>2020-12-03T15:04:39.921Z</time>
      </trkpt>
      <trkpt lat="43.44017" lon="2.04289">
        <ele>342.681945</ele>
        <time>2020-12-03T15:05:41.117Z</time>
      </trkpt>
      <trkpt lat="43.44003" lon="2.04292">
        <ele>343.504802</ele>
        <time>2020-12-03T15:05:48.709Z</time>
      </trkpt>
      <trkpt lat="43.43985" lon="2.04281">
        <ele>344.592141</ele>
        <time>2020-12-03T15:05:58.497Z</time>
      </trkpt>
      <trkpt lat="43.43983" lon="2.04258">
        <ele>345.550356</ele>
        <time>2020-12-03T15:06:07.052Z</time>
      </trkpt>
      <trkpt lat="43.44013" lon="2.04197">
        <ele>348.530455</ele>
        <time>2020-12-03T15:06:33.430Z</time>
      </trkpt>
      <trkpt lat="43.4401" lon="2.04127">
        <ele>351.364657</ele>
        <time>2020-12-03T15:06:58.694Z</time>
      </trkpt>
      <trkpt lat="43.44023" lon="2.04048">
        <ele>354.522416</ele>
        <time>2020-12-03T15:07:27.824Z</time>
      </trkpt>
      <trkpt lat="43.44019" lon="2.03959">
        <ele>357.943911</ele>
        <time>2020-12-03T15:08:00.163Z</time>
      </trkpt>
      <trkpt lat="43.44017" lon="2.03938">
        <ele>358.770676</ele>
        <time>2020-12-03T15:08:07.777Z</time>
      </trkpt>
      <trkpt lat="43.44007" lon="2.03918">
        <ele>359.694175</ele>
        <time>2020-12-03T15:08:16.311Z</time>
      </trkpt>
      <trkpt lat="43.43959" lon="2.03879">
        <ele>362.420269</ele>
        <time>2020-12-03T15:08:42.326Z</time>
      </trkpt>
      <trkpt lat="43.43952" lon="2.03861">
        <ele>362.983502</ele>
        <time>2020-12-03T15:08:49.102Z</time>
      </trkpt>
      <trkpt lat="43.43978" lon="2.03802">
        <ele>364.923263</ele>
        <time>2020-12-03T15:09:11.441Z</time>
      </trkpt>
      <trkpt lat="43.43981" lon="2.03761">
        <ele>366.084768</ele>
        <time>2020-12-03T15:09:24.155Z</time>
      </trkpt>
      <trkpt lat="43.43974" lon="2.03735">
        <ele>366.846823</ele>
        <time>2020-12-03T15:09:32.838Z</time>
      </trkpt>
      <trkpt lat="43.43942" lon="2.03676">
        <ele>368.87726</ele>
        <time>2020-12-03T15:09:51.490Z</time>
      </trkpt>
      <trkpt lat="43.43942" lon="2.03676">
        <ele>368.884543</ele>
        <time>2020-12-03T15:09:51.759Z</time>
      </trkpt>
      <trkpt lat="43.43933" lon="2.03626">
        <ele>369.761907</ele>
        <time>2020-12-03T15:10:04.155Z</time>
      </trkpt>
      <trkpt lat="43.43929" lon="2.03611">
        <ele>370.041925</ele>
        <time>2020-12-03T15:10:09.137Z</time>
      </trkpt>
      <trkpt lat="43.43928" lon="2.03606">
        <ele>370.135792</ele>
        <time>2020-12-03T15:10:10.343Z</time>
      </trkpt>
      <trkpt lat="43.43924" lon="2.03592">
        <ele>370.389075</ele>
        <time>2020-12-03T15:10:13.378Z</time>
      </trkpt>
      <trkpt lat="43.43923" lon="2.03573">
        <ele>370.720167</ele>
        <time>2020-12-03T15:10:17.732Z</time>
      </trkpt>
      <trkpt lat="43.43942" lon="2.03531">
        <ele>371.561711</ele>
        <time>2020-12-03T15:10:29.252Z</time>
      </trkpt>
      <trkpt lat="43.43937" lon="2.03512">
        <ele>371.91456</ele>
        <time>2020-12-03T15:10:34.725Z</time>
      </trkpt>
      <trkpt lat="43.43926" lon="2.03495">
        <ele>372.301466</ele>
        <time>2020-12-03T15:10:39.210Z</time>
      </trkpt>
      <trkpt lat="43.43854" lon="2.03597">
        <ele>375.277879</ele>
        <time>2020-12-03T15:11:16.402Z</time>
      </trkpt>
      <trkpt lat="43.43822" lon="2.03656">
        <ele>376.962768</ele>
        <time>2020-12-03T15:11:37.115Z</time>
      </trkpt>
      <trkpt lat="43.43789" lon="2.03742">
        <ele>379.144432</ele>
        <time>2020-12-03T15:12:05.577Z</time>
      </trkpt>
      <trkpt lat="43.43769" lon="2.03795">
        <ele>380.441701</ele>
        <time>2020-12-03T15:12:23.279Z</time>
      </trkpt>
      <trkpt lat="43.43742" lon="2.03858">
        <ele>382.012021</ele>
        <time>2020-12-03T15:12:44.944Z</time>
      </trkpt>
      <trkpt lat="43.4363" lon="2.04046">
        <ele>385.602792</ele>
        <time>2020-12-03T15:13:40.865Z</time>
      </trkpt>
      <trkpt lat="43.43562" lon="2.04161">
        <ele>387.397857</ele>
        <time>2020-12-03T15:14:08.638Z</time>
      </trkpt>
      <trkpt lat="43.43554" lon="2.04202">
        <ele>388.066691</ele>
        <time>2020-12-03T15:14:16.333Z</time>
      </trkpt>
      <trkpt lat="43.43546" lon="2.04397">
        <ele>392.342822</ele>
        <time>2020-12-03T15:15:07.656Z</time>
      </trkpt>
      <trkpt lat="43.43547" lon="2.04502">
        <ele>397.143731</ele>
        <time>2020-12-03T15:15:47.420Z</time>
      </trkpt>
      <trkpt lat="43.43519" lon="2.04683">
        <ele>406.415572</ele>
        <time>2020-12-03T15:17:14.723Z</time>
      </trkpt>
      <trkpt lat="43.43496" lon="2.0476">
        <ele>410.978181</ele>
        <time>2020-12-03T15:17:50.967Z</time>
      </trkpt>
      <trkpt lat="43.43487" lon="2.04773">
        <ele>411.991746</ele>
        <time>2020-12-03T15:18:00.498Z</time>
      </trkpt>
      <trkpt lat="43.43479" lon="2.0478">
        <ele>412.715937</ele>
        <time>2020-12-03T15:18:05.818Z</time>
      </trkpt>
      <trkpt lat="43.43401" lon="2.0485">
        <ele>417.721195</ele>
        <time>2020-12-03T15:18:55.033Z</time>
      </trkpt>
      <trkpt lat="43.43321" lon="2.04935">
        <ele>421.731167</ele>
        <time>2020-12-03T15:19:34.113Z</time>
      </trkpt>
      <trkpt lat="43.43305" lon="2.04954">
        <ele>422.560309</ele>
        <time>2020-12-03T15:19:40.853Z</time>
      </trkpt>
      <trkpt lat="43.4326" lon="2.05007">
        <ele>424.616876</ele>
        <time>2020-12-03T15:19:58.132Z</time>
      </trkpt>
      <trkpt lat="43.43234" lon="2.05048">
        <ele>425.957277</ele>
        <time>2020-12-03T15:20:09.457Z</time>
      </trkpt>
      <trkpt lat="43.43136" lon="2.05259">
        <ele>437.52271</ele>
        <time>2020-12-03T15:21:40.405Z</time>
      </trkpt>
      <trkpt lat="43.4312" lon="2.05316">
        <ele>441.439914</ele>
        <time>2020-12-03T15:22:14.854Z</time>
      </trkpt>
      <trkpt lat="43.43115" lon="2.05351">
        <ele>443.737428</ele>
        <time>2020-12-03T15:22:41.193Z</time>
      </trkpt>
      <trkpt lat="43.43115" lon="2.05368">
        <ele>444.821723</ele>
        <time>2020-12-03T15:22:47.692Z</time>
      </trkpt>
      <trkpt lat="43.43118" lon="2.05383">
        <ele>446.076449</ele>
        <time>2020-12-03T15:22:57.889Z</time>
      </trkpt>
      <trkpt lat="43.43122" lon="2.05393">
        <ele>447.084047</ele>
        <time>2020-12-03T15:23:10.199Z</time>
      </trkpt>
      <trkpt lat="43.43155" lon="2.05483">
        <ele>455.252402</ele>
        <time>2020-12-03T15:24:15.696Z</time>
      </trkpt>
      <trkpt lat="43.43154" lon="2.05513">
        <ele>457.703039</ele>
        <time>2020-12-03T15:24:30.516Z</time>
      </trkpt>
      <trkpt lat="43.43144" lon="2.05527">
        <ele>459.290871</ele>
        <time>2020-12-03T15:24:47.534Z</time>
      </trkpt>
      <trkpt lat="43.43132" lon="2.05534">
        <ele>460.790541</ele>
        <time>2020-12-03T15:24:54.383Z</time>
      </trkpt>
      <trkpt lat="43.4312" lon="2.05533">
        <ele>462.145426</ele>
        <time>2020-12-03T15:25:03.129Z</time>
      </trkpt>
      <trkpt lat="43.4305" lon="2.0546">
        <ele>466.998286</ele>
        <time>2020-12-03T15:25:46.121Z</time>
      </trkpt>
      <trkpt lat="43.43029" lon="2.05449">
        <ele>467.738306</ele>
        <time>2020-12-03T15:25:53.088Z</time>
      </trkpt>
      <trkpt lat="43.42969" lon="2.05469">
        <ele>469.773932</ele>
        <time>2020-12-03T15:26:10.544Z</time>
      </trkpt>
      <trkpt lat="43.42953" lon="2.05486">
        <ele>470.472201</ele>
        <time>2020-12-03T15:26:16.875Z</time>
      </trkpt>
      <trkpt lat="43.42892" lon="2.05575">
        <ele>473.937873</ele>
        <time>2020-12-03T15:26:45.688Z</time>
      </trkpt>
      <trkpt lat="43.42818" lon="2.0563">
        <ele>477.319193</ele>
        <time>2020-12-03T15:27:23.854Z</time>
      </trkpt>
      <trkpt lat="43.42791" lon="2.05658">
        <ele>479.421412</ele>
        <time>2020-12-03T15:27:42.583Z</time>
      </trkpt>
      <trkpt lat="43.42773" lon="2.05691">
        <ele>482.145054</ele>
        <time>2020-12-03T15:28:00.839Z</time>
      </trkpt>
      <trkpt lat="43.42666" lon="2.05948">
        <ele>501.280145</ele>
        <time>2020-12-03T15:30:39.326Z</time>
      </trkpt>
      <trkpt lat="43.42653" lon="2.05958">
        <ele>502.466826</ele>
        <time>2020-12-03T15:30:47.499Z</time>
      </trkpt>
      <trkpt lat="43.42635" lon="2.05959">
        <ele>503.94726</ele>
        <time>2020-12-03T15:31:00.827Z</time>
      </trkpt>
      <trkpt lat="43.42624" lon="2.05951">
        <ele>504.992507</ele>
        <time>2020-12-03T15:31:07.346Z</time>
      </trkpt>
      <trkpt lat="43.42617" lon="2.05938">
        <ele>506.014042</ele>
        <time>2020-12-03T15:31:13.644Z</time>
      </trkpt>
      <trkpt lat="43.42614" lon="2.05927">
        <ele>506.670276</ele>
        <time>2020-12-03T15:31:20.969Z</time>
      </trkpt>
      <trkpt lat="43.42613" lon="2.05913">
        <ele>507.543465</ele>
        <time>2020-12-03T15:31:25.938Z</time>
      </trkpt>
      <trkpt lat="43.42629" lon="2.05716">
        <ele>513.830213</ele>
        <time>2020-12-03T15:32:31.429Z</time>
      </trkpt>
      <trkpt lat="43.42627" lon="2.05684">
        <ele>514.668087</ele>
        <time>2020-12-03T15:32:37.325Z</time>
      </trkpt>
      <trkpt lat="43.42619" lon="2.05664">
        <ele>515.258789</ele>
        <time>2020-12-03T15:32:41.750Z</time>
      </trkpt>
      <trkpt lat="43.42601" lon="2.05657">
        <ele>515.92581</ele>
        <time>2020-12-03T15:32:46.661Z</time>
      </trkpt>
      <trkpt lat="43.42561" lon="2.05681">
        <ele>517.046576</ele>
        <time>2020-12-03T15:32:59.264Z</time>
      </trkpt>
      <trkpt lat="43.42528" lon="2.05693">
        <ele>517.894052</ele>
        <time>2020-12-03T15:33:09.934Z</time>
      </trkpt>
      <trkpt lat="43.42455" lon="2.05699">
        <ele>519.73467</ele>
        <time>2020-12-03T15:33:36.008Z</time>
      </trkpt>
      <trkpt lat="43.42412" lon="2.05722">
        <ele>521.337036</ele>
        <time>2020-12-03T15:33:54.049Z</time>
      </trkpt>
      <trkpt lat="43.42286" lon="2.05826">
        <ele>529.495347</ele>
        <time>2020-12-03T15:35:09.043Z</time>
      </trkpt>
      <trkpt lat="43.42208" lon="2.05922">
        <ele>536.172789</ele>
        <time>2020-12-03T15:36:09.490Z</time>
      </trkpt>
      <trkpt lat="43.42173" lon="2.05955">
        <ele>538.924717</ele>
        <time>2020-12-03T15:36:33.276Z</time>
      </trkpt>
      <trkpt lat="43.42138" lon="2.0597">
        <ele>541.32897</ele>
        <time>2020-12-03T15:36:53.444Z</time>
      </trkpt>
      <trkpt lat="43.42061" lon="2.05968">
        <ele>545.499986</ele>
        <time>2020-12-03T15:37:30.710Z</time>
      </trkpt>
      <trkpt lat="43.42008" lon="2.05986">
        <ele>548.328465</ele>
        <time>2020-12-03T15:37:55.872Z</time>
      </trkpt>
      <trkpt lat="43.41984" lon="2.06">
        <ele>549.717018</ele>
        <time>2020-12-03T15:38:08.466Z</time>
      </trkpt>
      <trkpt lat="43.41966" lon="2.0602">
        <ele>550.912429</ele>
        <time>2020-12-03T15:38:20.399Z</time>
      </trkpt>
      <trkpt lat="43.41949" lon="2.06049">
        <ele>552.297592</ele>
        <time>2020-12-03T15:38:33.205Z</time>
      </trkpt>
      <trkpt lat="43.4192" lon="2.06124">
        <ele>555.34749</ele>
        <time>2020-12-03T15:39:00.987Z</time>
      </trkpt>
      <trkpt lat="43.41912" lon="2.06135">
        <ele>555.881503</ele>
        <time>2020-12-03T15:39:07.530Z</time>
      </trkpt>
      <trkpt lat="43.41905" lon="2.06142">
        <ele>556.324221</ele>
        <time>2020-12-03T15:39:11.146Z</time>
      </trkpt>
      <trkpt lat="43.41865" lon="2.06163">
        <ele>558.484176</ele>
        <time>2020-12-03T15:39:31.088Z</time>
      </trkpt>
      <trkpt lat="43.41841" lon="2.06167">
        <ele>559.647654</ele>
        <time>2020-12-03T15:39:42.888Z</time>
      </trkpt>
      <trkpt lat="43.41831" lon="2.06167">
        <ele>560.138905</ele>
        <time>2020-12-03T15:39:47.128Z</time>
      </trkpt>
      <trkpt lat="43.41821" lon="2.06164">
        <ele>560.565636</ele>
        <time>2020-12-03T15:39:51.540Z</time>
      </trkpt>
      <trkpt lat="43.4177" lon="2.06139">
        <ele>561.986698</ele>
        <time>2020-12-03T15:40:18.029Z</time>
      </trkpt>
      <trkpt lat="43.41742" lon="2.06135">
        <ele>562.73782</ele>
        <time>2020-12-03T15:40:29.076Z</time>
      </trkpt>
      <trkpt lat="43.4158" lon="2.06156">
        <ele>565.421836</ele>
        <time>2020-12-03T15:41:12.035Z</time>
      </trkpt>
      <trkpt lat="43.41539" lon="2.06147">
        <ele>565.555749</ele>
        <time>2020-12-03T15:41:21.579Z</time>
      </trkpt>
      <trkpt lat="43.41519" lon="2.06139">
        <ele>565.623661</ele>
        <time>2020-12-03T15:41:25.935Z</time>
      </trkpt>
      <trkpt lat="43.41512" lon="2.06136">
        <ele>565.647822</ele>
        <time>2020-12-03T15:41:27.820Z</time>
      </trkpt>
      <trkpt lat="43.41502" lon="2.06131">
        <ele>565.683529</ele>
        <time>2020-12-03T15:41:30.513Z</time>
      </trkpt>
      <trkpt lat="43.41492" lon="2.06124">
        <ele>565.719235</ele>
        <time>2020-12-03T15:41:32.815Z</time>
      </trkpt>
      <trkpt lat="43.41487" lon="2.06109">
        <ele>565.758704</ele>
        <time>2020-12-03T15:41:35.342Z</time>
      </trkpt>
      <trkpt lat="43.41487" lon="2.06097">
        <ele>565.810121</ele>
        <time>2020-12-03T15:41:37.598Z</time>
      </trkpt>
      <trkpt lat="43.4149" lon="2.06075">
        <ele>566.061769</ele>
        <time>2020-12-03T15:41:41.053Z</time>
      </trkpt>
      <trkpt lat="43.41489" lon="2.06055">
        <ele>566.284631</ele>
        <time>2020-12-03T15:41:44.252Z</time>
      </trkpt>
      <trkpt lat="43.41481" lon="2.06037">
        <ele>566.520268</ele>
        <time>2020-12-03T15:41:47.553Z</time>
      </trkpt>
      <trkpt lat="43.41422" lon="2.06002">
        <ele>567.499648</ele>
        <time>2020-12-03T15:42:05.266Z</time>
      </trkpt>
      <trkpt lat="43.41399" lon="2.05979">
        <ele>567.933765</ele>
        <time>2020-12-03T15:42:15.760Z</time>
      </trkpt>
      <trkpt lat="43.41359" lon="2.05921">
        <ele>569.383804</ele>
        <time>2020-12-03T15:42:38.453Z</time>
      </trkpt>
      <trkpt lat="43.41339" lon="2.05917">
        <ele>570.26999</ele>
        <time>2020-12-03T15:42:46.265Z</time>
      </trkpt>
      <trkpt lat="43.41316" lon="2.05934">
        <ele>571.424674</ele>
        <time>2020-12-03T15:42:56.966Z</time>
      </trkpt>
      <trkpt lat="43.41304" lon="2.05931">
        <ele>571.973002</ele>
        <time>2020-12-03T15:43:02.224Z</time>
      </trkpt>
      <trkpt lat="43.41276" lon="2.05904">
        <ele>573.509037</ele>
        <time>2020-12-03T15:43:17.625Z</time>
      </trkpt>
      <trkpt lat="43.41271" lon="2.05889">
        <ele>574.059121</ele>
        <time>2020-12-03T15:43:23.410Z</time>
      </trkpt>
      <trkpt lat="43.4127" lon="2.05838">
        <ele>575.701854</ele>
        <time>2020-12-03T15:43:41.358Z</time>
      </trkpt>
      <trkpt lat="43.41251" lon="2.05804">
        <ele>577.246239</ele>
        <time>2020-12-03T15:43:57.148Z</time>
      </trkpt>
      <trkpt lat="43.41249" lon="2.05792">
        <ele>577.767409</ele>
        <time>2020-12-03T15:44:01.797Z</time>
      </trkpt>
      <trkpt lat="43.4128" lon="2.05688">
        <ele>582.45873</ele>
        <time>2020-12-03T15:44:45.283Z</time>
      </trkpt>
      <trkpt lat="43.41281" lon="2.05672">
        <ele>583.133753</ele>
        <time>2020-12-03T15:44:51.589Z</time>
      </trkpt>
      <trkpt lat="43.41255" lon="2.05628">
        <ele>585.518561</ele>
        <time>2020-12-03T15:45:13.994Z</time>
      </trkpt>
      <trkpt lat="43.41268" lon="2.05514">
        <ele>588.777293</ele>
        <time>2020-12-03T15:45:52.262Z</time>
      </trkpt>
      <trkpt lat="43.41266" lon="2.05483">
        <ele>589.499734</ele>
        <time>2020-12-03T15:46:01.266Z</time>
      </trkpt>
      <trkpt lat="43.41258" lon="2.05462">
        <ele>590.032503</ele>
        <time>2020-12-03T15:46:06.639Z</time>
      </trkpt>
      <trkpt lat="43.4125" lon="2.05446">
        <ele>590.487599</ele>
        <time>2020-12-03T15:46:12.749Z</time>
      </trkpt>
      <trkpt lat="43.41242" lon="2.0544">
        <ele>590.748352</ele>
        <time>2020-12-03T15:46:14.316Z</time>
      </trkpt>
      <trkpt lat="43.41197" lon="2.05432">
        <ele>592.182003</ele>
        <time>2020-12-03T15:46:28.970Z</time>
      </trkpt>
      <trkpt lat="43.4115" lon="2.05437">
        <ele>593.210612</ele>
        <time>2020-12-03T15:46:43.959Z</time>
      </trkpt>
      <trkpt lat="43.41136" lon="2.05442">
        <ele>593.486102</ele>
        <time>2020-12-03T15:46:47.538Z</time>
      </trkpt>
      <trkpt lat="43.41093" lon="2.05455">
        <ele>594.305755</ele>
        <time>2020-12-03T15:47:00.199Z</time>
      </trkpt>
      <trkpt lat="43.41081" lon="2.05458">
        <ele>594.521727</ele>
        <time>2020-12-03T15:47:03.505Z</time>
      </trkpt>
      <trkpt lat="43.41063" lon="2.05463">
        <ele>594.862851</ele>
        <time>2020-12-03T15:47:08.724Z</time>
      </trkpt>
      <trkpt lat="43.41007" lon="2.05489">
        <ele>596.062742</ele>
        <time>2020-12-03T15:47:28.492Z</time>
      </trkpt>
      <trkpt lat="43.40944" lon="2.05562">
        <ele>599.240947</ele>
        <time>2020-12-03T15:48:02.364Z</time>
      </trkpt>
      <trkpt lat="43.40925" lon="2.05577">
        <ele>600.093371</ele>
        <time>2020-12-03T15:48:11.883Z</time>
      </trkpt>
      <trkpt lat="43.40758" lon="2.05652">
        <ele>607.012652</ele>
        <time>2020-12-03T15:49:30.043Z</time>
      </trkpt>
      <trkpt lat="43.40724" lon="2.05676">
        <ele>608.516337</ele>
        <time>2020-12-03T15:49:45.816Z</time>
      </trkpt>
      <trkpt lat="43.40691" lon="2.05709">
        <ele>610.080861</ele>
        <time>2020-12-03T15:50:02.108Z</time>
      </trkpt>
      <trkpt lat="43.4061" lon="2.05824">
        <ele>612.598546</ele>
        <time>2020-12-03T15:50:42.225Z</time>
      </trkpt>
      <trkpt lat="43.4061" lon="2.0585">
        <ele>613.010006</ele>
        <time>2020-12-03T15:50:48.121Z</time>
      </trkpt>
      <trkpt lat="43.40606" lon="2.05874">
        <ele>613.393161</ele>
        <time>2020-12-03T15:50:53.394Z</time>
      </trkpt>
      <trkpt lat="43.40419" lon="2.06299">
        <ele>616.318212</ele>
        <time>2020-12-03T15:52:29.609Z</time>
      </trkpt>
      <trkpt lat="43.40385" lon="2.06387">
        <ele>614.846474</ele>
        <time>2020-12-03T15:52:43.797Z</time>
      </trkpt>
      <trkpt lat="43.40381" lon="2.06404">
        <ele>614.449235</ele>
        <time>2020-12-03T15:52:46.279Z</time>
      </trkpt>
      <trkpt lat="43.40381" lon="2.06427">
        <ele>613.947566</ele>
        <time>2020-12-03T15:52:49.134Z</time>
      </trkpt>
      <trkpt lat="43.40396" lon="2.06451">
        <ele>613.252143</ele>
        <time>2020-12-03T15:52:53.219Z</time>
      </trkpt>
      <trkpt lat="43.40396" lon="2.06462">
        <ele>613.012873</ele>
        <time>2020-12-03T15:52:54.624Z</time>
      </trkpt>
      <trkpt lat="43.40389" lon="2.06464">
        <ele>612.804867</ele>
        <time>2020-12-03T15:52:55.663Z</time>
      </trkpt>
      <trkpt lat="43.40269" lon="2.06368">
        <ele>605.585694</ele>
        <time>2020-12-03T15:53:17.413Z</time>
      </trkpt>
      <trkpt lat="43.40224" lon="2.06317">
        <ele>601.590829</ele>
        <time>2020-12-03T15:53:25.912Z</time>
      </trkpt>
      <trkpt lat="43.40175" lon="2.06236">
        <ele>595.794919</ele>
        <time>2020-12-03T15:53:37.157Z</time>
      </trkpt>
      <trkpt lat="43.40104" lon="2.06063">
        <ele>583.630384</ele>
        <time>2020-12-03T15:53:58.081Z</time>
      </trkpt>
      <trkpt lat="43.40098" lon="2.0605">
        <ele>582.874384</ele>
        <time>2020-12-03T15:53:59.667Z</time>
      </trkpt>
      <trkpt lat="43.40054" lon="2.05941">
        <ele>577.740659</ele>
        <time>2020-12-03T15:54:13.613Z</time>
      </trkpt>
      <trkpt lat="43.40018" lon="2.05886">
        <ele>574.673819</ele>
        <time>2020-12-03T15:54:22.120Z</time>
      </trkpt>
      <trkpt lat="43.3998" lon="2.05851">
        <ele>572.549774</ele>
        <time>2020-12-03T15:54:29.961Z</time>
      </trkpt>
      <trkpt lat="43.39875" lon="2.05787">
        <ele>568.970075</ele>
        <time>2020-12-03T15:54:50.138Z</time>
      </trkpt>
      <trkpt lat="43.39838" lon="2.05773">
        <ele>567.75971</ele>
        <time>2020-12-03T15:54:56.799Z</time>
      </trkpt>
      <trkpt lat="43.39829" lon="2.05769">
        <ele>567.480075</ele>
        <time>2020-12-03T15:54:58.325Z</time>
      </trkpt>
      <trkpt lat="43.39817" lon="2.05764">
        <ele>566.816303</ele>
        <time>2020-12-03T15:55:00.528Z</time>
      </trkpt>
      <trkpt lat="43.3975" lon="2.05708">
        <ele>562.837496</ele>
        <time>2020-12-03T15:55:13.261Z</time>
      </trkpt>
      <trkpt lat="43.39654" lon="2.05593">
        <ele>555.597542</ele>
        <time>2020-12-03T15:55:32.723Z</time>
      </trkpt>
      <trkpt lat="43.39591" lon="2.05455">
        <ele>547.215456</ele>
        <time>2020-12-03T15:55:50.285Z</time>
      </trkpt>
      <trkpt lat="43.39566" lon="2.05393">
        <ele>544.260495</ele>
        <time>2020-12-03T15:55:58.054Z</time>
      </trkpt>
      <trkpt lat="43.39519" lon="2.05273">
        <ele>539.604935</ele>
        <time>2020-12-03T15:56:14.622Z</time>
      </trkpt>
      <trkpt lat="43.3948" lon="2.05207">
        <ele>536.85156</ele>
        <time>2020-12-03T15:56:25.904Z</time>
      </trkpt>
      <trkpt lat="43.39374" lon="2.05054">
        <ele>532.319736</ele>
        <time>2020-12-03T15:56:54.626Z</time>
      </trkpt>
      <trkpt lat="43.39319" lon="2.04994">
        <ele>528.524664</ele>
        <time>2020-12-03T15:57:06.672Z</time>
      </trkpt>
      <trkpt lat="43.39235" lon="2.0485">
        <ele>519.969114</ele>
        <time>2020-12-03T15:57:27.954Z</time>
      </trkpt>
      <trkpt lat="43.39107" lon="2.04589">
        <ele>498.350433</ele>
        <time>2020-12-03T15:58:01.933Z</time>
      </trkpt>
      <trkpt lat="43.39087" lon="2.04547">
        <ele>494.920286</ele>
        <time>2020-12-03T15:58:07.462Z</time>
      </trkpt>
      <trkpt lat="43.38988" lon="2.04345">
        <ele>481.264233</ele>
        <time>2020-12-03T15:58:34.516Z</time>
      </trkpt>
      <trkpt lat="43.38928" lon="2.04179">
        <ele>474.014618</ele>
        <time>2020-12-03T15:58:57.497Z</time>
      </trkpt>
      <trkpt lat="43.38886" lon="2.04018">
        <ele>469.705913</ele>
        <time>2020-12-03T15:59:19.966Z</time>
      </trkpt>
      <trkpt lat="43.38877" lon="2.03914">
        <ele>466.940741</ele>
        <time>2020-12-03T15:59:33.743Z</time>
      </trkpt>
      <trkpt lat="43.38931" lon="2.03512">
        <ele>455.236239</ele>
        <time>2020-12-03T16:00:25.385Z</time>
      </trkpt>
      <trkpt lat="43.3893" lon="2.03342">
        <ele>448.92145</ele>
        <time>2020-12-03T16:00:45.893Z</time>
      </trkpt>
      <trkpt lat="43.38947" lon="2.02956">
        <ele>433.131364</ele>
        <time>2020-12-03T16:01:31.710Z</time>
      </trkpt>
      <trkpt lat="43.38959" lon="2.02623">
        <ele>420.278822</ele>
        <time>2020-12-03T16:02:11.559Z</time>
      </trkpt>
      <trkpt lat="43.38977" lon="2.02181">
        <ele>406.069705</ele>
        <time>2020-12-03T16:03:06.616Z</time>
      </trkpt>
      <trkpt lat="43.38982" lon="2.02094">
        <ele>403.552167</ele>
        <time>2020-12-03T16:03:17.651Z</time>
      </trkpt>
      <trkpt lat="43.3899" lon="2.02009">
        <ele>401.111778</ele>
        <time>2020-12-03T16:03:28.694Z</time>
      </trkpt>
      <trkpt lat="43.39028" lon="2.01848">
        <ele>396.639464</ele>
        <time>2020-12-03T16:03:50.359Z</time>
      </trkpt>
      <trkpt lat="43.39051" lon="2.01594">
        <ele>389.692074</ele>
        <time>2020-12-03T16:04:23.134Z</time>
      </trkpt>
      <trkpt lat="43.39053" lon="2.0158">
        <ele>389.305438</ele>
        <time>2020-12-03T16:04:24.943Z</time>
      </trkpt>
      <trkpt lat="43.39058" lon="2.01562">
        <ele>388.770528</ele>
        <time>2020-12-03T16:04:27.429Z</time>
      </trkpt>
      <trkpt lat="43.39069" lon="2.01549">
        <ele>388.114276</ele>
        <time>2020-12-03T16:04:29.817Z</time>
      </trkpt>
      <trkpt lat="43.39109" lon="2.01524">
        <ele>385.776752</ele>
        <time>2020-12-03T16:04:37.214Z</time>
      </trkpt>
      <trkpt lat="43.3912" lon="2.01517">
        <ele>385.101207</ele>
        <time>2020-12-03T16:04:39.369Z</time>
      </trkpt>
      <trkpt lat="43.39152" lon="2.01494">
        <ele>383.159775</ele>
        <time>2020-12-03T16:04:45.368Z</time>
      </trkpt>
      <trkpt lat="43.39152" lon="2.01486">
        <ele>382.851159</ele>
        <time>2020-12-03T16:04:46.296Z</time>
      </trkpt>
      <trkpt lat="43.39147" lon="2.01478">
        <ele>382.409962</ele>
        <time>2020-12-03T16:04:47.559Z</time>
      </trkpt>
      <trkpt lat="43.39122" lon="2.01463">
        <ele>380.982029</ele>
        <time>2020-12-03T16:04:51.997Z</time>
      </trkpt>
      <trkpt lat="43.39121" lon="2.01453">
        <ele>380.563173</ele>
        <time>2020-12-03T16:04:53.206Z</time>
      </trkpt>
      <trkpt lat="43.3913" lon="2.01429">
        <ele>379.50379</ele>
        <time>2020-12-03T16:04:56.458Z</time>
      </trkpt>
      <trkpt lat="43.39154" lon="2.01404">
        <ele>377.587947</ele>
        <time>2020-12-03T16:05:01.251Z</time>
      </trkpt>
      <trkpt lat="43.39163" lon="2.01386">
        <ele>376.43817</ele>
        <time>2020-12-03T16:05:03.785Z</time>
      </trkpt>
      <trkpt lat="43.39167" lon="2.01362">
        <ele>375.205691</ele>
        <time>2020-12-03T16:05:06.508Z</time>
      </trkpt>
      <trkpt lat="43.39181" lon="2.01232">
        <ele>368.453514</ele>
        <time>2020-12-03T16:05:21.486Z</time>
      </trkpt>
      <trkpt lat="43.39201" lon="2.01121">
        <ele>361.884286</ele>
        <time>2020-12-03T16:05:34.522Z</time>
      </trkpt>
      <trkpt lat="43.39198" lon="2.01049">
        <ele>357.469712</ele>
        <time>2020-12-03T16:05:42.701Z</time>
      </trkpt>
      <trkpt lat="43.39218" lon="2.00911">
        <ele>348.434677</ele>
        <time>2020-12-03T16:05:58.117Z</time>
      </trkpt>
      <trkpt lat="43.39221" lon="2.00792">
        <ele>339.771308</ele>
        <time>2020-12-03T16:06:10.885Z</time>
      </trkpt>
      <trkpt lat="43.39225" lon="2.00774">
        <ele>338.448628</ele>
        <time>2020-12-03T16:06:12.939Z</time>
      </trkpt>
      <trkpt lat="43.39229" lon="2.00772">
        <ele>337.990082</ele>
        <time>2020-12-03T16:06:13.565Z</time>
      </trkpt>
      <trkpt lat="43.39243" lon="2.00771">
        <ele>336.595643</ele>
        <time>2020-12-03T16:06:15.734Z</time>
      </trkpt>
      <trkpt lat="43.39248" lon="2.00765">
        <ele>335.97453</ele>
        <time>2020-12-03T16:06:16.606Z</time>
      </trkpt>
      <trkpt lat="43.39251" lon="2.00701">
        <ele>331.640533</ele>
        <time>2020-12-03T16:06:23.800Z</time>
      </trkpt>
      <trkpt lat="43.39236" lon="2.00654">
        <ele>328.747399</ele>
        <time>2020-12-03T16:06:29.409Z</time>
      </trkpt>
      <trkpt lat="43.39215" lon="2.00637">
        <ele>326.906752</ele>
        <time>2020-12-03T16:06:32.875Z</time>
      </trkpt>
      <trkpt lat="43.39162" lon="2.00614">
        <ele>322.553558</ele>
        <time>2020-12-03T16:06:41.450Z</time>
      </trkpt>
      <trkpt lat="43.39148" lon="2.00604">
        <ele>321.365163</ele>
        <time>2020-12-03T16:06:44.010Z</time>
      </trkpt>
      <trkpt lat="43.39141" lon="2.006">
        <ele>320.764147</ele>
        <time>2020-12-03T16:06:45.221Z</time>
      </trkpt>
      <trkpt lat="43.3912" lon="2.00594">
        <ele>319.128001</ele>
        <time>2020-12-03T16:06:48.724Z</time>
      </trkpt>
      <trkpt lat="43.3912" lon="2.00594">
        <ele>319.120251</ele>
        <time>2020-12-03T16:06:48.805Z</time>
      </trkpt>
      <trkpt lat="43.39078" lon="2.00612">
        <ele>319.134764</ele>
        <time>2020-12-03T16:06:56.828Z</time>
      </trkpt>
      <trkpt lat="43.39058" lon="2.00606">
        <ele>319.230302</ele>
        <time>2020-12-03T16:07:01.043Z</time>
      </trkpt>
      <trkpt lat="43.39024" lon="2.00616">
        <ele>319.398214</ele>
        <time>2020-12-03T16:07:08.639Z</time>
      </trkpt>
      <trkpt lat="43.39006" lon="2.00611">
        <ele>319.489751</ele>
        <time>2020-12-03T16:07:12.721Z</time>
      </trkpt>
      <trkpt lat="43.39005" lon="2.0061">
        <ele>319.493145</ele>
        <time>2020-12-03T16:07:12.814Z</time>
      </trkpt>
      <trkpt lat="43.38999" lon="2.00596">
        <ele>319.54984</ele>
        <time>2020-12-03T16:07:18.211Z</time>
      </trkpt>
      <trkpt lat="43.38997" lon="2.00587">
        <ele>319.581877</ele>
        <time>2020-12-03T16:07:21.286Z</time>
      </trkpt>
      <trkpt lat="43.39002" lon="2.00565">
        <ele>319.662499</ele>
        <time>2020-12-03T16:07:27.122Z</time>
      </trkpt>
      <trkpt lat="43.39011" lon="2.00547">
        <ele>319.740806</ele>
        <time>2020-12-03T16:07:35.057Z</time>
      </trkpt>
      <trkpt lat="43.39076" lon="2.00453">
        <ele>326.27426</ele>
        <time>2020-12-03T16:08:29.628Z</time>
      </trkpt>
      <trkpt lat="43.39103" lon="2.0043">
        <ele>328.770788</ele>
        <time>2020-12-03T16:08:53.120Z</time>
      </trkpt>
      <trkpt lat="43.39116" lon="2.00422">
        <ele>329.862558</ele>
        <time>2020-12-03T16:09:05.449Z</time>
      </trkpt>
      <trkpt lat="43.39139" lon="2.00415">
        <ele>331.731724</ele>
        <time>2020-12-03T16:09:22.047Z</time>
      </trkpt>
      <trkpt lat="43.39162" lon="2.00411">
        <ele>333.59244</ele>
        <time>2020-12-03T16:09:37.494Z</time>
      </trkpt>
      <trkpt lat="43.39239" lon="2.00397">
        <ele>337.051156</ele>
        <time>2020-12-03T16:10:20.926Z</time>
      </trkpt>
      <trkpt lat="43.3927" lon="2.00392">
        <ele>338.382415</ele>
        <time>2020-12-03T16:10:34.547Z</time>
      </trkpt>
      <trkpt lat="43.39283" lon="2.00378">
        <ele>339.103267</ele>
        <time>2020-12-03T16:10:39.423Z</time>
      </trkpt>
      <trkpt lat="43.39311" lon="2.00344">
        <ele>340.678913</ele>
        <time>2020-12-03T16:10:51.055Z</time>
      </trkpt>
      <trkpt lat="43.39332" lon="2.00306">
        <ele>341.432309</ele>
        <time>2020-12-03T16:11:00.549Z</time>
      </trkpt>
      <trkpt lat="43.39327" lon="2.00295">
        <ele>341.27974</ele>
        <time>2020-12-03T16:11:03.098Z</time>
      </trkpt>
      <trkpt lat="43.39282" lon="2.00248">
        <ele>340.304607</ele>
        <time>2020-12-03T16:11:15.020Z</time>
      </trkpt>
      <trkpt lat="43.39277" lon="2.00241">
        <ele>340.189489</ele>
        <time>2020-12-03T16:11:16.160Z</time>
      </trkpt>
      <trkpt lat="43.39251" lon="2.00197">
        <ele>339.474928</ele>
        <time>2020-12-03T16:11:23.533Z</time>
      </trkpt>
      <trkpt lat="43.39232" lon="2.00144">
        <ele>338.745075</ele>
        <time>2020-12-03T16:11:30.854Z</time>
      </trkpt>
      <trkpt lat="43.39228" lon="2.00111">
        <ele>337.784368</ele>
        <time>2020-12-03T16:11:35.002Z</time>
      </trkpt>
      <trkpt lat="43.39225" lon="2.00112">
        <ele>337.616853</ele>
        <time>2020-12-03T16:11:35.428Z</time>
      </trkpt>
      <trkpt lat="43.39211" lon="2.00111">
        <ele>336.827964</ele>
        <time>2020-12-03T16:11:37.867Z</time>
      </trkpt>
      <trkpt lat="43.39203" lon="2.00105">
        <ele>336.298426</ele>
        <time>2020-12-03T16:11:39.460Z</time>
      </trkpt>
      <trkpt lat="43.39202" lon="2.00093">
        <ele>335.814223</ele>
        <time>2020-12-03T16:11:40.921Z</time>
      </trkpt>
      <trkpt lat="43.39224" lon="2.00061">
        <ele>333.950352</ele>
        <time>2020-12-03T16:11:46.262Z</time>
      </trkpt>
      <trkpt lat="43.39229" lon="2.0004">
        <ele>333.031726</ele>
        <time>2020-12-03T16:11:48.827Z</time>
      </trkpt>
      <trkpt lat="43.39228" lon="2.00021">
        <ele>332.243668</ele>
        <time>2020-12-03T16:11:50.989Z</time>
      </trkpt>
      <trkpt lat="43.39183" lon="1.99927">
        <ele>327.505298</ele>
        <time>2020-12-03T16:12:03.798Z</time>
      </trkpt>
      <trkpt lat="43.3916" lon="1.99886">
        <ele>325.19395</ele>
        <time>2020-12-03T16:12:09.787Z</time>
      </trkpt>
      <trkpt lat="43.3915" lon="1.99861">
        <ele>323.897005</ele>
        <time>2020-12-03T16:12:13.155Z</time>
      </trkpt>
      <trkpt lat="43.39144" lon="1.99847">
        <ele>323.170856</ele>
        <time>2020-12-03T16:12:14.972Z</time>
      </trkpt>
      <trkpt lat="43.39121" lon="1.99792">
        <ele>320.362752</ele>
        <time>2020-12-03T16:12:22.366Z</time>
      </trkpt>
      <trkpt lat="43.39091" lon="1.99739">
        <ele>317.360197</ele>
        <time>2020-12-03T16:12:30.413Z</time>
      </trkpt>
      <trkpt lat="43.39065" lon="1.99718">
        <ele>316.3168</ele>
        <time>2020-12-03T16:12:35.550Z</time>
      </trkpt>
      <trkpt lat="43.39045" lon="1.9971">
        <ele>315.656559</ele>
        <time>2020-12-03T16:12:39.153Z</time>
      </trkpt>
      <trkpt lat="43.39038" lon="1.9971">
        <ele>315.451334</ele>
        <time>2020-12-03T16:12:40.417Z</time>
      </trkpt>
      <trkpt lat="43.39031" lon="1.99711">
        <ele>315.2271</ele>
        <time>2020-12-03T16:12:41.675Z</time>
      </trkpt>
      <trkpt lat="43.38945" lon="1.99745">
        <ele>312.400987</ele>
        <time>2020-12-03T16:12:58.715Z</time>
      </trkpt>
      <trkpt lat="43.3882" lon="1.99872">
        <ele>307.017177</ele>
        <time>2020-12-03T16:13:27.035Z</time>
      </trkpt>
      <trkpt lat="43.38787" lon="1.99866">
        <ele>305.866214</ele>
        <time>2020-12-03T16:13:32.582Z</time>
      </trkpt>
      <trkpt lat="43.38751" lon="1.99848">
        <ele>304.094165</ele>
        <time>2020-12-03T16:13:38.882Z</time>
      </trkpt>
      <trkpt lat="43.38685" lon="1.9983">
        <ele>300.108379</ele>
        <time>2020-12-03T16:13:49.891Z</time>
      </trkpt>
      <trkpt lat="43.38624" lon="1.99824">
        <ele>296.554939</ele>
        <time>2020-12-03T16:13:59.497Z</time>
      </trkpt>
      <trkpt lat="43.38585" lon="1.99837">
        <ele>294.323257</ele>
        <time>2020-12-03T16:14:06.047Z</time>
      </trkpt>
      <trkpt lat="43.38552" lon="1.99868">
        <ele>292.677466</ele>
        <time>2020-12-03T16:14:12.612Z</time>
      </trkpt>
      <trkpt lat="43.38514" lon="1.99892">
        <ele>290.916748</ele>
        <time>2020-12-03T16:14:19.702Z</time>
      </trkpt>
      <trkpt lat="43.38419" lon="1.99899">
        <ele>287.025513</ele>
        <time>2020-12-03T16:14:36.632Z</time>
      </trkpt>
      <trkpt lat="43.38374" lon="1.99903">
        <ele>286.143119</ele>
        <time>2020-12-03T16:14:45.016Z</time>
      </trkpt>
      <trkpt lat="43.38357" lon="1.9991">
        <ele>285.794714</ele>
        <time>2020-12-03T16:14:48.400Z</time>
      </trkpt>
      <trkpt lat="43.3823" lon="2.00009">
        <ele>283.103712</ele>
        <time>2020-12-03T16:15:17.373Z</time>
      </trkpt>
      <trkpt lat="43.3823" lon="2.0001">
        <ele>283.09614</ele>
        <time>2020-12-03T16:15:17.460Z</time>
      </trkpt>
      <trkpt lat="43.38201" lon="2.00042">
        <ele>282.58461</ele>
        <time>2020-12-03T16:15:25.019Z</time>
      </trkpt>
      <trkpt lat="43.38174" lon="2.00085">
        <ele>282.007609</ele>
        <time>2020-12-03T16:15:33.573Z</time>
      </trkpt>
      <trkpt lat="43.38139" lon="2.00126">
        <ele>281.354303</ele>
        <time>2020-12-03T16:15:43.146Z</time>
      </trkpt>
      <trkpt lat="43.38099" lon="2.00161">
        <ele>280.130176</ele>
        <time>2020-12-03T16:15:52.146Z</time>
      </trkpt>
      <trkpt lat="43.38086" lon="2.00167">
        <ele>279.593611</ele>
        <time>2020-12-03T16:15:54.798Z</time>
      </trkpt>
      <trkpt lat="43.3806" lon="2.00173">
        <ele>278.65047</ele>
        <time>2020-12-03T16:15:59.527Z</time>
      </trkpt>
      <trkpt lat="43.38044" lon="2.00173">
        <ele>278.052851</ele>
        <time>2020-12-03T16:16:02.415Z</time>
      </trkpt>
      <trkpt lat="43.38027" lon="2.00167">
        <ele>277.39604</ele>
        <time>2020-12-03T16:16:05.644Z</time>
      </trkpt>
      <trkpt lat="43.37911" lon="2.00105">
        <ele>271.355299</ele>
        <time>2020-12-03T16:16:26.341Z</time>
      </trkpt>
      <trkpt lat="43.37887" lon="2.001">
        <ele>269.627318</ele>
        <time>2020-12-03T16:16:30.136Z</time>
      </trkpt>
      <trkpt lat="43.37838" lon="2.00102">
        <ele>266.120422</ele>
        <time>2020-12-03T16:16:37.785Z</time>
      </trkpt>
      <trkpt lat="43.37817" lon="2.00108">
        <ele>264.572795</ele>
        <time>2020-12-03T16:16:41.087Z</time>
      </trkpt>
      <trkpt lat="43.37806" lon="2.0011">
        <ele>263.813432</ele>
        <time>2020-12-03T16:16:42.758Z</time>
      </trkpt>
      <trkpt lat="43.37639" lon="2.00154">
        <ele>250.22933</ele>
        <time>2020-12-03T16:17:08.718Z</time>
      </trkpt>
      <trkpt lat="43.37441" lon="2.00203">
        <ele>235.766683</ele>
        <time>2020-12-03T16:17:40.227Z</time>
      </trkpt>
      <trkpt lat="43.3739" lon="2.00211">
        <ele>232.452683</ele>
        <time>2020-12-03T16:17:48.492Z</time>
      </trkpt>
      <trkpt lat="43.37303" lon="2.00209">
        <ele>227.153595</ele>
        <time>2020-12-03T16:18:02.406Z</time>
      </trkpt>
      <trkpt lat="43.37256" lon="2.00203">
        <ele>224.289633</ele>
        <time>2020-12-03T16:18:10.043Z</time>
      </trkpt>
      <trkpt lat="43.37197" lon="2.00179">
        <ele>221.18232</ele>
        <time>2020-12-03T16:18:20.161Z</time>
      </trkpt>
      <trkpt lat="43.37144" lon="2.00156">
        <ele>218.600397</ele>
        <time>2020-12-03T16:18:29.312Z</time>
      </trkpt>
      <trkpt lat="43.37111" lon="2.00126">
        <ele>216.764572</ele>
        <time>2020-12-03T16:18:35.985Z</time>
      </trkpt>
      <trkpt lat="43.37081" lon="2.00089">
        <ele>214.985825</ele>
        <time>2020-12-03T16:18:43.013Z</time>
      </trkpt>
      <trkpt lat="43.3705" lon="2.00047">
        <ele>214.367538</ele>
        <time>2020-12-03T16:18:51.059Z</time>
      </trkpt>
      <trkpt lat="43.37028" lon="2.00016">
        <ele>213.921653</ele>
        <time>2020-12-03T16:18:57.028Z</time>
      </trkpt>
      <trkpt lat="43.3702" lon="2.00005">
        <ele>213.762077</ele>
        <time>2020-12-03T16:18:59.351Z</time>
      </trkpt>
      <trkpt lat="43.37013" lon="2.00001">
        <ele>213.652935</ele>
        <time>2020-12-03T16:19:00.932Z</time>
      </trkpt>
      <trkpt lat="43.37008" lon="1.99999">
        <ele>213.57506</ele>
        <time>2020-12-03T16:19:02.128Z</time>
      </trkpt>
      <trkpt lat="43.37005" lon="1.99999">
        <ele>213.530817</ele>
        <time>2020-12-03T16:19:02.726Z</time>
      </trkpt>
      <trkpt lat="43.37" lon="1.99999">
        <ele>213.459566</ele>
        <time>2020-12-03T16:19:03.575Z</time>
      </trkpt>
      <trkpt lat="43.36962" lon="2.00013">
        <ele>212.899235</ele>
        <time>2020-12-03T16:19:12.143Z</time>
      </trkpt>
      <trkpt lat="43.36939" lon="1.99989">
        <ele>212.487138</ele>
        <time>2020-12-03T16:19:20.207Z</time>
      </trkpt>
      <trkpt lat="43.36924" lon="1.9993">
        <ele>213.399523</ele>
        <time>2020-12-03T16:19:32.676Z</time>
      </trkpt>
      <trkpt lat="43.36853" lon="1.99768">
        <ele>216.167407</ele>
        <time>2020-12-03T16:20:22.137Z</time>
      </trkpt>
      <trkpt lat="43.36845" lon="1.99733">
        <ele>217.023713</ele>
        <time>2020-12-03T16:20:30.246Z</time>
      </trkpt>
      <trkpt lat="43.36844" lon="1.99722">
        <ele>217.296265</ele>
        <time>2020-12-03T16:20:34.784Z</time>
      </trkpt>
      <trkpt lat="43.36844" lon="1.99712">
        <ele>217.512962</ele>
        <time>2020-12-03T16:20:37.391Z</time>
      </trkpt>
      <trkpt lat="43.36837" lon="1.99681">
        <ele>218.278327</ele>
        <time>2020-12-03T16:20:45.745Z</time>
      </trkpt>
      <trkpt lat="43.36826" lon="1.99667">
        <ele>218.751857</ele>
        <time>2020-12-03T16:20:52.479Z</time>
      </trkpt>
      <trkpt lat="43.36817" lon="1.99664">
        <ele>219.042693</ele>
        <time>2020-12-03T16:20:55.835Z</time>
      </trkpt>
      <trkpt lat="43.3681" lon="1.99669">
        <ele>219.287747</ele>
        <time>2020-12-03T16:20:57.900Z</time>
      </trkpt>
      <trkpt lat="43.36794" lon="1.99675">
        <ele>219.825424</ele>
        <time>2020-12-03T16:21:06.018Z</time>
      </trkpt>
      <trkpt lat="43.36759" lon="1.99644">
        <ele>221.172028</ele>
        <time>2020-12-03T16:21:23.145Z</time>
      </trkpt>
      <trkpt lat="43.36751" lon="1.99635">
        <ele>221.500915</ele>
        <time>2020-12-03T16:21:26.414Z</time>
      </trkpt>
      <trkpt lat="43.36698" lon="1.99577">
        <ele>223.735786</ele>
        <time>2020-12-03T16:21:53.732Z</time>
      </trkpt>
      <trkpt lat="43.36677" lon="1.99553">
        <ele>224.635443</ele>
        <time>2020-12-03T16:22:03.995Z</time>
      </trkpt>
      <trkpt lat="43.36637" lon="1.99491">
        <ele>226.67904</ele>
        <time>2020-12-03T16:22:29.066Z</time>
      </trkpt>
      <trkpt lat="43.36593" lon="1.9948">
        <ele>227.928604</ele>
        <time>2020-12-03T16:22:46.521Z</time>
      </trkpt>
      <trkpt lat="43.36521" lon="1.9942">
        <ele>228.789296</ele>
        <time>2020-12-03T16:23:11.905Z</time>
      </trkpt>
      <trkpt lat="43.3648" lon="1.99394">
        <ele>229.248526</ele>
        <time>2020-12-03T16:23:22.446Z</time>
      </trkpt>
      <trkpt lat="43.36464" lon="1.99381">
        <ele>229.441197</ele>
        <time>2020-12-03T16:23:26.310Z</time>
      </trkpt>
      <trkpt lat="43.36441" lon="1.99395">
        <ele>229.628778</ele>
        <time>2020-12-03T16:23:31.572Z</time>
      </trkpt>
      <trkpt lat="43.364" lon="1.99403">
        <ele>229.095154</ele>
        <time>2020-12-03T16:23:40.099Z</time>
      </trkpt>
      <trkpt lat="43.36327" lon="1.99415">
        <ele>228.146675</ele>
        <time>2020-12-03T16:23:54.787Z</time>
      </trkpt>
      <trkpt lat="43.36305" lon="1.99418">
        <ele>227.858261</ele>
        <time>2020-12-03T16:23:58.939Z</time>
      </trkpt>
      <trkpt lat="43.36279" lon="1.99432">
        <ele>227.504028</ele>
        <time>2020-12-03T16:24:03.966Z</time>
      </trkpt>
      <trkpt lat="43.36251" lon="1.99448">
        <ele>226.575093</ele>
        <time>2020-12-03T16:24:09.376Z</time>
      </trkpt>
      <trkpt lat="43.36239" lon="1.9945">
        <ele>226.065518</ele>
        <time>2020-12-03T16:24:11.526Z</time>
      </trkpt>
      <trkpt lat="43.36222" lon="1.99452">
        <ele>225.309586</ele>
        <time>2020-12-03T16:24:14.743Z</time>
      </trkpt>
      <trkpt lat="43.36182" lon="1.99415">
        <ele>223.287347</ele>
        <time>2020-12-03T16:24:22.499Z</time>
      </trkpt>
      <trkpt lat="43.36137" lon="1.99373">
        <ele>220.975695</ele>
        <time>2020-12-03T16:24:31.325Z</time>
      </trkpt>
      <trkpt lat="43.36104" lon="1.99337">
        <ele>218.883378</ele>
        <time>2020-12-03T16:24:37.895Z</time>
      </trkpt>
      <trkpt lat="43.36099" lon="1.99321">
        <ele>218.009835</ele>
        <time>2020-12-03T16:24:39.800Z</time>
      </trkpt>
      <trkpt lat="43.36096" lon="1.99314">
        <ele>217.58572</ele>
        <time>2020-12-03T16:24:40.651Z</time>
      </trkpt>
      <trkpt lat="43.36092" lon="1.99253">
        <ele>214.545292</ele>
        <time>2020-12-03T16:24:47.304Z</time>
      </trkpt>
      <trkpt lat="43.36072" lon="1.99179">
        <ele>210.619735</ele>
        <time>2020-12-03T16:24:55.958Z</time>
      </trkpt>
      <trkpt lat="43.36047" lon="1.99143">
        <ele>208.159351</ele>
        <time>2020-12-03T16:25:01.299Z</time>
      </trkpt>
      <trkpt lat="43.36041" lon="1.99135">
        <ele>207.570754</ele>
        <time>2020-12-03T16:25:02.485Z</time>
      </trkpt>
      <trkpt lat="43.36022" lon="1.99114">
        <ele>206.094304</ele>
        <time>2020-12-03T16:25:06.450Z</time>
      </trkpt>
      <trkpt lat="43.36" lon="1.99108">
        <ele>204.821412</ele>
        <time>2020-12-03T16:25:09.754Z</time>
      </trkpt>
      <trkpt lat="43.35917" lon="1.99114">
        <ele>199.934901</ele>
        <time>2020-12-03T16:25:22.570Z</time>
      </trkpt>
      <trkpt lat="43.359" lon="1.99122">
        <ele>198.873973</ele>
        <time>2020-12-03T16:25:25.289Z</time>
      </trkpt>
      <trkpt lat="43.35863" lon="1.99171">
        <ele>196.281543</ele>
        <time>2020-12-03T16:25:33.735Z</time>
      </trkpt>
      <trkpt lat="43.35819" lon="1.99185">
        <ele>194.762429</ele>
        <time>2020-12-03T16:25:41.063Z</time>
      </trkpt>
      <trkpt lat="43.3579" lon="1.9918">
        <ele>193.771005</ele>
        <time>2020-12-03T16:25:46.002Z</time>
      </trkpt>
      <trkpt lat="43.35596" lon="1.99032">
        <ele>187.015166</ele>
        <time>2020-12-03T16:26:25.190Z</time>
      </trkpt>
      <trkpt lat="43.35496" lon="1.98944">
        <ele>183.335749</ele>
        <time>2020-12-03T16:26:45.507Z</time>
      </trkpt>
      <trkpt lat="43.35396" lon="1.98898">
        <ele>179.861614</ele>
        <time>2020-12-03T16:27:03.097Z</time>
      </trkpt>
      <trkpt lat="43.3525" lon="1.9879">
        <ele>174.743243</ele>
        <time>2020-12-03T16:27:31.506Z</time>
      </trkpt>
      <trkpt lat="43.35234" lon="1.98766">
        <ele>174.127179</ele>
        <time>2020-12-03T16:27:35.792Z</time>
      </trkpt>
      <trkpt lat="43.35215" lon="1.98705">
        <ele>173.305541</ele>
        <time>2020-12-03T16:27:44.544Z</time>
      </trkpt>
      <trkpt lat="43.35206" lon="1.98695">
        <ele>173.098548</ele>
        <time>2020-12-03T16:27:46.814Z</time>
      </trkpt>
      <trkpt lat="43.35158" lon="1.98676">
        <ele>172.252392</ele>
        <time>2020-12-03T16:27:56.196Z</time>
      </trkpt>
      <trkpt lat="43.35128" lon="1.98655">
        <ele>171.679483</ele>
        <time>2020-12-03T16:28:02.724Z</time>
      </trkpt>
      <trkpt lat="43.35125" lon="1.98652">
        <ele>171.614691</ele>
        <time>2020-12-03T16:28:03.478Z</time>
      </trkpt>
      <trkpt lat="43.35099" lon="1.98626">
        <ele>171.097421</ele>
        <time>2020-12-03T16:28:09.852Z</time>
      </trkpt>
      <trkpt lat="43.35074" lon="1.98622">
        <ele>170.812704</ele>
        <time>2020-12-03T16:28:14.766Z</time>
      </trkpt>
      <trkpt lat="43.34969" lon="1.98655">
        <ele>169.582728</ele>
        <time>2020-12-03T16:28:35.762Z</time>
      </trkpt>
      <trkpt lat="43.34966" lon="1.98655">
        <ele>169.548319</ele>
        <time>2020-12-03T16:28:36.285Z</time>
      </trkpt>
      <trkpt lat="43.34938" lon="1.98654">
        <ele>169.221423</ele>
        <time>2020-12-03T16:28:41.977Z</time>
      </trkpt>
      <trkpt lat="43.34891" lon="1.98627">
        <ele>168.658703</ele>
        <time>2020-12-03T16:28:52.038Z</time>
      </trkpt>
      <trkpt lat="43.34883" lon="1.9862">
        <ele>168.554723</ele>
        <time>2020-12-03T16:28:53.901Z</time>
      </trkpt>
      <trkpt lat="43.34815" lon="1.9856">
        <ele>167.661742</ele>
        <time>2020-12-03T16:29:09.926Z</time>
      </trkpt>
      <trkpt lat="43.34772" lon="1.98526">
        <ele>167.109487</ele>
        <time>2020-12-03T16:29:19.679Z</time>
      </trkpt>
      <trkpt lat="43.3475" lon="1.98518">
        <ele>166.75143</ele>
        <time>2020-12-03T16:29:24.110Z</time>
      </trkpt>
      <trkpt lat="43.34663" lon="1.98534">
        <ele>165.380925</ele>
        <time>2020-12-03T16:29:40.805Z</time>
      </trkpt>
      <trkpt lat="43.34586" lon="1.98572">
        <ele>164.082434</ele>
        <time>2020-12-03T16:29:55.807Z</time>
      </trkpt>
      <trkpt lat="43.34488" lon="1.98653">
        <ele>162.06925</ele>
        <time>2020-12-03T16:30:16.878Z</time>
      </trkpt>
      <trkpt lat="43.34438" lon="1.9868">
        <ele>161.166154</ele>
        <time>2020-12-03T16:30:27.067Z</time>
      </trkpt>
      <trkpt lat="43.34405" lon="1.98706">
        <ele>160.982449</ele>
        <time>2020-12-03T16:30:34.716Z</time>
      </trkpt>
      <trkpt lat="43.3438" lon="1.98728">
        <ele>160.840857</ele>
        <time>2020-12-03T16:30:40.791Z</time>
      </trkpt>
      <trkpt lat="43.34373" lon="1.98718">
        <ele>160.791891</ele>
        <time>2020-12-03T16:30:42.936Z</time>
      </trkpt>
      <trkpt lat="43.34363" lon="1.98707">
        <ele>160.731258</ele>
        <time>2020-12-03T16:30:45.583Z</time>
      </trkpt>
      <trkpt lat="43.34352" lon="1.98694">
        <ele>160.660259</ele>
        <time>2020-12-03T16:30:48.844Z</time>
      </trkpt>
      <trkpt lat="43.34331" lon="1.98685">
        <ele>160.559781</ele>
        <time>2020-12-03T16:30:53.351Z</time>
      </trkpt>
      <trkpt lat="43.34319" lon="1.98687">
        <ele>160.499604</ele>
        <time>2020-12-03T16:30:56.166Z</time>
      </trkpt>
      <trkpt lat="43.34212" lon="1.98729">
        <ele>160.809264</ele>
        <time>2020-12-03T16:31:22.968Z</time>
      </trkpt>
      <trkpt lat="43.3413" lon="1.9873">
        <ele>161.350141</ele>
        <time>2020-12-03T16:31:44.500Z</time>
      </trkpt>
      <trkpt lat="43.34105" lon="1.98717">
        <ele>161.5336</ele>
        <time>2020-12-03T16:31:51.905Z</time>
      </trkpt>
      <trkpt lat="43.33965" lon="1.98654">
        <ele>162.716186</ele>
        <time>2020-12-03T16:32:31.194Z</time>
      </trkpt>
      <trkpt lat="43.33885" lon="1.98584">
        <ele>162.86902</ele>
        <time>2020-12-03T16:32:54.490Z</time>
      </trkpt>
      <trkpt lat="43.33809" lon="1.98484">
        <ele>162.717145</ele>
        <time>2020-12-03T16:33:16.952Z</time>
      </trkpt>
      <trkpt lat="43.33709" lon="1.98379">
        <ele>161.416294</ele>
        <time>2020-12-03T16:33:42.027Z</time>
      </trkpt>
      <trkpt lat="43.33703" lon="1.98391">
        <ele>161.300704</ele>
        <time>2020-12-03T16:33:43.973Z</time>
      </trkpt>
      <trkpt lat="43.33677" lon="1.98425">
        <ele>160.896833</ele>
        <time>2020-12-03T16:33:50.952Z</time>
      </trkpt>
      <trkpt lat="43.3363" lon="1.98461">
        <ele>160.076134</ele>
        <time>2020-12-03T16:34:01.100Z</time>
      </trkpt>
      <trkpt lat="43.33516" lon="1.98482">
        <ele>158.072748</ele>
        <time>2020-12-03T16:34:22.544Z</time>
      </trkpt>
      <trkpt lat="43.33354" lon="1.98566">
        <ele>154.652869</ele>
        <time>2020-12-03T16:34:54.389Z</time>
      </trkpt>
      <trkpt lat="43.33292" lon="1.98563">
        <ele>153.578362</ele>
        <time>2020-12-03T16:35:05.617Z</time>
      </trkpt>
      <trkpt lat="43.33253" lon="1.98562">
        <ele>153.013454</ele>
        <time>2020-12-03T16:35:13.016Z</time>
      </trkpt>
      <trkpt lat="43.33214" lon="1.98545">
        <ele>152.444734</ele>
        <time>2020-12-03T16:35:20.568Z</time>
      </trkpt>
      <trkpt lat="43.33173" lon="1.9852">
        <ele>151.801706</ele>
        <time>2020-12-03T16:35:29.329Z</time>
      </trkpt>
      <trkpt lat="43.33113" lon="1.98466">
        <ele>151.573323</ele>
        <time>2020-12-03T16:35:43.868Z</time>
      </trkpt>
      <trkpt lat="43.33034" lon="1.9837">
        <ele>151.987482</ele>
        <time>2020-12-03T16:36:10.357Z</time>
      </trkpt>
      <trkpt lat="43.33019" lon="1.98344">
        <ele>152.080859</ele>
        <time>2020-12-03T16:36:17.109Z</time>
      </trkpt>
      <trkpt lat="43.33008" lon="1.9832">
        <ele>152.444755</ele>
        <time>2020-12-03T16:36:23.331Z</time>
      </trkpt>
      <trkpt lat="43.32996" lon="1.98288">
        <ele>153.086897</ele>
        <time>2020-12-03T16:36:31.697Z</time>
      </trkpt>
      <trkpt lat="43.33" lon="1.9826">
        <ele>153.592034</ele>
        <time>2020-12-03T16:36:38.299Z</time>
      </trkpt>
      <trkpt lat="43.33" lon="1.98248">
        <ele>153.812157</ele>
        <time>2020-12-03T16:36:41.846Z</time>
      </trkpt>
      <trkpt lat="43.32996" lon="1.98105">
        <ele>156.372344</ele>
        <time>2020-12-03T16:37:20.930Z</time>
      </trkpt>
      <trkpt lat="43.32984" lon="1.98009">
        <ele>158.502741</ele>
        <time>2020-12-03T16:37:48.879Z</time>
      </trkpt>
      <trkpt lat="43.32979" lon="1.97738">
        <ele>164.048634</ele>
        <time>2020-12-03T16:39:04.643Z</time>
      </trkpt>
      <trkpt lat="43.32954" lon="1.97575">
        <ele>166.802588</ele>
        <time>2020-12-03T16:39:45.286Z</time>
      </trkpt>
      <trkpt lat="43.32947" lon="1.97481">
        <ele>167.848448</ele>
        <time>2020-12-03T16:40:06.282Z</time>
      </trkpt>
      <trkpt lat="43.32929" lon="1.97371">
        <ele>169.100912</ele>
        <time>2020-12-03T16:40:31.013Z</time>
      </trkpt>
      <trkpt lat="43.32794" lon="1.97241">
        <ele>170.790704</ele>
        <time>2020-12-03T16:41:18.472Z</time>
      </trkpt>
      <trkpt lat="43.32763" lon="1.97191">
        <ele>170.99822</ele>
        <time>2020-12-03T16:41:30.753Z</time>
      </trkpt>
      <trkpt lat="43.3274" lon="1.97115">
        <ele>170.99419</ele>
        <time>2020-12-03T16:41:44.995Z</time>
      </trkpt>
      <trkpt lat="43.32729" lon="1.97095">
        <ele>170.992899</ele>
        <time>2020-12-03T16:41:49.366Z</time>
      </trkpt>
      <trkpt lat="43.32667" lon="1.97041">
        <ele>170.987966</ele>
        <time>2020-12-03T16:42:05.532Z</time>
      </trkpt>
      <trkpt lat="43.32652" lon="1.97019">
        <ele>170.954805</ele>
        <time>2020-12-03T16:42:10.234Z</time>
      </trkpt>
      <trkpt lat="43.32643" lon="1.96997">
        <ele>170.924481</ele>
        <time>2020-12-03T16:42:14.344Z</time>
      </trkpt>
      <trkpt lat="43.32626" lon="1.96909">
        <ele>170.818312</ele>
        <time>2020-12-03T16:42:28.961Z</time>
      </trkpt>
      <trkpt lat="43.32602" lon="1.96846">
        <ele>170.735622</ele>
        <time>2020-12-03T16:42:40.839Z</time>
      </trkpt>
      <trkpt lat="43.32601" lon="1.96804">
        <ele>170.741268</ele>
        <time>2020-12-03T16:42:48.278Z</time>
      </trkpt>
      <trkpt lat="43.3261" lon="1.96754">
        <ele>170.958174</ele>
        <time>2020-12-03T16:42:57.762Z</time>
      </trkpt>
      <trkpt lat="43.32607" lon="1.96732">
        <ele>171.050127</ele>
        <time>2020-12-03T16:43:01.892Z</time>
      </trkpt>
      <trkpt lat="43.32596" lon="1.96719">
        <ele>171.132389</ele>
        <time>2020-12-03T16:43:05.598Z</time>
      </trkpt>
      <trkpt lat="43.32555" lon="1.96692">
        <ele>171.398407</ele>
        <time>2020-12-03T16:43:18.147Z</time>
      </trkpt>
      <trkpt lat="43.32545" lon="1.96678">
        <ele>171.480819</ele>
        <time>2020-12-03T16:43:21.967Z</time>
      </trkpt>
      <trkpt lat="43.32554" lon="1.96537">
        <ele>171.970232</ele>
        <time>2020-12-03T16:43:49.601Z</time>
      </trkpt>
      <trkpt lat="43.32554" lon="1.96508">
        <ele>172.053744</ele>
        <time>2020-12-03T16:43:55.152Z</time>
      </trkpt>
      <trkpt lat="43.32534" lon="1.96491">
        <ele>172.147537</ele>
        <time>2020-12-03T16:44:00.871Z</time>
      </trkpt>
      <trkpt lat="43.32516" lon="1.96464">
        <ele>172.25406</ele>
        <time>2020-12-03T16:44:07.359Z</time>
      </trkpt>
      <trkpt lat="43.3248" lon="1.96391">
        <ele>172.444072</ele>
        <time>2020-12-03T16:44:22.784Z</time>
      </trkpt>
      <trkpt lat="43.32447" lon="1.96343">
        <ele>172.403575</ele>
        <time>2020-12-03T16:44:33.795Z</time>
      </trkpt>
      <trkpt lat="43.32362" lon="1.96248">
        <ele>172.310091</ele>
        <time>2020-12-03T16:44:58.955Z</time>
      </trkpt>
      <trkpt lat="43.32361" lon="1.96244">
        <ele>172.307216</ele>
        <time>2020-12-03T16:44:59.623Z</time>
      </trkpt>
      <trkpt lat="43.32358" lon="1.96234">
        <ele>172.283572</ele>
        <time>2020-12-03T16:45:01.504Z</time>
      </trkpt>
      <trkpt lat="43.32362" lon="1.96207">
        <ele>172.133182</ele>
        <time>2020-12-03T16:45:05.965Z</time>
      </trkpt>
      <trkpt lat="43.324" lon="1.9612">
        <ele>171.575029</ele>
        <time>2020-12-03T16:45:22.235Z</time>
      </trkpt>
      <trkpt lat="43.324" lon="1.96119">
        <ele>171.572718</ele>
        <time>2020-12-03T16:45:22.277Z</time>
      </trkpt>
      <trkpt lat="43.3241" lon="1.96072">
        <ele>171.306086</ele>
        <time>2020-12-03T16:45:29.907Z</time>
      </trkpt>
      <trkpt lat="43.32455" lon="1.96043">
        <ele>170.907054</ele>
        <time>2020-12-03T16:45:39.961Z</time>
      </trkpt>
      <trkpt lat="43.32497" lon="1.96009">
        <ele>170.157496</ele>
        <time>2020-12-03T16:45:49.542Z</time>
      </trkpt>
      <trkpt lat="43.3253" lon="1.95975">
        <ele>169.509866</ele>
        <time>2020-12-03T16:45:57.778Z</time>
      </trkpt>
      <trkpt lat="43.32548" lon="1.95951">
        <ele>169.124514</ele>
        <time>2020-12-03T16:46:02.635Z</time>
      </trkpt>
      <trkpt lat="43.32542" lon="1.95943">
        <ele>169.001578</ele>
        <time>2020-12-03T16:46:04.172Z</time>
      </trkpt>
      <trkpt lat="43.32483" lon="1.95879">
        <ele>167.870389</ele>
        <time>2020-12-03T16:46:19.125Z</time>
      </trkpt>
      <trkpt lat="43.32456" lon="1.95877">
        <ele>167.501978</ele>
        <time>2020-12-03T16:46:24.479Z</time>
      </trkpt>
      <trkpt lat="43.324" lon="1.95916">
        <ele>166.642957</ele>
        <time>2020-12-03T16:46:37.195Z</time>
      </trkpt>
      <trkpt lat="43.32286" lon="1.96041">
        <ele>165.915369</ele>
        <time>2020-12-03T16:47:06.829Z</time>
      </trkpt>
      <trkpt lat="43.32269" lon="1.96041">
        <ele>165.962416</ele>
        <time>2020-12-03T16:47:11.097Z</time>
      </trkpt>
      <trkpt lat="43.32261" lon="1.96031">
        <ele>165.992086</ele>
        <time>2020-12-03T16:47:13.354Z</time>
      </trkpt>
      <trkpt lat="43.32255" lon="1.96019">
        <ele>166.02188</ele>
        <time>2020-12-03T16:47:15.916Z</time>
      </trkpt>
      <trkpt lat="43.32245" lon="1.96002">
        <ele>166.066121</ele>
        <time>2020-12-03T16:47:21.384Z</time>
      </trkpt>
      <trkpt lat="43.32235" lon="1.95993">
        <ele>166.099193</ele>
        <time>2020-12-03T16:47:24.720Z</time>
      </trkpt>
      <trkpt lat="43.32215" lon="1.95981">
        <ele>166.159197</ele>
        <time>2020-12-03T16:47:31.934Z</time>
      </trkpt>
      <trkpt lat="43.32198" lon="1.95969">
        <ele>166.341888</ele>
        <time>2020-12-03T16:47:37.245Z</time>
      </trkpt>
      <trkpt lat="43.3219" lon="1.95963">
        <ele>166.750958</ele>
        <time>2020-12-03T16:47:40.720Z</time>
      </trkpt>
      <trkpt lat="43.32161" lon="1.95935">
        <ele>168.22994</ele>
        <time>2020-12-03T16:47:54.619Z</time>
      </trkpt>
      <trkpt lat="43.32157" lon="1.95927">
        <ele>168.535132</ele>
        <time>2020-12-03T16:47:57.902Z</time>
      </trkpt>
      <trkpt lat="43.32152" lon="1.95919">
        <ele>168.840463</ele>
        <time>2020-12-03T16:48:01.327Z</time>
      </trkpt>
      <trkpt lat="43.32142" lon="1.95898">
        <ele>169.596864</ele>
        <time>2020-12-03T16:48:08.100Z</time>
      </trkpt>
      <trkpt lat="43.32141" lon="1.95895">
        <ele>169.727849</ele>
        <time>2020-12-03T16:48:09.566Z</time>
      </trkpt>
      <trkpt lat="43.32129" lon="1.95869">
        <ele>170.656422</ele>
        <time>2020-12-03T16:48:20.434Z</time>
      </trkpt>
      <trkpt lat="43.3208" lon="1.95833">
        <ele>172.974757</ele>
        <time>2020-12-03T16:48:46.041Z</time>
      </trkpt>
      <trkpt lat="43.32069" lon="1.95825">
        <ele>173.496746</ele>
        <time>2020-12-03T16:48:53.595Z</time>
      </trkpt>
      <trkpt lat="43.32056" lon="1.95814">
        <ele>174.356915</ele>
        <time>2020-12-03T16:49:00.461Z</time>
      </trkpt>
      <trkpt lat="43.32033" lon="1.95787">
        <ele>176.360338</ele>
        <time>2020-12-03T16:49:17.895Z</time>
      </trkpt>
      <trkpt lat="43.32023" lon="1.95774">
        <ele>177.241689</ele>
        <time>2020-12-03T16:49:26.771Z</time>
      </trkpt>
      <trkpt lat="43.32017" lon="1.95763">
        <ele>177.905308</ele>
        <time>2020-12-03T16:49:32.878Z</time>
      </trkpt>
      <trkpt lat="43.31993" lon="1.9573">
        <ele>180.115052</ele>
        <time>2020-12-03T16:49:51.705Z</time>
      </trkpt>
      <trkpt lat="43.31963" lon="1.95702">
        <ele>182.493357</ele>
        <time>2020-12-03T16:50:13.957Z</time>
      </trkpt>
      <trkpt lat="43.31956" lon="1.95699">
        <ele>182.972956</ele>
        <time>2020-12-03T16:50:17.983Z</time>
      </trkpt>
      <trkpt lat="43.31943" lon="1.95694">
        <ele>183.883082</ele>
        <time>2020-12-03T16:50:26.094Z</time>
      </trkpt>
      <trkpt lat="43.31941" lon="1.95694">
        <ele>183.9758</ele>
        <time>2020-12-03T16:50:27.450Z</time>
      </trkpt>
      <trkpt lat="43.31935" lon="1.95693">
        <ele>184.381297</ele>
        <time>2020-12-03T16:50:32.034Z</time>
      </trkpt>
      <trkpt lat="43.31921" lon="1.9569">
        <ele>185.299242</ele>
        <time>2020-12-03T16:50:37.653Z</time>
      </trkpt>
      <trkpt lat="43.3191" lon="1.95688">
        <ele>185.79769</ele>
        <time>2020-12-03T16:50:42.699Z</time>
      </trkpt>
      <trkpt lat="43.31902" lon="1.95686">
        <ele>186.080985</ele>
        <time>2020-12-03T16:50:49.919Z</time>
      </trkpt>
      <trkpt lat="43.31874" lon="1.95673">
        <ele>187.150146</ele>
        <time>2020-12-03T16:51:02.155Z</time>
      </trkpt>
      <trkpt lat="43.31853" lon="1.95638">
        <ele>188.334278</ele>
        <time>2020-12-03T16:51:17.369Z</time>
      </trkpt>
      <trkpt lat="43.31848" lon="1.95627">
        <ele>188.685006</ele>
        <time>2020-12-03T16:51:24.656Z</time>
      </trkpt>
      <trkpt lat="43.31888" lon="1.95612">
        <ele>190.184119</ele>
        <time>2020-12-03T16:51:40.750Z</time>
      </trkpt>
      <trkpt lat="43.31892" lon="1.9561">
        <ele>190.317337</ele>
        <time>2020-12-03T16:51:41.470Z</time>
      </trkpt>
      <trkpt lat="43.3191" lon="1.95601">
        <ele>191.02198</ele>
        <time>2020-12-03T16:51:47.089Z</time>
      </trkpt>
      <trkpt lat="43.31932" lon="1.95585">
        <ele>191.920519</ele>
        <time>2020-12-03T16:51:53.990Z</time>
      </trkpt>
      <trkpt lat="43.31941" lon="1.95576">
        <ele>191.64619</ele>
        <time>2020-12-03T16:51:56.076Z</time>
      </trkpt>
      <trkpt lat="43.31942" lon="1.95574">
        <ele>191.582923</ele>
        <time>2020-12-03T16:51:56.626Z</time>
      </trkpt>
      <trkpt lat="43.31931" lon="1.95556">
        <ele>190.984023</ele>
        <time>2020-12-03T16:52:00.133Z</time>
      </trkpt>
      <trkpt lat="43.3192" lon="1.95536">
        <ele>190.343767</ele>
        <time>2020-12-03T16:52:03.496Z</time>
      </trkpt>
      <trkpt lat="43.31917" lon="1.95532">
        <ele>190.184771</ele>
        <time>2020-12-03T16:52:04.468Z</time>
      </trkpt>
      <trkpt lat="43.319" lon="1.95508">
        <ele>189.309049</ele>
        <time>2020-12-03T16:52:08.935Z</time>
      </trkpt>
      <trkpt lat="43.31891" lon="1.95497">
        <ele>188.876318</ele>
        <time>2020-12-03T16:52:10.930Z</time>
      </trkpt>
      <trkpt lat="43.31881" lon="1.95489">
        <ele>188.466563</ele>
        <time>2020-12-03T16:52:12.904Z</time>
      </trkpt>
      <trkpt lat="43.31853" lon="1.95464">
        <ele>187.279652</ele>
        <time>2020-12-03T16:52:18.438Z</time>
      </trkpt>
      <trkpt lat="43.31832" lon="1.95454">
        <ele>186.484795</ele>
        <time>2020-12-03T16:52:22.097Z</time>
      </trkpt>
      <trkpt lat="43.31821" lon="1.95467">
        <ele>185.96887</ele>
        <time>2020-12-03T16:52:24.346Z</time>
      </trkpt>
      <trkpt lat="43.31799" lon="1.95453">
        <ele>184.950366</ele>
        <time>2020-12-03T16:52:28.013Z</time>
      </trkpt>
      <trkpt lat="43.31748" lon="1.95427">
        <ele>182.336667</ele>
        <time>2020-12-03T16:52:36.367Z</time>
      </trkpt>
      <trkpt lat="43.31706" lon="1.95406">
        <ele>180.185764</ele>
        <time>2020-12-03T16:52:43.311Z</time>
      </trkpt>
      <trkpt lat="43.31675" lon="1.95392">
        <ele>178.600367</ele>
        <time>2020-12-03T16:52:48.775Z</time>
      </trkpt>
      <trkpt lat="43.31674" lon="1.95391">
        <ele>178.548742</ele>
        <time>2020-12-03T16:52:48.917Z</time>
      </trkpt>
      <trkpt lat="43.31646" lon="1.95378">
        <ele>177.112737</ele>
        <time>2020-12-03T16:52:54.041Z</time>
      </trkpt>
      <trkpt lat="43.31594" lon="1.95373">
        <ele>175.947384</ele>
        <time>2020-12-03T16:53:03.439Z</time>
      </trkpt>
      <trkpt lat="43.31579" lon="1.95372">
        <ele>175.662423</ele>
        <time>2020-12-03T16:53:06.110Z</time>
      </trkpt>
      <trkpt lat="43.31552" lon="1.95372">
        <ele>175.123156</ele>
        <time>2020-12-03T16:53:10.922Z</time>
      </trkpt>
      <trkpt lat="43.31547" lon="1.95371">
        <ele>175.03004</ele>
        <time>2020-12-03T16:53:11.712Z</time>
      </trkpt>
      <trkpt lat="43.31547" lon="1.95378">
        <ele>174.937869</ele>
        <time>2020-12-03T16:53:13.000Z</time>
      </trkpt>
      <trkpt lat="43.31545" lon="1.95439">
        <ele>174.063168</ele>
        <time>2020-12-03T16:53:21.609Z</time>
      </trkpt>
      <trkpt lat="43.31542" lon="1.95452">
        <ele>173.85727</ele>
        <time>2020-12-03T16:53:23.814Z</time>
      </trkpt>
      <trkpt lat="43.31537" lon="1.95458">
        <ele>173.721897</ele>
        <time>2020-12-03T16:53:25.095Z</time>
      </trkpt>
      <trkpt lat="43.3153" lon="1.95465">
        <ele>173.547704</ele>
        <time>2020-12-03T16:53:26.817Z</time>
      </trkpt>
      <trkpt lat="43.31525" lon="1.95472">
        <ele>173.409768</ele>
        <time>2020-12-03T16:53:28.277Z</time>
      </trkpt>
      <trkpt lat="43.31518" lon="1.95466">
        <ele>173.312837</ele>
        <time>2020-12-03T16:53:29.814Z</time>
      </trkpt>
      <trkpt lat="43.31506" lon="1.95451">
        <ele>173.211562</ele>
        <time>2020-12-03T16:53:32.956Z</time>
      </trkpt>
      <trkpt lat="43.31501" lon="1.95443">
        <ele>173.163199</ele>
        <time>2020-12-03T16:53:34.950Z</time>
      </trkpt>
      <trkpt lat="43.31498" lon="1.95425">
        <ele>173.07875</ele>
        <time>2020-12-03T16:53:37.865Z</time>
      </trkpt>
      <trkpt lat="43.315" lon="1.95412">
        <ele>173.016539</ele>
        <time>2020-12-03T16:53:39.925Z</time>
      </trkpt>
      <trkpt lat="43.31501" lon="1.95395">
        <ele>172.941859</ele>
        <time>2020-12-03T16:53:42.514Z</time>
      </trkpt>
      <trkpt lat="43.31505" lon="1.95378">
        <ele>172.858793</ele>
        <time>2020-12-03T16:53:47.249Z</time>
      </trkpt>
      <trkpt lat="43.31502" lon="1.95283">
        <ele>172.424746</ele>
        <time>2020-12-03T16:54:11.772Z</time>
      </trkpt>
      <trkpt lat="43.31502" lon="1.95282">
        <ele>172.421041</ele>
        <time>2020-12-03T16:54:11.987Z</time>
      </trkpt>
      <trkpt lat="43.31519" lon="1.95176">
        <ele>172.306532</ele>
        <time>2020-12-03T16:54:40.173Z</time>
      </trkpt>
      <trkpt lat="43.31526" lon="1.95133">
        <ele>172.374767</ele>
        <time>2020-12-03T16:54:53.188Z</time>
      </trkpt>
      <trkpt lat="43.31534" lon="1.95098">
        <ele>172.430655</ele>
        <time>2020-12-03T16:55:03.841Z</time>
      </trkpt>
      <trkpt lat="43.31545" lon="1.95076">
        <ele>172.472983</ele>
        <time>2020-12-03T16:55:11.643Z</time>
      </trkpt>
      <trkpt lat="43.31548" lon="1.9507">
        <ele>172.484189</ele>
        <time>2020-12-03T16:55:13.870Z</time>
      </trkpt>
      <trkpt lat="43.31553" lon="1.95059">
        <ele>172.502905</ele>
        <time>2020-12-03T16:55:17.483Z</time>
      </trkpt>
      <trkpt lat="43.31565" lon="1.95034">
        <ele>172.548679</ele>
        <time>2020-12-03T16:55:25.870Z</time>
      </trkpt>
      <trkpt lat="43.31579" lon="1.94998">
        <ele>172.545316</ele>
        <time>2020-12-03T16:55:37.710Z</time>
      </trkpt>
      <trkpt lat="43.3158" lon="1.94979">
        <ele>172.478712</ele>
        <time>2020-12-03T16:55:43.397Z</time>
      </trkpt>
      <trkpt lat="43.31569" lon="1.94928">
        <ele>172.299723</ele>
        <time>2020-12-03T16:55:58.007Z</time>
      </trkpt>
      <trkpt lat="43.31545" lon="1.94896">
        <ele>172.140941</ele>
        <time>2020-12-03T16:56:10.198Z</time>
      </trkpt>
      <trkpt lat="43.31494" lon="1.9486">
        <ele>171.871783</ele>
        <time>2020-12-03T16:56:30.214Z</time>
      </trkpt>
      <trkpt lat="43.31449" lon="1.94839">
        <ele>171.407129</ele>
        <time>2020-12-03T16:56:46.427Z</time>
      </trkpt>
      <trkpt lat="43.31427" lon="1.94838">
        <ele>171.068105</ele>
        <time>2020-12-03T16:56:53.341Z</time>
      </trkpt>
      <trkpt lat="43.31373" lon="1.94845">
        <ele>170.194342</ele>
        <time>2020-12-03T16:57:11.300Z</time>
      </trkpt>
      <trkpt lat="43.31372" lon="1.94844">
        <ele>170.18228</ele>
        <time>2020-12-03T16:57:11.490Z</time>
      </trkpt>
      <trkpt lat="43.31347" lon="1.9483">
        <ele>169.757178</ele>
        <time>2020-12-03T16:57:20.231Z</time>
      </trkpt>
      <trkpt lat="43.31326" lon="1.94799">
        <ele>169.269616</ele>
        <time>2020-12-03T16:57:30.365Z</time>
      </trkpt>
      <trkpt lat="43.31304" lon="1.94756">
        <ele>168.869554</ele>
        <time>2020-12-03T16:57:43.312Z</time>
      </trkpt>
      <trkpt lat="43.31303" lon="1.94754">
        <ele>168.867083</ele>
        <time>2020-12-03T16:57:43.929Z</time>
      </trkpt>
      <trkpt lat="43.31292" lon="1.94727">
        <ele>168.837536</ele>
        <time>2020-12-03T16:57:52.015Z</time>
      </trkpt>
      <trkpt lat="43.31273" lon="1.94668">
        <ele>168.776781</ele>
        <time>2020-12-03T16:58:08.814Z</time>
      </trkpt>
      <trkpt lat="43.31268" lon="1.94659">
        <ele>168.766064</ele>
        <time>2020-12-03T16:58:10.757Z</time>
      </trkpt>
      <trkpt lat="43.31264" lon="1.94621">
        <ele>168.730112</ele>
        <time>2020-12-03T16:58:17.050Z</time>
      </trkpt>
      <trkpt lat="43.31268" lon="1.94578">
        <ele>168.689082</ele>
        <time>2020-12-03T16:58:25.138Z</time>
      </trkpt>
      <trkpt lat="43.31274" lon="1.94555">
        <ele>168.665243</ele>
        <time>2020-12-03T16:58:30.448Z</time>
      </trkpt>
      <trkpt lat="43.31282" lon="1.94525">
        <ele>168.851397</ele>
        <time>2020-12-03T16:58:37.059Z</time>
      </trkpt>
      <trkpt lat="43.31308" lon="1.94478">
        <ele>169.39989</ele>
        <time>2020-12-03T16:58:50.291Z</time>
      </trkpt>
      <trkpt lat="43.31331" lon="1.94457">
        <ele>169.751798</ele>
        <time>2020-12-03T16:58:58.533Z</time>
      </trkpt>
      <trkpt lat="43.31341" lon="1.94438">
        <ele>169.972166</ele>
        <time>2020-12-03T16:59:03.968Z</time>
      </trkpt>
      <trkpt lat="43.31347" lon="1.94426">
        <ele>170.105757</ele>
        <time>2020-12-03T16:59:07.085Z</time>
      </trkpt>
      <trkpt lat="43.31368" lon="1.94326">
        <ele>171.033166</ele>
        <time>2020-12-03T16:59:30.044Z</time>
      </trkpt>
      <trkpt lat="43.31462" lon="1.94154">
        <ele>172.326682</ele>
        <time>2020-12-03T17:00:12.817Z</time>
      </trkpt>
      <trkpt lat="43.31485" lon="1.94113">
        <ele>172.466392</ele>
        <time>2020-12-03T17:00:22.247Z</time>
      </trkpt>
      <trkpt lat="43.31505" lon="1.94081">
        <ele>172.495949</ele>
        <time>2020-12-03T17:00:29.593Z</time>
      </trkpt>
      <trkpt lat="43.31527" lon="1.9406">
        <ele>172.52229</ele>
        <time>2020-12-03T17:00:35.910Z</time>
      </trkpt>
      <trkpt lat="43.31561" lon="1.94042">
        <ele>172.557537</ele>
        <time>2020-12-03T17:00:44.318Z</time>
      </trkpt>
      <trkpt lat="43.31589" lon="1.94012">
        <ele>172.591592</ele>
        <time>2020-12-03T17:00:52.368Z</time>
      </trkpt>
      <trkpt lat="43.31649" lon="1.9395">
        <ele>172.546808</ele>
        <time>2020-12-03T17:01:09.466Z</time>
      </trkpt>
      <trkpt lat="43.317" lon="1.93896">
        <ele>172.451988</ele>
        <time>2020-12-03T17:01:25.073Z</time>
      </trkpt>
      <trkpt lat="43.31735" lon="1.9386">
        <ele>172.387314</ele>
        <time>2020-12-03T17:01:35.641Z</time>
      </trkpt>
      <trkpt lat="43.3175" lon="1.93809">
        <ele>172.344811</ele>
        <time>2020-12-03T17:01:45.416Z</time>
      </trkpt>
      <trkpt lat="43.31763" lon="1.93721">
        <ele>172.316119</ele>
        <time>2020-12-03T17:02:01.338Z</time>
      </trkpt>
      <trkpt lat="43.31805" lon="1.93601">
        <ele>172.273907</ele>
        <time>2020-12-03T17:02:25.115Z</time>
      </trkpt>
      <trkpt lat="43.31805" lon="1.93564">
        <ele>172.380913</ele>
        <time>2020-12-03T17:02:32.247Z</time>
      </trkpt>
      <trkpt lat="43.31782" lon="1.93485">
        <ele>172.635901</ele>
        <time>2020-12-03T17:02:49.457Z</time>
      </trkpt>
      <trkpt lat="43.31781" lon="1.93462">
        <ele>172.704978</ele>
        <time>2020-12-03T17:02:54.001Z</time>
      </trkpt>
      <trkpt lat="43.31783" lon="1.93445">
        <ele>172.755254</ele>
        <time>2020-12-03T17:02:57.381Z</time>
      </trkpt>
      <trkpt lat="43.31792" lon="1.93426">
        <ele>172.824382</ele>
        <time>2020-12-03T17:03:01.970Z</time>
      </trkpt>
      <trkpt lat="43.31816" lon="1.93395">
        <ele>172.959466</ele>
        <time>2020-12-03T17:03:10.929Z</time>
      </trkpt>
      <trkpt lat="43.31837" lon="1.93361">
        <ele>173.003619</ele>
        <time>2020-12-03T17:03:19.618Z</time>
      </trkpt>
      <trkpt lat="43.31854" lon="1.93335">
        <ele>172.987244</ele>
        <time>2020-12-03T17:03:26.309Z</time>
      </trkpt>
      <trkpt lat="43.31904" lon="1.93264">
        <ele>172.941912</ele>
        <time>2020-12-03T17:03:44.061Z</time>
      </trkpt>
      <trkpt lat="43.31941" lon="1.93175">
        <ele>172.859335</ele>
        <time>2020-12-03T17:04:01.613Z</time>
      </trkpt>
      <trkpt lat="43.31984" lon="1.93002">
        <ele>172.345213</ele>
        <time>2020-12-03T17:04:32.646Z</time>
      </trkpt>
      <trkpt lat="43.32029" lon="1.92694">
        <ele>172.414491</ele>
        <time>2020-12-03T17:05:30.626Z</time>
      </trkpt>
      <trkpt lat="43.32031" lon="1.92677">
        <ele>172.413957</ele>
        <time>2020-12-03T17:05:34.160Z</time>
      </trkpt>
      <trkpt lat="43.32045" lon="1.92565">
        <ele>172.410499</ele>
        <time>2020-12-03T17:05:55.171Z</time>
      </trkpt>
      <trkpt lat="43.32057" lon="1.92428">
        <ele>172.247136</ele>
        <time>2020-12-03T17:06:19.515Z</time>
      </trkpt>
      <trkpt lat="43.32103" lon="1.92268">
        <ele>171.542024</ele>
        <time>2020-12-03T17:06:48.420Z</time>
      </trkpt>
      <trkpt lat="43.32101" lon="1.92217">
        <ele>171.332947</ele>
        <time>2020-12-03T17:06:56.996Z</time>
      </trkpt>
      <trkpt lat="43.32069" lon="1.9208">
        <ele>170.767971</ele>
        <time>2020-12-03T17:07:21.034Z</time>
      </trkpt>
      <trkpt lat="43.32062" lon="1.91997">
        <ele>170.436258</ele>
        <time>2020-12-03T17:07:35.446Z</time>
      </trkpt>
      <trkpt lat="43.32081" lon="1.9182">
        <ele>170.241235</ele>
        <time>2020-12-03T17:08:06.906Z</time>
      </trkpt>
      <trkpt lat="43.32119" lon="1.91683">
        <ele>170.611527</ele>
        <time>2020-12-03T17:08:34.026Z</time>
      </trkpt>
      <trkpt lat="43.32129" lon="1.91629">
        <ele>170.950975</ele>
        <time>2020-12-03T17:08:44.745Z</time>
      </trkpt>
      <trkpt lat="43.32129" lon="1.916">
        <ele>171.126263</ele>
        <time>2020-12-03T17:08:50.448Z</time>
      </trkpt>
      <trkpt lat="43.32122" lon="1.91556">
        <ele>171.393039</ele>
        <time>2020-12-03T17:09:00.318Z</time>
      </trkpt>
      <trkpt lat="43.32091" lon="1.91439">
        <ele>173.120448</ele>
        <time>2020-12-03T17:09:33.075Z</time>
      </trkpt>
      <trkpt lat="43.32084" lon="1.91385">
        <ele>174.117302</ele>
        <time>2020-12-03T17:09:48.368Z</time>
      </trkpt>
      <trkpt lat="43.32084" lon="1.91348">
        <ele>174.78435</ele>
        <time>2020-12-03T17:10:02.687Z</time>
      </trkpt>
      <trkpt lat="43.32078" lon="1.91325">
        <ele>175.22609</ele>
        <time>2020-12-03T17:10:11.555Z</time>
      </trkpt>
      <trkpt lat="43.32068" lon="1.91179">
        <ele>176.7419</ele>
        <time>2020-12-03T17:11:04.133Z</time>
      </trkpt>
      <trkpt lat="43.3207" lon="1.91141">
        <ele>176.986962</ele>
        <time>2020-12-03T17:11:16.739Z</time>
      </trkpt>
      <trkpt lat="43.32085" lon="1.91053">
        <ele>177.562746</ele>
        <time>2020-12-03T17:11:40.613Z</time>
      </trkpt>
      <trkpt lat="43.3213" lon="1.909">
        <ele>176.430313</ele>
        <time>2020-12-03T17:12:20.910Z</time>
      </trkpt>
      <trkpt lat="43.32155" lon="1.90745">
        <ele>175.356891</ele>
        <time>2020-12-03T17:13:00.139Z</time>
      </trkpt>
      <trkpt lat="43.32209" lon="1.90454">
        <ele>174.892025</ele>
        <time>2020-12-03T17:14:21.341Z</time>
      </trkpt>
      <trkpt lat="43.32216" lon="1.9041">
        <ele>174.915066</ele>
        <time>2020-12-03T17:14:33.826Z</time>
      </trkpt>
      <trkpt lat="43.32217" lon="1.90266">
        <ele>175.017089</ele>
        <time>2020-12-03T17:15:13.222Z</time>
      </trkpt>
      <trkpt lat="43.32232" lon="1.90128">
        <ele>175.167968</ele>
        <time>2020-12-03T17:15:51.386Z</time>
      </trkpt>
      <trkpt lat="43.3228" lon="1.89945">
        <ele>175.518721</ele>
        <time>2020-12-03T17:16:46.091Z</time>
      </trkpt>
      <trkpt lat="43.32304" lon="1.89878">
        <ele>175.675741</ele>
        <time>2020-12-03T17:17:07.062Z</time>
      </trkpt>
      <trkpt lat="43.32308" lon="1.89837">
        <ele>175.759029</ele>
        <time>2020-12-03T17:17:18.512Z</time>
      </trkpt>
      <trkpt lat="43.32369" lon="1.8962">
        <ele>176.104433</ele>
        <time>2020-12-03T17:18:23.033Z</time>
      </trkpt>
      <trkpt lat="43.32399" lon="1.89491">
        <ele>176.255195</ele>
        <time>2020-12-03T17:19:00.617Z</time>
      </trkpt>
      <trkpt lat="43.32422" lon="1.89358">
        <ele>176.392733</ele>
        <time>2020-12-03T17:19:38.326Z</time>
      </trkpt>
      <trkpt lat="43.32441" lon="1.89192">
        <ele>176.471636</ele>
        <time>2020-12-03T17:20:23.819Z</time>
      </trkpt>
      <trkpt lat="43.32455" lon="1.8913">
        <ele>176.503247</ele>
        <time>2020-12-03T17:20:41.560Z</time>
      </trkpt>
      <trkpt lat="43.32467" lon="1.89077">
        <ele>176.568478</ele>
        <time>2020-12-03T17:20:51.635Z</time>
      </trkpt>
      <trkpt lat="43.32469" lon="1.89068">
        <ele>176.58011</ele>
        <time>2020-12-03T17:20:53.381Z</time>
      </trkpt>
      <trkpt lat="43.32494" lon="1.88966">
        <ele>176.706388</ele>
        <time>2020-12-03T17:21:13.308Z</time>
      </trkpt>
      <trkpt lat="43.32512" lon="1.88869">
        <ele>176.901128</ele>
        <time>2020-12-03T17:21:32.304Z</time>
      </trkpt>
      <trkpt lat="43.32516" lon="1.88747">
        <ele>177.411473</ele>
        <time>2020-12-03T17:21:57.129Z</time>
      </trkpt>
      <trkpt lat="43.32517" lon="1.88557">
        <ele>178.336918</ele>
        <time>2020-12-03T17:22:35.961Z</time>
      </trkpt>
      <trkpt lat="43.32518" lon="1.8843">
        <ele>179.053501</ele>
        <time>2020-12-03T17:23:13.788Z</time>
      </trkpt>
      <trkpt lat="43.32516" lon="1.88282">
        <ele>180.011571</ele>
        <time>2020-12-03T17:23:58.944Z</time>
      </trkpt>
      <trkpt lat="43.32526" lon="1.88213">
        <ele>180.47627</ele>
        <time>2020-12-03T17:24:20.560Z</time>
      </trkpt>
      <trkpt lat="43.32676" lon="1.87897">
        <ele>182.540902</ele>
        <time>2020-12-03T17:26:14.482Z</time>
      </trkpt>
      <trkpt lat="43.32695" lon="1.87843">
        <ele>182.643797</ele>
        <time>2020-12-03T17:26:30.803Z</time>
      </trkpt>
      <trkpt lat="43.32722" lon="1.87626">
        <ele>182.846784</ele>
        <time>2020-12-03T17:27:29.727Z</time>
      </trkpt>
      <trkpt lat="43.32737" lon="1.87414">
        <ele>183.065995</ele>
        <time>2020-12-03T17:28:28.353Z</time>
      </trkpt>
      <trkpt lat="43.32845" lon="1.87095">
        <ele>184.227958</ele>
        <time>2020-12-03T17:30:10.055Z</time>
      </trkpt>
      <trkpt lat="43.32906" lon="1.86886">
        <ele>185.053406</ele>
        <time>2020-12-03T17:31:14.278Z</time>
      </trkpt>
      <trkpt lat="43.32909" lon="1.86831">
        <ele>185.257581</ele>
        <time>2020-12-03T17:31:30.032Z</time>
      </trkpt>
      <trkpt lat="43.32905" lon="1.86747">
        <ele>185.691624</ele>
        <time>2020-12-03T17:31:55.614Z</time>
      </trkpt>
      <trkpt lat="43.32903" lon="1.86685">
        <ele>186.088064</ele>
        <time>2020-12-03T17:32:14.142Z</time>
      </trkpt>
      <trkpt lat="43.32913" lon="1.86602">
        <ele>186.624982</ele>
        <time>2020-12-03T17:32:39.243Z</time>
      </trkpt>
      <trkpt lat="43.32913" lon="1.86601">
        <ele>186.629547</ele>
        <time>2020-12-03T17:32:39.983Z</time>
      </trkpt>
      <trkpt lat="43.32961" lon="1.8636">
        <ele>188.386567</ele>
        <time>2020-12-03T17:33:56.661Z</time>
      </trkpt>
      <trkpt lat="43.3301" lon="1.86156">
        <ele>189.765131</ele>
        <time>2020-12-03T17:35:01.751Z</time>
      </trkpt>
      <trkpt lat="43.33029" lon="1.86081">
        <ele>190.254463</ele>
        <time>2020-12-03T17:35:25.626Z</time>
      </trkpt>
      <trkpt lat="43.33096" lon="1.85853">
        <ele>191.19225</ele>
        <time>2020-12-03T17:36:36.668Z</time>
      </trkpt>
      <trkpt lat="43.3318" lon="1.8566">
        <ele>191.441415</ele>
        <time>2020-12-03T17:37:38.610Z</time>
      </trkpt>
      <trkpt lat="43.33189" lon="1.8562">
        <ele>191.470186</ele>
        <time>2020-12-03T17:37:49.952Z</time>
      </trkpt>
      <trkpt lat="43.33195" lon="1.85431">
        <ele>191.460981</ele>
        <time>2020-12-03T17:38:40.893Z</time>
      </trkpt>
      <trkpt lat="43.33204" lon="1.85389">
        <ele>191.458845</ele>
        <time>2020-12-03T17:38:52.801Z</time>
      </trkpt>
      <trkpt lat="43.33288" lon="1.85175">
        <ele>191.821571</ele>
        <time>2020-12-03T17:40:00.327Z</time>
      </trkpt>
      <trkpt lat="43.33297" lon="1.85138">
        <ele>191.884516</ele>
        <time>2020-12-03T17:40:11.273Z</time>
      </trkpt>
      <trkpt lat="43.33304" lon="1.84983">
        <ele>192.139002</ele>
        <time>2020-12-03T17:40:54.596Z</time>
      </trkpt>
      <trkpt lat="43.33312" lon="1.84942">
        <ele>192.20842</ele>
        <time>2020-12-03T17:41:06.298Z</time>
      </trkpt>
      <trkpt lat="43.33325" lon="1.84912">
        <ele>192.248802</ele>
        <time>2020-12-03T17:41:16.082Z</time>
      </trkpt>
      <trkpt lat="43.33365" lon="1.84863">
        <ele>192.299831</ele>
        <time>2020-12-03T17:41:36.182Z</time>
      </trkpt>
      <trkpt lat="43.33413" lon="1.84816">
        <ele>192.355978</ele>
        <time>2020-12-03T17:41:58.190Z</time>
      </trkpt>
      <trkpt lat="43.33439" lon="1.84778">
        <ele>192.392335</ele>
        <time>2020-12-03T17:42:12.463Z</time>
      </trkpt>
      <trkpt lat="43.33467" lon="1.8472">
        <ele>192.44973</ele>
        <time>2020-12-03T17:42:31.326Z</time>
      </trkpt>
      <trkpt lat="43.33601" lon="1.84325">
        <ele>192.786871</ele>
        <time>2020-12-03T17:44:31.633Z</time>
      </trkpt>
      <trkpt lat="43.33629" lon="1.84274">
        <ele>192.612175</ele>
        <time>2020-12-03T17:44:48.526Z</time>
      </trkpt>
      <trkpt lat="43.33682" lon="1.84226">
        <ele>192.312957</ele>
        <time>2020-12-03T17:45:11.125Z</time>
      </trkpt>
      <trkpt lat="43.33719" lon="1.84205">
        <ele>192.121467</ele>
        <time>2020-12-03T17:45:25.435Z</time>
      </trkpt>
      <trkpt lat="43.33756" lon="1.84205">
        <ele>191.947906</ele>
        <time>2020-12-03T17:45:38.278Z</time>
      </trkpt>
      <trkpt lat="43.33784" lon="1.84214">
        <ele>191.818221</ele>
        <time>2020-12-03T17:45:48.385Z</time>
      </trkpt>
      <trkpt lat="43.3381" lon="1.84237">
        <ele>191.680402</ele>
        <time>2020-12-03T17:45:59.186Z</time>
      </trkpt>
      <trkpt lat="43.33884" lon="1.8436">
        <ele>191.163342</ele>
        <time>2020-12-03T17:46:40.825Z</time>
      </trkpt>
      <trkpt lat="43.33909" lon="1.84367">
        <ele>191.242957</ele>
        <time>2020-12-03T17:46:50.142Z</time>
      </trkpt>
      <trkpt lat="43.33931" lon="1.84355">
        <ele>191.365584</ele>
        <time>2020-12-03T17:46:59.472Z</time>
      </trkpt>
      <trkpt lat="43.33972" lon="1.84312">
        <ele>191.626853</ele>
        <time>2020-12-03T17:47:19.943Z</time>
      </trkpt>
      <trkpt lat="43.34006" lon="1.84243">
        <ele>191.9341</ele>
        <time>2020-12-03T17:47:44.748Z</time>
      </trkpt>
      <trkpt lat="43.34016" lon="1.84196">
        <ele>192.141718</ele>
        <time>2020-12-03T17:47:59.861Z</time>
      </trkpt>
      <trkpt lat="43.34025" lon="1.84156">
        <ele>192.353463</ele>
        <time>2020-12-03T17:48:12.526Z</time>
      </trkpt>
      <trkpt lat="43.3404" lon="1.83744">
        <ele>194.04524</ele>
        <time>2020-12-03T17:50:13.164Z</time>
      </trkpt>
      <trkpt lat="43.34045" lon="1.83701">
        <ele>194.051141</ele>
        <time>2020-12-03T17:50:24.667Z</time>
      </trkpt>
      <trkpt lat="43.34061" lon="1.83633">
        <ele>193.80315</ele>
        <time>2020-12-03T17:50:43.554Z</time>
      </trkpt>
      <trkpt lat="43.34064" lon="1.8362">
        <ele>193.754691</ele>
        <time>2020-12-03T17:50:47.131Z</time>
      </trkpt>
      <trkpt lat="43.34072" lon="1.83594">
        <ele>193.656531</ele>
        <time>2020-12-03T17:50:51.598Z</time>
      </trkpt>
      <trkpt lat="43.3409" lon="1.8354">
        <ele>193.451874</ele>
        <time>2020-12-03T17:51:00.799Z</time>
      </trkpt>
      <trkpt lat="43.34099" lon="1.83516">
        <ele>193.356173</ele>
        <time>2020-12-03T17:51:05.027Z</time>
      </trkpt>
      <trkpt lat="43.34111" lon="1.83489">
        <ele>193.244086</ele>
        <time>2020-12-03T17:51:09.834Z</time>
      </trkpt>
      <trkpt lat="43.34125" lon="1.83458">
        <ele>193.075473</ele>
        <time>2020-12-03T17:51:15.546Z</time>
      </trkpt>
      <trkpt lat="43.34136" lon="1.83427">
        <ele>192.920358</ele>
        <time>2020-12-03T17:51:20.757Z</time>
      </trkpt>
      <trkpt lat="43.3414" lon="1.8341">
        <ele>192.835916</ele>
        <time>2020-12-03T17:51:25.500Z</time>
      </trkpt>
      <trkpt lat="43.34237" lon="1.83141">
        <ele>191.863313</ele>
        <time>2020-12-03T17:52:43.546Z</time>
      </trkpt>
      <trkpt lat="43.3424" lon="1.83124">
        <ele>191.83196</ele>
        <time>2020-12-03T17:52:48.035Z</time>
      </trkpt>
      <trkpt lat="43.34409" lon="1.82687">
        <ele>192.004587</ele>
        <time>2020-12-03T17:55:03.575Z</time>
      </trkpt>
      <trkpt lat="43.34575" lon="1.82438">
        <ele>192.181016</ele>
        <time>2020-12-03T17:56:36.456Z</time>
      </trkpt>
      <trkpt lat="43.34825" lon="1.81992">
        <ele>191.00667</ele>
        <time>2020-12-03T17:59:04.150Z</time>
      </trkpt>
      <trkpt lat="43.34866" lon="1.81936">
        <ele>191.00609</ele>
        <time>2020-12-03T17:59:25.436Z</time>
      </trkpt>
      <trkpt lat="43.34893" lon="1.81896">
        <ele>191.005688</ele>
        <time>2020-12-03T17:59:40.754Z</time>
      </trkpt>
      <trkpt lat="43.34955" lon="1.81833">
        <ele>191.565965</ele>
        <time>2020-12-03T18:00:11.304Z</time>
      </trkpt>
      <trkpt lat="43.34979" lon="1.8182">
        <ele>191.861527</ele>
        <time>2020-12-03T18:00:22.016Z</time>
      </trkpt>
      <trkpt lat="43.35013" lon="1.81819">
        <ele>192.249623</ele>
        <time>2020-12-03T18:00:36.470Z</time>
      </trkpt>
      <trkpt lat="43.35161" lon="1.81846">
        <ele>194.208023</ele>
        <time>2020-12-03T18:01:44.645Z</time>
      </trkpt>
      <trkpt lat="43.35162" lon="1.81846">
        <ele>194.22005</ele>
        <time>2020-12-03T18:01:45.800Z</time>
      </trkpt>
      <trkpt lat="43.35299" lon="1.81881">
        <ele>195.636755</ele>
        <time>2020-12-03T18:02:45.640Z</time>
      </trkpt>
      <trkpt lat="43.35419" lon="1.819">
        <ele>195.420477</ele>
        <time>2020-12-03T18:03:28.997Z</time>
      </trkpt>
      <trkpt lat="43.35442" lon="1.81891">
        <ele>195.347602</ele>
        <time>2020-12-03T18:03:37.059Z</time>
      </trkpt>
      <trkpt lat="43.35508" lon="1.81826">
        <ele>194.614113</ele>
        <time>2020-12-03T18:04:04.383Z</time>
      </trkpt>
      <trkpt lat="43.35523" lon="1.8181">
        <ele>194.434402</ele>
        <time>2020-12-03T18:04:11.008Z</time>
      </trkpt>
      <trkpt lat="43.35531" lon="1.81823">
        <ele>194.326385</ele>
        <time>2020-12-03T18:04:13.500Z</time>
      </trkpt>
      <trkpt lat="43.35536" lon="1.81834">
        <ele>194.236035</ele>
        <time>2020-12-03T18:04:15.470Z</time>
      </trkpt>
      <trkpt lat="43.35537" lon="1.81834">
        <ele>194.226035</ele>
        <time>2020-12-03T18:04:15.855Z</time>
      </trkpt>
      <trkpt lat="43.35573" lon="1.81812">
        <ele>193.874539</ele>
        <time>2020-12-03T18:04:29.542Z</time>
      </trkpt>
      <trkpt lat="43.35645" lon="1.81687">
        <ele>193.752665</ele>
        <time>2020-12-03T18:05:12.343Z</time>
      </trkpt>
      <trkpt lat="43.3567" lon="1.81639">
        <ele>193.753834</ele>
        <time>2020-12-03T18:05:29.165Z</time>
      </trkpt>
      <trkpt lat="43.35717" lon="1.81528">
        <ele>193.614295</ele>
        <time>2020-12-03T18:06:04.680Z</time>
      </trkpt>
      <trkpt lat="43.35737" lon="1.81467">
        <ele>193.498586</ele>
        <time>2020-12-03T18:06:23.196Z</time>
      </trkpt>
      <trkpt lat="43.35764" lon="1.81355">
        <ele>193.184923</ele>
        <time>2020-12-03T18:06:53.145Z</time>
      </trkpt>
      <trkpt lat="43.35778" lon="1.81291">
        <ele>192.691852</ele>
        <time>2020-12-03T18:07:09.939Z</time>
      </trkpt>
      <trkpt lat="43.35786" lon="1.81246">
        <ele>192.345174</ele>
        <time>2020-12-03T18:07:16.949Z</time>
      </trkpt>
      <trkpt lat="43.35793" lon="1.81126">
        <ele>191.455075</ele>
        <time>2020-12-03T18:07:34.839Z</time>
      </trkpt>
      <trkpt lat="43.35773" lon="1.80875">
        <ele>189.936631</ele>
        <time>2020-12-03T18:08:13.453Z</time>
      </trkpt>
      <trkpt lat="43.35766" lon="1.80822">
        <ele>189.986475</ele>
        <time>2020-12-03T18:08:22.451Z</time>
      </trkpt>
      <trkpt lat="43.3573" lon="1.80686">
        <ele>190.120261</ele>
        <time>2020-12-03T18:08:48.486Z</time>
      </trkpt>
      <trkpt lat="43.3571" lon="1.80629">
        <ele>190.217572</ele>
        <time>2020-12-03T18:09:00.372Z</time>
      </trkpt>
      <trkpt lat="43.35709" lon="1.80628">
        <ele>190.222112</ele>
        <time>2020-12-03T18:09:01.100Z</time>
      </trkpt>
      <trkpt lat="43.35704" lon="1.80617">
        <ele>190.254214</ele>
        <time>2020-12-03T18:09:03.353Z</time>
      </trkpt>
      <trkpt lat="43.35703" lon="1.80614">
        <ele>190.263745</ele>
        <time>2020-12-03T18:09:04.006Z</time>
      </trkpt>
      <trkpt lat="43.35701" lon="1.80575">
        <ele>190.360099</ele>
        <time>2020-12-03T18:09:11.290Z</time>
      </trkpt>
      <trkpt lat="43.35689" lon="1.80547">
        <ele>190.443292</ele>
        <time>2020-12-03T18:09:17.123Z</time>
      </trkpt>
      <trkpt lat="43.35581" lon="1.80365">
        <ele>190.744774</ele>
        <time>2020-12-03T18:09:59.154Z</time>
      </trkpt>
      <trkpt lat="43.35542" lon="1.80335">
        <ele>190.723146</ele>
        <time>2020-12-03T18:10:09.208Z</time>
      </trkpt>
      <trkpt lat="43.35524" lon="1.80318">
        <ele>190.713043</ele>
        <time>2020-12-03T18:10:14.115Z</time>
      </trkpt>
      <trkpt lat="43.35498" lon="1.80281">
        <ele>190.694873</ele>
        <time>2020-12-03T18:10:22.456Z</time>
      </trkpt>
      <trkpt lat="43.35493" lon="1.80275">
        <ele>190.673447</ele>
        <time>2020-12-03T18:10:23.847Z</time>
      </trkpt>
      <trkpt lat="43.35485" lon="1.80246">
        <ele>190.577023</ele>
        <time>2020-12-03T18:10:28.854Z</time>
      </trkpt>
      <trkpt lat="43.35441" lon="1.80179">
        <ele>190.290077</ele>
        <time>2020-12-03T18:10:43.229Z</time>
      </trkpt>
      <trkpt lat="43.35421" lon="1.80129">
        <ele>190.109503</ele>
        <time>2020-12-03T18:10:52.252Z</time>
      </trkpt>
      <trkpt lat="43.35407" lon="1.80064">
        <ele>189.905954</ele>
        <time>2020-12-03T18:11:03.013Z</time>
      </trkpt>
      <trkpt lat="43.35408" lon="1.79986">
        <ele>189.88417</ele>
        <time>2020-12-03T18:11:16.003Z</time>
      </trkpt>
      <trkpt lat="43.35401" lon="1.79955">
        <ele>189.875212</ele>
        <time>2020-12-03T18:11:21.427Z</time>
      </trkpt>
      <trkpt lat="43.35441" lon="1.79845">
        <ele>189.841066</ele>
        <time>2020-12-03T18:11:42.463Z</time>
      </trkpt>
      <trkpt lat="43.35564" lon="1.796">
        <ele>190.395923</ele>
        <time>2020-12-03T18:12:35.281Z</time>
      </trkpt>
      <trkpt lat="43.35579" lon="1.79561">
        <ele>190.556757</ele>
        <time>2020-12-03T18:12:43.118Z</time>
      </trkpt>
      <trkpt lat="43.3558" lon="1.79557">
        <ele>190.571238</ele>
        <time>2020-12-03T18:12:44.163Z</time>
      </trkpt>
      <trkpt lat="43.35582" lon="1.7955">
        <ele>190.599514</ele>
        <time>2020-12-03T18:12:45.655Z</time>
      </trkpt>
      <trkpt lat="43.35591" lon="1.79521">
        <ele>190.714318</ele>
        <time>2020-12-03T18:12:51.250Z</time>
      </trkpt>
      <trkpt lat="43.35627" lon="1.79308">
        <ele>191.620301</ele>
        <time>2020-12-03T18:13:33.909Z</time>
      </trkpt>
      <trkpt lat="43.35667" lon="1.79128">
        <ele>192.452162</ele>
        <time>2020-12-03T18:14:09.905Z</time>
      </trkpt>
      <trkpt lat="43.35759" lon="1.78774">
        <ele>193.519265</ele>
        <time>2020-12-03T18:15:19.350Z</time>
      </trkpt>
      <trkpt lat="43.35866" lon="1.78387">
        <ele>193.482288</ele>
        <time>2020-12-03T18:16:29.239Z</time>
      </trkpt>
      <trkpt lat="43.35899" lon="1.78303">
        <ele>193.255003</ele>
        <time>2020-12-03T18:16:44.682Z</time>
      </trkpt>
      <trkpt lat="43.35988" lon="1.78145">
        <ele>192.406605</ele>
        <time>2020-12-03T18:17:16.023Z</time>
      </trkpt>
      <trkpt lat="43.36022" lon="1.78074">
        <ele>191.97147</ele>
        <time>2020-12-03T18:17:29.147Z</time>
      </trkpt>
      <trkpt lat="43.36067" lon="1.77921">
        <ele>191.079393</ele>
        <time>2020-12-03T18:17:54.513Z</time>
      </trkpt>
      <trkpt lat="43.36091" lon="1.77858">
        <ele>190.68912</ele>
        <time>2020-12-03T18:18:05.549Z</time>
      </trkpt>
      <trkpt lat="43.36131" lon="1.77788">
        <ele>190.403352</ele>
        <time>2020-12-03T18:18:19.377Z</time>
      </trkpt>
      <trkpt lat="43.3623" lon="1.77638">
        <ele>190.098357</ele>
        <time>2020-12-03T18:18:52.952Z</time>
      </trkpt>
      <trkpt lat="43.36336" lon="1.77307">
        <ele>190.141606</ele>
        <time>2020-12-03T18:19:57.386Z</time>
      </trkpt>
      <trkpt lat="43.36337" lon="1.77304">
        <ele>190.132558</ele>
        <time>2020-12-03T18:19:58.221Z</time>
      </trkpt>
      <trkpt lat="43.36339" lon="1.773">
        <ele>190.120903</ele>
        <time>2020-12-03T18:19:58.745Z</time>
      </trkpt>
      <trkpt lat="43.36375" lon="1.77161">
        <ele>189.728724</ele>
        <time>2020-12-03T18:20:21.381Z</time>
      </trkpt>
      <trkpt lat="43.36398" lon="1.76997">
        <ele>189.295382</ele>
        <time>2020-12-03T18:20:47.602Z</time>
      </trkpt>
      <trkpt lat="43.36406" lon="1.76877">
        <ele>189.545617</ele>
        <time>2020-12-03T18:21:10.530Z</time>
      </trkpt>
      <trkpt lat="43.36417" lon="1.76809">
        <ele>189.934347</ele>
        <time>2020-12-03T18:21:24.873Z</time>
      </trkpt>
      <trkpt lat="43.36448" lon="1.767">
        <ele>190.54789</ele>
        <time>2020-12-03T18:21:49.046Z</time>
      </trkpt>
      <trkpt lat="43.36498" lon="1.7656">
        <ele>190.894174</ele>
        <time>2020-12-03T18:22:18.234Z</time>
      </trkpt>
      <trkpt lat="43.36563" lon="1.76419">
        <ele>190.823753</ele>
        <time>2020-12-03T18:22:45.340Z</time>
      </trkpt>
      <trkpt lat="43.3658" lon="1.76339">
        <ele>190.5752</ele>
        <time>2020-12-03T18:22:58.466Z</time>
      </trkpt>
      <trkpt lat="43.36592" lon="1.76239">
        <ele>190.304217</ele>
        <time>2020-12-03T18:23:14.622Z</time>
      </trkpt>
      <trkpt lat="43.36622" lon="1.76109">
        <ele>190.101907</ele>
        <time>2020-12-03T18:23:37.031Z</time>
      </trkpt>
      <trkpt lat="43.36716" lon="1.75872">
        <ele>189.502831</ele>
        <time>2020-12-03T18:24:22.306Z</time>
      </trkpt>
      <trkpt lat="43.3674" lon="1.75822">
        <ele>189.347084</ele>
        <time>2020-12-03T18:24:31.743Z</time>
      </trkpt>
      <trkpt lat="43.36817" lon="1.7571">
        <ele>187.43602</ele>
        <time>2020-12-03T18:24:53.975Z</time>
      </trkpt>
      <trkpt lat="43.36889" lon="1.75627">
        <ele>185.760322</ele>
        <time>2020-12-03T18:25:11.574Z</time>
      </trkpt>
      <trkpt lat="43.36908" lon="1.75608">
        <ele>185.328124</ele>
        <time>2020-12-03T18:25:16.018Z</time>
      </trkpt>
      <trkpt lat="43.36912" lon="1.75609">
        <ele>185.25184</ele>
        <time>2020-12-03T18:25:16.798Z</time>
      </trkpt>
      <trkpt lat="43.36921" lon="1.75604">
        <ele>185.062006</ele>
        <time>2020-12-03T18:25:18.683Z</time>
      </trkpt>
      <trkpt lat="43.37122" lon="1.75405">
        <ele>181.471851</ele>
        <time>2020-12-03T18:26:07.852Z</time>
      </trkpt>
      <trkpt lat="43.37149" lon="1.75363">
        <ele>181.030557</ele>
        <time>2020-12-03T18:26:16.823Z</time>
      </trkpt>
      <trkpt lat="43.3719" lon="1.75264">
        <ele>180.972558</ele>
        <time>2020-12-03T18:26:36.139Z</time>
      </trkpt>
      <trkpt lat="43.37221" lon="1.75169">
        <ele>181.058771</ele>
        <time>2020-12-03T18:26:54.749Z</time>
      </trkpt>
      <trkpt lat="43.37239" lon="1.75121">
        <ele>181.111474</ele>
        <time>2020-12-03T18:27:04.710Z</time>
      </trkpt>
      <trkpt lat="43.3727" lon="1.75046">
        <ele>181.258148</ele>
        <time>2020-12-03T18:27:20.166Z</time>
      </trkpt>
      <trkpt lat="43.37304" lon="1.7498">
        <ele>181.395851</ele>
        <time>2020-12-03T18:27:34.547Z</time>
      </trkpt>
      <trkpt lat="43.37426" lon="1.74814">
        <ele>181.635382</ele>
        <time>2020-12-03T18:28:15.095Z</time>
      </trkpt>
      <trkpt lat="43.37467" lon="1.74743">
        <ele>181.702733</ele>
        <time>2020-12-03T18:28:30.800Z</time>
      </trkpt>
      <trkpt lat="43.37531" lon="1.74586">
        <ele>181.898353</ele>
        <time>2020-12-03T18:29:02.073Z</time>
      </trkpt>
      <trkpt lat="43.37605" lon="1.74326">
        <ele>182.091434</ele>
        <time>2020-12-03T18:29:50.603Z</time>
      </trkpt>
      <trkpt lat="43.37644" lon="1.74206">
        <ele>181.912165</ele>
        <time>2020-12-03T18:30:12.232Z</time>
      </trkpt>
      <trkpt lat="43.37672" lon="1.74136">
        <ele>181.759854</ele>
        <time>2020-12-03T18:30:25.168Z</time>
      </trkpt>
      <trkpt lat="43.37705" lon="1.7409">
        <ele>181.635992</ele>
        <time>2020-12-03T18:30:35.608Z</time>
      </trkpt>
      <trkpt lat="43.37802" lon="1.73988">
        <ele>181.372608</ele>
        <time>2020-12-03T18:31:02.878Z</time>
      </trkpt>
      <trkpt lat="43.37851" lon="1.73929">
        <ele>181.255922</ele>
        <time>2020-12-03T18:31:17.762Z</time>
      </trkpt>
      <trkpt lat="43.37884" lon="1.7388">
        <ele>181.317833</ele>
        <time>2020-12-03T18:31:29.212Z</time>
      </trkpt>
      <trkpt lat="43.37923" lon="1.73803">
        <ele>181.403853</ele>
        <time>2020-12-03T18:31:45.447Z</time>
      </trkpt>
      <trkpt lat="43.38076" lon="1.734">
        <ele>182.384782</ele>
        <time>2020-12-03T18:33:06.903Z</time>
      </trkpt>
      <trkpt lat="43.38124" lon="1.73186">
        <ele>183.023569</ele>
        <time>2020-12-03T18:33:49.038Z</time>
      </trkpt>
      <trkpt lat="43.38169" lon="1.7306">
        <ele>183.422742</ele>
        <time>2020-12-03T18:34:14.813Z</time>
      </trkpt>
      <trkpt lat="43.38244" lon="1.72899">
        <ele>182.915282</ele>
        <time>2020-12-03T18:34:46.129Z</time>
      </trkpt>
      <trkpt lat="43.3828" lon="1.7284">
        <ele>182.652927</ele>
        <time>2020-12-03T18:34:57.781Z</time>
      </trkpt>
      <trkpt lat="43.38287" lon="1.72814">
        <ele>182.4988</ele>
        <time>2020-12-03T18:35:01.756Z</time>
      </trkpt>
      <trkpt lat="43.38327" lon="1.72756">
        <ele>182.05323</ele>
        <time>2020-12-03T18:35:14.259Z</time>
      </trkpt>
      <trkpt lat="43.3833" lon="1.72755">
        <ele>182.031026</ele>
        <time>2020-12-03T18:35:14.722Z</time>
      </trkpt>
      <trkpt lat="43.38332" lon="1.72754">
        <ele>182.016809</ele>
        <time>2020-12-03T18:35:15.009Z</time>
      </trkpt>
      <trkpt lat="43.38343" lon="1.72738">
        <ele>181.889253</ele>
        <time>2020-12-03T18:35:18.856Z</time>
      </trkpt>
      <trkpt lat="43.38369" lon="1.72675">
        <ele>181.486548</ele>
        <time>2020-12-03T18:35:29.585Z</time>
      </trkpt>
      <trkpt lat="43.38371" lon="1.72672">
        <ele>181.464359</ele>
        <time>2020-12-03T18:35:30.037Z</time>
      </trkpt>
      <trkpt lat="43.38381" lon="1.72648">
        <ele>181.363433</ele>
        <time>2020-12-03T18:35:35.099Z</time>
      </trkpt>
      <trkpt lat="43.38439" lon="1.72508">
        <ele>181.117658</ele>
        <time>2020-12-03T18:36:01.817Z</time>
      </trkpt>
      <trkpt lat="43.38485" lon="1.72414">
        <ele>180.881011</ele>
        <time>2020-12-03T18:36:20.967Z</time>
      </trkpt>
      <trkpt lat="43.38613" lon="1.72186">
        <ele>179.776023</ele>
        <time>2020-12-03T18:37:06.510Z</time>
      </trkpt>
      <trkpt lat="43.38682" lon="1.72075">
        <ele>178.954952</ele>
        <time>2020-12-03T18:37:28.903Z</time>
      </trkpt>
      <trkpt lat="43.38706" lon="1.72055">
        <ele>178.735297</ele>
        <time>2020-12-03T18:37:34.823Z</time>
      </trkpt>
      <trkpt lat="43.3875" lon="1.72034">
        <ele>178.377166</ele>
        <time>2020-12-03T18:37:44.405Z</time>
      </trkpt>
      <trkpt lat="43.3885" lon="1.72016">
        <ele>177.595997</ele>
        <time>2020-12-03T18:38:05.663Z</time>
      </trkpt>
      <trkpt lat="43.3891" lon="1.71996">
        <ele>177.497869</ele>
        <time>2020-12-03T18:38:19.276Z</time>
      </trkpt>
      <trkpt lat="43.38969" lon="1.7195">
        <ele>177.582334</ele>
        <time>2020-12-03T18:38:35.358Z</time>
      </trkpt>
      <trkpt lat="43.39" lon="1.719">
        <ele>177.642551</ele>
        <time>2020-12-03T18:38:47.607Z</time>
      </trkpt>
      <trkpt lat="43.39023" lon="1.71839">
        <ele>177.850192</ele>
        <time>2020-12-03T18:39:00.698Z</time>
      </trkpt>
      <trkpt lat="43.39041" lon="1.71765">
        <ele>178.215029</ele>
        <time>2020-12-03T18:39:15.950Z</time>
      </trkpt>
      <trkpt lat="43.39058" lon="1.71586">
        <ele>178.999884</ele>
        <time>2020-12-03T18:39:50.609Z</time>
      </trkpt>
      <trkpt lat="43.39094" lon="1.71358">
        <ele>179.664522</ele>
        <time>2020-12-03T18:40:33.753Z</time>
      </trkpt>
      <trkpt lat="43.39088" lon="1.71315">
        <ele>179.653653</ele>
        <time>2020-12-03T18:40:41.593Z</time>
      </trkpt>
      <trkpt lat="43.39073" lon="1.71278">
        <ele>179.642918</ele>
        <time>2020-12-03T18:40:48.877Z</time>
      </trkpt>
      <trkpt lat="43.39037" lon="1.71225">
        <ele>179.625009</ele>
        <time>2020-12-03T18:41:00.568Z</time>
      </trkpt>
      <trkpt lat="43.38992" lon="1.71185">
        <ele>179.556438</ele>
        <time>2020-12-03T18:41:12.410Z</time>
      </trkpt>
      <trkpt lat="43.38977" lon="1.71173">
        <ele>179.48517</ele>
        <time>2020-12-03T18:41:16.365Z</time>
      </trkpt>
      <trkpt lat="43.38983" lon="1.71148">
        <ele>179.410918</ele>
        <time>2020-12-03T18:41:20.380Z</time>
      </trkpt>
      <trkpt lat="43.38989" lon="1.71127">
        <ele>179.347451</ele>
        <time>2020-12-03T18:41:23.732Z</time>
      </trkpt>
      <trkpt lat="43.3897" lon="1.71121">
        <ele>179.274034</ele>
        <time>2020-12-03T18:41:27.683Z</time>
      </trkpt>
      <trkpt lat="43.38916" lon="1.71097">
        <ele>179.05126</ele>
        <time>2020-12-03T18:41:39.691Z</time>
      </trkpt>
      <trkpt lat="43.3888" lon="1.71078">
        <ele>178.90941</ele>
        <time>2020-12-03T18:41:47.896Z</time>
      </trkpt>
      <trkpt lat="43.38866" lon="1.71072">
        <ele>178.909027</ele>
        <time>2020-12-03T18:41:51.218Z</time>
      </trkpt>
      <trkpt lat="43.38822" lon="1.71043">
        <ele>178.907787</ele>
        <time>2020-12-03T18:42:02.225Z</time>
      </trkpt>
      <trkpt lat="43.38811" lon="1.71034">
        <ele>178.907459</ele>
        <time>2020-12-03T18:42:05.297Z</time>
      </trkpt>
      <trkpt lat="43.38787" lon="1.71014">
        <ele>178.90673</ele>
        <time>2020-12-03T18:42:11.518Z</time>
      </trkpt>
      <trkpt lat="43.38759" lon="1.70992">
        <ele>178.905908</ele>
        <time>2020-12-03T18:42:18.584Z</time>
      </trkpt>
      <trkpt lat="43.38697" lon="1.70962">
        <ele>178.941556</ele>
        <time>2020-12-03T18:42:33.254Z</time>
      </trkpt>
      <trkpt lat="43.38682" lon="1.70948">
        <ele>178.968199</ele>
        <time>2020-12-03T18:42:37.756Z</time>
      </trkpt>
      <trkpt lat="43.38654" lon="1.70935">
        <ele>179.01287</ele>
        <time>2020-12-03T18:42:44.706Z</time>
      </trkpt>
      <trkpt lat="43.38647" lon="1.70925">
        <ele>179.027184</ele>
        <time>2020-12-03T18:42:46.840Z</time>
      </trkpt>
      <trkpt lat="43.38633" lon="1.70899">
        <ele>179.062401</ele>
        <time>2020-12-03T18:42:52.712Z</time>
      </trkpt>
      <trkpt lat="43.38624" lon="1.70892">
        <ele>179.078169</ele>
        <time>2020-12-03T18:42:55.126Z</time>
      </trkpt>
      <trkpt lat="43.38623" lon="1.70891">
        <ele>179.07985</ele>
        <time>2020-12-03T18:42:55.344Z</time>
      </trkpt>
      <trkpt lat="43.38616" lon="1.70872">
        <ele>179.10193</ele>
        <time>2020-12-03T18:42:58.759Z</time>
      </trkpt>
      <trkpt lat="43.38616" lon="1.70871">
        <ele>179.10379</ele>
        <time>2020-12-03T18:42:59.406Z</time>
      </trkpt>
      <trkpt lat="43.38617" lon="1.70852">
        <ele>179.123712</ele>
        <time>2020-12-03T18:43:02.500Z</time>
      </trkpt>
      <trkpt lat="43.38605" lon="1.70804">
        <ele>179.19006</ele>
        <time>2020-12-03T18:43:11.362Z</time>
      </trkpt>
      <trkpt lat="43.38494" lon="1.70489">
        <ele>179.844519</ele>
        <time>2020-12-03T18:44:15.592Z</time>
      </trkpt>
      <trkpt lat="43.38493" lon="1.70447">
        <ele>179.840191</ele>
        <time>2020-12-03T18:44:22.511Z</time>
      </trkpt>
      <trkpt lat="43.38503" lon="1.70412">
        <ele>179.836233</ele>
        <time>2020-12-03T18:44:28.762Z</time>
      </trkpt>
      <trkpt lat="43.38547" lon="1.70327">
        <ele>179.719367</ele>
        <time>2020-12-03T18:44:45.442Z</time>
      </trkpt>
      <trkpt lat="43.38635" lon="1.70184">
        <ele>179.258088</ele>
        <time>2020-12-03T18:45:15.551Z</time>
      </trkpt>
      <trkpt lat="43.38674" lon="1.70139">
        <ele>179.186133</ele>
        <time>2020-12-03T18:45:27.112Z</time>
      </trkpt>
      <trkpt lat="43.38778" lon="1.70042">
        <ele>179.072221</ele>
        <time>2020-12-03T18:45:56.248Z</time>
      </trkpt>
      <trkpt lat="43.38831" lon="1.69997">
        <ele>178.981254</ele>
        <time>2020-12-03T18:46:10.541Z</time>
      </trkpt>
      <trkpt lat="43.38873" lon="1.69972">
        <ele>178.90717</ele>
        <time>2020-12-03T18:46:20.899Z</time>
      </trkpt>
      <trkpt lat="43.38904" lon="1.69968">
        <ele>178.856989</ele>
        <time>2020-12-03T18:46:27.862Z</time>
      </trkpt>
      <trkpt lat="43.38969" lon="1.69979">
        <ele>178.759112</ele>
        <time>2020-12-03T18:46:42.549Z</time>
      </trkpt>
      <trkpt lat="43.39007" lon="1.69954">
        <ele>178.724948</ele>
        <time>2020-12-03T18:46:52.087Z</time>
      </trkpt>
      <trkpt lat="43.39014" lon="1.69947">
        <ele>178.718041</ele>
        <time>2020-12-03T18:46:54.024Z</time>
      </trkpt>
      <trkpt lat="43.3902" lon="1.69936">
        <ele>178.710104</ele>
        <time>2020-12-03T18:46:56.248Z</time>
      </trkpt>
      <trkpt lat="43.39035" lon="1.69886">
        <ele>178.678001</ele>
        <time>2020-12-03T18:47:05.322Z</time>
      </trkpt>
      <trkpt lat="43.39047" lon="1.69733">
        <ele>178.726691</ele>
        <time>2020-12-03T18:47:31.485Z</time>
      </trkpt>
      <trkpt lat="43.39039" lon="1.69699">
        <ele>178.791221</ele>
        <time>2020-12-03T18:47:37.930Z</time>
      </trkpt>
      <trkpt lat="43.38991" lon="1.69613">
        <ele>178.983421</ele>
        <time>2020-12-03T18:47:57.481Z</time>
      </trkpt>
      <trkpt lat="43.3898" lon="1.69582">
        <ele>179.0453</ele>
        <time>2020-12-03T18:48:03.788Z</time>
      </trkpt>
      <trkpt lat="43.38978" lon="1.69549">
        <ele>179.122057</ele>
        <time>2020-12-03T18:48:09.884Z</time>
      </trkpt>
      <trkpt lat="43.38989" lon="1.69473">
        <ele>179.318153</ele>
        <time>2020-12-03T18:48:24.047Z</time>
      </trkpt>
      <trkpt lat="43.3901" lon="1.69411">
        <ele>179.491696</ele>
        <time>2020-12-03T18:48:36.619Z</time>
      </trkpt>
      <trkpt lat="43.39035" lon="1.69366">
        <ele>179.635133</ele>
        <time>2020-12-03T18:48:46.846Z</time>
      </trkpt>
      <trkpt lat="43.39107" lon="1.69281">
        <ele>179.702529</ele>
        <time>2020-12-03T18:49:09.396Z</time>
      </trkpt>
      <trkpt lat="43.39154" lon="1.69213">
        <ele>179.712792</ele>
        <time>2020-12-03T18:49:25.250Z</time>
      </trkpt>
      <trkpt lat="43.39188" lon="1.69179">
        <ele>179.695575</ele>
        <time>2020-12-03T18:49:34.727Z</time>
      </trkpt>
      <trkpt lat="43.3919" lon="1.69175">
        <ele>179.686616</ele>
        <time>2020-12-03T18:49:35.736Z</time>
      </trkpt>
      <trkpt lat="43.39193" lon="1.69172">
        <ele>179.678719</ele>
        <time>2020-12-03T18:49:36.426Z</time>
      </trkpt>
      <trkpt lat="43.39203" lon="1.69164">
        <ele>179.650745</ele>
        <time>2020-12-03T18:49:39.030Z</time>
      </trkpt>
      <trkpt lat="43.39228" lon="1.69123">
        <ele>179.556864</ele>
        <time>2020-12-03T18:49:47.753Z</time>
      </trkpt>
      <trkpt lat="43.39296" lon="1.68937">
        <ele>179.135216</ele>
        <time>2020-12-03T18:50:21.699Z</time>
      </trkpt>
      <trkpt lat="43.39316" lon="1.68892">
        <ele>178.985575</ele>
        <time>2020-12-03T18:50:30.231Z</time>
      </trkpt>
      <trkpt lat="43.39354" lon="1.68836">
        <ele>178.768445</ele>
        <time>2020-12-03T18:50:42.761Z</time>
      </trkpt>
      <trkpt lat="43.39362" lon="1.68807">
        <ele>178.680791</ele>
        <time>2020-12-03T18:50:47.517Z</time>
      </trkpt>
      <trkpt lat="43.39363" lon="1.68805">
        <ele>178.675246</ele>
        <time>2020-12-03T18:50:47.954Z</time>
      </trkpt>
      <trkpt lat="43.39377" lon="1.68799">
        <ele>178.618449</ele>
        <time>2020-12-03T18:50:51.326Z</time>
      </trkpt>
      <trkpt lat="43.39378" lon="1.68799">
        <ele>178.615728</ele>
        <time>2020-12-03T18:50:51.426Z</time>
      </trkpt>
      <trkpt lat="43.39407" lon="1.68813">
        <ele>178.465903</ele>
        <time>2020-12-03T18:50:58.286Z</time>
      </trkpt>
      <trkpt lat="43.39496" lon="1.6883">
        <ele>177.99482</ele>
        <time>2020-12-03T18:51:17.621Z</time>
      </trkpt>
      <trkpt lat="43.39523" lon="1.68823">
        <ele>177.850783</ele>
        <time>2020-12-03T18:51:23.597Z</time>
      </trkpt>
      <trkpt lat="43.39547" lon="1.68796">
        <ele>177.689912</ele>
        <time>2020-12-03T18:51:30.326Z</time>
      </trkpt>
      <trkpt lat="43.39565" lon="1.68743">
        <ele>177.607757</ele>
        <time>2020-12-03T18:51:39.760Z</time>
      </trkpt>
      <trkpt lat="43.39571" lon="1.68669">
        <ele>177.549733</ele>
        <time>2020-12-03T18:51:52.190Z</time>
      </trkpt>
      <trkpt lat="43.39571" lon="1.68595">
        <ele>177.492516</ele>
        <time>2020-12-03T18:52:04.650Z</time>
      </trkpt>
      <trkpt lat="43.39561" lon="1.68498">
        <ele>177.427762</ele>
        <time>2020-12-03T18:52:21.525Z</time>
      </trkpt>
      <trkpt lat="43.39563" lon="1.68456">
        <ele>177.405564</ele>
        <time>2020-12-03T18:52:28.780Z</time>
      </trkpt>
      <trkpt lat="43.39569" lon="1.68431">
        <ele>177.391901</ele>
        <time>2020-12-03T18:52:33.204Z</time>
      </trkpt>
      <trkpt lat="43.3959" lon="1.68394">
        <ele>177.367249</ele>
        <time>2020-12-03T18:52:41.070Z</time>
      </trkpt>
      <trkpt lat="43.39634" lon="1.68361">
        <ele>177.331269</ele>
        <time>2020-12-03T18:52:52.308Z</time>
      </trkpt>
      <trkpt lat="43.39687" lon="1.68331">
        <ele>177.135778</ele>
        <time>2020-12-03T18:53:05.044Z</time>
      </trkpt>
      <trkpt lat="43.39723" lon="1.68287">
        <ele>176.932403</ele>
        <time>2020-12-03T18:53:15.695Z</time>
      </trkpt>
      <trkpt lat="43.3975" lon="1.68225">
        <ele>176.712408</ele>
        <time>2020-12-03T18:53:27.183Z</time>
      </trkpt>
      <trkpt lat="43.39795" lon="1.68057">
        <ele>175.947649</ele>
        <time>2020-12-03T18:53:55.460Z</time>
      </trkpt>
      <trkpt lat="43.39831" lon="1.67995">
        <ele>175.571015</ele>
        <time>2020-12-03T18:54:07.825Z</time>
      </trkpt>
      <trkpt lat="43.39863" lon="1.67969">
        <ele>175.335886</ele>
        <time>2020-12-03T18:54:15.644Z</time>
      </trkpt>
      <trkpt lat="43.39892" lon="1.67952">
        <ele>175.137223</ele>
        <time>2020-12-03T18:54:22.661Z</time>
      </trkpt>
      <trkpt lat="43.39898" lon="1.67952">
        <ele>175.10295</ele>
        <time>2020-12-03T18:54:23.746Z</time>
      </trkpt>
      <trkpt lat="43.39924" lon="1.67939">
        <ele>174.933664</ele>
        <time>2020-12-03T18:54:29.774Z</time>
      </trkpt>
      <trkpt lat="43.39976" lon="1.67873">
        <ele>174.501381</ele>
        <time>2020-12-03T18:54:44.914Z</time>
      </trkpt>
      <trkpt lat="43.40124" lon="1.67589">
        <ele>173.519615</ele>
        <time>2020-12-03T18:55:41.059Z</time>
      </trkpt>
      <trkpt lat="43.40193" lon="1.67421">
        <ele>173.326548</ele>
        <time>2020-12-03T18:56:12.994Z</time>
      </trkpt>
      <trkpt lat="43.40275" lon="1.67147">
        <ele>174.0685</ele>
        <time>2020-12-03T18:57:07.557Z</time>
      </trkpt>
      <trkpt lat="43.40385" lon="1.66848">
        <ele>174.424665</ele>
        <time>2020-12-03T18:58:08.261Z</time>
      </trkpt>
      <trkpt lat="43.40424" lon="1.66766">
        <ele>174.317618</ele>
        <time>2020-12-03T18:58:23.717Z</time>
      </trkpt>
      <trkpt lat="43.40451" lon="1.66724">
        <ele>173.946938</ele>
        <time>2020-12-03T18:58:32.191Z</time>
      </trkpt>
      <trkpt lat="43.40487" lon="1.66681">
        <ele>173.410058</ele>
        <time>2020-12-03T18:58:41.863Z</time>
      </trkpt>
      <trkpt lat="43.40543" lon="1.66627">
        <ele>172.629553</ele>
        <time>2020-12-03T18:58:55.810Z</time>
      </trkpt>
      <trkpt lat="43.40593" lon="1.66593">
        <ele>172.086743</ele>
        <time>2020-12-03T18:59:07.161Z</time>
      </trkpt>
      <trkpt lat="43.40733" lon="1.6652">
        <ele>170.959015</ele>
        <time>2020-12-03T18:59:39.083Z</time>
      </trkpt>
      <trkpt lat="43.40794" lon="1.66476">
        <ele>170.88511</ele>
        <time>2020-12-03T18:59:54.597Z</time>
      </trkpt>
      <trkpt lat="43.40942" lon="1.66355">
        <ele>170.91083</ele>
        <time>2020-12-03T19:00:35.449Z</time>
      </trkpt>
      <trkpt lat="43.41" lon="1.66296">
        <ele>171.007814</ele>
        <time>2020-12-03T19:00:52.757Z</time>
      </trkpt>
      <trkpt lat="43.41102" lon="1.66174">
        <ele>171.110547</ele>
        <time>2020-12-03T19:01:24.854Z</time>
      </trkpt>
      <trkpt lat="43.41132" lon="1.66133">
        <ele>171.12712</ele>
        <time>2020-12-03T19:01:34.923Z</time>
      </trkpt>
      <trkpt lat="43.41169" lon="1.66071">
        <ele>171.14373</ele>
        <time>2020-12-03T19:01:48.403Z</time>
      </trkpt>
      <trkpt lat="43.4121" lon="1.65971">
        <ele>170.966873</ele>
        <time>2020-12-03T19:02:07.192Z</time>
      </trkpt>
      <trkpt lat="43.41229" lon="1.65852">
        <ele>170.778357</ele>
        <time>2020-12-03T19:02:26.793Z</time>
      </trkpt>
      <trkpt lat="43.41226" lon="1.6571">
        <ele>170.896704</ele>
        <time>2020-12-03T19:02:51.015Z</time>
      </trkpt>
      <trkpt lat="43.41223" lon="1.6569">
        <ele>170.915288</ele>
        <time>2020-12-03T19:02:54.272Z</time>
      </trkpt>
      <trkpt lat="43.4121" lon="1.65631">
        <ele>170.974953</ele>
        <time>2020-12-03T19:03:05.673Z</time>
      </trkpt>
      <trkpt lat="43.41141" lon="1.65333">
        <ele>171.850583</ele>
        <time>2020-12-03T19:04:03.785Z</time>
      </trkpt>
      <trkpt lat="43.41127" lon="1.65232">
        <ele>172.090095</ele>
        <time>2020-12-03T19:04:21.754Z</time>
      </trkpt>
      <trkpt lat="43.41124" lon="1.65087">
        <ele>172.454908</ele>
        <time>2020-12-03T19:04:47.864Z</time>
      </trkpt>
      <trkpt lat="43.41129" lon="1.65026">
        <ele>172.645708</ele>
        <time>2020-12-03T19:04:59.239Z</time>
      </trkpt>
      <trkpt lat="43.4116" lon="1.64897">
        <ele>173.06981</ele>
        <time>2020-12-03T19:05:24.783Z</time>
      </trkpt>
      <trkpt lat="43.412" lon="1.64806">
        <ele>173.171938</ele>
        <time>2020-12-03T19:05:43.861Z</time>
      </trkpt>
      <trkpt lat="43.41236" lon="1.64763">
        <ele>173.211252</ele>
        <time>2020-12-03T19:05:55.131Z</time>
      </trkpt>
      <trkpt lat="43.41381" lon="1.64704">
        <ele>173.107269</ele>
        <time>2020-12-03T19:06:29.352Z</time>
      </trkpt>
      <trkpt lat="43.41425" lon="1.64667">
        <ele>173.011749</ele>
        <time>2020-12-03T19:06:40.901Z</time>
      </trkpt>
      <trkpt lat="43.41475" lon="1.64589">
        <ele>172.832519</ele>
        <time>2020-12-03T19:06:58.111Z</time>
      </trkpt>
      <trkpt lat="43.41536" lon="1.64479">
        <ele>172.528573</ele>
        <time>2020-12-03T19:07:20.553Z</time>
      </trkpt>
      <trkpt lat="43.41583" lon="1.64376">
        <ele>172.194481</ele>
        <time>2020-12-03T19:07:40.281Z</time>
      </trkpt>
      <trkpt lat="43.41607" lon="1.64345">
        <ele>172.047303</ele>
        <time>2020-12-03T19:07:47.466Z</time>
      </trkpt>
      <trkpt lat="43.41614" lon="1.64336">
        <ele>172.003142</ele>
        <time>2020-12-03T19:07:49.424Z</time>
      </trkpt>
      <trkpt lat="43.41633" lon="1.64306">
        <ele>171.872377</ele>
        <time>2020-12-03T19:07:55.637Z</time>
      </trkpt>
      <trkpt lat="43.41664" lon="1.64267">
        <ele>171.67998</ele>
        <time>2020-12-03T19:08:04.387Z</time>
      </trkpt>
      <trkpt lat="43.41696" lon="1.64236">
        <ele>171.473743</ele>
        <time>2020-12-03T19:08:12.751Z</time>
      </trkpt>
      <trkpt lat="43.41764" lon="1.64183">
        <ele>170.970942</ele>
        <time>2020-12-03T19:08:28.970Z</time>
      </trkpt>
      <trkpt lat="43.41779" lon="1.64174">
        <ele>170.864117</ele>
        <time>2020-12-03T19:08:32.332Z</time>
      </trkpt>
      <trkpt lat="43.4178" lon="1.64169">
        <ele>170.840056</ele>
        <time>2020-12-03T19:08:33.237Z</time>
      </trkpt>
      <trkpt lat="43.41783" lon="1.64162">
        <ele>170.801718</ele>
        <time>2020-12-03T19:08:34.533Z</time>
      </trkpt>
      <trkpt lat="43.41814" lon="1.64147">
        <ele>170.592271</ele>
        <time>2020-12-03T19:08:41.079Z</time>
      </trkpt>
      <trkpt lat="43.41824" lon="1.64142">
        <ele>170.522197</ele>
        <time>2020-12-03T19:08:43.347Z</time>
      </trkpt>
      <trkpt lat="43.41827" lon="1.64141">
        <ele>170.503376</ele>
        <time>2020-12-03T19:08:43.837Z</time>
      </trkpt>
      <trkpt lat="43.41862" lon="1.64137">
        <ele>170.22882</ele>
        <time>2020-12-03T19:08:51.056Z</time>
      </trkpt>
      <trkpt lat="43.41868" lon="1.64133">
        <ele>170.178224</ele>
        <time>2020-12-03T19:08:52.188Z</time>
      </trkpt>
      <trkpt lat="43.41867" lon="1.64125">
        <ele>170.129357</ele>
        <time>2020-12-03T19:08:53.392Z</time>
      </trkpt>
      <trkpt lat="43.4187" lon="1.64103">
        <ele>169.987213</ele>
        <time>2020-12-03T19:08:56.954Z</time>
      </trkpt>
      <trkpt lat="43.41871" lon="1.641">
        <ele>169.966916</ele>
        <time>2020-12-03T19:08:57.496Z</time>
      </trkpt>
      <trkpt lat="43.41876" lon="1.641">
        <ele>169.926145</ele>
        <time>2020-12-03T19:08:58.357Z</time>
      </trkpt>
      <trkpt lat="43.42023" lon="1.64011">
        <ele>168.813853</ele>
        <time>2020-12-03T19:09:32.214Z</time>
      </trkpt>
      <trkpt lat="43.42069" lon="1.63973">
        <ele>168.724917</ele>
        <time>2020-12-03T19:09:44.182Z</time>
      </trkpt>
      <trkpt lat="43.42232" lon="1.63802">
        <ele>168.666618</ele>
        <time>2020-12-03T19:10:33.710Z</time>
      </trkpt>
      <trkpt lat="43.42368" lon="1.63668">
        <ele>168.304715</ele>
        <time>2020-12-03T19:11:11.896Z</time>
      </trkpt>
      <trkpt lat="43.4245" lon="1.63553">
        <ele>167.680914</ele>
        <time>2020-12-03T19:11:36.820Z</time>
      </trkpt>
      <trkpt lat="43.42536" lon="1.63418">
        <ele>166.665065</ele>
        <time>2020-12-03T19:12:04.249Z</time>
      </trkpt>
      <trkpt lat="43.42562" lon="1.63407">
        <ele>166.622956</ele>
        <time>2020-12-03T19:12:10.062Z</time>
      </trkpt>
      <trkpt lat="43.42613" lon="1.63418">
        <ele>166.707954</ele>
        <time>2020-12-03T19:12:21.616Z</time>
      </trkpt>
      <trkpt lat="43.42643" lon="1.63416">
        <ele>166.757958</ele>
        <time>2020-12-03T19:12:28.831Z</time>
      </trkpt>
      <trkpt lat="43.42665" lon="1.63404">
        <ele>166.796278</ele>
        <time>2020-12-03T19:12:34.711Z</time>
      </trkpt>
      <trkpt lat="43.42689" lon="1.63371">
        <ele>166.852293</ele>
        <time>2020-12-03T19:12:43.756Z</time>
      </trkpt>
      <trkpt lat="43.42719" lon="1.633">
        <ele>167.186598</ele>
        <time>2020-12-03T19:13:00.384Z</time>
      </trkpt>
      <trkpt lat="43.42721" lon="1.63247">
        <ele>167.490162</ele>
        <time>2020-12-03T19:13:11.106Z</time>
      </trkpt>
      <trkpt lat="43.427" lon="1.63177">
        <ele>167.93232</ele>
        <time>2020-12-03T19:13:26.779Z</time>
      </trkpt>
      <trkpt lat="43.42619" lon="1.63019">
        <ele>168.373763</ele>
        <time>2020-12-03T19:14:02.883Z</time>
      </trkpt>
      <trkpt lat="43.42608" lon="1.62978">
        <ele>168.389679</ele>
        <time>2020-12-03T19:14:10.063Z</time>
      </trkpt>
      <trkpt lat="43.42604" lon="1.6294">
        <ele>168.403692</ele>
        <time>2020-12-03T19:14:16.245Z</time>
      </trkpt>
      <trkpt lat="43.42607" lon="1.62883">
        <ele>168.363032</ele>
        <time>2020-12-03T19:14:25.203Z</time>
      </trkpt>
      <trkpt lat="43.42639" lon="1.62786">
        <ele>168.021666</ele>
        <time>2020-12-03T19:14:41.999Z</time>
      </trkpt>
      <trkpt lat="43.4267" lon="1.62693">
        <ele>167.692518</ele>
        <time>2020-12-03T19:14:58.399Z</time>
      </trkpt>
      <trkpt lat="43.42695" lon="1.62603">
        <ele>167.63818</ele>
        <time>2020-12-03T19:15:14.205Z</time>
      </trkpt>
      <trkpt lat="43.42698" lon="1.62593">
        <ele>167.64053</ele>
        <time>2020-12-03T19:15:16.034Z</time>
      </trkpt>
      <trkpt lat="43.42706" lon="1.62565">
        <ele>167.647052</ele>
        <time>2020-12-03T19:15:21.144Z</time>
      </trkpt>
      <trkpt lat="43.42736" lon="1.62493">
        <ele>167.665047</ele>
        <time>2020-12-03T19:15:35.820Z</time>
      </trkpt>
      <trkpt lat="43.42786" lon="1.62407">
        <ele>167.670563</ele>
        <time>2020-12-03T19:15:55.171Z</time>
      </trkpt>
      <trkpt lat="43.42976" lon="1.62124">
        <ele>167.372458</ele>
        <time>2020-12-03T19:16:59.376Z</time>
      </trkpt>
      <trkpt lat="43.43001" lon="1.62099">
        <ele>167.312009</ele>
        <time>2020-12-03T19:17:06.130Z</time>
      </trkpt>
      <trkpt lat="43.4305" lon="1.62083">
        <ele>167.082342</ele>
        <time>2020-12-03T19:17:17.011Z</time>
      </trkpt>
      <trkpt lat="43.43199" lon="1.62094">
        <ele>166.465272</ele>
        <time>2020-12-03T19:17:49.407Z</time>
      </trkpt>
      <trkpt lat="43.43229" lon="1.6209">
        <ele>166.522462</ele>
        <time>2020-12-03T19:17:56.241Z</time>
      </trkpt>
      <trkpt lat="43.43252" lon="1.62073">
        <ele>166.570488</ele>
        <time>2020-12-03T19:18:02.102Z</time>
      </trkpt>
      <trkpt lat="43.43432" lon="1.61883">
        <ele>167.411976</ele>
        <time>2020-12-03T19:19:00.503Z</time>
      </trkpt>
      <trkpt lat="43.43566" lon="1.61684">
        <ele>168.313465</ele>
        <time>2020-12-03T19:19:51.807Z</time>
      </trkpt>
      <trkpt lat="43.4369" lon="1.61548">
        <ele>168.512153</ele>
        <time>2020-12-03T19:20:28.914Z</time>
      </trkpt>
      <trkpt lat="43.43772" lon="1.6144">
        <ele>168.237355</ele>
        <time>2020-12-03T19:20:55.133Z</time>
      </trkpt>
      <trkpt lat="43.43851" lon="1.61348">
        <ele>167.625156</ele>
        <time>2020-12-03T19:21:17.746Z</time>
      </trkpt>
      <trkpt lat="43.43908" lon="1.61302">
        <ele>166.828311</ele>
        <time>2020-12-03T19:21:30.901Z</time>
      </trkpt>
      <trkpt lat="43.43912" lon="1.61288">
        <ele>166.639796</ele>
        <time>2020-12-03T19:21:33.155Z</time>
      </trkpt>
      <trkpt lat="43.43926" lon="1.61277">
        <ele>166.379809</ele>
        <time>2020-12-03T19:21:36.439Z</time>
      </trkpt>
      <trkpt lat="43.43942" lon="1.61266">
        <ele>166.080729</ele>
        <time>2020-12-03T19:21:39.704Z</time>
      </trkpt>
      <trkpt lat="43.43957" lon="1.61259">
        <ele>165.810488</ele>
        <time>2020-12-03T19:21:43.140Z</time>
      </trkpt>
      <trkpt lat="43.43964" lon="1.61256">
        <ele>165.693045</ele>
        <time>2020-12-03T19:21:44.453Z</time>
      </trkpt>
      <trkpt lat="43.43966" lon="1.61257">
        <ele>165.6526</ele>
        <time>2020-12-03T19:21:44.837Z</time>
      </trkpt>
      <trkpt lat="43.44001" lon="1.6125">
        <ele>165.059754</ele>
        <time>2020-12-03T19:21:51.780Z</time>
      </trkpt>
      <trkpt lat="43.44005" lon="1.61249">
        <ele>164.998312</ele>
        <time>2020-12-03T19:21:52.388Z</time>
      </trkpt>
      <trkpt lat="43.44022" lon="1.61239">
        <ele>164.69153</ele>
        <time>2020-12-03T19:21:56.202Z</time>
      </trkpt>
      <trkpt lat="43.44078" lon="1.61192">
        <ele>164.179413</ele>
        <time>2020-12-03T19:22:08.933Z</time>
      </trkpt>
      <trkpt lat="43.44097" lon="1.61165">
        <ele>164.035712</ele>
        <time>2020-12-03T19:22:14.461Z</time>
      </trkpt>
      <trkpt lat="43.44168" lon="1.60975">
        <ele>163.819907</ele>
        <time>2020-12-03T19:22:53.197Z</time>
      </trkpt>
      <trkpt lat="43.44218" lon="1.60874">
        <ele>164.33579</ele>
        <time>2020-12-03T19:23:17.404Z</time>
      </trkpt>
      <trkpt lat="43.44295" lon="1.60791">
        <ele>164.511484</ele>
        <time>2020-12-03T19:23:42.611Z</time>
      </trkpt>
      <trkpt lat="43.44361" lon="1.60745">
        <ele>164.458106</ele>
        <time>2020-12-03T19:23:59.425Z</time>
      </trkpt>
      <trkpt lat="43.44406" lon="1.60704">
        <ele>164.369639</ele>
        <time>2020-12-03T19:24:11.058Z</time>
      </trkpt>
      <trkpt lat="43.44531" lon="1.60545">
        <ele>163.252967</ele>
        <time>2020-12-03T19:24:47.217Z</time>
      </trkpt>
      <trkpt lat="43.44557" lon="1.60499">
        <ele>163.446272</ele>
        <time>2020-12-03T19:24:56.669Z</time>
      </trkpt>
      <trkpt lat="43.44569" lon="1.60445">
        <ele>163.651967</ele>
        <time>2020-12-03T19:25:06.473Z</time>
      </trkpt>
      <trkpt lat="43.44565" lon="1.6038">
        <ele>163.883755</ele>
        <time>2020-12-03T19:25:18.373Z</time>
      </trkpt>
      <trkpt lat="43.44525" lon="1.60193">
        <ele>165.437561</ele>
        <time>2020-12-03T19:26:02.336Z</time>
      </trkpt>
      <trkpt lat="43.44517" lon="1.60138">
        <ele>166.016789</ele>
        <time>2020-12-03T19:26:15.227Z</time>
      </trkpt>
      <trkpt lat="43.44519" lon="1.60114">
        <ele>166.264616</ele>
        <time>2020-12-03T19:26:20.248Z</time>
      </trkpt>
      <trkpt lat="43.44521" lon="1.6011">
        <ele>166.312692</ele>
        <time>2020-12-03T19:26:21.846Z</time>
      </trkpt>
      <trkpt lat="43.4453" lon="1.60091">
        <ele>166.558075</ele>
        <time>2020-12-03T19:26:26.876Z</time>
      </trkpt>
      <trkpt lat="43.44544" lon="1.60065">
        <ele>166.698337</ele>
        <time>2020-12-03T19:26:34.024Z</time>
      </trkpt>
      <trkpt lat="43.44574" lon="1.60018">
        <ele>166.671758</ele>
        <time>2020-12-03T19:26:45.527Z</time>
      </trkpt>
      <trkpt lat="43.44599" lon="1.59989">
        <ele>166.652544</ele>
        <time>2020-12-03T19:26:53.244Z</time>
      </trkpt>
      <trkpt lat="43.44651" lon="1.59949">
        <ele>166.617818</ele>
        <time>2020-12-03T19:27:06.747Z</time>
      </trkpt>
      <trkpt lat="43.44684" lon="1.59938">
        <ele>166.545656</ele>
        <time>2020-12-03T19:27:13.613Z</time>
      </trkpt>
      <trkpt lat="43.44694" lon="1.59935">
        <ele>166.411606</ele>
        <time>2020-12-03T19:27:15.607Z</time>
      </trkpt>
      <trkpt lat="43.44696" lon="1.59935">
        <ele>166.392562</ele>
        <time>2020-12-03T19:27:15.845Z</time>
      </trkpt>
      <trkpt lat="43.44765" lon="1.59928">
        <ele>165.52388</ele>
        <time>2020-12-03T19:27:29.804Z</time>
      </trkpt>
      <trkpt lat="43.44931" lon="1.59874">
        <ele>163.795101</ele>
        <time>2020-12-03T19:28:04.708Z</time>
      </trkpt>
      <trkpt lat="43.44966" lon="1.59852">
        <ele>163.511156</ele>
        <time>2020-12-03T19:28:13.032Z</time>
      </trkpt>
      <trkpt lat="43.44988" lon="1.59826">
        <ele>163.298148</ele>
        <time>2020-12-03T19:28:19.355Z</time>
      </trkpt>
      <trkpt lat="43.45033" lon="1.59756">
        <ele>162.922839</ele>
        <time>2020-12-03T19:28:34.459Z</time>
      </trkpt>
      <trkpt lat="43.45065" lon="1.59689">
        <ele>162.71773</ele>
        <time>2020-12-03T19:28:47.708Z</time>
      </trkpt>
      <trkpt lat="43.45117" lon="1.59537">
        <ele>162.189102</ele>
        <time>2020-12-03T19:29:14.566Z</time>
      </trkpt>
      <trkpt lat="43.45164" lon="1.59468">
        <ele>161.739552</ele>
        <time>2020-12-03T19:29:29.211Z</time>
      </trkpt>
      <trkpt lat="43.45205" lon="1.59421">
        <ele>161.384376</ele>
        <time>2020-12-03T19:29:40.645Z</time>
      </trkpt>
      <trkpt lat="43.45256" lon="1.59376">
        <ele>161.093441</ele>
        <time>2020-12-03T19:29:53.586Z</time>
      </trkpt>
      <trkpt lat="43.45303" lon="1.59351">
        <ele>160.91962</ele>
        <time>2020-12-03T19:30:04.397Z</time>
      </trkpt>
      <trkpt lat="43.45468" lon="1.59296">
        <ele>160.360095</ele>
        <time>2020-12-03T19:30:43.293Z</time>
      </trkpt>
      <trkpt lat="43.45487" lon="1.59285">
        <ele>160.299911</ele>
        <time>2020-12-03T19:30:47.913Z</time>
      </trkpt>
      <trkpt lat="43.4552" lon="1.59248">
        <ele>160.170599</ele>
        <time>2020-12-03T19:30:57.187Z</time>
      </trkpt>
      <trkpt lat="43.45535" lon="1.5922">
        <ele>160.093754</ele>
        <time>2020-12-03T19:31:02.736Z</time>
      </trkpt>
      <trkpt lat="43.45567" lon="1.59118">
        <ele>159.873712</ele>
        <time>2020-12-03T19:31:20.626Z</time>
      </trkpt>
      <trkpt lat="43.45569" lon="1.59113">
        <ele>159.861864</ele>
        <time>2020-12-03T19:31:21.439Z</time>
      </trkpt>
      <trkpt lat="43.45571" lon="1.59106">
        <ele>159.847835</ele>
        <time>2020-12-03T19:31:22.569Z</time>
      </trkpt>
      <trkpt lat="43.45571" lon="1.59017">
        <ele>159.675318</ele>
        <time>2020-12-03T19:31:37.299Z</time>
      </trkpt>
      <trkpt lat="43.45583" lon="1.58872">
        <ele>159.921874</ele>
        <time>2020-12-03T19:32:02.319Z</time>
      </trkpt>
      <trkpt lat="43.45585" lon="1.58801">
        <ele>160.204333</ele>
        <time>2020-12-03T19:32:16.329Z</time>
      </trkpt>
      <trkpt lat="43.45564" lon="1.58532">
        <ele>161.659497</ele>
        <time>2020-12-03T19:33:10.214Z</time>
      </trkpt>
      <trkpt lat="43.4557" lon="1.58388">
        <ele>162.354654</ele>
        <time>2020-12-03T19:33:38.797Z</time>
      </trkpt>
      <trkpt lat="43.45582" lon="1.58332">
        <ele>162.578187</ele>
        <time>2020-12-03T19:33:49.976Z</time>
      </trkpt>
      <trkpt lat="43.45614" lon="1.58267">
        <ele>162.877925</ele>
        <time>2020-12-03T19:34:04.538Z</time>
      </trkpt>
      <trkpt lat="43.4579" lon="1.58001">
        <ele>163.513511</ele>
        <time>2020-12-03T19:35:06.230Z</time>
      </trkpt>
      <trkpt lat="43.45822" lon="1.57934">
        <ele>163.78317</ele>
        <time>2020-12-03T19:35:20.802Z</time>
      </trkpt>
      <trkpt lat="43.45893" lon="1.57726">
        <ele>164.954416</ele>
        <time>2020-12-03T19:36:07.296Z</time>
      </trkpt>
      <trkpt lat="43.46045" lon="1.57422">
        <ele>166.452578</ele>
        <time>2020-12-03T19:37:19.644Z</time>
      </trkpt>
      <trkpt lat="43.46192" lon="1.57189">
        <ele>163.019483</ele>
        <time>2020-12-03T19:38:03.998Z</time>
      </trkpt>
      <trkpt lat="43.46228" lon="1.57142">
        <ele>161.841812</ele>
        <time>2020-12-03T19:38:13.085Z</time>
      </trkpt>
      <trkpt lat="43.46294" lon="1.57085">
        <ele>159.996661</ele>
        <time>2020-12-03T19:38:27.438Z</time>
      </trkpt>
      <trkpt lat="43.46301" lon="1.57085">
        <ele>159.8825</ele>
        <time>2020-12-03T19:38:28.499Z</time>
      </trkpt>
      <trkpt lat="43.46313" lon="1.57079">
        <ele>159.649176</ele>
        <time>2020-12-03T19:38:30.938Z</time>
      </trkpt>
      <trkpt lat="43.46374" lon="1.57035">
        <ele>158.427926</ele>
        <time>2020-12-03T19:38:43.875Z</time>
      </trkpt>
      <trkpt lat="43.46398" lon="1.5701">
        <ele>157.880998</ele>
        <time>2020-12-03T19:38:49.832Z</time>
      </trkpt>
      <trkpt lat="43.46422" lon="1.56985">
        <ele>157.338479</ele>
        <time>2020-12-03T19:38:55.947Z</time>
      </trkpt>
      <trkpt lat="43.46438" lon="1.56967">
        <ele>156.97415</ele>
        <time>2020-12-03T19:39:00.253Z</time>
      </trkpt>
      <trkpt lat="43.46445" lon="1.56957">
        <ele>156.881918</ele>
        <time>2020-12-03T19:39:02.444Z</time>
      </trkpt>
      <trkpt lat="43.4646" lon="1.56939">
        <ele>156.979611</ele>
        <time>2020-12-03T19:39:07.177Z</time>
      </trkpt>
      <trkpt lat="43.46549" lon="1.56776">
        <ele>157.703375</ele>
        <time>2020-12-03T19:39:46.586Z</time>
      </trkpt>
      <trkpt lat="43.46608" lon="1.56641">
        <ele>158.638489</ele>
        <time>2020-12-03T19:40:19.026Z</time>
      </trkpt>
      <trkpt lat="43.46691" lon="1.56406">
        <ele>159.695701</ele>
        <time>2020-12-03T19:41:09.145Z</time>
      </trkpt>
      <trkpt lat="43.46888" lon="1.55984">
        <ele>159.572464</ele>
        <time>2020-12-03T19:42:32.826Z</time>
      </trkpt>
      <trkpt lat="43.46979" lon="1.55813">
        <ele>158.962076</ele>
        <time>2020-12-03T19:43:07.004Z</time>
      </trkpt>
      <trkpt lat="43.47013" lon="1.55776">
        <ele>158.732953</ele>
        <time>2020-12-03T19:43:16.392Z</time>
      </trkpt>
      <trkpt lat="43.4704" lon="1.55759">
        <ele>158.579593</ele>
        <time>2020-12-03T19:43:22.646Z</time>
      </trkpt>
      <trkpt lat="43.47211" lon="1.55713">
        <ele>157.532952</ele>
        <time>2020-12-03T19:43:59.985Z</time>
      </trkpt>
      <trkpt lat="43.47416" lon="1.55617">
        <ele>156.950786</ele>
        <time>2020-12-03T19:44:48.565Z</time>
      </trkpt>
      <trkpt lat="43.47454" lon="1.55585">
        <ele>156.897219</ele>
        <time>2020-12-03T19:44:58.763Z</time>
      </trkpt>
      <trkpt lat="43.47581" lon="1.55452">
        <ele>156.68475</ele>
        <time>2020-12-03T19:45:35.243Z</time>
      </trkpt>
      <trkpt lat="43.47598" lon="1.55435">
        <ele>156.648382</ele>
        <time>2020-12-03T19:45:40.131Z</time>
      </trkpt>
      <trkpt lat="43.4767" lon="1.55375">
        <ele>156.506092</ele>
        <time>2020-12-03T19:45:59.009Z</time>
      </trkpt>
      <trkpt lat="43.4772" lon="1.55327">
        <ele>156.422245</ele>
        <time>2020-12-03T19:46:12.841Z</time>
      </trkpt>
      <trkpt lat="43.47762" lon="1.5528">
        <ele>156.365792</ele>
        <time>2020-12-03T19:46:25.056Z</time>
      </trkpt>
      <trkpt lat="43.47801" lon="1.55237">
        <ele>156.313744</ele>
        <time>2020-12-03T19:46:36.487Z</time>
      </trkpt>
      <trkpt lat="43.47869" lon="1.5515">
        <ele>156.295389</ele>
        <time>2020-12-03T19:46:58.044Z</time>
      </trkpt>
      <trkpt lat="43.47998" lon="1.55059">
        <ele>156.39191</ele>
        <time>2020-12-03T19:47:32.257Z</time>
      </trkpt>
      <trkpt lat="43.48041" lon="1.55015">
        <ele>156.418662</ele>
        <time>2020-12-03T19:47:44.979Z</time>
      </trkpt>
      <trkpt lat="43.48057" lon="1.5498">
        <ele>156.43381</ele>
        <time>2020-12-03T19:47:52.155Z</time>
      </trkpt>
      <trkpt lat="43.48068" lon="1.54938">
        <ele>156.449874</ele>
        <time>2020-12-03T19:47:59.717Z</time>
      </trkpt>
      <trkpt lat="43.4808" lon="1.54852">
        <ele>156.455127</ele>
        <time>2020-12-03T19:48:14.409Z</time>
      </trkpt>
      <trkpt lat="43.48094" lon="1.54827">
        <ele>156.408132</ele>
        <time>2020-12-03T19:48:19.717Z</time>
      </trkpt>
      <trkpt lat="43.48197" lon="1.54763">
        <ele>156.177602</ele>
        <time>2020-12-03T19:48:45.289Z</time>
      </trkpt>
      <trkpt lat="43.48289" lon="1.54679">
        <ele>156.038087</ele>
        <time>2020-12-03T19:49:09.886Z</time>
      </trkpt>
      <trkpt lat="43.48318" lon="1.54671">
        <ele>156.010624</ele>
        <time>2020-12-03T19:49:16.535Z</time>
      </trkpt>
      <trkpt lat="43.48385" lon="1.54686">
        <ele>155.946272</ele>
        <time>2020-12-03T19:49:32.381Z</time>
      </trkpt>
      <trkpt lat="43.48413" lon="1.54684">
        <ele>155.994353</ele>
        <time>2020-12-03T19:49:39.008Z</time>
      </trkpt>
      <trkpt lat="43.48502" lon="1.54651">
        <ele>156.211143</ele>
        <time>2020-12-03T19:50:01.687Z</time>
      </trkpt>
      <trkpt lat="43.48618" lon="1.54627">
        <ele>156.511549</ele>
        <time>2020-12-03T19:50:30.613Z</time>
      </trkpt>
      <trkpt lat="43.48693" lon="1.5459">
        <ele>156.734444</ele>
        <time>2020-12-03T19:50:49.932Z</time>
      </trkpt>
      <trkpt lat="43.48747" lon="1.54539">
        <ele>156.951925</ele>
        <time>2020-12-03T19:51:05.895Z</time>
      </trkpt>
      <trkpt lat="43.48824" lon="1.54422">
        <ele>157.506428</ele>
        <time>2020-12-03T19:51:35.250Z</time>
      </trkpt>
      <trkpt lat="43.48918" lon="1.54293">
        <ele>158.150179</ele>
        <time>2020-12-03T19:52:10.412Z</time>
      </trkpt>
      <trkpt lat="43.48936" lon="1.54258">
        <ele>158.303025</ele>
        <time>2020-12-03T19:52:18.569Z</time>
      </trkpt>
      <trkpt lat="43.48958" lon="1.54197">
        <ele>158.543612</ele>
        <time>2020-12-03T19:52:31.105Z</time>
      </trkpt>
      <trkpt lat="43.48973" lon="1.54107">
        <ele>158.433299</ele>
        <time>2020-12-03T19:52:46.745Z</time>
      </trkpt>
      <trkpt lat="43.48979" lon="1.54003">
        <ele>158.165027</ele>
        <time>2020-12-03T19:53:03.600Z</time>
      </trkpt>
      <trkpt lat="43.48978" lon="1.53935">
        <ele>157.991241</ele>
        <time>2020-12-03T19:53:14.172Z</time>
      </trkpt>
      <trkpt lat="43.48965" lon="1.53812">
        <ele>157.132718</ele>
        <time>2020-12-03T19:53:32.963Z</time>
      </trkpt>
      <trkpt lat="43.48961" lon="1.53717">
        <ele>156.459714</ele>
        <time>2020-12-03T19:53:47.193Z</time>
      </trkpt>
      <trkpt lat="43.48976" lon="1.53668">
        <ele>156.079631</ele>
        <time>2020-12-03T19:53:55.304Z</time>
      </trkpt>
      <trkpt lat="43.48998" lon="1.53639">
        <ele>155.789544</ele>
        <time>2020-12-03T19:54:01.541Z</time>
      </trkpt>
      <trkpt lat="43.49037" lon="1.53623">
        <ele>155.397199</ele>
        <time>2020-12-03T19:54:09.982Z</time>
      </trkpt>
      <trkpt lat="43.4917" lon="1.53658">
        <ele>154.287304</ele>
        <time>2020-12-03T19:54:38.342Z</time>
      </trkpt>
      <trkpt lat="43.49233" lon="1.53664">
        <ele>153.968361</ele>
        <time>2020-12-03T19:54:52.047Z</time>
      </trkpt>
      <trkpt lat="43.49304" lon="1.53662">
        <ele>153.611942</ele>
        <time>2020-12-03T19:55:07.791Z</time>
      </trkpt>
      <trkpt lat="43.49369" lon="1.53655">
        <ele>153.723726</ele>
        <time>2020-12-03T19:55:22.714Z</time>
      </trkpt>
      <trkpt lat="43.49471" lon="1.53628">
        <ele>153.948325</ele>
        <time>2020-12-03T19:55:48.096Z</time>
      </trkpt>
      <trkpt lat="43.49539" lon="1.53605">
        <ele>154.592075</ele>
        <time>2020-12-03T19:56:07.481Z</time>
      </trkpt>
      <trkpt lat="43.49599" lon="1.53576">
        <ele>155.304803</ele>
        <time>2020-12-03T19:56:25.828Z</time>
      </trkpt>
      <trkpt lat="43.49603" lon="1.53572">
        <ele>155.360535</ele>
        <time>2020-12-03T19:56:27.501Z</time>
      </trkpt>
      <trkpt lat="43.49627" lon="1.53548">
        <ele>155.700331</ele>
        <time>2020-12-03T19:56:36.437Z</time>
      </trkpt>
      <trkpt lat="43.49679" lon="1.53486">
        <ele>156.540517</ele>
        <time>2020-12-03T19:56:57.441Z</time>
      </trkpt>
      <trkpt lat="43.49774" lon="1.53317">
        <ele>158.41334</ele>
        <time>2020-12-03T19:57:43.790Z</time>
      </trkpt>
      <trkpt lat="43.49845" lon="1.53223">
        <ele>158.822901</ele>
        <time>2020-12-03T19:58:09.390Z</time>
      </trkpt>
      <trkpt lat="43.50005" lon="1.53073">
        <ele>158.839297</ele>
        <time>2020-12-03T19:58:53.192Z</time>
      </trkpt>
      <trkpt lat="43.50131" lon="1.52923">
        <ele>158.448583</ele>
        <time>2020-12-03T19:59:30.309Z</time>
      </trkpt>
      <trkpt lat="43.50272" lon="1.52802">
        <ele>158.077915</ele>
        <time>2020-12-03T20:00:07.988Z</time>
      </trkpt>
      <trkpt lat="43.50346" lon="1.52713">
        <ele>157.800224</ele>
        <time>2020-12-03T20:00:30.197Z</time>
      </trkpt>
      <trkpt lat="43.50363" lon="1.52678">
        <ele>157.628464</ele>
        <time>2020-12-03T20:00:36.980Z</time>
      </trkpt>
      <trkpt lat="43.50385" lon="1.52599">
        <ele>157.284146</ele>
        <time>2020-12-03T20:00:50.472Z</time>
      </trkpt>
      <trkpt lat="43.50422" lon="1.52417">
        <ele>156.262115</ele>
        <time>2020-12-03T20:01:19.366Z</time>
      </trkpt>
      <trkpt lat="43.50424" lon="1.52391">
        <ele>156.08786</ele>
        <time>2020-12-03T20:01:23.302Z</time>
      </trkpt>
      <trkpt lat="43.50423" lon="1.52365">
        <ele>155.916058</ele>
        <time>2020-12-03T20:01:27.269Z</time>
      </trkpt>
      <trkpt lat="43.50422" lon="1.52345">
        <ele>155.784737</ele>
        <time>2020-12-03T20:01:30.291Z</time>
      </trkpt>
      <trkpt lat="43.50422" lon="1.52342">
        <ele>155.764024</ele>
        <time>2020-12-03T20:01:30.718Z</time>
      </trkpt>
      <trkpt lat="43.50428" lon="1.52236">
        <ele>155.149784</ele>
        <time>2020-12-03T20:01:47.060Z</time>
      </trkpt>
      <trkpt lat="43.50434" lon="1.52203">
        <ele>155.035142</ele>
        <time>2020-12-03T20:01:52.269Z</time>
      </trkpt>
      <trkpt lat="43.50455" lon="1.5216">
        <ele>154.858644</ele>
        <time>2020-12-03T20:02:00.258Z</time>
      </trkpt>
      <trkpt lat="43.50496" lon="1.52112">
        <ele>154.605901</ele>
        <time>2020-12-03T20:02:12.191Z</time>
      </trkpt>
      <trkpt lat="43.50539" lon="1.52088">
        <ele>154.417151</ele>
        <time>2020-12-03T20:02:22.744Z</time>
      </trkpt>
      <trkpt lat="43.50677" lon="1.52064">
        <ele>154.760816</ele>
        <time>2020-12-03T20:02:56.295Z</time>
      </trkpt>
      <trkpt lat="43.50712" lon="1.52051">
        <ele>154.849353</ele>
        <time>2020-12-03T20:03:05.549Z</time>
      </trkpt>
      <trkpt lat="43.50789" lon="1.51981">
        <ele>155.46846</ele>
        <time>2020-12-03T20:03:30.102Z</time>
      </trkpt>
      <trkpt lat="43.50912" lon="1.51843">
        <ele>156.214089</ele>
        <time>2020-12-03T20:04:12.871Z</time>
      </trkpt>
      <trkpt lat="43.50953" lon="1.51806">
        <ele>156.319333</ele>
        <time>2020-12-03T20:04:25.137Z</time>
      </trkpt>
      <trkpt lat="43.51092" lon="1.51739">
        <ele>155.78442</ele>
        <time>2020-12-03T20:04:57.266Z</time>
      </trkpt>
      <trkpt lat="43.51112" lon="1.51742">
        <ele>155.626681</ele>
        <time>2020-12-03T20:05:01.744Z</time>
      </trkpt>
      <trkpt lat="43.51122" lon="1.51739">
        <ele>155.548956</ele>
        <time>2020-12-03T20:05:03.745Z</time>
      </trkpt>
      <trkpt lat="43.5113" lon="1.51736">
        <ele>155.491421</ele>
        <time>2020-12-03T20:05:05.341Z</time>
      </trkpt>
      <trkpt lat="43.51154" lon="1.51725">
        <ele>155.29612</ele>
        <time>2020-12-03T20:05:10.695Z</time>
      </trkpt>
      <trkpt lat="43.51305" lon="1.51688">
        <ele>153.896238</ele>
        <time>2020-12-03T20:05:42.151Z</time>
      </trkpt>
      <trkpt lat="43.51325" lon="1.51682">
        <ele>153.700513</ele>
        <time>2020-12-03T20:05:46.505Z</time>
      </trkpt>
      <trkpt lat="43.51328" lon="1.51681">
        <ele>153.675278</ele>
        <time>2020-12-03T20:05:47.047Z</time>
      </trkpt>
      <trkpt lat="43.51407" lon="1.51656">
        <ele>153.11882</ele>
        <time>2020-12-03T20:06:04.802Z</time>
      </trkpt>
      <trkpt lat="43.51408" lon="1.51656">
        <ele>153.117234</ele>
        <time>2020-12-03T20:06:04.912Z</time>
      </trkpt>
      <trkpt lat="43.51447" lon="1.51657">
        <ele>152.912161</ele>
        <time>2020-12-03T20:06:13.546Z</time>
      </trkpt>
      <trkpt lat="43.51465" lon="1.51681">
        <ele>152.785287</ele>
        <time>2020-12-03T20:06:18.890Z</time>
      </trkpt>
      <trkpt lat="43.51483" lon="1.51717">
        <ele>152.623126</ele>
        <time>2020-12-03T20:06:25.978Z</time>
      </trkpt>
      <trkpt lat="43.51485" lon="1.51749">
        <ele>152.506478</ele>
        <time>2020-12-03T20:06:31.024Z</time>
      </trkpt>
      <trkpt lat="43.51479" lon="1.51791">
        <ele>152.399457</ele>
        <time>2020-12-03T20:06:37.878Z</time>
      </trkpt>
      <trkpt lat="43.51476" lon="1.51824">
        <ele>152.339934</ele>
        <time>2020-12-03T20:06:43.235Z</time>
      </trkpt>
      <trkpt lat="43.51475" lon="1.51833">
        <ele>152.322974</ele>
        <time>2020-12-03T20:06:44.642Z</time>
      </trkpt>
      <trkpt lat="43.51481" lon="1.51913">
        <ele>152.180124</ele>
        <time>2020-12-03T20:06:57.587Z</time>
      </trkpt>
      <trkpt lat="43.51502" lon="1.51949">
        <ele>152.09608</ele>
        <time>2020-12-03T20:07:05.249Z</time>
      </trkpt>
      <trkpt lat="43.51514" lon="1.51964">
        <ele>152.056593</ele>
        <time>2020-12-03T20:07:08.738Z</time>
      </trkpt>
      <trkpt lat="43.51523" lon="1.51976">
        <ele>152.024501</ele>
        <time>2020-12-03T20:07:11.872Z</time>
      </trkpt>
      <trkpt lat="43.516" lon="1.52059">
        <ele>152.508951</ele>
        <time>2020-12-03T20:07:35.915Z</time>
      </trkpt>
      <trkpt lat="43.51642" lon="1.52064">
        <ele>152.745441</ele>
        <time>2020-12-03T20:07:47.230Z</time>
      </trkpt>
      <trkpt lat="43.51684" lon="1.5205">
        <ele>152.99109</ele>
        <time>2020-12-03T20:07:59.765Z</time>
      </trkpt>
      <trkpt lat="43.51803" lon="1.51977">
        <ele>153.949608</ele>
        <time>2020-12-03T20:08:35.928Z</time>
      </trkpt>
      <trkpt lat="43.51833" lon="1.51977">
        <ele>154.167565</ele>
        <time>2020-12-03T20:08:43.472Z</time>
      </trkpt>
      <trkpt lat="43.51929" lon="1.52016">
        <ele>154.526284</ele>
        <time>2020-12-03T20:09:07.978Z</time>
      </trkpt>
      <trkpt lat="43.5199" lon="1.52022">
        <ele>154.673337</ele>
        <time>2020-12-03T20:09:22.796Z</time>
      </trkpt>
      <trkpt lat="43.52036" lon="1.52008">
        <ele>154.769134</ele>
        <time>2020-12-03T20:09:33.896Z</time>
      </trkpt>
      <trkpt lat="43.52114" lon="1.51956">
        <ele>154.662962</ele>
        <time>2020-12-03T20:09:54.825Z</time>
      </trkpt>
      <trkpt lat="43.52227" lon="1.51938">
        <ele>154.29816</ele>
        <time>2020-12-03T20:10:20.314Z</time>
      </trkpt>
      <trkpt lat="43.52308" lon="1.51911">
        <ele>153.419443</ele>
        <time>2020-12-03T20:10:37.354Z</time>
      </trkpt>
      <trkpt lat="43.52326" lon="1.519">
        <ele>153.213295</ele>
        <time>2020-12-03T20:10:41.585Z</time>
      </trkpt>
      <trkpt lat="43.52331" lon="1.51897">
        <ele>153.159098</ele>
        <time>2020-12-03T20:10:42.494Z</time>
      </trkpt>
      <trkpt lat="43.52343" lon="1.51891">
        <ele>153.028395</ele>
        <time>2020-12-03T20:10:44.864Z</time>
      </trkpt>
      <trkpt lat="43.5236" lon="1.51888">
        <ele>152.849341</ele>
        <time>2020-12-03T20:10:48.394Z</time>
      </trkpt>
      <trkpt lat="43.52367" lon="1.51887">
        <ele>152.766036</ele>
        <time>2020-12-03T20:10:49.775Z</time>
      </trkpt>
      <trkpt lat="43.52402" lon="1.51876">
        <ele>152.432008</ele>
        <time>2020-12-03T20:10:56.600Z</time>
      </trkpt>
      <trkpt lat="43.52413" lon="1.51874">
        <ele>152.329604</ele>
        <time>2020-12-03T20:10:58.865Z</time>
      </trkpt>
      <trkpt lat="43.52462" lon="1.51851">
        <ele>151.863978</ele>
        <time>2020-12-03T20:11:09.547Z</time>
      </trkpt>
      <trkpt lat="43.52522" lon="1.51797">
        <ele>151.22507</ele>
        <time>2020-12-03T20:11:24.527Z</time>
      </trkpt>
      <trkpt lat="43.52553" lon="1.51752">
        <ele>151.011687</ele>
        <time>2020-12-03T20:11:34.927Z</time>
      </trkpt>
      <trkpt lat="43.5258" lon="1.51688">
        <ele>150.934019</ele>
        <time>2020-12-03T20:11:47.447Z</time>
      </trkpt>
      <trkpt lat="43.52605" lon="1.5161">
        <ele>150.844873</ele>
        <time>2020-12-03T20:12:01.657Z</time>
      </trkpt>
      <trkpt lat="43.52623" lon="1.51516">
        <ele>150.618707</ele>
        <time>2020-12-03T20:12:17.667Z</time>
      </trkpt>
      <trkpt lat="43.52638" lon="1.51387">
        <ele>150.113746</ele>
        <time>2020-12-03T20:12:38.220Z</time>
      </trkpt>
      <trkpt lat="43.5265" lon="1.51209">
        <ele>149.482669</ele>
        <time>2020-12-03T20:13:05.981Z</time>
      </trkpt>
      <trkpt lat="43.52664" lon="1.51124">
        <ele>149.195606</ele>
        <time>2020-12-03T20:13:19.943Z</time>
      </trkpt>
      <trkpt lat="43.52695" lon="1.51016">
        <ele>149.174593</ele>
        <time>2020-12-03T20:13:39.473Z</time>
      </trkpt>
      <trkpt lat="43.5274" lon="1.50932">
        <ele>149.442677</ele>
        <time>2020-12-03T20:13:58.469Z</time>
      </trkpt>
      <trkpt lat="43.52782" lon="1.50886">
        <ele>149.638434</ele>
        <time>2020-12-03T20:14:12.940Z</time>
      </trkpt>
      <trkpt lat="43.52853" lon="1.50846">
        <ele>149.961911</ele>
        <time>2020-12-03T20:14:33.036Z</time>
      </trkpt>
      <trkpt lat="43.52878" lon="1.50826">
        <ele>150.085292</ele>
        <time>2020-12-03T20:14:40.523Z</time>
      </trkpt>
      <trkpt lat="43.53024" lon="1.50669">
        <ele>150.348791</ele>
        <time>2020-12-03T20:15:24.900Z</time>
      </trkpt>
      <trkpt lat="43.53109" lon="1.50603">
        <ele>150.20204</ele>
        <time>2020-12-03T20:15:46.493Z</time>
      </trkpt>
      <trkpt lat="43.53184" lon="1.5057">
        <ele>149.878446</ele>
        <time>2020-12-03T20:16:03.912Z</time>
      </trkpt>
      <trkpt lat="43.53235" lon="1.50555">
        <ele>149.668661</ele>
        <time>2020-12-03T20:16:15.206Z</time>
      </trkpt>
      <trkpt lat="43.53379" lon="1.50533">
        <ele>149.33107</ele>
        <time>2020-12-03T20:16:47.603Z</time>
      </trkpt>
      <trkpt lat="43.53413" lon="1.50519">
        <ele>149.263928</ele>
        <time>2020-12-03T20:16:55.655Z</time>
      </trkpt>
      <trkpt lat="43.53463" lon="1.50488">
        <ele>149.214869</ele>
        <time>2020-12-03T20:17:08.583Z</time>
      </trkpt>
      <trkpt lat="43.53593" lon="1.50378">
        <ele>149.221686</ele>
        <time>2020-12-03T20:17:44.119Z</time>
      </trkpt>
      <trkpt lat="43.53674" lon="1.50279">
        <ele>148.961516</ele>
        <time>2020-12-03T20:18:08.653Z</time>
      </trkpt>
      <trkpt lat="43.53726" lon="1.50203">
        <ele>148.790665</ele>
        <time>2020-12-03T20:18:25.389Z</time>
      </trkpt>
      <trkpt lat="43.53769" lon="1.50107">
        <ele>148.748771</ele>
        <time>2020-12-03T20:18:43.687Z</time>
      </trkpt>
      <trkpt lat="43.53855" lon="1.49956">
        <ele>148.800893</ele>
        <time>2020-12-03T20:19:17.208Z</time>
      </trkpt>
      <trkpt lat="43.53877" lon="1.49904">
        <ele>148.893434</ele>
        <time>2020-12-03T20:19:27.970Z</time>
      </trkpt>
      <trkpt lat="43.53894" lon="1.49842">
        <ele>148.996661</ele>
        <time>2020-12-03T20:19:39.843Z</time>
      </trkpt>
      <trkpt lat="43.53902" lon="1.49783">
        <ele>149.087693</ele>
        <time>2020-12-03T20:19:50.312Z</time>
      </trkpt>
      <trkpt lat="43.53901" lon="1.49715">
        <ele>149.150721</ele>
        <time>2020-12-03T20:20:02.247Z</time>
      </trkpt>
      <trkpt lat="43.53869" lon="1.49514">
        <ele>149.398012</ele>
        <time>2020-12-03T20:20:37.166Z</time>
      </trkpt>
      <trkpt lat="43.53857" lon="1.49412">
        <ele>149.714807</ele>
        <time>2020-12-03T20:20:55.695Z</time>
      </trkpt>
      <trkpt lat="43.53854" lon="1.49365">
        <ele>149.857861</ele>
        <time>2020-12-03T20:21:04.461Z</time>
      </trkpt>
      <trkpt lat="43.53864" lon="1.49315">
        <ele>150.016672</ele>
        <time>2020-12-03T20:21:14.493Z</time>
      </trkpt>
      <trkpt lat="43.539" lon="1.49273">
        <ele>150.379389</ele>
        <time>2020-12-03T20:21:27.420Z</time>
      </trkpt>
      <trkpt lat="43.53928" lon="1.49259">
        <ele>150.641708</ele>
        <time>2020-12-03T20:21:35.517Z</time>
      </trkpt>
      <trkpt lat="43.54017" lon="1.49239">
        <ele>151.44823</ele>
        <time>2020-12-03T20:22:00.701Z</time>
      </trkpt>
      <trkpt lat="43.54161" lon="1.49154">
        <ele>152.872168</ele>
        <time>2020-12-03T20:22:44.870Z</time>
      </trkpt>
      <trkpt lat="43.54198" lon="1.49132">
        <ele>153.238245</ele>
        <time>2020-12-03T20:22:55.832Z</time>
      </trkpt>
      <trkpt lat="43.54231" lon="1.49113">
        <ele>153.384696</ele>
        <time>2020-12-03T20:23:05.491Z</time>
      </trkpt>
      <trkpt lat="43.54355" lon="1.49052">
        <ele>153.703283</ele>
        <time>2020-12-03T20:23:37.764Z</time>
      </trkpt>
      <trkpt lat="43.54395" lon="1.49037">
        <ele>153.591366</ele>
        <time>2020-12-03T20:23:46.969Z</time>
      </trkpt>
      <trkpt lat="43.54422" lon="1.49025">
        <ele>153.362012</ele>
        <time>2020-12-03T20:23:53.085Z</time>
      </trkpt>
      <trkpt lat="43.54431" lon="1.49021">
        <ele>153.285953</ele>
        <time>2020-12-03T20:23:55.065Z</time>
      </trkpt>
      <trkpt lat="43.54455" lon="1.49009">
        <ele>153.083299</ele>
        <time>2020-12-03T20:24:00.413Z</time>
      </trkpt>
      <trkpt lat="43.54461" lon="1.49003">
        <ele>153.021013</ele>
        <time>2020-12-03T20:24:01.947Z</time>
      </trkpt>
      <trkpt lat="43.54468" lon="1.4899">
        <ele>152.925651</ele>
        <time>2020-12-03T20:24:04.330Z</time>
      </trkpt>
      <trkpt lat="43.54528" lon="1.48841">
        <ele>152.007488</ele>
        <time>2020-12-03T20:24:30.119Z</time>
      </trkpt>
      <trkpt lat="43.54533" lon="1.48829">
        <ele>151.941563</ele>
        <time>2020-12-03T20:24:32.140Z</time>
      </trkpt>
      <trkpt lat="43.54542" lon="1.48802">
        <ele>151.799715</ele>
        <time>2020-12-03T20:24:36.847Z</time>
      </trkpt>
      <trkpt lat="43.54589" lon="1.48679">
        <ele>151.14667</ele>
        <time>2020-12-03T20:24:58.952Z</time>
      </trkpt>
      <trkpt lat="43.54626" lon="1.48615">
        <ele>150.926294</ele>
        <time>2020-12-03T20:25:12.211Z</time>
      </trkpt>
      <trkpt lat="43.5465" lon="1.48586">
        <ele>150.808851</ele>
        <time>2020-12-03T20:25:19.400Z</time>
      </trkpt>
      <trkpt lat="43.54781" lon="1.4848">
        <ele>150.277432</ele>
        <time>2020-12-03T20:25:52.542Z</time>
      </trkpt>
      <trkpt lat="43.54794" lon="1.48471">
        <ele>150.228788</ele>
        <time>2020-12-03T20:25:55.739Z</time>
      </trkpt>
      <trkpt lat="43.54801" lon="1.48466">
        <ele>150.203951</ele>
        <time>2020-12-03T20:25:57.462Z</time>
      </trkpt>
      <trkpt lat="43.54805" lon="1.48464">
        <ele>150.189603</ele>
        <time>2020-12-03T20:25:58.451Z</time>
      </trkpt>
      <trkpt lat="43.54808" lon="1.48462">
        <ele>150.176833</ele>
        <time>2020-12-03T20:25:59.338Z</time>
      </trkpt>
      <trkpt lat="43.54812" lon="1.4846">
        <ele>150.164628</ele>
        <time>2020-12-03T20:26:00.177Z</time>
      </trkpt>
      <trkpt lat="43.54817" lon="1.48458">
        <ele>150.148102</ele>
        <time>2020-12-03T20:26:01.294Z</time>
      </trkpt>
      <trkpt lat="43.54819" lon="1.48458">
        <ele>150.141237</ele>
        <time>2020-12-03T20:26:01.746Z</time>
      </trkpt>
      <trkpt lat="43.54823" lon="1.48458">
        <ele>150.125525</ele>
        <time>2020-12-03T20:26:02.776Z</time>
      </trkpt>
      <trkpt lat="43.54826" lon="1.48459">
        <ele>150.116227</ele>
        <time>2020-12-03T20:26:03.393Z</time>
      </trkpt>
      <trkpt lat="43.54829" lon="1.4846">
        <ele>150.107723</ele>
        <time>2020-12-03T20:26:03.947Z</time>
      </trkpt>
      <trkpt lat="43.5483" lon="1.48461">
        <ele>150.101773</ele>
        <time>2020-12-03T20:26:04.354Z</time>
      </trkpt>
      <trkpt lat="43.54832" lon="1.48462">
        <ele>150.096223</ele>
        <time>2020-12-03T20:26:04.743Z</time>
      </trkpt>
      <trkpt lat="43.54837" lon="1.48474">
        <ele>150.063605</ele>
        <time>2020-12-03T20:26:07.034Z</time>
      </trkpt>
      <trkpt lat="43.54831" lon="1.48485">
        <ele>150.031008</ele>
        <time>2020-12-03T20:26:09.274Z</time>
      </trkpt>
      <trkpt lat="43.54821" lon="1.48481">
        <ele>149.997408</ele>
        <time>2020-12-03T20:26:11.500Z</time>
      </trkpt>
      <trkpt lat="43.54822" lon="1.48466">
        <ele>149.961339</ele>
        <time>2020-12-03T20:26:14.054Z</time>
      </trkpt>
      <trkpt lat="43.54823" lon="1.48464">
        <ele>149.955245</ele>
        <time>2020-12-03T20:26:14.505Z</time>
      </trkpt>
      <trkpt lat="43.54863" lon="1.48432">
        <ele>149.967597</ele>
        <time>2020-12-03T20:26:25.209Z</time>
      </trkpt>
      <trkpt lat="43.54864" lon="1.48431">
        <ele>149.970444</ele>
        <time>2020-12-03T20:26:25.457Z</time>
      </trkpt>
      <trkpt lat="43.54866" lon="1.48429">
        <ele>149.977061</ele>
        <time>2020-12-03T20:26:25.949Z</time>
      </trkpt>
      <trkpt lat="43.54866" lon="1.48428">
        <ele>149.980035</ele>
        <time>2020-12-03T20:26:26.186Z</time>
      </trkpt>
      <trkpt lat="43.5493" lon="1.48372">
        <ele>150.1985</ele>
        <time>2020-12-03T20:26:44.817Z</time>
      </trkpt>
      <trkpt lat="43.54983" lon="1.48319">
        <ele>150.386121</ele>
        <time>2020-12-03T20:27:00.641Z</time>
      </trkpt>
      <trkpt lat="43.55013" lon="1.4829">
        <ele>150.459716</ele>
        <time>2020-12-03T20:27:08.994Z</time>
      </trkpt>
      <trkpt lat="43.55043" lon="1.48261">
        <ele>150.526804</ele>
        <time>2020-12-03T20:27:17.645Z</time>
      </trkpt>
      <trkpt lat="43.55076" lon="1.4823">
        <ele>150.597645</ele>
        <time>2020-12-03T20:27:26.884Z</time>
      </trkpt>
      <trkpt lat="43.55131" lon="1.48202">
        <ele>150.701327</ele>
        <time>2020-12-03T20:27:40.515Z</time>
      </trkpt>
      <trkpt lat="43.55142" lon="1.48198">
        <ele>150.72207</ele>
        <time>2020-12-03T20:27:43.012Z</time>
      </trkpt>
      <trkpt lat="43.55163" lon="1.4819">
        <ele>150.741282</ele>
        <time>2020-12-03T20:27:47.988Z</time>
      </trkpt>
      <trkpt lat="43.55236" lon="1.48165">
        <ele>150.788561</ele>
        <time>2020-12-03T20:28:04.454Z</time>
      </trkpt>
      <trkpt lat="43.55259" lon="1.48156">
        <ele>150.80377</ele>
        <time>2020-12-03T20:28:09.819Z</time>
      </trkpt>
      <trkpt lat="43.55345" lon="1.4813">
        <ele>150.925418</ele>
        <time>2020-12-03T20:28:30.285Z</time>
      </trkpt>
      <trkpt lat="43.55452" lon="1.48123">
        <ele>151.276941</ele>
        <time>2020-12-03T20:28:55.028Z</time>
      </trkpt>
      <trkpt lat="43.55472" lon="1.48118">
        <ele>151.343422</ele>
        <time>2020-12-03T20:29:00.390Z</time>
      </trkpt>
      <trkpt lat="43.55476" lon="1.48116">
        <ele>151.357844</ele>
        <time>2020-12-03T20:29:01.391Z</time>
      </trkpt>
      <trkpt lat="43.55481" lon="1.48115">
        <ele>151.374718</ele>
        <time>2020-12-03T20:29:02.555Z</time>
      </trkpt>
      <trkpt lat="43.55485" lon="1.48114">
        <ele>151.389289</ele>
        <time>2020-12-03T20:29:03.577Z</time>
      </trkpt>
      <trkpt lat="43.55491" lon="1.48111">
        <ele>151.410461</ele>
        <time>2020-12-03T20:29:05.102Z</time>
      </trkpt>
      <trkpt lat="43.55532" lon="1.48093">
        <ele>151.759071</ele>
        <time>2020-12-03T20:29:16.095Z</time>
      </trkpt>
      <trkpt lat="43.55556" lon="1.48084">
        <ele>151.996025</ele>
        <time>2020-12-03T20:29:22.586Z</time>
      </trkpt>
      <trkpt lat="43.55565" lon="1.48082">
        <ele>152.080608</ele>
        <time>2020-12-03T20:29:24.971Z</time>
      </trkpt>
      <trkpt lat="43.5557" lon="1.48081">
        <ele>152.12862</ele>
        <time>2020-12-03T20:29:26.680Z</time>
      </trkpt>
      <trkpt lat="43.55595" lon="1.48071">
        <ele>152.375216</ele>
        <time>2020-12-03T20:29:33.370Z</time>
      </trkpt>
      <trkpt lat="43.5561" lon="1.48061">
        <ele>152.52672</ele>
        <time>2020-12-03T20:29:38.227Z</time>
      </trkpt>
      <trkpt lat="43.55664" lon="1.48021">
        <ele>153.101326</ele>
        <time>2020-12-03T20:29:55.234Z</time>
      </trkpt>
      <trkpt lat="43.55763" lon="1.47929">
        <ele>154.298708</ele>
        <time>2020-12-03T20:30:29.262Z</time>
      </trkpt>
      <trkpt lat="43.55863" lon="1.47785">
        <ele>155.339548</ele>
        <time>2020-12-03T20:31:06.080Z</time>
      </trkpt>
      <trkpt lat="43.55952" lon="1.47666">
        <ele>155.922782</ele>
        <time>2020-12-03T20:31:35.590Z</time>
      </trkpt>
      <trkpt lat="43.56009" lon="1.476">
        <ele>156.158267</ele>
        <time>2020-12-03T20:31:54.402Z</time>
      </trkpt>
      <trkpt lat="43.56067" lon="1.47534">
        <ele>156.39677</ele>
        <time>2020-12-03T20:32:11.930Z</time>
      </trkpt>
      <trkpt lat="43.5612" lon="1.47474">
        <ele>156.016008</ele>
        <time>2020-12-03T20:32:27.017Z</time>
      </trkpt>
      <trkpt lat="43.56129" lon="1.47464">
        <ele>155.94815</ele>
        <time>2020-12-03T20:32:29.642Z</time>
      </trkpt>
      <trkpt lat="43.5615" lon="1.47439">
        <ele>155.779371</ele>
        <time>2020-12-03T20:32:35.413Z</time>
      </trkpt>
      <trkpt lat="43.56303" lon="1.4724">
        <ele>153.547741</ele>
        <time>2020-12-03T20:33:16.188Z</time>
      </trkpt>
      <trkpt lat="43.56346" lon="1.47195">
        <ele>152.867783</ele>
        <time>2020-12-03T20:33:26.617Z</time>
      </trkpt>
      <trkpt lat="43.56418" lon="1.47163">
        <ele>152.193132</ele>
        <time>2020-12-03T20:33:41.240Z</time>
      </trkpt>
      <trkpt lat="43.56511" lon="1.47168">
        <ele>151.371846</ele>
        <time>2020-12-03T20:34:00.350Z</time>
      </trkpt>
      <trkpt lat="43.56517" lon="1.47168">
        <ele>151.347479</ele>
        <time>2020-12-03T20:34:01.543Z</time>
      </trkpt>
      <trkpt lat="43.56518" lon="1.47168">
        <ele>151.350052</ele>
        <time>2020-12-03T20:34:01.825Z</time>
      </trkpt>
      <trkpt lat="43.56521" lon="1.47167">
        <ele>151.356465</ele>
        <time>2020-12-03T20:34:02.443Z</time>
      </trkpt>
      <trkpt lat="43.56521" lon="1.47167">
        <ele>151.357867</ele>
        <time>2020-12-03T20:34:02.617Z</time>
      </trkpt>
      <trkpt lat="43.56559" lon="1.47168">
        <ele>151.445791</ele>
        <time>2020-12-03T20:34:10.906Z</time>
      </trkpt>
      <trkpt lat="43.56559" lon="1.47171">
        <ele>151.451341</ele>
        <time>2020-12-03T20:34:11.422Z</time>
      </trkpt>
      <trkpt lat="43.5663" lon="1.47175">
        <ele>151.615422</ele>
        <time>2020-12-03T20:34:27.820Z</time>
      </trkpt>
      <trkpt lat="43.56741" lon="1.47175">
        <ele>152.105685</ele>
        <time>2020-12-03T20:34:56.747Z</time>
      </trkpt>
      <trkpt lat="43.56788" lon="1.4717">
        <ele>152.4313</ele>
        <time>2020-12-03T20:35:08.913Z</time>
      </trkpt>
      <trkpt lat="43.56822" lon="1.47164">
        <ele>152.675233</ele>
        <time>2020-12-03T20:35:17.863Z</time>
      </trkpt>
      <trkpt lat="43.56838" lon="1.47161">
        <ele>152.787947</ele>
        <time>2020-12-03T20:35:21.900Z</time>
      </trkpt>
      <trkpt lat="43.56854" lon="1.47157">
        <ele>152.899815</ele>
        <time>2020-12-03T20:35:26.082Z</time>
      </trkpt>
      <trkpt lat="43.56864" lon="1.47152">
        <ele>152.972567</ele>
        <time>2020-12-03T20:35:28.768Z</time>
      </trkpt>
      <trkpt lat="43.56885" lon="1.47135">
        <ele>153.134993</ele>
        <time>2020-12-03T20:35:34.908Z</time>
      </trkpt>
      <trkpt lat="43.5697" lon="1.47074">
        <ele>153.751525</ele>
        <time>2020-12-03T20:35:59.636Z</time>
      </trkpt>
      <trkpt lat="43.56993" lon="1.47058">
        <ele>153.915624</ele>
        <time>2020-12-03T20:36:06.281Z</time>
      </trkpt>
      <trkpt lat="43.57022" lon="1.47043">
        <ele>154.114361</ele>
        <time>2020-12-03T20:36:13.934Z</time>
      </trkpt>
      <trkpt lat="43.57019" lon="1.47036">
        <ele>154.153056</ele>
        <time>2020-12-03T20:36:15.473Z</time>
      </trkpt>
      <trkpt lat="43.57014" lon="1.47018">
        <ele>154.172884</ele>
        <time>2020-12-03T20:36:18.940Z</time>
      </trkpt>
      <trkpt lat="43.57012" lon="1.47012">
        <ele>154.173141</ele>
        <time>2020-12-03T20:36:20.064Z</time>
      </trkpt>
      <trkpt lat="43.57024" lon="1.47005">
        <ele>154.17388</ele>
        <time>2020-12-03T20:36:23.195Z</time>
      </trkpt>
      <trkpt lat="43.5706" lon="1.46992">
        <ele>154.175983</ele>
        <time>2020-12-03T20:36:32.139Z</time>
      </trkpt>
      <trkpt lat="43.57095" lon="1.46986">
        <ele>154.177961</ele>
        <time>2020-12-03T20:36:40.387Z</time>
      </trkpt>
      <trkpt lat="43.57265" lon="1.46977">
        <ele>153.295965</ele>
        <time>2020-12-03T20:37:15.891Z</time>
      </trkpt>
      <trkpt lat="43.57382" lon="1.46931">
        <ele>152.192983</ele>
        <time>2020-12-03T20:37:39.100Z</time>
      </trkpt>
      <trkpt lat="43.57401" lon="1.46931">
        <ele>152.054504</ele>
        <time>2020-12-03T20:37:43.188Z</time>
      </trkpt>
      <trkpt lat="43.57405" lon="1.46928">
        <ele>152.021358</ele>
        <time>2020-12-03T20:37:43.884Z</time>
      </trkpt>
      <trkpt lat="43.57437" lon="1.46902">
        <ele>151.744295</ele>
        <time>2020-12-03T20:37:51.475Z</time>
      </trkpt>
      <trkpt lat="43.57449" lon="1.46892">
        <ele>151.639386</ele>
        <time>2020-12-03T20:37:54.553Z</time>
      </trkpt>
      <trkpt lat="43.57454" lon="1.46884">
        <ele>151.583837</ele>
        <time>2020-12-03T20:37:56.529Z</time>
      </trkpt>
      <trkpt lat="43.57468" lon="1.46859">
        <ele>151.411689</ele>
        <time>2020-12-03T20:38:01.025Z</time>
      </trkpt>
      <trkpt lat="43.57476" lon="1.46846">
        <ele>151.318875</ele>
        <time>2020-12-03T20:38:04.145Z</time>
      </trkpt>
      <trkpt lat="43.57493" lon="1.46818">
        <ele>151.12398</ele>
        <time>2020-12-03T20:38:09.430Z</time>
      </trkpt>
      <trkpt lat="43.57514" lon="1.4678">
        <ele>151.199227</ele>
        <time>2020-12-03T20:38:16.877Z</time>
      </trkpt>
      <trkpt lat="43.57522" lon="1.46763">
        <ele>151.242578</ele>
        <time>2020-12-03T20:38:20.788Z</time>
      </trkpt>
      <trkpt lat="43.57539" lon="1.46728">
        <ele>151.332477</ele>
        <time>2020-12-03T20:38:28.463Z</time>
      </trkpt>
      <trkpt lat="43.57553" lon="1.46701">
        <ele>151.404292</ele>
        <time>2020-12-03T20:38:34.462Z</time>
      </trkpt>
      <trkpt lat="43.57568" lon="1.46673">
        <ele>151.478689</ele>
        <time>2020-12-03T20:38:40.750Z</time>
      </trkpt>
      <trkpt lat="43.57578" lon="1.46661">
        <ele>151.518664</ele>
        <time>2020-12-03T20:38:44.323Z</time>
      </trkpt>
      <trkpt lat="43.5759" lon="1.46649">
        <ele>151.561365</ele>
        <time>2020-12-03T20:38:47.786Z</time>
      </trkpt>
      <trkpt lat="43.57619" lon="1.46623">
        <ele>151.680244</ele>
        <time>2020-12-03T20:38:56.058Z</time>
      </trkpt>
      <trkpt lat="43.57624" lon="1.46619">
        <ele>151.709513</ele>
        <time>2020-12-03T20:38:57.311Z</time>
      </trkpt>
      <trkpt lat="43.57661" lon="1.46601">
        <ele>151.899026</ele>
        <time>2020-12-03T20:39:06.954Z</time>
      </trkpt>
      <trkpt lat="43.57723" lon="1.46589">
        <ele>152.198414</ele>
        <time>2020-12-03T20:39:22.552Z</time>
      </trkpt>
      <trkpt lat="43.578" lon="1.46586">
        <ele>152.532814</ele>
        <time>2020-12-03T20:39:41.576Z</time>
      </trkpt>
      <trkpt lat="43.57803" lon="1.46586">
        <ele>152.540462</ele>
        <time>2020-12-03T20:39:42.555Z</time>
      </trkpt>
      <trkpt lat="43.57875" lon="1.4656">
        <ele>152.710993</ele>
        <time>2020-12-03T20:40:00.602Z</time>
      </trkpt>
      <trkpt lat="43.57953" lon="1.46519">
        <ele>152.903467</ele>
        <time>2020-12-03T20:40:19.474Z</time>
      </trkpt>
      <trkpt lat="43.5808" lon="1.46376">
        <ele>152.626791</ele>
        <time>2020-12-03T20:40:54.774Z</time>
      </trkpt>
      <trkpt lat="43.58091" lon="1.46365">
        <ele>152.60207</ele>
        <time>2020-12-03T20:40:57.779Z</time>
      </trkpt>
      <trkpt lat="43.58098" lon="1.46359">
        <ele>152.587016</ele>
        <time>2020-12-03T20:40:59.644Z</time>
      </trkpt>
      <trkpt lat="43.58134" lon="1.46323">
        <ele>152.4889</ele>
        <time>2020-12-03T20:41:09.441Z</time>
      </trkpt>
      <trkpt lat="43.58155" lon="1.46304">
        <ele>152.434185</ele>
        <time>2020-12-03T20:41:14.980Z</time>
      </trkpt>
      <trkpt lat="43.58156" lon="1.46304">
        <ele>152.433718</ele>
        <time>2020-12-03T20:41:15.019Z</time>
      </trkpt>
      <trkpt lat="43.58164" lon="1.46298">
        <ele>152.412664</ele>
        <time>2020-12-03T20:41:17.114Z</time>
      </trkpt>
      <trkpt lat="43.58165" lon="1.46298">
        <ele>152.411851</ele>
        <time>2020-12-03T20:41:17.186Z</time>
      </trkpt>
      <trkpt lat="43.58188" lon="1.46282">
        <ele>152.354321</ele>
        <time>2020-12-03T20:41:23.003Z</time>
      </trkpt>
      <trkpt lat="43.58206" lon="1.46271">
        <ele>152.312146</ele>
        <time>2020-12-03T20:41:27.133Z</time>
      </trkpt>
      <trkpt lat="43.58211" lon="1.46268">
        <ele>152.298852</ele>
        <time>2020-12-03T20:41:28.399Z</time>
      </trkpt>
      <trkpt lat="43.58218" lon="1.46264">
        <ele>152.282412</ele>
        <time>2020-12-03T20:41:30.392Z</time>
      </trkpt>
      <trkpt lat="43.58427" lon="1.46156">
        <ele>151.104335</ele>
        <time>2020-12-03T20:42:16.415Z</time>
      </trkpt>
      <trkpt lat="43.58445" lon="1.46147">
        <ele>151.074001</ele>
        <time>2020-12-03T20:42:20.257Z</time>
      </trkpt>
      <trkpt lat="43.58509" lon="1.46121">
        <ele>150.971933</ele>
        <time>2020-12-03T20:42:34.316Z</time>
      </trkpt>
      <trkpt lat="43.58572" lon="1.46098">
        <ele>150.87257</ele>
        <time>2020-12-03T20:42:48.764Z</time>
      </trkpt>
      <trkpt lat="43.58596" lon="1.46087">
        <ele>150.835045</ele>
        <time>2020-12-03T20:42:54.815Z</time>
      </trkpt>
      <trkpt lat="43.58612" lon="1.46081">
        <ele>150.945363</ele>
        <time>2020-12-03T20:42:59.277Z</time>
      </trkpt>
      <trkpt lat="43.5869" lon="1.46052">
        <ele>151.499382</ele>
        <time>2020-12-03T20:43:20.555Z</time>
      </trkpt>
      <trkpt lat="43.58706" lon="1.46045">
        <ele>151.614995</ele>
        <time>2020-12-03T20:43:24.800Z</time>
      </trkpt>
      <trkpt lat="43.58718" lon="1.46041">
        <ele>151.701708</ele>
        <time>2020-12-03T20:43:28.639Z</time>
      </trkpt>
      <trkpt lat="43.5872" lon="1.4604">
        <ele>151.712796</ele>
        <time>2020-12-03T20:43:28.971Z</time>
      </trkpt>
      <trkpt lat="43.58797" lon="1.4603">
        <ele>152.116085</ele>
        <time>2020-12-03T20:43:48.894Z</time>
      </trkpt>
      <trkpt lat="43.58807" lon="1.4602">
        <ele>152.138189</ele>
        <time>2020-12-03T20:43:51.702Z</time>
      </trkpt>
      <trkpt lat="43.58808" lon="1.4602">
        <ele>152.140467</ele>
        <time>2020-12-03T20:43:51.938Z</time>
      </trkpt>
      <trkpt lat="43.58816" lon="1.46019">
        <ele>152.156051</ele>
        <time>2020-12-03T20:43:54.216Z</time>
      </trkpt>
      <trkpt lat="43.59029" lon="1.45981">
        <ele>152.485654</ele>
        <time>2020-12-03T20:44:41.766Z</time>
      </trkpt>
      <trkpt lat="43.59082" lon="1.45968">
        <ele>152.541643</ele>
        <time>2020-12-03T20:44:53.848Z</time>
      </trkpt>
      <trkpt lat="43.59095" lon="1.45965">
        <ele>152.55517</ele>
        <time>2020-12-03T20:44:56.890Z</time>
      </trkpt>
      <trkpt lat="43.59116" lon="1.45957">
        <ele>152.577569</ele>
        <time>2020-12-03T20:45:01.873Z</time>
      </trkpt>
      <trkpt lat="43.59145" lon="1.45921">
        <ele>152.787649</ele>
        <time>2020-12-03T20:45:11.527Z</time>
      </trkpt>
      <trkpt lat="43.59148" lon="1.45917">
        <ele>152.81567</ele>
        <time>2020-12-03T20:45:12.450Z</time>
      </trkpt>
      <trkpt lat="43.59152" lon="1.45912">
        <ele>152.848562</ele>
        <time>2020-12-03T20:45:13.935Z</time>
      </trkpt>
      <trkpt lat="43.59164" lon="1.45897">
        <ele>152.956543</ele>
        <time>2020-12-03T20:45:18.162Z</time>
      </trkpt>
      <trkpt lat="43.59236" lon="1.45822">
        <ele>153.558502</ele>
        <time>2020-12-03T20:45:42.140Z</time>
      </trkpt>
      <trkpt lat="43.59278" lon="1.4578">
        <ele>153.761835</ele>
        <time>2020-12-03T20:45:56.283Z</time>
      </trkpt>
      <trkpt lat="43.59372" lon="1.45686">
        <ele>153.637723</ele>
        <time>2020-12-03T20:46:21.857Z</time>
      </trkpt>
      <trkpt lat="43.59402" lon="1.45652">
        <ele>153.596676</ele>
        <time>2020-12-03T20:46:29.771Z</time>
      </trkpt>
      <trkpt lat="43.59406" lon="1.45648">
        <ele>153.591454</ele>
        <time>2020-12-03T20:46:30.818Z</time>
      </trkpt>
      <trkpt lat="43.59408" lon="1.45646">
        <ele>153.587082</ele>
        <time>2020-12-03T20:46:31.318Z</time>
      </trkpt>
      <trkpt lat="43.5941" lon="1.45643">
        <ele>153.570694</ele>
        <time>2020-12-03T20:46:32.000Z</time>
      </trkpt>
      <trkpt lat="43.59412" lon="1.45638">
        <ele>153.549186</ele>
        <time>2020-12-03T20:46:32.728Z</time>
      </trkpt>
      <trkpt lat="43.59431" lon="1.45588">
        <ele>153.342642</ele>
        <time>2020-12-03T20:46:40.951Z</time>
      </trkpt>
      <trkpt lat="43.59433" lon="1.45585">
        <ele>153.330594</ele>
        <time>2020-12-03T20:46:41.309Z</time>
      </trkpt>
      <trkpt lat="43.59435" lon="1.45583">
        <ele>153.316148</ele>
        <time>2020-12-03T20:46:41.898Z</time>
      </trkpt>
      <trkpt lat="43.59461" lon="1.45593">
        <ele>153.182541</ele>
        <time>2020-12-03T20:46:47.371Z</time>
      </trkpt>
      <trkpt lat="43.59463" lon="1.45593">
        <ele>153.170392</ele>
        <time>2020-12-03T20:46:47.839Z</time>
      </trkpt>
      <trkpt lat="43.59468" lon="1.45591">
        <ele>153.143423</ele>
        <time>2020-12-03T20:46:48.785Z</time>
      </trkpt>
      <trkpt lat="43.59491" lon="1.45586">
        <ele>153.027318</ele>
        <time>2020-12-03T20:46:53.980Z</time>
      </trkpt>
      <trkpt lat="43.59544" lon="1.45575">
        <ele>152.755954</ele>
        <time>2020-12-03T20:47:04.910Z</time>
      </trkpt>
      <trkpt lat="43.59575" lon="1.45571">
        <ele>152.781411</ele>
        <time>2020-12-03T20:47:12.655Z</time>
      </trkpt>
      <trkpt lat="43.59615" lon="1.45571">
        <ele>153.026917</ele>
        <time>2020-12-03T20:47:23.295Z</time>
      </trkpt>
      <trkpt lat="43.59626" lon="1.45573">
        <ele>153.098364</ele>
        <time>2020-12-03T20:47:26.569Z</time>
      </trkpt>
      <trkpt lat="43.59642" lon="1.45575">
        <ele>153.197681</ele>
        <time>2020-12-03T20:47:30.854Z</time>
      </trkpt>
      <trkpt lat="43.59668" lon="1.45581">
        <ele>153.358232</ele>
        <time>2020-12-03T20:47:37.899Z</time>
      </trkpt>
      <trkpt lat="43.59668" lon="1.45575">
        <ele>153.382988</ele>
        <time>2020-12-03T20:47:38.922Z</time>
      </trkpt>
      <trkpt lat="43.59673" lon="1.45576">
        <ele>153.412399</ele>
        <time>2020-12-03T20:47:40.171Z</time>
      </trkpt>
      <trkpt lat="43.59678" lon="1.45576">
        <ele>153.442474</ele>
        <time>2020-12-03T20:47:41.495Z</time>
      </trkpt>
      <trkpt lat="43.59692" lon="1.45588">
        <ele>153.543978</ele>
        <time>2020-12-03T20:47:45.827Z</time>
      </trkpt>
      <trkpt lat="43.59695" lon="1.45589">
        <ele>153.562842</ele>
        <time>2020-12-03T20:47:46.597Z</time>
      </trkpt>
      <trkpt lat="43.59703" lon="1.45594">
        <ele>153.6165</ele>
        <time>2020-12-03T20:47:48.838Z</time>
      </trkpt>
      <trkpt lat="43.59711" lon="1.45599">
        <ele>153.674643</ele>
        <time>2020-12-03T20:47:51.267Z</time>
      </trkpt>
      <trkpt lat="43.59723" lon="1.45601">
        <ele>153.747944</ele>
        <time>2020-12-03T20:47:54.303Z</time>
      </trkpt>
      <trkpt lat="43.59761" lon="1.45602">
        <ele>153.929187</ele>
        <time>2020-12-03T20:48:04.060Z</time>
      </trkpt>
      <trkpt lat="43.59764" lon="1.45602">
        <ele>153.94538</ele>
        <time>2020-12-03T20:48:04.990Z</time>
      </trkpt>
      <trkpt lat="43.59781" lon="1.45607">
        <ele>154.020955</ele>
        <time>2020-12-03T20:48:09.341Z</time>
      </trkpt>
      <trkpt lat="43.5979" lon="1.45608">
        <ele>154.059573</ele>
        <time>2020-12-03T20:48:11.502Z</time>
      </trkpt>
      <trkpt lat="43.59846" lon="1.45607">
        <ele>154.304662</ele>
        <time>2020-12-03T20:48:25.068Z</time>
      </trkpt>
      <trkpt lat="43.5988" lon="1.45607">
        <ele>154.453466</ele>
        <time>2020-12-03T20:48:32.581Z</time>
      </trkpt>
      <trkpt lat="43.5991" lon="1.45606">
        <ele>154.584332</ele>
        <time>2020-12-03T20:48:39.201Z</time>
      </trkpt>
      <trkpt lat="43.59929" lon="1.45605">
        <ele>154.766712</ele>
        <time>2020-12-03T20:48:43.772Z</time>
      </trkpt>
      <trkpt lat="43.59944" lon="1.45601">
        <ele>154.926352</ele>
        <time>2020-12-03T20:48:48.057Z</time>
      </trkpt>
      <trkpt lat="43.59959" lon="1.456">
        <ele>155.073759</ele>
        <time>2020-12-03T20:48:52.276Z</time>
      </trkpt>
      <trkpt lat="43.59961" lon="1.45599">
        <ele>155.097449</ele>
        <time>2020-12-03T20:48:52.992Z</time>
      </trkpt>
      <trkpt lat="43.59964" lon="1.45598">
        <ele>155.123958</ele>
        <time>2020-12-03T20:48:53.850Z</time>
      </trkpt>
      <trkpt lat="43.59969" lon="1.456">
        <ele>155.177315</ele>
        <time>2020-12-03T20:48:55.419Z</time>
      </trkpt>
      <trkpt lat="43.60061" lon="1.456">
        <ele>156.104754</ele>
        <time>2020-12-03T20:49:22.395Z</time>
      </trkpt>
      <trkpt lat="43.60072" lon="1.45603">
        <ele>156.215233</ele>
        <time>2020-12-03T20:49:25.489Z</time>
      </trkpt>
      <trkpt lat="43.60084" lon="1.45607">
        <ele>156.33534</ele>
        <time>2020-12-03T20:49:29.018Z</time>
      </trkpt>
      <trkpt lat="43.60095" lon="1.45611">
        <ele>156.393293</ele>
        <time>2020-12-03T20:49:31.975Z</time>
      </trkpt>
      <trkpt lat="43.6011" lon="1.45618">
        <ele>156.406539</ele>
        <time>2020-12-03T20:49:36.015Z</time>
      </trkpt>
      <trkpt lat="43.60121" lon="1.45621">
        <ele>156.41644</ele>
        <time>2020-12-03T20:49:38.995Z</time>
      </trkpt>
      <trkpt lat="43.60142" lon="1.45626">
        <ele>156.43431</ele>
        <time>2020-12-03T20:49:43.960Z</time>
      </trkpt>
      <trkpt lat="43.60163" lon="1.45632">
        <ele>156.453135</ele>
        <time>2020-12-03T20:49:49.374Z</time>
      </trkpt>
      <trkpt lat="43.60171" lon="1.45635">
        <ele>156.460199</ele>
        <time>2020-12-03T20:49:51.176Z</time>
      </trkpt>
      <trkpt lat="43.60205" lon="1.45643">
        <ele>156.489034</ele>
        <time>2020-12-03T20:49:58.915Z</time>
      </trkpt>
      <trkpt lat="43.60257" lon="1.45652">
        <ele>156.534147</ele>
        <time>2020-12-03T20:50:10.288Z</time>
      </trkpt>
      <trkpt lat="43.60258" lon="1.45647">
        <ele>156.537738</ele>
        <time>2020-12-03T20:50:11.130Z</time>
      </trkpt>
      <trkpt lat="43.6026" lon="1.45615">
        <ele>156.399239</ele>
        <time>2020-12-03T20:50:15.697Z</time>
      </trkpt>
      <trkpt lat="43.60266" lon="1.45538">
        <ele>155.988955</ele>
        <time>2020-12-03T20:50:26.481Z</time>
      </trkpt>
      <trkpt lat="43.60268" lon="1.4551">
        <ele>155.835952</ele>
        <time>2020-12-03T20:50:30.551Z</time>
      </trkpt>
      <trkpt lat="43.60274" lon="1.45439">
        <ele>155.456175</ele>
        <time>2020-12-03T20:50:40.968Z</time>
      </trkpt>
      <trkpt lat="43.60274" lon="1.45431">
        <ele>155.411984</ele>
        <time>2020-12-03T20:50:42.172Z</time>
      </trkpt>
      <trkpt lat="43.60275" lon="1.45424">
        <ele>155.376987</ele>
        <time>2020-12-03T20:50:43.271Z</time>
      </trkpt>
      <trkpt lat="43.60311" lon="1.45312">
        <ele>154.895351</ele>
        <time>2020-12-03T20:51:04.317Z</time>
      </trkpt>
      <trkpt lat="43.60336" lon="1.45239">
        <ele>154.616867</ele>
        <time>2020-12-03T20:51:17.030Z</time>
      </trkpt>
      <trkpt lat="43.60359" lon="1.45164">
        <ele>154.311461</ele>
        <time>2020-12-03T20:51:28.295Z</time>
      </trkpt>
      <trkpt lat="43.60361" lon="1.45155">
        <ele>154.235857</ele>
        <time>2020-12-03T20:51:29.792Z</time>
      </trkpt>
      <trkpt lat="43.60375" lon="1.45104">
        <ele>153.800113</ele>
        <time>2020-12-03T20:51:37.359Z</time>
      </trkpt>
      <trkpt lat="43.60376" lon="1.45099">
        <ele>153.754717</ele>
        <time>2020-12-03T20:51:38.072Z</time>
      </trkpt>
      <trkpt lat="43.60376" lon="1.45095">
        <ele>153.727649</ele>
        <time>2020-12-03T20:51:38.498Z</time>
      </trkpt>
      <trkpt lat="43.60374" lon="1.45078">
        <ele>153.59336</ele>
        <time>2020-12-03T20:51:40.769Z</time>
      </trkpt>
      <trkpt lat="43.6037" lon="1.45071">
        <ele>153.519814</ele>
        <time>2020-12-03T20:51:42.098Z</time>
      </trkpt>
      <trkpt lat="43.60366" lon="1.45062">
        <ele>153.435132</ele>
        <time>2020-12-03T20:51:43.920Z</time>
      </trkpt>
      <trkpt lat="43.60365" lon="1.45058">
        <ele>153.40147</ele>
        <time>2020-12-03T20:51:44.500Z</time>
      </trkpt>
      <trkpt lat="43.60365" lon="1.45053">
        <ele>153.357705</ele>
        <time>2020-12-03T20:51:45.209Z</time>
      </trkpt>
      <trkpt lat="43.60366" lon="1.45045">
        <ele>153.297041</ele>
        <time>2020-12-03T20:51:46.221Z</time>
      </trkpt>
      <trkpt lat="43.60373" lon="1.45005">
        <ele>152.970463</ele>
        <time>2020-12-03T20:51:52.416Z</time>
      </trkpt>
      <trkpt lat="43.60374" lon="1.44991">
        <ele>152.859451</ele>
        <time>2020-12-03T20:51:54.314Z</time>
      </trkpt>
      <trkpt lat="43.60376" lon="1.44979">
        <ele>152.75709</ele>
        <time>2020-12-03T20:51:56.256Z</time>
      </trkpt>
      <trkpt lat="43.60384" lon="1.44931">
        <ele>152.381854</ele>
        <time>2020-12-03T20:52:03.376Z</time>
      </trkpt>
      <trkpt lat="43.60389" lon="1.4491">
        <ele>152.381854</ele>
        <time>2020-12-03T20:52:06.615Z</time>
      </trkpt>
      <trkpt lat="43.60395" lon="1.4488">
        <ele>152.381854</ele>
        <time>2020-12-03T20:52:11.194Z</time>
      </trkpt>
      <trkpt lat="43.60398" lon="1.44861">
        <ele>152.381854</ele>
        <time>2020-12-03T20:52:14.181Z</time>
      </trkpt>
      <trkpt lat="43.60405" lon="1.44827">
        <ele>152.381854</ele>
        <time>2020-12-03T20:52:20.800Z</time>
      </trkpt>
      <trkpt lat="43.60422" lon="1.44736">
        <ele>152.381854</ele>
        <time>2020-12-03T20:52:39.848Z</time>
      </trkpt>
      <trkpt lat="43.60438" lon="1.44736">
        <ele>152.381854</ele>
        <time>2020-12-03T20:52:44.626Z</time>
      </trkpt>
      <trkpt lat="43.6045" lon="1.44736">
        <ele>152.381854</ele>
        <time>2020-12-03T20:52:48.111Z</time>
      </trkpt>
    </trkseg>
  </trk>
</gpx>